<?xml version="1.0" encoding="UTF-8"?>
<gpx version="1.1" creator="https://www.youtrack.es" xsi:schemaLocation="http://www.topografix.com/GPX/1/1 http://www.topografix.com/GPX/1/1/gpx.xsd http://www.garmin.com/xmlschemas/GpxExtensions/v3 http://www.garmin.com/xmlschemas/GpxExtensionsv3.xsd http://www.garmin.com/xmlschemas/TrackPointExtension/v1 http://www.garmin.com/xmlschemas/TrackPointExtensionv1.xsd" xmlns:gpxtpx="http://www.garmin.com/xmlschemas/TrackPointExtension/v1" xmlns:gpxx="http://www.garmin.com/xmlschemas/GpxExtensions/v3" xmlns:xsi="http://www.w3.org/2001/XMLSchema-instance">
  <metadata>
    <link href="https://www.youtrack.es">
      <text>YouTrack.es</text>
    </link>
    <time>2026-05-08T10:53:02Z</time>
  </metadata>
  <trk>
    <src>https://www.youtrack.es</src>
    <link href="https://www.youtrack.es/ruta/37996-circular-gabarres">
      <text>YouTrack.es</text>
    </link>
    <trkseg>
      <trkpt lat="42.00809" lon="2.81692">
        <ele>74.6</ele>
        <time>2022-11-04 10:22:25</time>
      </trkpt>
      <trkpt lat="42.00809" lon="2.81692">
        <ele>74.6</ele>
        <time>2022-11-04 10:22:34</time>
      </trkpt>
      <trkpt lat="42.00809" lon="2.81692">
        <ele>74.6</ele>
        <time>2022-11-04 10:22:45</time>
      </trkpt>
      <trkpt lat="42.00809" lon="2.81692">
        <ele>74.6</ele>
        <time>2022-11-04 10:22:56</time>
      </trkpt>
      <trkpt lat="42.00809" lon="2.81692">
        <ele>74.4</ele>
        <time>2022-11-04 10:23:10</time>
      </trkpt>
      <trkpt lat="42.00809" lon="2.81692">
        <ele>74.4</ele>
        <time>2022-11-04 10:23:30</time>
      </trkpt>
      <trkpt lat="42.00809" lon="2.81692">
        <ele>74.2</ele>
        <time>2022-11-04 10:23:44</time>
      </trkpt>
      <trkpt lat="42.00809" lon="2.81692">
        <ele>74.4</ele>
        <time>2022-11-04 10:23:52</time>
      </trkpt>
      <trkpt lat="42.00815" lon="2.81693">
        <ele>74.4</ele>
        <time>2022-11-04 10:24:00</time>
      </trkpt>
      <trkpt lat="42.00832" lon="2.81695">
        <ele>74.4</ele>
        <time>2022-11-04 10:24:07</time>
      </trkpt>
      <trkpt lat="42.0085" lon="2.81697">
        <ele>74.4</ele>
        <time>2022-11-04 10:24:13</time>
      </trkpt>
      <trkpt lat="42.0087" lon="2.81706">
        <ele>74.4</ele>
        <time>2022-11-04 10:24:20</time>
      </trkpt>
      <trkpt lat="42.00881" lon="2.81723">
        <ele>74.6</ele>
        <time>2022-11-04 10:24:26</time>
      </trkpt>
      <trkpt lat="42.00899" lon="2.81736">
        <ele>74.6</ele>
        <time>2022-11-04 10:24:33</time>
      </trkpt>
      <trkpt lat="42.00929" lon="2.81756">
        <ele>73.8</ele>
        <time>2022-11-04 10:24:43</time>
      </trkpt>
      <trkpt lat="42.00946" lon="2.8177">
        <ele>74</ele>
        <time>2022-11-04 10:24:49</time>
      </trkpt>
      <trkpt lat="42.00966" lon="2.81783">
        <ele>74</ele>
        <time>2022-11-04 10:24:56</time>
      </trkpt>
      <trkpt lat="42.0099" lon="2.818">
        <ele>74.4</ele>
        <time>2022-11-04 10:25:04</time>
      </trkpt>
      <trkpt lat="42.0101" lon="2.81814">
        <ele>74.2</ele>
        <time>2022-11-04 10:25:11</time>
      </trkpt>
      <trkpt lat="42.01029" lon="2.81829">
        <ele>74.4</ele>
        <time>2022-11-04 10:25:18</time>
      </trkpt>
      <trkpt lat="42.01046" lon="2.81843">
        <ele>74.4</ele>
        <time>2022-11-04 10:25:24</time>
      </trkpt>
      <trkpt lat="42.01074" lon="2.81861">
        <ele>74.4</ele>
        <time>2022-11-04 10:25:33</time>
      </trkpt>
      <trkpt lat="42.01093" lon="2.81871">
        <ele>74.6</ele>
        <time>2022-11-04 10:25:40</time>
      </trkpt>
      <trkpt lat="42.01111" lon="2.81885">
        <ele>74.6</ele>
        <time>2022-11-04 10:25:46</time>
      </trkpt>
      <trkpt lat="42.01132" lon="2.819">
        <ele>74.4</ele>
        <time>2022-11-04 10:25:52</time>
      </trkpt>
      <trkpt lat="42.01166" lon="2.81923">
        <ele>74.4</ele>
        <time>2022-11-04 10:26:01</time>
      </trkpt>
      <trkpt lat="42.01207" lon="2.81952">
        <ele>74.4</ele>
        <time>2022-11-04 10:26:11</time>
      </trkpt>
      <trkpt lat="42.0125" lon="2.8199">
        <ele>74</ele>
        <time>2022-11-04 10:26:21</time>
      </trkpt>
      <trkpt lat="42.01281" lon="2.82028">
        <ele>73.8</ele>
        <time>2022-11-04 10:26:30</time>
      </trkpt>
      <trkpt lat="42.01293" lon="2.8204">
        <ele>74.2</ele>
        <time>2022-11-04 10:26:33</time>
      </trkpt>
      <trkpt lat="42.01301" lon="2.82047">
        <ele>74</ele>
        <time>2022-11-04 10:26:35</time>
      </trkpt>
      <trkpt lat="42.01304" lon="2.82052">
        <ele>73.8</ele>
        <time>2022-11-04 10:26:36</time>
      </trkpt>
      <trkpt lat="42.01322" lon="2.82073">
        <ele>73.6</ele>
        <time>2022-11-04 10:26:41</time>
      </trkpt>
      <trkpt lat="42.01333" lon="2.82084">
        <ele>73.6</ele>
        <time>2022-11-04 10:26:44</time>
      </trkpt>
      <trkpt lat="42.0135" lon="2.82103">
        <ele>73.8</ele>
        <time>2022-11-04 10:26:49</time>
      </trkpt>
      <trkpt lat="42.01353" lon="2.82107">
        <ele>73.8</ele>
        <time>2022-11-04 10:26:50</time>
      </trkpt>
      <trkpt lat="42.01375" lon="2.82143">
        <ele>73.6</ele>
        <time>2022-11-04 10:26:58</time>
      </trkpt>
      <trkpt lat="42.0138" lon="2.82159">
        <ele>73.6</ele>
        <time>2022-11-04 10:27:01</time>
      </trkpt>
      <trkpt lat="42.01384" lon="2.82177">
        <ele>73.8</ele>
        <time>2022-11-04 10:27:04</time>
      </trkpt>
      <trkpt lat="42.01393" lon="2.82221">
        <ele>73.6</ele>
        <time>2022-11-04 10:27:12</time>
      </trkpt>
      <trkpt lat="42.014" lon="2.82252">
        <ele>73.4</ele>
        <time>2022-11-04 10:27:18</time>
      </trkpt>
      <trkpt lat="42.01401" lon="2.82258">
        <ele>73.4</ele>
        <time>2022-11-04 10:27:19</time>
      </trkpt>
      <trkpt lat="42.01408" lon="2.82297">
        <ele>73.4</ele>
        <time>2022-11-04 10:27:26</time>
      </trkpt>
      <trkpt lat="42.01421" lon="2.82348">
        <ele>73.2</ele>
        <time>2022-11-04 10:27:35</time>
      </trkpt>
      <trkpt lat="42.0144" lon="2.82411">
        <ele>73</ele>
        <time>2022-11-04 10:27:46</time>
      </trkpt>
      <trkpt lat="42.01447" lon="2.82433">
        <ele>73</ele>
        <time>2022-11-04 10:27:50</time>
      </trkpt>
      <trkpt lat="42.01452" lon="2.82441">
        <ele>73.2</ele>
        <time>2022-11-04 10:27:52</time>
      </trkpt>
      <trkpt lat="42.01458" lon="2.82448">
        <ele>73.2</ele>
        <time>2022-11-04 10:27:54</time>
      </trkpt>
      <trkpt lat="42.01468" lon="2.82462">
        <ele>73.2</ele>
        <time>2022-11-04 10:27:58</time>
      </trkpt>
      <trkpt lat="42.01481" lon="2.8247">
        <ele>73.4</ele>
        <time>2022-11-04 10:28:03</time>
      </trkpt>
      <trkpt lat="42.01497" lon="2.82473">
        <ele>73.2</ele>
        <time>2022-11-04 10:28:08</time>
      </trkpt>
      <trkpt lat="42.01525" lon="2.82474">
        <ele>73.8</ele>
        <time>2022-11-04 10:28:15</time>
      </trkpt>
      <trkpt lat="42.01562" lon="2.8247">
        <ele>74.4</ele>
        <time>2022-11-04 10:28:24</time>
      </trkpt>
      <trkpt lat="42.01586" lon="2.82467">
        <ele>74.6</ele>
        <time>2022-11-04 10:28:31</time>
      </trkpt>
      <trkpt lat="42.01607" lon="2.82468">
        <ele>74.2</ele>
        <time>2022-11-04 10:28:37</time>
      </trkpt>
      <trkpt lat="42.01614" lon="2.82472">
        <ele>74.2</ele>
        <time>2022-11-04 10:28:38</time>
      </trkpt>
      <trkpt lat="42.01633" lon="2.82481">
        <ele>74</ele>
        <time>2022-11-04 10:28:41</time>
      </trkpt>
      <trkpt lat="42.01682" lon="2.82501">
        <ele>73.8</ele>
        <time>2022-11-04 10:28:50</time>
      </trkpt>
      <trkpt lat="42.01714" lon="2.82513">
        <ele>73.8</ele>
        <time>2022-11-04 10:28:57</time>
      </trkpt>
      <trkpt lat="42.01736" lon="2.82522">
        <ele>73.4</ele>
        <time>2022-11-04 10:29:01</time>
      </trkpt>
      <trkpt lat="42.01754" lon="2.82528">
        <ele>73.4</ele>
        <time>2022-11-04 10:29:04</time>
      </trkpt>
      <trkpt lat="42.01795" lon="2.82541">
        <ele>73.2</ele>
        <time>2022-11-04 10:29:11</time>
      </trkpt>
      <trkpt lat="42.01801" lon="2.82542">
        <ele>73.2</ele>
        <time>2022-11-04 10:29:12</time>
      </trkpt>
      <trkpt lat="42.01807" lon="2.82544">
        <ele>73</ele>
        <time>2022-11-04 10:29:13</time>
      </trkpt>
      <trkpt lat="42.01828" lon="2.82552">
        <ele>73.2</ele>
        <time>2022-11-04 10:29:17</time>
      </trkpt>
      <trkpt lat="42.01856" lon="2.82565">
        <ele>73.6</ele>
        <time>2022-11-04 10:29:23</time>
      </trkpt>
      <trkpt lat="42.0188" lon="2.82572">
        <ele>73.4</ele>
        <time>2022-11-04 10:29:29</time>
      </trkpt>
      <trkpt lat="42.01912" lon="2.82582">
        <ele>73</ele>
        <time>2022-11-04 10:29:37</time>
      </trkpt>
      <trkpt lat="42.01937" lon="2.82591">
        <ele>72.8</ele>
        <time>2022-11-04 10:29:42</time>
      </trkpt>
      <trkpt lat="42.01949" lon="2.82594">
        <ele>72.4</ele>
        <time>2022-11-04 10:29:45</time>
      </trkpt>
      <trkpt lat="42.01964" lon="2.82596">
        <ele>72.2</ele>
        <time>2022-11-04 10:29:49</time>
      </trkpt>
      <trkpt lat="42.01976" lon="2.82596">
        <ele>72</ele>
        <time>2022-11-04 10:29:52</time>
      </trkpt>
      <trkpt lat="42.01994" lon="2.82598">
        <ele>72</ele>
        <time>2022-11-04 10:29:56</time>
      </trkpt>
      <trkpt lat="42.02023" lon="2.82595">
        <ele>71.4</ele>
        <time>2022-11-04 10:30:02</time>
      </trkpt>
      <trkpt lat="42.02032" lon="2.82594">
        <ele>71.2</ele>
        <time>2022-11-04 10:30:04</time>
      </trkpt>
      <trkpt lat="42.02064" lon="2.82592">
        <ele>70.2</ele>
        <time>2022-11-04 10:30:10</time>
      </trkpt>
      <trkpt lat="42.02075" lon="2.82591">
        <ele>69.4</ele>
        <time>2022-11-04 10:30:12</time>
      </trkpt>
      <trkpt lat="42.02086" lon="2.82591">
        <ele>69.2</ele>
        <time>2022-11-04 10:30:14</time>
      </trkpt>
      <trkpt lat="42.0211" lon="2.82594">
        <ele>68.6</ele>
        <time>2022-11-04 10:30:18</time>
      </trkpt>
      <trkpt lat="42.02153" lon="2.82602">
        <ele>68.8</ele>
        <time>2022-11-04 10:30:26</time>
      </trkpt>
      <trkpt lat="42.02182" lon="2.82608">
        <ele>69.6</ele>
        <time>2022-11-04 10:30:33</time>
      </trkpt>
      <trkpt lat="42.02197" lon="2.8261">
        <ele>70</ele>
        <time>2022-11-04 10:30:37</time>
      </trkpt>
      <trkpt lat="42.0223" lon="2.82618">
        <ele>70</ele>
        <time>2022-11-04 10:30:45</time>
      </trkpt>
      <trkpt lat="42.02266" lon="2.82629">
        <ele>70.4</ele>
        <time>2022-11-04 10:30:53</time>
      </trkpt>
      <trkpt lat="42.02271" lon="2.82632">
        <ele>70.4</ele>
        <time>2022-11-04 10:30:54</time>
      </trkpt>
      <trkpt lat="42.02277" lon="2.8264">
        <ele>70</ele>
        <time>2022-11-04 10:30:56</time>
      </trkpt>
      <trkpt lat="42.02293" lon="2.82652">
        <ele>70</ele>
        <time>2022-11-04 10:31:00</time>
      </trkpt>
      <trkpt lat="42.02318" lon="2.82663">
        <ele>69.8</ele>
        <time>2022-11-04 10:31:06</time>
      </trkpt>
      <trkpt lat="42.02322" lon="2.82665">
        <ele>69.8</ele>
        <time>2022-11-04 10:31:07</time>
      </trkpt>
      <trkpt lat="42.02343" lon="2.82675">
        <ele>69.8</ele>
        <time>2022-11-04 10:31:12</time>
      </trkpt>
      <trkpt lat="42.02357" lon="2.82679">
        <ele>70</ele>
        <time>2022-11-04 10:31:15</time>
      </trkpt>
      <trkpt lat="42.02365" lon="2.82679">
        <ele>70</ele>
        <time>2022-11-04 10:31:17</time>
      </trkpt>
      <trkpt lat="42.02379" lon="2.82684">
        <ele>70</ele>
        <time>2022-11-04 10:31:21</time>
      </trkpt>
      <trkpt lat="42.02385" lon="2.82687">
        <ele>70</ele>
        <time>2022-11-04 10:31:23</time>
      </trkpt>
      <trkpt lat="42.02405" lon="2.82695">
        <ele>70.2</ele>
        <time>2022-11-04 10:31:29</time>
      </trkpt>
      <trkpt lat="42.02431" lon="2.82706">
        <ele>69.8</ele>
        <time>2022-11-04 10:31:36</time>
      </trkpt>
      <trkpt lat="42.02464" lon="2.82725">
        <ele>70</ele>
        <time>2022-11-04 10:31:45</time>
      </trkpt>
      <trkpt lat="42.02494" lon="2.82741">
        <ele>70.8</ele>
        <time>2022-11-04 10:31:53</time>
      </trkpt>
      <trkpt lat="42.02514" lon="2.82755">
        <ele>70.6</ele>
        <time>2022-11-04 10:31:59</time>
      </trkpt>
      <trkpt lat="42.02522" lon="2.8276">
        <ele>70.6</ele>
        <time>2022-11-04 10:32:01</time>
      </trkpt>
      <trkpt lat="42.02541" lon="2.82773">
        <ele>70.8</ele>
        <time>2022-11-04 10:32:06</time>
      </trkpt>
      <trkpt lat="42.02545" lon="2.82775">
        <ele>70.6</ele>
        <time>2022-11-04 10:32:07</time>
      </trkpt>
      <trkpt lat="42.02556" lon="2.82784">
        <ele>70.6</ele>
        <time>2022-11-04 10:32:10</time>
      </trkpt>
      <trkpt lat="42.02562" lon="2.82791">
        <ele>70.4</ele>
        <time>2022-11-04 10:32:12</time>
      </trkpt>
      <trkpt lat="42.02571" lon="2.828">
        <ele>70.4</ele>
        <time>2022-11-04 10:32:15</time>
      </trkpt>
      <trkpt lat="42.02578" lon="2.82805">
        <ele>70.2</ele>
        <time>2022-11-04 10:32:17</time>
      </trkpt>
      <trkpt lat="42.026" lon="2.82822">
        <ele>70.4</ele>
        <time>2022-11-04 10:32:24</time>
      </trkpt>
      <trkpt lat="42.02622" lon="2.8284">
        <ele>69.6</ele>
        <time>2022-11-04 10:32:30</time>
      </trkpt>
      <trkpt lat="42.02626" lon="2.82843">
        <ele>69.4</ele>
        <time>2022-11-04 10:32:31</time>
      </trkpt>
      <trkpt lat="42.0266" lon="2.82873">
        <ele>68.8</ele>
        <time>2022-11-04 10:32:39</time>
      </trkpt>
      <trkpt lat="42.02676" lon="2.8289">
        <ele>68.2</ele>
        <time>2022-11-04 10:32:43</time>
      </trkpt>
      <trkpt lat="42.02684" lon="2.82898">
        <ele>68.4</ele>
        <time>2022-11-04 10:32:45</time>
      </trkpt>
      <trkpt lat="42.02687" lon="2.82903">
        <ele>68.6</ele>
        <time>2022-11-04 10:32:46</time>
      </trkpt>
      <trkpt lat="42.02698" lon="2.82921">
        <ele>69</ele>
        <time>2022-11-04 10:32:50</time>
      </trkpt>
      <trkpt lat="42.02706" lon="2.82932">
        <ele>69.4</ele>
        <time>2022-11-04 10:32:53</time>
      </trkpt>
      <trkpt lat="42.02713" lon="2.82944">
        <ele>70.2</ele>
        <time>2022-11-04 10:32:56</time>
      </trkpt>
      <trkpt lat="42.02716" lon="2.82947">
        <ele>70.4</ele>
        <time>2022-11-04 10:32:57</time>
      </trkpt>
      <trkpt lat="42.02728" lon="2.82963">
        <ele>71.6</ele>
        <time>2022-11-04 10:33:02</time>
      </trkpt>
      <trkpt lat="42.02731" lon="2.82967">
        <ele>71.8</ele>
        <time>2022-11-04 10:33:03</time>
      </trkpt>
      <trkpt lat="42.02746" lon="2.82989">
        <ele>72.6</ele>
        <time>2022-11-04 10:33:10</time>
      </trkpt>
      <trkpt lat="42.02748" lon="2.82992">
        <ele>72.6</ele>
        <time>2022-11-04 10:33:11</time>
      </trkpt>
      <trkpt lat="42.0276" lon="2.83011">
        <ele>73.4</ele>
        <time>2022-11-04 10:33:18</time>
      </trkpt>
      <trkpt lat="42.02774" lon="2.83037">
        <ele>73.4</ele>
        <time>2022-11-04 10:33:26</time>
      </trkpt>
      <trkpt lat="42.02785" lon="2.83064">
        <ele>73.4</ele>
        <time>2022-11-04 10:33:33</time>
      </trkpt>
      <trkpt lat="42.02799" lon="2.83106">
        <ele>72.8</ele>
        <time>2022-11-04 10:33:42</time>
      </trkpt>
      <trkpt lat="42.02811" lon="2.83147">
        <ele>72</ele>
        <time>2022-11-04 10:33:50</time>
      </trkpt>
      <trkpt lat="42.02823" lon="2.83175">
        <ele>71.6</ele>
        <time>2022-11-04 10:33:56</time>
      </trkpt>
      <trkpt lat="42.02829" lon="2.83189">
        <ele>71.8</ele>
        <time>2022-11-04 10:33:59</time>
      </trkpt>
      <trkpt lat="42.02851" lon="2.83232">
        <ele>71</ele>
        <time>2022-11-04 10:34:08</time>
      </trkpt>
      <trkpt lat="42.02857" lon="2.83243">
        <ele>70.4</ele>
        <time>2022-11-04 10:34:10</time>
      </trkpt>
      <trkpt lat="42.02872" lon="2.83266">
        <ele>69.4</ele>
        <time>2022-11-04 10:34:14</time>
      </trkpt>
      <trkpt lat="42.02875" lon="2.83272">
        <ele>69.2</ele>
        <time>2022-11-04 10:34:15</time>
      </trkpt>
      <trkpt lat="42.02886" lon="2.83292">
        <ele>68</ele>
        <time>2022-11-04 10:34:18</time>
      </trkpt>
      <trkpt lat="42.02897" lon="2.83313">
        <ele>67.4</ele>
        <time>2022-11-04 10:34:21</time>
      </trkpt>
      <trkpt lat="42.029" lon="2.83321">
        <ele>67</ele>
        <time>2022-11-04 10:34:22</time>
      </trkpt>
      <trkpt lat="42.02903" lon="2.83329">
        <ele>66.8</ele>
        <time>2022-11-04 10:34:23</time>
      </trkpt>
      <trkpt lat="42.02909" lon="2.83351">
        <ele>66.8</ele>
        <time>2022-11-04 10:34:26</time>
      </trkpt>
      <trkpt lat="42.02912" lon="2.83373">
        <ele>67.4</ele>
        <time>2022-11-04 10:34:30</time>
      </trkpt>
      <trkpt lat="42.02915" lon="2.834">
        <ele>67</ele>
        <time>2022-11-04 10:34:36</time>
      </trkpt>
      <trkpt lat="42.02925" lon="2.83418">
        <ele>67.4</ele>
        <time>2022-11-04 10:34:42</time>
      </trkpt>
      <trkpt lat="42.02929" lon="2.83424">
        <ele>67.2</ele>
        <time>2022-11-04 10:34:47</time>
      </trkpt>
      <trkpt lat="42.0293" lon="2.83425">
        <ele>67.2</ele>
        <time>2022-11-04 10:34:56</time>
      </trkpt>
      <trkpt lat="42.0293" lon="2.83425">
        <ele>67.2</ele>
        <time>2022-11-04 10:35:08</time>
      </trkpt>
      <trkpt lat="42.02936" lon="2.83434">
        <ele>67.2</ele>
        <time>2022-11-04 10:35:11</time>
      </trkpt>
      <trkpt lat="42.02943" lon="2.83454">
        <ele>67</ele>
        <time>2022-11-04 10:35:14</time>
      </trkpt>
      <trkpt lat="42.02945" lon="2.83463">
        <ele>66.6</ele>
        <time>2022-11-04 10:35:15</time>
      </trkpt>
      <trkpt lat="42.02961" lon="2.83521">
        <ele>66.6</ele>
        <time>2022-11-04 10:35:22</time>
      </trkpt>
      <trkpt lat="42.02979" lon="2.83565">
        <ele>67</ele>
        <time>2022-11-04 10:35:28</time>
      </trkpt>
      <trkpt lat="42.02994" lon="2.83599">
        <ele>67.8</ele>
        <time>2022-11-04 10:35:34</time>
      </trkpt>
      <trkpt lat="42.02998" lon="2.83608">
        <ele>68.2</ele>
        <time>2022-11-04 10:35:38</time>
      </trkpt>
      <trkpt lat="42.03005" lon="2.83623">
        <ele>67.6</ele>
        <time>2022-11-04 10:35:43</time>
      </trkpt>
      <trkpt lat="42.03017" lon="2.83643">
        <ele>67.8</ele>
        <time>2022-11-04 10:35:49</time>
      </trkpt>
      <trkpt lat="42.03028" lon="2.83654">
        <ele>68.4</ele>
        <time>2022-11-04 10:35:54</time>
      </trkpt>
      <trkpt lat="42.03042" lon="2.83673">
        <ele>68.4</ele>
        <time>2022-11-04 10:36:00</time>
      </trkpt>
      <trkpt lat="42.03065" lon="2.83706">
        <ele>67.6</ele>
        <time>2022-11-04 10:36:08</time>
      </trkpt>
      <trkpt lat="42.03068" lon="2.83711">
        <ele>67</ele>
        <time>2022-11-04 10:36:09</time>
      </trkpt>
      <trkpt lat="42.03077" lon="2.83724">
        <ele>66</ele>
        <time>2022-11-04 10:36:11</time>
      </trkpt>
      <trkpt lat="42.0308" lon="2.8373">
        <ele>65</ele>
        <time>2022-11-04 10:36:12</time>
      </trkpt>
      <trkpt lat="42.03083" lon="2.83737">
        <ele>64.6</ele>
        <time>2022-11-04 10:36:13</time>
      </trkpt>
      <trkpt lat="42.03083" lon="2.83759">
        <ele>64.4</ele>
        <time>2022-11-04 10:36:16</time>
      </trkpt>
      <trkpt lat="42.03074" lon="2.83774">
        <ele>65.2</ele>
        <time>2022-11-04 10:36:19</time>
      </trkpt>
      <trkpt lat="42.03063" lon="2.8378">
        <ele>65.6</ele>
        <time>2022-11-04 10:36:22</time>
      </trkpt>
      <trkpt lat="42.0306" lon="2.83782">
        <ele>65.8</ele>
        <time>2022-11-04 10:36:23</time>
      </trkpt>
      <trkpt lat="42.03057" lon="2.83783">
        <ele>66</ele>
        <time>2022-11-04 10:36:24</time>
      </trkpt>
      <trkpt lat="42.03049" lon="2.83788">
        <ele>66.6</ele>
        <time>2022-11-04 10:36:29</time>
      </trkpt>
      <trkpt lat="42.0304" lon="2.83794">
        <ele>66.8</ele>
        <time>2022-11-04 10:36:35</time>
      </trkpt>
      <trkpt lat="42.03037" lon="2.83796">
        <ele>67</ele>
        <time>2022-11-04 10:36:37</time>
      </trkpt>
      <trkpt lat="42.03028" lon="2.83809">
        <ele>66.8</ele>
        <time>2022-11-04 10:36:42</time>
      </trkpt>
      <trkpt lat="42.0302" lon="2.83838">
        <ele>66.6</ele>
        <time>2022-11-04 10:36:48</time>
      </trkpt>
      <trkpt lat="42.03019" lon="2.83885">
        <ele>66.4</ele>
        <time>2022-11-04 10:36:57</time>
      </trkpt>
      <trkpt lat="42.03019" lon="2.83909">
        <ele>65.8</ele>
        <time>2022-11-04 10:37:01</time>
      </trkpt>
      <trkpt lat="42.03019" lon="2.8393">
        <ele>65.4</ele>
        <time>2022-11-04 10:37:04</time>
      </trkpt>
      <trkpt lat="42.0302" lon="2.83957">
        <ele>64.8</ele>
        <time>2022-11-04 10:37:08</time>
      </trkpt>
      <trkpt lat="42.03019" lon="2.83985">
        <ele>64.2</ele>
        <time>2022-11-04 10:37:12</time>
      </trkpt>
      <trkpt lat="42.03016" lon="2.8402">
        <ele>64</ele>
        <time>2022-11-04 10:37:17</time>
      </trkpt>
      <trkpt lat="42.03017" lon="2.84034">
        <ele>63.8</ele>
        <time>2022-11-04 10:37:19</time>
      </trkpt>
      <trkpt lat="42.03018" lon="2.84041">
        <ele>63.6</ele>
        <time>2022-11-04 10:37:20</time>
      </trkpt>
      <trkpt lat="42.03023" lon="2.84091">
        <ele>63</ele>
        <time>2022-11-04 10:37:27</time>
      </trkpt>
      <trkpt lat="42.03021" lon="2.84132">
        <ele>63</ele>
        <time>2022-11-04 10:37:33</time>
      </trkpt>
      <trkpt lat="42.03019" lon="2.84164">
        <ele>62.6</ele>
        <time>2022-11-04 10:37:38</time>
      </trkpt>
      <trkpt lat="42.0302" lon="2.84181">
        <ele>62.6</ele>
        <time>2022-11-04 10:37:41</time>
      </trkpt>
      <trkpt lat="42.03021" lon="2.84201">
        <ele>62.6</ele>
        <time>2022-11-04 10:37:46</time>
      </trkpt>
      <trkpt lat="42.03022" lon="2.84225">
        <ele>61.4</ele>
        <time>2022-11-04 10:37:50</time>
      </trkpt>
      <trkpt lat="42.03021" lon="2.84245">
        <ele>61.2</ele>
        <time>2022-11-04 10:37:53</time>
      </trkpt>
      <trkpt lat="42.03018" lon="2.84263">
        <ele>61.8</ele>
        <time>2022-11-04 10:37:56</time>
      </trkpt>
      <trkpt lat="42.03016" lon="2.84303">
        <ele>61.8</ele>
        <time>2022-11-04 10:38:03</time>
      </trkpt>
      <trkpt lat="42.03017" lon="2.8433">
        <ele>62</ele>
        <time>2022-11-04 10:38:09</time>
      </trkpt>
      <trkpt lat="42.03014" lon="2.84358">
        <ele>62.2</ele>
        <time>2022-11-04 10:38:16</time>
      </trkpt>
      <trkpt lat="42.0301" lon="2.84394">
        <ele>61.6</ele>
        <time>2022-11-04 10:38:23</time>
      </trkpt>
      <trkpt lat="42.03004" lon="2.84421">
        <ele>61.6</ele>
        <time>2022-11-04 10:38:28</time>
      </trkpt>
      <trkpt lat="42.03001" lon="2.84439">
        <ele>61.8</ele>
        <time>2022-11-04 10:38:31</time>
      </trkpt>
      <trkpt lat="42.02997" lon="2.84476">
        <ele>62.2</ele>
        <time>2022-11-04 10:38:38</time>
      </trkpt>
      <trkpt lat="42.02995" lon="2.84501">
        <ele>62.4</ele>
        <time>2022-11-04 10:38:43</time>
      </trkpt>
      <trkpt lat="42.02995" lon="2.8451">
        <ele>62.6</ele>
        <time>2022-11-04 10:38:45</time>
      </trkpt>
      <trkpt lat="42.02992" lon="2.84544">
        <ele>62.6</ele>
        <time>2022-11-04 10:38:52</time>
      </trkpt>
      <trkpt lat="42.02989" lon="2.84575">
        <ele>62.8</ele>
        <time>2022-11-04 10:38:58</time>
      </trkpt>
      <trkpt lat="42.02983" lon="2.84616">
        <ele>63.2</ele>
        <time>2022-11-04 10:39:06</time>
      </trkpt>
      <trkpt lat="42.0298" lon="2.84631">
        <ele>63.4</ele>
        <time>2022-11-04 10:39:09</time>
      </trkpt>
      <trkpt lat="42.02975" lon="2.84662">
        <ele>64</ele>
        <time>2022-11-04 10:39:15</time>
      </trkpt>
      <trkpt lat="42.02965" lon="2.84698">
        <ele>63.2</ele>
        <time>2022-11-04 10:39:21</time>
      </trkpt>
      <trkpt lat="42.0296" lon="2.84711">
        <ele>62.4</ele>
        <time>2022-11-04 10:39:23</time>
      </trkpt>
      <trkpt lat="42.02949" lon="2.84731">
        <ele>61.6</ele>
        <time>2022-11-04 10:39:26</time>
      </trkpt>
      <trkpt lat="42.02938" lon="2.8475">
        <ele>61.4</ele>
        <time>2022-11-04 10:39:29</time>
      </trkpt>
      <trkpt lat="42.0292" lon="2.8478">
        <ele>61.4</ele>
        <time>2022-11-04 10:39:34</time>
      </trkpt>
      <trkpt lat="42.02904" lon="2.84804">
        <ele>62.4</ele>
        <time>2022-11-04 10:39:39</time>
      </trkpt>
      <trkpt lat="42.02902" lon="2.84808">
        <ele>62.6</ele>
        <time>2022-11-04 10:39:40</time>
      </trkpt>
      <trkpt lat="42.02892" lon="2.84822">
        <ele>63.6</ele>
        <time>2022-11-04 10:39:44</time>
      </trkpt>
      <trkpt lat="42.02882" lon="2.84835">
        <ele>64.6</ele>
        <time>2022-11-04 10:39:48</time>
      </trkpt>
      <trkpt lat="42.02876" lon="2.84842">
        <ele>64.8</ele>
        <time>2022-11-04 10:39:50</time>
      </trkpt>
      <trkpt lat="42.02856" lon="2.8486">
        <ele>64.2</ele>
        <time>2022-11-04 10:39:56</time>
      </trkpt>
      <trkpt lat="42.02853" lon="2.84864">
        <ele>64.2</ele>
        <time>2022-11-04 10:39:57</time>
      </trkpt>
      <trkpt lat="42.02843" lon="2.84881">
        <ele>64.2</ele>
        <time>2022-11-04 10:40:01</time>
      </trkpt>
      <trkpt lat="42.02834" lon="2.84903">
        <ele>65.6</ele>
        <time>2022-11-04 10:40:07</time>
      </trkpt>
      <trkpt lat="42.02833" lon="2.84906">
        <ele>65.8</ele>
        <time>2022-11-04 10:40:08</time>
      </trkpt>
      <trkpt lat="42.02821" lon="2.84917">
        <ele>66.4</ele>
        <time>2022-11-04 10:40:12</time>
      </trkpt>
      <trkpt lat="42.02808" lon="2.8493">
        <ele>66.8</ele>
        <time>2022-11-04 10:40:16</time>
      </trkpt>
      <trkpt lat="42.02805" lon="2.84933">
        <ele>66.8</ele>
        <time>2022-11-04 10:40:17</time>
      </trkpt>
      <trkpt lat="42.02785" lon="2.84963">
        <ele>67.4</ele>
        <time>2022-11-04 10:40:25</time>
      </trkpt>
      <trkpt lat="42.02777" lon="2.84974">
        <ele>67.8</ele>
        <time>2022-11-04 10:40:28</time>
      </trkpt>
      <trkpt lat="42.02765" lon="2.84988">
        <ele>68.8</ele>
        <time>2022-11-04 10:40:32</time>
      </trkpt>
      <trkpt lat="42.02763" lon="2.84991">
        <ele>69</ele>
        <time>2022-11-04 10:40:33</time>
      </trkpt>
      <trkpt lat="42.02745" lon="2.85005">
        <ele>70</ele>
        <time>2022-11-04 10:40:39</time>
      </trkpt>
      <trkpt lat="42.02719" lon="2.85023">
        <ele>69.8</ele>
        <time>2022-11-04 10:40:47</time>
      </trkpt>
      <trkpt lat="42.02694" lon="2.8504">
        <ele>70.6</ele>
        <time>2022-11-04 10:40:54</time>
      </trkpt>
      <trkpt lat="42.02692" lon="2.85042">
        <ele>71</ele>
        <time>2022-11-04 10:40:55</time>
      </trkpt>
      <trkpt lat="42.02677" lon="2.8505">
        <ele>70.8</ele>
        <time>2022-11-04 10:41:00</time>
      </trkpt>
      <trkpt lat="42.02668" lon="2.85055">
        <ele>69.8</ele>
        <time>2022-11-04 10:41:02</time>
      </trkpt>
      <trkpt lat="42.02657" lon="2.85063">
        <ele>68.2</ele>
        <time>2022-11-04 10:41:04</time>
      </trkpt>
      <trkpt lat="42.02644" lon="2.85072">
        <ele>66.6</ele>
        <time>2022-11-04 10:41:06</time>
      </trkpt>
      <trkpt lat="42.02631" lon="2.85083">
        <ele>65.4</ele>
        <time>2022-11-04 10:41:08</time>
      </trkpt>
      <trkpt lat="42.02619" lon="2.85094">
        <ele>65</ele>
        <time>2022-11-04 10:41:10</time>
      </trkpt>
      <trkpt lat="42.02602" lon="2.85112">
        <ele>64.4</ele>
        <time>2022-11-04 10:41:13</time>
      </trkpt>
      <trkpt lat="42.02576" lon="2.85141">
        <ele>64.4</ele>
        <time>2022-11-04 10:41:18</time>
      </trkpt>
      <trkpt lat="42.02546" lon="2.85177">
        <ele>64.2</ele>
        <time>2022-11-04 10:41:25</time>
      </trkpt>
      <trkpt lat="42.02541" lon="2.85181">
        <ele>64</ele>
        <time>2022-11-04 10:41:26</time>
      </trkpt>
      <trkpt lat="42.02524" lon="2.85191">
        <ele>63.4</ele>
        <time>2022-11-04 10:41:29</time>
      </trkpt>
      <trkpt lat="42.02519" lon="2.85194">
        <ele>63.2</ele>
        <time>2022-11-04 10:41:30</time>
      </trkpt>
      <trkpt lat="42.02478" lon="2.85226">
        <ele>62.6</ele>
        <time>2022-11-04 10:41:38</time>
      </trkpt>
      <trkpt lat="42.02448" lon="2.85258">
        <ele>62.4</ele>
        <time>2022-11-04 10:41:45</time>
      </trkpt>
      <trkpt lat="42.02428" lon="2.85285">
        <ele>62.8</ele>
        <time>2022-11-04 10:41:51</time>
      </trkpt>
      <trkpt lat="42.02404" lon="2.85313">
        <ele>62.8</ele>
        <time>2022-11-04 10:41:59</time>
      </trkpt>
      <trkpt lat="42.02383" lon="2.85344">
        <ele>62.6</ele>
        <time>2022-11-04 10:42:07</time>
      </trkpt>
      <trkpt lat="42.02368" lon="2.85358">
        <ele>62.6</ele>
        <time>2022-11-04 10:42:12</time>
      </trkpt>
      <trkpt lat="42.02358" lon="2.85378">
        <ele>62.6</ele>
        <time>2022-11-04 10:42:18</time>
      </trkpt>
      <trkpt lat="42.02344" lon="2.85406">
        <ele>62.4</ele>
        <time>2022-11-04 10:42:26</time>
      </trkpt>
      <trkpt lat="42.02342" lon="2.85411">
        <ele>62.4</ele>
        <time>2022-11-04 10:42:27</time>
      </trkpt>
      <trkpt lat="42.02332" lon="2.85438">
        <ele>61.6</ele>
        <time>2022-11-04 10:42:33</time>
      </trkpt>
      <trkpt lat="42.02327" lon="2.85457">
        <ele>61</ele>
        <time>2022-11-04 10:42:36</time>
      </trkpt>
      <trkpt lat="42.02325" lon="2.85472">
        <ele>60.4</ele>
        <time>2022-11-04 10:42:38</time>
      </trkpt>
      <trkpt lat="42.02325" lon="2.85494">
        <ele>60.2</ele>
        <time>2022-11-04 10:42:41</time>
      </trkpt>
      <trkpt lat="42.02325" lon="2.85501">
        <ele>60</ele>
        <time>2022-11-04 10:42:42</time>
      </trkpt>
      <trkpt lat="42.02325" lon="2.85515">
        <ele>59.8</ele>
        <time>2022-11-04 10:42:44</time>
      </trkpt>
      <trkpt lat="42.0233" lon="2.85561">
        <ele>59.6</ele>
        <time>2022-11-04 10:42:51</time>
      </trkpt>
      <trkpt lat="42.02332" lon="2.85573">
        <ele>59.8</ele>
        <time>2022-11-04 10:42:53</time>
      </trkpt>
      <trkpt lat="42.02339" lon="2.85587">
        <ele>59.8</ele>
        <time>2022-11-04 10:42:56</time>
      </trkpt>
      <trkpt lat="42.02341" lon="2.85592">
        <ele>59.8</ele>
        <time>2022-11-04 10:42:57</time>
      </trkpt>
      <trkpt lat="42.02355" lon="2.85619">
        <ele>60</ele>
        <time>2022-11-04 10:43:03</time>
      </trkpt>
      <trkpt lat="42.02358" lon="2.85623">
        <ele>60.2</ele>
        <time>2022-11-04 10:43:04</time>
      </trkpt>
      <trkpt lat="42.02377" lon="2.85652">
        <ele>60.8</ele>
        <time>2022-11-04 10:43:11</time>
      </trkpt>
      <trkpt lat="42.0238" lon="2.85657">
        <ele>60.8</ele>
        <time>2022-11-04 10:43:12</time>
      </trkpt>
      <trkpt lat="42.02401" lon="2.85684">
        <ele>61</ele>
        <time>2022-11-04 10:43:19</time>
      </trkpt>
      <trkpt lat="42.02419" lon="2.857">
        <ele>61.4</ele>
        <time>2022-11-04 10:43:25</time>
      </trkpt>
      <trkpt lat="42.02437" lon="2.85724">
        <ele>61.2</ele>
        <time>2022-11-04 10:43:31</time>
      </trkpt>
      <trkpt lat="42.02461" lon="2.85761">
        <ele>60.8</ele>
        <time>2022-11-04 10:43:39</time>
      </trkpt>
      <trkpt lat="42.02487" lon="2.85798">
        <ele>61.2</ele>
        <time>2022-11-04 10:43:48</time>
      </trkpt>
      <trkpt lat="42.02498" lon="2.8581">
        <ele>62.2</ele>
        <time>2022-11-04 10:43:52</time>
      </trkpt>
      <trkpt lat="42.02505" lon="2.8582">
        <ele>62.6</ele>
        <time>2022-11-04 10:43:55</time>
      </trkpt>
      <trkpt lat="42.02528" lon="2.85849">
        <ele>63.2</ele>
        <time>2022-11-04 10:44:04</time>
      </trkpt>
      <trkpt lat="42.02531" lon="2.85852">
        <ele>63.4</ele>
        <time>2022-11-04 10:44:05</time>
      </trkpt>
      <trkpt lat="42.02551" lon="2.85879">
        <ele>63.4</ele>
        <time>2022-11-04 10:44:13</time>
      </trkpt>
      <trkpt lat="42.02565" lon="2.85903">
        <ele>62.2</ele>
        <time>2022-11-04 10:44:18</time>
      </trkpt>
      <trkpt lat="42.02569" lon="2.85908">
        <ele>61.8</ele>
        <time>2022-11-04 10:44:19</time>
      </trkpt>
      <trkpt lat="42.02592" lon="2.85923">
        <ele>61</ele>
        <time>2022-11-04 10:44:24</time>
      </trkpt>
      <trkpt lat="42.02596" lon="2.85925">
        <ele>61</ele>
        <time>2022-11-04 10:44:25</time>
      </trkpt>
      <trkpt lat="42.02626" lon="2.85935">
        <ele>61</ele>
        <time>2022-11-04 10:44:31</time>
      </trkpt>
      <trkpt lat="42.02673" lon="2.85946">
        <ele>60.6</ele>
        <time>2022-11-04 10:44:41</time>
      </trkpt>
      <trkpt lat="42.02691" lon="2.85957">
        <ele>61</ele>
        <time>2022-11-04 10:44:46</time>
      </trkpt>
      <trkpt lat="42.02708" lon="2.85966">
        <ele>60</ele>
        <time>2022-11-04 10:44:50</time>
      </trkpt>
      <trkpt lat="42.02716" lon="2.85971">
        <ele>60</ele>
        <time>2022-11-04 10:44:52</time>
      </trkpt>
      <trkpt lat="42.02746" lon="2.85986">
        <ele>60</ele>
        <time>2022-11-04 10:45:00</time>
      </trkpt>
      <trkpt lat="42.02763" lon="2.85994">
        <ele>60.2</ele>
        <time>2022-11-04 10:45:04</time>
      </trkpt>
      <trkpt lat="42.02777" lon="2.86001">
        <ele>60.4</ele>
        <time>2022-11-04 10:45:07</time>
      </trkpt>
      <trkpt lat="42.02813" lon="2.86017">
        <ele>60.2</ele>
        <time>2022-11-04 10:45:16</time>
      </trkpt>
      <trkpt lat="42.02849" lon="2.86023">
        <ele>59.4</ele>
        <time>2022-11-04 10:45:24</time>
      </trkpt>
      <trkpt lat="42.02896" lon="2.86028">
        <ele>59.2</ele>
        <time>2022-11-04 10:45:34</time>
      </trkpt>
      <trkpt lat="42.02945" lon="2.86032">
        <ele>59.4</ele>
        <time>2022-11-04 10:45:44</time>
      </trkpt>
      <trkpt lat="42.02958" lon="2.8603">
        <ele>59.2</ele>
        <time>2022-11-04 10:45:47</time>
      </trkpt>
      <trkpt lat="42.02971" lon="2.86027">
        <ele>59</ele>
        <time>2022-11-04 10:45:50</time>
      </trkpt>
      <trkpt lat="42.02976" lon="2.86026">
        <ele>59</ele>
        <time>2022-11-04 10:45:51</time>
      </trkpt>
      <trkpt lat="42.03022" lon="2.86015">
        <ele>58.8</ele>
        <time>2022-11-04 10:46:01</time>
      </trkpt>
      <trkpt lat="42.03058" lon="2.86006">
        <ele>59</ele>
        <time>2022-11-04 10:46:09</time>
      </trkpt>
      <trkpt lat="42.03105" lon="2.85994">
        <ele>59</ele>
        <time>2022-11-04 10:46:19</time>
      </trkpt>
      <trkpt lat="42.03143" lon="2.85991">
        <ele>58.8</ele>
        <time>2022-11-04 10:46:27</time>
      </trkpt>
      <trkpt lat="42.0318" lon="2.85999">
        <ele>58.4</ele>
        <time>2022-11-04 10:46:35</time>
      </trkpt>
      <trkpt lat="42.03219" lon="2.86003">
        <ele>58.4</ele>
        <time>2022-11-04 10:46:43</time>
      </trkpt>
      <trkpt lat="42.03251" lon="2.85995">
        <ele>58.8</ele>
        <time>2022-11-04 10:46:50</time>
      </trkpt>
      <trkpt lat="42.03291" lon="2.85976">
        <ele>58.8</ele>
        <time>2022-11-04 10:46:59</time>
      </trkpt>
      <trkpt lat="42.03328" lon="2.85958">
        <ele>58.8</ele>
        <time>2022-11-04 10:47:08</time>
      </trkpt>
      <trkpt lat="42.03356" lon="2.85944">
        <ele>58.8</ele>
        <time>2022-11-04 10:47:15</time>
      </trkpt>
      <trkpt lat="42.0336" lon="2.85942">
        <ele>59</ele>
        <time>2022-11-04 10:47:16</time>
      </trkpt>
      <trkpt lat="42.03379" lon="2.85932">
        <ele>58.8</ele>
        <time>2022-11-04 10:47:21</time>
      </trkpt>
      <trkpt lat="42.03412" lon="2.85917">
        <ele>58.2</ele>
        <time>2022-11-04 10:47:29</time>
      </trkpt>
      <trkpt lat="42.03453" lon="2.85899">
        <ele>58.4</ele>
        <time>2022-11-04 10:47:39</time>
      </trkpt>
      <trkpt lat="42.03487" lon="2.85883">
        <ele>58.4</ele>
        <time>2022-11-04 10:47:47</time>
      </trkpt>
      <trkpt lat="42.03523" lon="2.85866">
        <ele>58.6</ele>
        <time>2022-11-04 10:47:56</time>
      </trkpt>
      <trkpt lat="42.03555" lon="2.85852">
        <ele>58.6</ele>
        <time>2022-11-04 10:48:04</time>
      </trkpt>
      <trkpt lat="42.03583" lon="2.85838">
        <ele>58.8</ele>
        <time>2022-11-04 10:48:11</time>
      </trkpt>
      <trkpt lat="42.03587" lon="2.85836">
        <ele>58.8</ele>
        <time>2022-11-04 10:48:12</time>
      </trkpt>
      <trkpt lat="42.03614" lon="2.85831">
        <ele>58.8</ele>
        <time>2022-11-04 10:48:19</time>
      </trkpt>
      <trkpt lat="42.03635" lon="2.85844">
        <ele>58.8</ele>
        <time>2022-11-04 10:48:25</time>
      </trkpt>
      <trkpt lat="42.0367" lon="2.85853">
        <ele>58.8</ele>
        <time>2022-11-04 10:48:34</time>
      </trkpt>
      <trkpt lat="42.03697" lon="2.85859">
        <ele>58</ele>
        <time>2022-11-04 10:48:40</time>
      </trkpt>
      <trkpt lat="42.03707" lon="2.85861">
        <ele>57.6</ele>
        <time>2022-11-04 10:48:42</time>
      </trkpt>
      <trkpt lat="42.03753" lon="2.85871">
        <ele>57.4</ele>
        <time>2022-11-04 10:48:52</time>
      </trkpt>
      <trkpt lat="42.03793" lon="2.85881">
        <ele>57.4</ele>
        <time>2022-11-04 10:49:01</time>
      </trkpt>
      <trkpt lat="42.03836" lon="2.85888">
        <ele>57.8</ele>
        <time>2022-11-04 10:49:11</time>
      </trkpt>
      <trkpt lat="42.03853" lon="2.85888">
        <ele>59</ele>
        <time>2022-11-04 10:49:16</time>
      </trkpt>
      <trkpt lat="42.03859" lon="2.85887">
        <ele>59.4</ele>
        <time>2022-11-04 10:49:18</time>
      </trkpt>
      <trkpt lat="42.03879" lon="2.85883">
        <ele>59.6</ele>
        <time>2022-11-04 10:49:24</time>
      </trkpt>
      <trkpt lat="42.03882" lon="2.85882">
        <ele>60</ele>
        <time>2022-11-04 10:49:25</time>
      </trkpt>
      <trkpt lat="42.03895" lon="2.85875">
        <ele>60.8</ele>
        <time>2022-11-04 10:49:29</time>
      </trkpt>
      <trkpt lat="42.03911" lon="2.8587">
        <ele>61</ele>
        <time>2022-11-04 10:49:35</time>
      </trkpt>
      <trkpt lat="42.03926" lon="2.85865">
        <ele>61</ele>
        <time>2022-11-04 10:49:40</time>
      </trkpt>
      <trkpt lat="42.03954" lon="2.85856">
        <ele>60.8</ele>
        <time>2022-11-04 10:49:48</time>
      </trkpt>
      <trkpt lat="42.03966" lon="2.85852">
        <ele>61</ele>
        <time>2022-11-04 10:49:51</time>
      </trkpt>
      <trkpt lat="42.03981" lon="2.85847">
        <ele>60.6</ele>
        <time>2022-11-04 10:49:55</time>
      </trkpt>
      <trkpt lat="42.04006" lon="2.8584">
        <ele>60.8</ele>
        <time>2022-11-04 10:50:02</time>
      </trkpt>
      <trkpt lat="42.04046" lon="2.85825">
        <ele>61.2</ele>
        <time>2022-11-04 10:50:12</time>
      </trkpt>
      <trkpt lat="42.04082" lon="2.85814">
        <ele>61.4</ele>
        <time>2022-11-04 10:50:21</time>
      </trkpt>
      <trkpt lat="42.04103" lon="2.85807">
        <ele>61.8</ele>
        <time>2022-11-04 10:50:27</time>
      </trkpt>
      <trkpt lat="42.04113" lon="2.85803">
        <ele>62</ele>
        <time>2022-11-04 10:50:30</time>
      </trkpt>
      <trkpt lat="42.0413" lon="2.858">
        <ele>62.6</ele>
        <time>2022-11-04 10:50:35</time>
      </trkpt>
      <trkpt lat="42.04151" lon="2.85792">
        <ele>63.2</ele>
        <time>2022-11-04 10:50:41</time>
      </trkpt>
      <trkpt lat="42.04179" lon="2.85783">
        <ele>63.8</ele>
        <time>2022-11-04 10:50:49</time>
      </trkpt>
      <trkpt lat="42.04197" lon="2.85777">
        <ele>64.2</ele>
        <time>2022-11-04 10:50:54</time>
      </trkpt>
      <trkpt lat="42.04211" lon="2.85772">
        <ele>64.4</ele>
        <time>2022-11-04 10:50:58</time>
      </trkpt>
      <trkpt lat="42.04241" lon="2.85762">
        <ele>64.8</ele>
        <time>2022-11-04 10:51:07</time>
      </trkpt>
      <trkpt lat="42.04251" lon="2.85761">
        <ele>65.2</ele>
        <time>2022-11-04 10:51:10</time>
      </trkpt>
      <trkpt lat="42.04264" lon="2.85765">
        <ele>65.6</ele>
        <time>2022-11-04 10:51:14</time>
      </trkpt>
      <trkpt lat="42.04275" lon="2.85773">
        <ele>65.2</ele>
        <time>2022-11-04 10:51:17</time>
      </trkpt>
      <trkpt lat="42.0428" lon="2.85781">
        <ele>65.2</ele>
        <time>2022-11-04 10:51:19</time>
      </trkpt>
      <trkpt lat="42.04292" lon="2.85803">
        <ele>65.4</ele>
        <time>2022-11-04 10:51:24</time>
      </trkpt>
      <trkpt lat="42.04296" lon="2.8582">
        <ele>65.4</ele>
        <time>2022-11-04 10:51:27</time>
      </trkpt>
      <trkpt lat="42.04298" lon="2.85833">
        <ele>65.2</ele>
        <time>2022-11-04 10:51:29</time>
      </trkpt>
      <trkpt lat="42.04302" lon="2.85858">
        <ele>64.6</ele>
        <time>2022-11-04 10:51:33</time>
      </trkpt>
      <trkpt lat="42.0431" lon="2.85882">
        <ele>64.2</ele>
        <time>2022-11-04 10:51:37</time>
      </trkpt>
      <trkpt lat="42.04314" lon="2.85905">
        <ele>63.4</ele>
        <time>2022-11-04 10:51:40</time>
      </trkpt>
      <trkpt lat="42.04315" lon="2.85913">
        <ele>62.8</ele>
        <time>2022-11-04 10:51:41</time>
      </trkpt>
      <trkpt lat="42.04321" lon="2.85969">
        <ele>62.2</ele>
        <time>2022-11-04 10:51:48</time>
      </trkpt>
      <trkpt lat="42.04324" lon="2.86007">
        <ele>61.8</ele>
        <time>2022-11-04 10:51:53</time>
      </trkpt>
      <trkpt lat="42.04328" lon="2.86037">
        <ele>61.6</ele>
        <time>2022-11-04 10:51:57</time>
      </trkpt>
      <trkpt lat="42.04338" lon="2.86109">
        <ele>61</ele>
        <time>2022-11-04 10:52:07</time>
      </trkpt>
      <trkpt lat="42.04345" lon="2.86144">
        <ele>60.6</ele>
        <time>2022-11-04 10:52:12</time>
      </trkpt>
      <trkpt lat="42.04353" lon="2.86182">
        <ele>59.6</ele>
        <time>2022-11-04 10:52:17</time>
      </trkpt>
      <trkpt lat="42.04366" lon="2.86239">
        <ele>59.4</ele>
        <time>2022-11-04 10:52:25</time>
      </trkpt>
      <trkpt lat="42.04373" lon="2.86286">
        <ele>59.6</ele>
        <time>2022-11-04 10:52:32</time>
      </trkpt>
      <trkpt lat="42.04387" lon="2.86336">
        <ele>59.8</ele>
        <time>2022-11-04 10:52:40</time>
      </trkpt>
      <trkpt lat="42.04403" lon="2.86389">
        <ele>59.2</ele>
        <time>2022-11-04 10:52:48</time>
      </trkpt>
      <trkpt lat="42.04419" lon="2.8644">
        <ele>58.8</ele>
        <time>2022-11-04 10:52:56</time>
      </trkpt>
      <trkpt lat="42.04429" lon="2.86472">
        <ele>58.4</ele>
        <time>2022-11-04 10:53:01</time>
      </trkpt>
      <trkpt lat="42.04437" lon="2.86497">
        <ele>58.2</ele>
        <time>2022-11-04 10:53:05</time>
      </trkpt>
      <trkpt lat="42.0446" lon="2.86561">
        <ele>57.6</ele>
        <time>2022-11-04 10:53:15</time>
      </trkpt>
      <trkpt lat="42.04462" lon="2.86567">
        <ele>57.6</ele>
        <time>2022-11-04 10:53:16</time>
      </trkpt>
      <trkpt lat="42.04472" lon="2.86592">
        <ele>57.4</ele>
        <time>2022-11-04 10:53:20</time>
      </trkpt>
      <trkpt lat="42.04485" lon="2.86621">
        <ele>57.4</ele>
        <time>2022-11-04 10:53:25</time>
      </trkpt>
      <trkpt lat="42.04508" lon="2.86666">
        <ele>57.2</ele>
        <time>2022-11-04 10:53:33</time>
      </trkpt>
      <trkpt lat="42.04529" lon="2.8672">
        <ele>57.4</ele>
        <time>2022-11-04 10:53:42</time>
      </trkpt>
      <trkpt lat="42.04541" lon="2.86758">
        <ele>59</ele>
        <time>2022-11-04 10:53:48</time>
      </trkpt>
      <trkpt lat="42.04543" lon="2.86762">
        <ele>60.2</ele>
        <time>2022-11-04 10:53:49</time>
      </trkpt>
      <trkpt lat="42.04549" lon="2.86776">
        <ele>61.4</ele>
        <time>2022-11-04 10:53:52</time>
      </trkpt>
      <trkpt lat="42.04553" lon="2.86787">
        <ele>62.6</ele>
        <time>2022-11-04 10:53:55</time>
      </trkpt>
      <trkpt lat="42.04555" lon="2.86791">
        <ele>63</ele>
        <time>2022-11-04 10:53:56</time>
      </trkpt>
      <trkpt lat="42.0456" lon="2.86801">
        <ele>64</ele>
        <time>2022-11-04 10:53:59</time>
      </trkpt>
      <trkpt lat="42.04563" lon="2.86817">
        <ele>65</ele>
        <time>2022-11-04 10:54:03</time>
      </trkpt>
      <trkpt lat="42.04564" lon="2.86845">
        <ele>64</ele>
        <time>2022-11-04 10:54:09</time>
      </trkpt>
      <trkpt lat="42.04566" lon="2.8685">
        <ele>63.8</ele>
        <time>2022-11-04 10:54:10</time>
      </trkpt>
      <trkpt lat="42.04575" lon="2.86868">
        <ele>62.2</ele>
        <time>2022-11-04 10:54:13</time>
      </trkpt>
      <trkpt lat="42.04584" lon="2.8688">
        <ele>61.2</ele>
        <time>2022-11-04 10:54:15</time>
      </trkpt>
      <trkpt lat="42.04594" lon="2.86894">
        <ele>59.8</ele>
        <time>2022-11-04 10:54:17</time>
      </trkpt>
      <trkpt lat="42.046" lon="2.86901">
        <ele>59.2</ele>
        <time>2022-11-04 10:54:18</time>
      </trkpt>
      <trkpt lat="42.04606" lon="2.86908">
        <ele>58.6</ele>
        <time>2022-11-04 10:54:19</time>
      </trkpt>
      <trkpt lat="42.04623" lon="2.8693">
        <ele>57.2</ele>
        <time>2022-11-04 10:54:22</time>
      </trkpt>
      <trkpt lat="42.04634" lon="2.86944">
        <ele>56.6</ele>
        <time>2022-11-04 10:54:24</time>
      </trkpt>
      <trkpt lat="42.04677" lon="2.86996">
        <ele>56</ele>
        <time>2022-11-04 10:54:32</time>
      </trkpt>
      <trkpt lat="42.04704" lon="2.87028">
        <ele>55.4</ele>
        <time>2022-11-04 10:54:38</time>
      </trkpt>
      <trkpt lat="42.04711" lon="2.87039">
        <ele>55.6</ele>
        <time>2022-11-04 10:54:40</time>
      </trkpt>
      <trkpt lat="42.04719" lon="2.87058">
        <ele>55.6</ele>
        <time>2022-11-04 10:54:43</time>
      </trkpt>
      <trkpt lat="42.04737" lon="2.871">
        <ele>55.6</ele>
        <time>2022-11-04 10:54:50</time>
      </trkpt>
      <trkpt lat="42.04755" lon="2.87134">
        <ele>55.4</ele>
        <time>2022-11-04 10:54:56</time>
      </trkpt>
      <trkpt lat="42.04783" lon="2.87181">
        <ele>55</ele>
        <time>2022-11-04 10:55:05</time>
      </trkpt>
      <trkpt lat="42.04809" lon="2.87213">
        <ele>54.6</ele>
        <time>2022-11-04 10:55:12</time>
      </trkpt>
      <trkpt lat="42.04833" lon="2.87244">
        <ele>54.2</ele>
        <time>2022-11-04 10:55:19</time>
      </trkpt>
      <trkpt lat="42.0485" lon="2.87279">
        <ele>54.4</ele>
        <time>2022-11-04 10:55:25</time>
      </trkpt>
      <trkpt lat="42.0487" lon="2.8732">
        <ele>54</ele>
        <time>2022-11-04 10:55:32</time>
      </trkpt>
      <trkpt lat="42.04876" lon="2.8733">
        <ele>54.2</ele>
        <time>2022-11-04 10:55:34</time>
      </trkpt>
      <trkpt lat="42.04899" lon="2.87373">
        <ele>53.8</ele>
        <time>2022-11-04 10:55:42</time>
      </trkpt>
      <trkpt lat="42.04915" lon="2.87401">
        <ele>53.8</ele>
        <time>2022-11-04 10:55:48</time>
      </trkpt>
      <trkpt lat="42.04928" lon="2.87426">
        <ele>54.2</ele>
        <time>2022-11-04 10:55:54</time>
      </trkpt>
      <trkpt lat="42.0495" lon="2.8746">
        <ele>54.4</ele>
        <time>2022-11-04 10:56:02</time>
      </trkpt>
      <trkpt lat="42.04967" lon="2.87487">
        <ele>54.4</ele>
        <time>2022-11-04 10:56:08</time>
      </trkpt>
      <trkpt lat="42.04974" lon="2.87495">
        <ele>54.2</ele>
        <time>2022-11-04 10:56:10</time>
      </trkpt>
      <trkpt lat="42.05" lon="2.87525">
        <ele>53.8</ele>
        <time>2022-11-04 10:56:18</time>
      </trkpt>
      <trkpt lat="42.05003" lon="2.87529">
        <ele>53.8</ele>
        <time>2022-11-04 10:56:19</time>
      </trkpt>
      <trkpt lat="42.05006" lon="2.87538">
        <ele>54</ele>
        <time>2022-11-04 10:56:21</time>
      </trkpt>
      <trkpt lat="42.05005" lon="2.87542">
        <ele>54</ele>
        <time>2022-11-04 10:56:22</time>
      </trkpt>
      <trkpt lat="42.05005" lon="2.87543">
        <ele>54</ele>
        <time>2022-11-04 10:56:25</time>
      </trkpt>
      <trkpt lat="42.05005" lon="2.87543">
        <ele>54</ele>
        <time>2022-11-04 10:56:36</time>
      </trkpt>
      <trkpt lat="42.05002" lon="2.8755">
        <ele>54</ele>
        <time>2022-11-04 10:56:44</time>
      </trkpt>
      <trkpt lat="42.04993" lon="2.87566">
        <ele>53.8</ele>
        <time>2022-11-04 10:56:49</time>
      </trkpt>
      <trkpt lat="42.04987" lon="2.8758">
        <ele>53.4</ele>
        <time>2022-11-04 10:56:52</time>
      </trkpt>
      <trkpt lat="42.04983" lon="2.87596">
        <ele>53.2</ele>
        <time>2022-11-04 10:56:55</time>
      </trkpt>
      <trkpt lat="42.04982" lon="2.87602">
        <ele>53.2</ele>
        <time>2022-11-04 10:56:56</time>
      </trkpt>
      <trkpt lat="42.04982" lon="2.87608">
        <ele>53</ele>
        <time>2022-11-04 10:56:57</time>
      </trkpt>
      <trkpt lat="42.04983" lon="2.8762">
        <ele>53</ele>
        <time>2022-11-04 10:56:59</time>
      </trkpt>
      <trkpt lat="42.04985" lon="2.87625">
        <ele>53</ele>
        <time>2022-11-04 10:57:00</time>
      </trkpt>
      <trkpt lat="42.04988" lon="2.87636">
        <ele>53</ele>
        <time>2022-11-04 10:57:02</time>
      </trkpt>
      <trkpt lat="42.04996" lon="2.87664">
        <ele>53.2</ele>
        <time>2022-11-04 10:57:07</time>
      </trkpt>
      <trkpt lat="42.05012" lon="2.87722">
        <ele>53</ele>
        <time>2022-11-04 10:57:17</time>
      </trkpt>
      <trkpt lat="42.05025" lon="2.87775">
        <ele>52.4</ele>
        <time>2022-11-04 10:57:26</time>
      </trkpt>
      <trkpt lat="42.05042" lon="2.87833">
        <ele>52.2</ele>
        <time>2022-11-04 10:57:36</time>
      </trkpt>
      <trkpt lat="42.05045" lon="2.87844">
        <ele>52</ele>
        <time>2022-11-04 10:57:38</time>
      </trkpt>
      <trkpt lat="42.05056" lon="2.87882">
        <ele>52</ele>
        <time>2022-11-04 10:57:45</time>
      </trkpt>
      <trkpt lat="42.05069" lon="2.87942">
        <ele>51.4</ele>
        <time>2022-11-04 10:57:56</time>
      </trkpt>
      <trkpt lat="42.05078" lon="2.87988">
        <ele>52.6</ele>
        <time>2022-11-04 10:58:05</time>
      </trkpt>
      <trkpt lat="42.0508" lon="2.88032">
        <ele>52.2</ele>
        <time>2022-11-04 10:58:13</time>
      </trkpt>
      <trkpt lat="42.0508" lon="2.88085">
        <ele>52.2</ele>
        <time>2022-11-04 10:58:22</time>
      </trkpt>
      <trkpt lat="42.05079" lon="2.8814">
        <ele>51.8</ele>
        <time>2022-11-04 10:58:31</time>
      </trkpt>
      <trkpt lat="42.05078" lon="2.88158">
        <ele>51.8</ele>
        <time>2022-11-04 10:58:34</time>
      </trkpt>
      <trkpt lat="42.05075" lon="2.88181">
        <ele>52.2</ele>
        <time>2022-11-04 10:58:38</time>
      </trkpt>
      <trkpt lat="42.05061" lon="2.88226">
        <ele>52.2</ele>
        <time>2022-11-04 10:58:46</time>
      </trkpt>
      <trkpt lat="42.05057" lon="2.88244">
        <ele>52</ele>
        <time>2022-11-04 10:58:49</time>
      </trkpt>
      <trkpt lat="42.05056" lon="2.88263">
        <ele>51.6</ele>
        <time>2022-11-04 10:58:52</time>
      </trkpt>
      <trkpt lat="42.05056" lon="2.88322">
        <ele>51.2</ele>
        <time>2022-11-04 10:59:01</time>
      </trkpt>
      <trkpt lat="42.05057" lon="2.8834">
        <ele>51</ele>
        <time>2022-11-04 10:59:04</time>
      </trkpt>
      <trkpt lat="42.05062" lon="2.88371">
        <ele>51.2</ele>
        <time>2022-11-04 10:59:09</time>
      </trkpt>
      <trkpt lat="42.05072" lon="2.88425">
        <ele>51.4</ele>
        <time>2022-11-04 10:59:18</time>
      </trkpt>
      <trkpt lat="42.05081" lon="2.88482">
        <ele>51.4</ele>
        <time>2022-11-04 10:59:27</time>
      </trkpt>
      <trkpt lat="42.05087" lon="2.88536">
        <ele>50.6</ele>
        <time>2022-11-04 10:59:35</time>
      </trkpt>
      <trkpt lat="42.05097" lon="2.88595">
        <ele>50.2</ele>
        <time>2022-11-04 10:59:44</time>
      </trkpt>
      <trkpt lat="42.05112" lon="2.88641">
        <ele>50.4</ele>
        <time>2022-11-04 10:59:52</time>
      </trkpt>
      <trkpt lat="42.05119" lon="2.88658">
        <ele>49.8</ele>
        <time>2022-11-04 10:59:55</time>
      </trkpt>
      <trkpt lat="42.05123" lon="2.88663">
        <ele>49.8</ele>
        <time>2022-11-04 10:59:56</time>
      </trkpt>
      <trkpt lat="42.0513" lon="2.88679">
        <ele>49.4</ele>
        <time>2022-11-04 10:59:59</time>
      </trkpt>
      <trkpt lat="42.05148" lon="2.88723">
        <ele>50.4</ele>
        <time>2022-11-04 11:00:08</time>
      </trkpt>
      <trkpt lat="42.05163" lon="2.88759">
        <ele>49.8</ele>
        <time>2022-11-04 11:00:16</time>
      </trkpt>
      <trkpt lat="42.05177" lon="2.88772">
        <ele>50.4</ele>
        <time>2022-11-04 11:00:20</time>
      </trkpt>
      <trkpt lat="42.05199" lon="2.88804">
        <ele>49.6</ele>
        <time>2022-11-04 11:00:27</time>
      </trkpt>
      <trkpt lat="42.05212" lon="2.88822">
        <ele>49.6</ele>
        <time>2022-11-04 11:00:31</time>
      </trkpt>
      <trkpt lat="42.05221" lon="2.88835">
        <ele>49.6</ele>
        <time>2022-11-04 11:00:34</time>
      </trkpt>
      <trkpt lat="42.05244" lon="2.88874">
        <ele>49</ele>
        <time>2022-11-04 11:00:42</time>
      </trkpt>
      <trkpt lat="42.05267" lon="2.88921">
        <ele>49</ele>
        <time>2022-11-04 11:00:51</time>
      </trkpt>
      <trkpt lat="42.05272" lon="2.88937">
        <ele>49.2</ele>
        <time>2022-11-04 11:00:54</time>
      </trkpt>
      <trkpt lat="42.05271" lon="2.88949">
        <ele>49.2</ele>
        <time>2022-11-04 11:00:56</time>
      </trkpt>
      <trkpt lat="42.05272" lon="2.88955">
        <ele>49.2</ele>
        <time>2022-11-04 11:00:57</time>
      </trkpt>
      <trkpt lat="42.05277" lon="2.88963">
        <ele>49.2</ele>
        <time>2022-11-04 11:00:59</time>
      </trkpt>
      <trkpt lat="42.05284" lon="2.8897">
        <ele>49.4</ele>
        <time>2022-11-04 11:01:01</time>
      </trkpt>
      <trkpt lat="42.05294" lon="2.88976">
        <ele>49.2</ele>
        <time>2022-11-04 11:01:04</time>
      </trkpt>
      <trkpt lat="42.05306" lon="2.88989">
        <ele>49</ele>
        <time>2022-11-04 11:01:08</time>
      </trkpt>
      <trkpt lat="42.05308" lon="2.88994">
        <ele>48.8</ele>
        <time>2022-11-04 11:01:09</time>
      </trkpt>
      <trkpt lat="42.0531" lon="2.89">
        <ele>48.6</ele>
        <time>2022-11-04 11:01:10</time>
      </trkpt>
      <trkpt lat="42.05314" lon="2.89013">
        <ele>48.6</ele>
        <time>2022-11-04 11:01:12</time>
      </trkpt>
      <trkpt lat="42.05316" lon="2.89019">
        <ele>48.6</ele>
        <time>2022-11-04 11:01:13</time>
      </trkpt>
      <trkpt lat="42.0532" lon="2.8903">
        <ele>48.8</ele>
        <time>2022-11-04 11:01:15</time>
      </trkpt>
      <trkpt lat="42.05326" lon="2.89039">
        <ele>48.6</ele>
        <time>2022-11-04 11:01:17</time>
      </trkpt>
      <trkpt lat="42.05329" lon="2.89043">
        <ele>48.6</ele>
        <time>2022-11-04 11:01:18</time>
      </trkpt>
      <trkpt lat="42.05333" lon="2.89046">
        <ele>48.6</ele>
        <time>2022-11-04 11:01:19</time>
      </trkpt>
      <trkpt lat="42.05345" lon="2.89059">
        <ele>48.6</ele>
        <time>2022-11-04 11:01:22</time>
      </trkpt>
      <trkpt lat="42.05348" lon="2.89064">
        <ele>48.6</ele>
        <time>2022-11-04 11:01:23</time>
      </trkpt>
      <trkpt lat="42.05378" lon="2.89102">
        <ele>47.8</ele>
        <time>2022-11-04 11:01:31</time>
      </trkpt>
      <trkpt lat="42.05381" lon="2.89107">
        <ele>47.6</ele>
        <time>2022-11-04 11:01:32</time>
      </trkpt>
      <trkpt lat="42.05392" lon="2.89121">
        <ele>47.6</ele>
        <time>2022-11-04 11:01:35</time>
      </trkpt>
      <trkpt lat="42.05399" lon="2.8913">
        <ele>47.6</ele>
        <time>2022-11-04 11:01:37</time>
      </trkpt>
      <trkpt lat="42.05418" lon="2.89159">
        <ele>48.2</ele>
        <time>2022-11-04 11:01:43</time>
      </trkpt>
      <trkpt lat="42.05425" lon="2.89175">
        <ele>47.8</ele>
        <time>2022-11-04 11:01:46</time>
      </trkpt>
      <trkpt lat="42.05432" lon="2.89192">
        <ele>47.4</ele>
        <time>2022-11-04 11:01:49</time>
      </trkpt>
      <trkpt lat="42.05449" lon="2.89217">
        <ele>48.2</ele>
        <time>2022-11-04 11:01:55</time>
      </trkpt>
      <trkpt lat="42.05457" lon="2.89209">
        <ele>48.4</ele>
        <time>2022-11-04 11:01:58</time>
      </trkpt>
      <trkpt lat="42.0546" lon="2.89206">
        <ele>48.2</ele>
        <time>2022-11-04 11:01:59</time>
      </trkpt>
      <trkpt lat="42.05463" lon="2.89202">
        <ele>47.6</ele>
        <time>2022-11-04 11:02:00</time>
      </trkpt>
      <trkpt lat="42.05472" lon="2.89192">
        <ele>46</ele>
        <time>2022-11-04 11:02:02</time>
      </trkpt>
      <trkpt lat="42.05476" lon="2.89184">
        <ele>45.2</ele>
        <time>2022-11-04 11:02:03</time>
      </trkpt>
      <trkpt lat="42.05481" lon="2.89175">
        <ele>45.8</ele>
        <time>2022-11-04 11:02:05</time>
      </trkpt>
      <trkpt lat="42.05483" lon="2.89172">
        <ele>46.8</ele>
        <time>2022-11-04 11:02:09</time>
      </trkpt>
      <trkpt lat="42.05486" lon="2.8917">
        <ele>46.8</ele>
        <time>2022-11-04 11:02:11</time>
      </trkpt>
      <trkpt lat="42.05486" lon="2.8917">
        <ele>46.8</ele>
        <time>2022-11-04 11:02:14</time>
      </trkpt>
      <trkpt lat="42.05486" lon="2.8917">
        <ele>47</ele>
        <time>2022-11-04 11:02:25</time>
      </trkpt>
      <trkpt lat="42.05487" lon="2.89169">
        <ele>47</ele>
        <time>2022-11-04 11:02:27</time>
      </trkpt>
      <trkpt lat="42.05491" lon="2.89168">
        <ele>47.2</ele>
        <time>2022-11-04 11:02:32</time>
      </trkpt>
      <trkpt lat="42.05501" lon="2.89163">
        <ele>48.6</ele>
        <time>2022-11-04 11:02:38</time>
      </trkpt>
      <trkpt lat="42.05509" lon="2.89159">
        <ele>49.6</ele>
        <time>2022-11-04 11:02:44</time>
      </trkpt>
      <trkpt lat="42.05522" lon="2.89154">
        <ele>49.4</ele>
        <time>2022-11-04 11:02:49</time>
      </trkpt>
      <trkpt lat="42.05546" lon="2.89143">
        <ele>49.2</ele>
        <time>2022-11-04 11:02:56</time>
      </trkpt>
      <trkpt lat="42.05572" lon="2.8913">
        <ele>49</ele>
        <time>2022-11-04 11:03:03</time>
      </trkpt>
      <trkpt lat="42.05595" lon="2.89118">
        <ele>49</ele>
        <time>2022-11-04 11:03:09</time>
      </trkpt>
      <trkpt lat="42.05621" lon="2.89106">
        <ele>48.6</ele>
        <time>2022-11-04 11:03:16</time>
      </trkpt>
      <trkpt lat="42.0565" lon="2.89091">
        <ele>48.6</ele>
        <time>2022-11-04 11:03:24</time>
      </trkpt>
      <trkpt lat="42.05653" lon="2.89092">
        <ele>48.8</ele>
        <time>2022-11-04 11:03:25</time>
      </trkpt>
      <trkpt lat="42.05656" lon="2.89097">
        <ele>49.4</ele>
        <time>2022-11-04 11:03:27</time>
      </trkpt>
      <trkpt lat="42.0566" lon="2.89106">
        <ele>49.4</ele>
        <time>2022-11-04 11:03:30</time>
      </trkpt>
      <trkpt lat="42.05666" lon="2.89118">
        <ele>49.4</ele>
        <time>2022-11-04 11:03:34</time>
      </trkpt>
      <trkpt lat="42.05679" lon="2.89144">
        <ele>49.2</ele>
        <time>2022-11-04 11:03:41</time>
      </trkpt>
      <trkpt lat="42.05684" lon="2.89154">
        <ele>49.2</ele>
        <time>2022-11-04 11:03:47</time>
      </trkpt>
      <trkpt lat="42.05686" lon="2.89157">
        <ele>49.2</ele>
        <time>2022-11-04 11:03:52</time>
      </trkpt>
      <trkpt lat="42.05686" lon="2.89157">
        <ele>49.2</ele>
        <time>2022-11-04 11:04:03</time>
      </trkpt>
      <trkpt lat="42.05686" lon="2.89157">
        <ele>49.2</ele>
        <time>2022-11-04 11:04:15</time>
      </trkpt>
      <trkpt lat="42.05686" lon="2.89157">
        <ele>49</ele>
        <time>2022-11-04 11:04:27</time>
      </trkpt>
      <trkpt lat="42.05687" lon="2.89157">
        <ele>49.2</ele>
        <time>2022-11-04 11:04:41</time>
      </trkpt>
      <trkpt lat="42.05687" lon="2.89157">
        <ele>49.2</ele>
        <time>2022-11-04 11:04:50</time>
      </trkpt>
      <trkpt lat="42.05687" lon="2.89156">
        <ele>49.2</ele>
        <time>2022-11-04 11:04:58</time>
      </trkpt>
      <trkpt lat="42.05687" lon="2.89156">
        <ele>49</ele>
        <time>2022-11-04 11:05:13</time>
      </trkpt>
      <trkpt lat="42.05687" lon="2.89156">
        <ele>49.2</ele>
        <time>2022-11-04 11:05:29</time>
      </trkpt>
      <trkpt lat="42.05687" lon="2.89156">
        <ele>49.2</ele>
        <time>2022-11-04 11:05:39</time>
      </trkpt>
      <trkpt lat="42.05687" lon="2.89156">
        <ele>49.2</ele>
        <time>2022-11-04 11:05:55</time>
      </trkpt>
      <trkpt lat="42.05687" lon="2.89156">
        <ele>49</ele>
        <time>2022-11-04 11:06:09</time>
      </trkpt>
      <trkpt lat="42.05687" lon="2.89156">
        <ele>49</ele>
        <time>2022-11-04 11:06:20</time>
      </trkpt>
      <trkpt lat="42.05689" lon="2.89158">
        <ele>49.2</ele>
        <time>2022-11-04 11:06:28</time>
      </trkpt>
      <trkpt lat="42.0569" lon="2.8916">
        <ele>49</ele>
        <time>2022-11-04 11:06:29</time>
      </trkpt>
      <trkpt lat="42.05702" lon="2.89175">
        <ele>48.8</ele>
        <time>2022-11-04 11:06:34</time>
      </trkpt>
      <trkpt lat="42.05719" lon="2.89206">
        <ele>48.2</ele>
        <time>2022-11-04 11:06:42</time>
      </trkpt>
      <trkpt lat="42.05724" lon="2.89215">
        <ele>48.2</ele>
        <time>2022-11-04 11:06:44</time>
      </trkpt>
      <trkpt lat="42.05734" lon="2.89236">
        <ele>48.2</ele>
        <time>2022-11-04 11:06:48</time>
      </trkpt>
      <trkpt lat="42.05747" lon="2.89263">
        <ele>47.6</ele>
        <time>2022-11-04 11:06:54</time>
      </trkpt>
      <trkpt lat="42.05759" lon="2.89281">
        <ele>47.8</ele>
        <time>2022-11-04 11:06:58</time>
      </trkpt>
      <trkpt lat="42.05764" lon="2.89291">
        <ele>47.8</ele>
        <time>2022-11-04 11:07:00</time>
      </trkpt>
      <trkpt lat="42.05769" lon="2.89301">
        <ele>47.6</ele>
        <time>2022-11-04 11:07:02</time>
      </trkpt>
      <trkpt lat="42.05778" lon="2.8932">
        <ele>47.8</ele>
        <time>2022-11-04 11:07:06</time>
      </trkpt>
      <trkpt lat="42.05791" lon="2.89357">
        <ele>47.4</ele>
        <time>2022-11-04 11:07:13</time>
      </trkpt>
      <trkpt lat="42.05806" lon="2.89394">
        <ele>47.2</ele>
        <time>2022-11-04 11:07:20</time>
      </trkpt>
      <trkpt lat="42.05824" lon="2.89431">
        <ele>48</ele>
        <time>2022-11-04 11:07:27</time>
      </trkpt>
      <trkpt lat="42.05839" lon="2.8947">
        <ele>47.4</ele>
        <time>2022-11-04 11:07:34</time>
      </trkpt>
      <trkpt lat="42.05851" lon="2.89516">
        <ele>47.2</ele>
        <time>2022-11-04 11:07:42</time>
      </trkpt>
      <trkpt lat="42.05858" lon="2.89548">
        <ele>47.4</ele>
        <time>2022-11-04 11:07:48</time>
      </trkpt>
      <trkpt lat="42.05862" lon="2.89566">
        <ele>47.4</ele>
        <time>2022-11-04 11:07:51</time>
      </trkpt>
      <trkpt lat="42.05868" lon="2.89582">
        <ele>47.2</ele>
        <time>2022-11-04 11:07:54</time>
      </trkpt>
      <trkpt lat="42.05885" lon="2.89628">
        <ele>47</ele>
        <time>2022-11-04 11:08:03</time>
      </trkpt>
      <trkpt lat="42.05901" lon="2.89666">
        <ele>47</ele>
        <time>2022-11-04 11:08:11</time>
      </trkpt>
      <trkpt lat="42.05918" lon="2.89704">
        <ele>47.2</ele>
        <time>2022-11-04 11:08:19</time>
      </trkpt>
      <trkpt lat="42.05927" lon="2.89744">
        <ele>47.6</ele>
        <time>2022-11-04 11:08:27</time>
      </trkpt>
      <trkpt lat="42.05932" lon="2.89783">
        <ele>47.8</ele>
        <time>2022-11-04 11:08:35</time>
      </trkpt>
      <trkpt lat="42.05942" lon="2.89825">
        <ele>47.6</ele>
        <time>2022-11-04 11:08:43</time>
      </trkpt>
      <trkpt lat="42.05945" lon="2.89837">
        <ele>47.4</ele>
        <time>2022-11-04 11:08:45</time>
      </trkpt>
      <trkpt lat="42.05951" lon="2.89873">
        <ele>46.6</ele>
        <time>2022-11-04 11:08:51</time>
      </trkpt>
      <trkpt lat="42.05954" lon="2.89891">
        <ele>46.4</ele>
        <time>2022-11-04 11:08:54</time>
      </trkpt>
      <trkpt lat="42.05959" lon="2.89926">
        <ele>46.4</ele>
        <time>2022-11-04 11:09:00</time>
      </trkpt>
      <trkpt lat="42.05967" lon="2.8997">
        <ele>46.4</ele>
        <time>2022-11-04 11:09:08</time>
      </trkpt>
      <trkpt lat="42.05975" lon="2.90007">
        <ele>46.2</ele>
        <time>2022-11-04 11:09:15</time>
      </trkpt>
      <trkpt lat="42.05985" lon="2.90053">
        <ele>45.6</ele>
        <time>2022-11-04 11:09:23</time>
      </trkpt>
      <trkpt lat="42.05987" lon="2.90068">
        <ele>45.6</ele>
        <time>2022-11-04 11:09:26</time>
      </trkpt>
      <trkpt lat="42.05984" lon="2.90073">
        <ele>45.8</ele>
        <time>2022-11-04 11:09:28</time>
      </trkpt>
      <trkpt lat="42.05974" lon="2.90073">
        <ele>46</ele>
        <time>2022-11-04 11:09:31</time>
      </trkpt>
      <trkpt lat="42.05956" lon="2.90066">
        <ele>46</ele>
        <time>2022-11-04 11:09:36</time>
      </trkpt>
      <trkpt lat="42.05953" lon="2.90065">
        <ele>46</ele>
        <time>2022-11-04 11:09:37</time>
      </trkpt>
      <trkpt lat="42.05932" lon="2.90057">
        <ele>46.6</ele>
        <time>2022-11-04 11:09:42</time>
      </trkpt>
      <trkpt lat="42.05909" lon="2.90056">
        <ele>45.6</ele>
        <time>2022-11-04 11:09:47</time>
      </trkpt>
      <trkpt lat="42.05903" lon="2.90057">
        <ele>44.8</ele>
        <time>2022-11-04 11:09:48</time>
      </trkpt>
      <trkpt lat="42.0589" lon="2.90061">
        <ele>43.8</ele>
        <time>2022-11-04 11:09:50</time>
      </trkpt>
      <trkpt lat="42.05872" lon="2.90067">
        <ele>44</ele>
        <time>2022-11-04 11:09:53</time>
      </trkpt>
      <trkpt lat="42.05858" lon="2.90071">
        <ele>44.6</ele>
        <time>2022-11-04 11:09:56</time>
      </trkpt>
      <trkpt lat="42.05854" lon="2.90073">
        <ele>44.8</ele>
        <time>2022-11-04 11:09:57</time>
      </trkpt>
      <trkpt lat="42.05849" lon="2.90074">
        <ele>45</ele>
        <time>2022-11-04 11:09:58</time>
      </trkpt>
      <trkpt lat="42.05818" lon="2.90081">
        <ele>44.6</ele>
        <time>2022-11-04 11:10:05</time>
      </trkpt>
      <trkpt lat="42.05792" lon="2.90088">
        <ele>44.2</ele>
        <time>2022-11-04 11:10:11</time>
      </trkpt>
      <trkpt lat="42.05758" lon="2.90096">
        <ele>44.4</ele>
        <time>2022-11-04 11:10:19</time>
      </trkpt>
      <trkpt lat="42.05725" lon="2.90105">
        <ele>44</ele>
        <time>2022-11-04 11:10:27</time>
      </trkpt>
      <trkpt lat="42.05706" lon="2.90099">
        <ele>44</ele>
        <time>2022-11-04 11:10:33</time>
      </trkpt>
      <trkpt lat="42.05695" lon="2.90091">
        <ele>44.6</ele>
        <time>2022-11-04 11:10:38</time>
      </trkpt>
      <trkpt lat="42.05685" lon="2.90076">
        <ele>44.4</ele>
        <time>2022-11-04 11:10:44</time>
      </trkpt>
      <trkpt lat="42.05678" lon="2.9006">
        <ele>44.6</ele>
        <time>2022-11-04 11:10:50</time>
      </trkpt>
      <trkpt lat="42.05669" lon="2.90041">
        <ele>44.4</ele>
        <time>2022-11-04 11:10:56</time>
      </trkpt>
      <trkpt lat="42.05656" lon="2.90015">
        <ele>44.4</ele>
        <time>2022-11-04 11:11:03</time>
      </trkpt>
      <trkpt lat="42.05642" lon="2.90002">
        <ele>44.4</ele>
        <time>2022-11-04 11:11:09</time>
      </trkpt>
      <trkpt lat="42.05627" lon="2.9">
        <ele>44.4</ele>
        <time>2022-11-04 11:11:15</time>
      </trkpt>
      <trkpt lat="42.05605" lon="2.89999">
        <ele>44</ele>
        <time>2022-11-04 11:11:22</time>
      </trkpt>
      <trkpt lat="42.05601" lon="2.89999">
        <ele>43.8</ele>
        <time>2022-11-04 11:11:23</time>
      </trkpt>
      <trkpt lat="42.05584" lon="2.89995">
        <ele>44</ele>
        <time>2022-11-04 11:11:29</time>
      </trkpt>
      <trkpt lat="42.05573" lon="2.89981">
        <ele>44.6</ele>
        <time>2022-11-04 11:11:35</time>
      </trkpt>
      <trkpt lat="42.05569" lon="2.89966">
        <ele>44.8</ele>
        <time>2022-11-04 11:11:41</time>
      </trkpt>
      <trkpt lat="42.05567" lon="2.89952">
        <ele>44.6</ele>
        <time>2022-11-04 11:11:47</time>
      </trkpt>
      <trkpt lat="42.05567" lon="2.89952">
        <ele>44.8</ele>
        <time>2022-11-04 11:11:54</time>
      </trkpt>
      <trkpt lat="42.05567" lon="2.89952">
        <ele>44.8</ele>
        <time>2022-11-04 11:12:06</time>
      </trkpt>
      <trkpt lat="42.05567" lon="2.89952">
        <ele>44.8</ele>
        <time>2022-11-04 11:12:09</time>
      </trkpt>
      <trkpt lat="42.05567" lon="2.89947">
        <ele>44.8</ele>
        <time>2022-11-04 11:12:18</time>
      </trkpt>
      <trkpt lat="42.05566" lon="2.89928">
        <ele>44.4</ele>
        <time>2022-11-04 11:12:22</time>
      </trkpt>
      <trkpt lat="42.05563" lon="2.89897">
        <ele>44.6</ele>
        <time>2022-11-04 11:12:29</time>
      </trkpt>
      <trkpt lat="42.05553" lon="2.89876">
        <ele>44.8</ele>
        <time>2022-11-04 11:12:35</time>
      </trkpt>
      <trkpt lat="42.05549" lon="2.89876">
        <ele>44.8</ele>
        <time>2022-11-04 11:12:36</time>
      </trkpt>
      <trkpt lat="42.05543" lon="2.89877">
        <ele>45</ele>
        <time>2022-11-04 11:12:38</time>
      </trkpt>
      <trkpt lat="42.05529" lon="2.89885">
        <ele>45.4</ele>
        <time>2022-11-04 11:12:43</time>
      </trkpt>
      <trkpt lat="42.05523" lon="2.89891">
        <ele>45.4</ele>
        <time>2022-11-04 11:12:45</time>
      </trkpt>
      <trkpt lat="42.05509" lon="2.899">
        <ele>45.6</ele>
        <time>2022-11-04 11:12:50</time>
      </trkpt>
      <trkpt lat="42.05488" lon="2.8992">
        <ele>45.2</ele>
        <time>2022-11-04 11:12:57</time>
      </trkpt>
      <trkpt lat="42.05466" lon="2.89944">
        <ele>45.2</ele>
        <time>2022-11-04 11:13:04</time>
      </trkpt>
      <trkpt lat="42.05458" lon="2.89968">
        <ele>45.4</ele>
        <time>2022-11-04 11:13:09</time>
      </trkpt>
      <trkpt lat="42.05464" lon="2.89994">
        <ele>45.6</ele>
        <time>2022-11-04 11:13:14</time>
      </trkpt>
      <trkpt lat="42.0547" lon="2.90007">
        <ele>45.8</ele>
        <time>2022-11-04 11:13:17</time>
      </trkpt>
      <trkpt lat="42.05474" lon="2.90015">
        <ele>46.2</ele>
        <time>2022-11-04 11:13:19</time>
      </trkpt>
      <trkpt lat="42.05486" lon="2.90045">
        <ele>46.4</ele>
        <time>2022-11-04 11:13:26</time>
      </trkpt>
      <trkpt lat="42.05503" lon="2.90081">
        <ele>46.4</ele>
        <time>2022-11-04 11:13:34</time>
      </trkpt>
      <trkpt lat="42.05507" lon="2.90097">
        <ele>46.4</ele>
        <time>2022-11-04 11:13:37</time>
      </trkpt>
      <trkpt lat="42.05507" lon="2.90107">
        <ele>46.2</ele>
        <time>2022-11-04 11:13:39</time>
      </trkpt>
      <trkpt lat="42.05496" lon="2.90118">
        <ele>46.2</ele>
        <time>2022-11-04 11:13:42</time>
      </trkpt>
      <trkpt lat="42.05483" lon="2.90124">
        <ele>46.4</ele>
        <time>2022-11-04 11:13:45</time>
      </trkpt>
      <trkpt lat="42.05475" lon="2.90128">
        <ele>46.4</ele>
        <time>2022-11-04 11:13:47</time>
      </trkpt>
      <trkpt lat="42.05471" lon="2.90131">
        <ele>46.4</ele>
        <time>2022-11-04 11:13:48</time>
      </trkpt>
      <trkpt lat="42.0546" lon="2.90138">
        <ele>46.4</ele>
        <time>2022-11-04 11:13:51</time>
      </trkpt>
      <trkpt lat="42.05452" lon="2.90142">
        <ele>46.4</ele>
        <time>2022-11-04 11:13:53</time>
      </trkpt>
      <trkpt lat="42.05423" lon="2.90155">
        <ele>46.6</ele>
        <time>2022-11-04 11:14:01</time>
      </trkpt>
      <trkpt lat="42.05404" lon="2.90175">
        <ele>46</ele>
        <time>2022-11-04 11:14:08</time>
      </trkpt>
      <trkpt lat="42.0541" lon="2.90188">
        <ele>45.2</ele>
        <time>2022-11-04 11:14:11</time>
      </trkpt>
      <trkpt lat="42.05412" lon="2.90192">
        <ele>44.8</ele>
        <time>2022-11-04 11:14:12</time>
      </trkpt>
      <trkpt lat="42.05425" lon="2.90213">
        <ele>44.4</ele>
        <time>2022-11-04 11:14:17</time>
      </trkpt>
      <trkpt lat="42.0544" lon="2.90236">
        <ele>44.8</ele>
        <time>2022-11-04 11:14:24</time>
      </trkpt>
      <trkpt lat="42.05441" lon="2.90242">
        <ele>45</ele>
        <time>2022-11-04 11:14:26</time>
      </trkpt>
      <trkpt lat="42.05439" lon="2.90247">
        <ele>44.8</ele>
        <time>2022-11-04 11:14:28</time>
      </trkpt>
      <trkpt lat="42.05428" lon="2.90252">
        <ele>44.2</ele>
        <time>2022-11-04 11:14:31</time>
      </trkpt>
      <trkpt lat="42.0542" lon="2.90256">
        <ele>44.2</ele>
        <time>2022-11-04 11:14:33</time>
      </trkpt>
      <trkpt lat="42.05398" lon="2.90265">
        <ele>44.4</ele>
        <time>2022-11-04 11:14:39</time>
      </trkpt>
      <trkpt lat="42.05371" lon="2.90273">
        <ele>44.4</ele>
        <time>2022-11-04 11:14:47</time>
      </trkpt>
      <trkpt lat="42.0534" lon="2.90276">
        <ele>44.4</ele>
        <time>2022-11-04 11:14:55</time>
      </trkpt>
      <trkpt lat="42.05333" lon="2.90274">
        <ele>44.4</ele>
        <time>2022-11-04 11:14:57</time>
      </trkpt>
      <trkpt lat="42.05316" lon="2.90271">
        <ele>44.8</ele>
        <time>2022-11-04 11:15:01</time>
      </trkpt>
      <trkpt lat="42.05276" lon="2.90266">
        <ele>44.8</ele>
        <time>2022-11-04 11:15:11</time>
      </trkpt>
      <trkpt lat="42.05248" lon="2.90259">
        <ele>45.4</ele>
        <time>2022-11-04 11:15:18</time>
      </trkpt>
      <trkpt lat="42.05232" lon="2.90256">
        <ele>46</ele>
        <time>2022-11-04 11:15:22</time>
      </trkpt>
      <trkpt lat="42.05217" lon="2.90252">
        <ele>46.6</ele>
        <time>2022-11-04 11:15:26</time>
      </trkpt>
      <trkpt lat="42.0521" lon="2.90252">
        <ele>47</ele>
        <time>2022-11-04 11:15:28</time>
      </trkpt>
      <trkpt lat="42.05185" lon="2.90247">
        <ele>47.6</ele>
        <time>2022-11-04 11:15:35</time>
      </trkpt>
      <trkpt lat="42.0515" lon="2.90238">
        <ele>47.8</ele>
        <time>2022-11-04 11:15:44</time>
      </trkpt>
      <trkpt lat="42.05119" lon="2.90229">
        <ele>47.4</ele>
        <time>2022-11-04 11:15:51</time>
      </trkpt>
      <trkpt lat="42.05106" lon="2.90226">
        <ele>47.4</ele>
        <time>2022-11-04 11:15:54</time>
      </trkpt>
      <trkpt lat="42.05094" lon="2.90227">
        <ele>47.6</ele>
        <time>2022-11-04 11:15:57</time>
      </trkpt>
      <trkpt lat="42.05071" lon="2.90221">
        <ele>47.6</ele>
        <time>2022-11-04 11:16:03</time>
      </trkpt>
      <trkpt lat="42.05056" lon="2.90216">
        <ele>47.6</ele>
        <time>2022-11-04 11:16:07</time>
      </trkpt>
      <trkpt lat="42.05048" lon="2.90219">
        <ele>47.4</ele>
        <time>2022-11-04 11:16:09</time>
      </trkpt>
      <trkpt lat="42.05028" lon="2.90235">
        <ele>45.8</ele>
        <time>2022-11-04 11:16:13</time>
      </trkpt>
      <trkpt lat="42.05012" lon="2.90252">
        <ele>44.8</ele>
        <time>2022-11-04 11:16:16</time>
      </trkpt>
      <trkpt lat="42.05003" lon="2.9026">
        <ele>45</ele>
        <time>2022-11-04 11:16:18</time>
      </trkpt>
      <trkpt lat="42.04996" lon="2.90269">
        <ele>45.6</ele>
        <time>2022-11-04 11:16:20</time>
      </trkpt>
      <trkpt lat="42.04994" lon="2.9028">
        <ele>46</ele>
        <time>2022-11-04 11:16:22</time>
      </trkpt>
      <trkpt lat="42.04993" lon="2.90298">
        <ele>46</ele>
        <time>2022-11-04 11:16:25</time>
      </trkpt>
      <trkpt lat="42.04992" lon="2.90311">
        <ele>46</ele>
        <time>2022-11-04 11:16:27</time>
      </trkpt>
      <trkpt lat="42.0499" lon="2.90336">
        <ele>46</ele>
        <time>2022-11-04 11:16:31</time>
      </trkpt>
      <trkpt lat="42.0499" lon="2.90348">
        <ele>46.2</ele>
        <time>2022-11-04 11:16:33</time>
      </trkpt>
      <trkpt lat="42.04988" lon="2.9037">
        <ele>46.8</ele>
        <time>2022-11-04 11:16:37</time>
      </trkpt>
      <trkpt lat="42.04986" lon="2.9038">
        <ele>48</ele>
        <time>2022-11-04 11:16:39</time>
      </trkpt>
      <trkpt lat="42.04986" lon="2.90385">
        <ele>48.2</ele>
        <time>2022-11-04 11:16:40</time>
      </trkpt>
      <trkpt lat="42.04984" lon="2.9041">
        <ele>48.2</ele>
        <time>2022-11-04 11:16:45</time>
      </trkpt>
      <trkpt lat="42.04982" lon="2.9044">
        <ele>48</ele>
        <time>2022-11-04 11:16:51</time>
      </trkpt>
      <trkpt lat="42.04984" lon="2.90459">
        <ele>47.8</ele>
        <time>2022-11-04 11:16:55</time>
      </trkpt>
      <trkpt lat="42.04993" lon="2.90486">
        <ele>47.6</ele>
        <time>2022-11-04 11:17:01</time>
      </trkpt>
      <trkpt lat="42.04994" lon="2.9051">
        <ele>47.6</ele>
        <time>2022-11-04 11:17:06</time>
      </trkpt>
      <trkpt lat="42.04992" lon="2.9054">
        <ele>47.4</ele>
        <time>2022-11-04 11:17:12</time>
      </trkpt>
      <trkpt lat="42.04989" lon="2.90581">
        <ele>47.4</ele>
        <time>2022-11-04 11:17:20</time>
      </trkpt>
      <trkpt lat="42.0498" lon="2.90625">
        <ele>47.4</ele>
        <time>2022-11-04 11:17:29</time>
      </trkpt>
      <trkpt lat="42.0498" lon="2.9066">
        <ele>47.2</ele>
        <time>2022-11-04 11:17:36</time>
      </trkpt>
      <trkpt lat="42.04979" lon="2.9067">
        <ele>47</ele>
        <time>2022-11-04 11:17:38</time>
      </trkpt>
      <trkpt lat="42.04979" lon="2.90694">
        <ele>46.6</ele>
        <time>2022-11-04 11:17:43</time>
      </trkpt>
      <trkpt lat="42.04977" lon="2.90726">
        <ele>46.6</ele>
        <time>2022-11-04 11:17:50</time>
      </trkpt>
      <trkpt lat="42.04975" lon="2.90757">
        <ele>46.6</ele>
        <time>2022-11-04 11:17:56</time>
      </trkpt>
      <trkpt lat="42.0497" lon="2.90804">
        <ele>46.8</ele>
        <time>2022-11-04 11:18:05</time>
      </trkpt>
      <trkpt lat="42.04964" lon="2.90837">
        <ele>46.8</ele>
        <time>2022-11-04 11:18:12</time>
      </trkpt>
      <trkpt lat="42.04956" lon="2.90868">
        <ele>46.8</ele>
        <time>2022-11-04 11:18:19</time>
      </trkpt>
      <trkpt lat="42.04949" lon="2.90909">
        <ele>47.2</ele>
        <time>2022-11-04 11:18:27</time>
      </trkpt>
      <trkpt lat="42.04945" lon="2.90945">
        <ele>46.8</ele>
        <time>2022-11-04 11:18:34</time>
      </trkpt>
      <trkpt lat="42.04942" lon="2.90997">
        <ele>47.2</ele>
        <time>2022-11-04 11:18:43</time>
      </trkpt>
      <trkpt lat="42.04942" lon="2.91042">
        <ele>47.8</ele>
        <time>2022-11-04 11:18:51</time>
      </trkpt>
      <trkpt lat="42.04939" lon="2.91075">
        <ele>46.8</ele>
        <time>2022-11-04 11:18:58</time>
      </trkpt>
      <trkpt lat="42.04935" lon="2.91084">
        <ele>45.8</ele>
        <time>2022-11-04 11:19:00</time>
      </trkpt>
      <trkpt lat="42.04932" lon="2.91087">
        <ele>45.4</ele>
        <time>2022-11-04 11:19:01</time>
      </trkpt>
      <trkpt lat="42.04921" lon="2.9109">
        <ele>45.2</ele>
        <time>2022-11-04 11:19:04</time>
      </trkpt>
      <trkpt lat="42.04917" lon="2.9109">
        <ele>45.2</ele>
        <time>2022-11-04 11:19:05</time>
      </trkpt>
      <trkpt lat="42.04886" lon="2.91091">
        <ele>45.2</ele>
        <time>2022-11-04 11:19:13</time>
      </trkpt>
      <trkpt lat="42.04865" lon="2.91094">
        <ele>45.2</ele>
        <time>2022-11-04 11:19:19</time>
      </trkpt>
      <trkpt lat="42.04863" lon="2.91097">
        <ele>45.4</ele>
        <time>2022-11-04 11:19:20</time>
      </trkpt>
      <trkpt lat="42.04861" lon="2.91104">
        <ele>45.8</ele>
        <time>2022-11-04 11:19:22</time>
      </trkpt>
      <trkpt lat="42.04864" lon="2.91119">
        <ele>47.2</ele>
        <time>2022-11-04 11:19:25</time>
      </trkpt>
      <trkpt lat="42.04864" lon="2.91123">
        <ele>47.6</ele>
        <time>2022-11-04 11:19:26</time>
      </trkpt>
      <trkpt lat="42.04866" lon="2.91141">
        <ele>48</ele>
        <time>2022-11-04 11:19:31</time>
      </trkpt>
      <trkpt lat="42.04867" lon="2.91144">
        <ele>48.2</ele>
        <time>2022-11-04 11:19:32</time>
      </trkpt>
      <trkpt lat="42.04869" lon="2.91152">
        <ele>48.2</ele>
        <time>2022-11-04 11:19:34</time>
      </trkpt>
      <trkpt lat="42.04872" lon="2.91164">
        <ele>48</ele>
        <time>2022-11-04 11:19:37</time>
      </trkpt>
      <trkpt lat="42.04876" lon="2.91196">
        <ele>47.8</ele>
        <time>2022-11-04 11:19:43</time>
      </trkpt>
      <trkpt lat="42.04881" lon="2.91254">
        <ele>47.4</ele>
        <time>2022-11-04 11:19:52</time>
      </trkpt>
      <trkpt lat="42.04882" lon="2.9131">
        <ele>47.4</ele>
        <time>2022-11-04 11:20:01</time>
      </trkpt>
      <trkpt lat="42.04882" lon="2.91329">
        <ele>47.2</ele>
        <time>2022-11-04 11:20:04</time>
      </trkpt>
      <trkpt lat="42.04882" lon="2.9137">
        <ele>47.2</ele>
        <time>2022-11-04 11:20:10</time>
      </trkpt>
      <trkpt lat="42.04881" lon="2.91418">
        <ele>46.8</ele>
        <time>2022-11-04 11:20:17</time>
      </trkpt>
      <trkpt lat="42.0488" lon="2.91425">
        <ele>46.8</ele>
        <time>2022-11-04 11:20:18</time>
      </trkpt>
      <trkpt lat="42.04874" lon="2.91452">
        <ele>46.6</ele>
        <time>2022-11-04 11:20:22</time>
      </trkpt>
      <trkpt lat="42.04862" lon="2.91487">
        <ele>46.4</ele>
        <time>2022-11-04 11:20:28</time>
      </trkpt>
      <trkpt lat="42.04858" lon="2.91521">
        <ele>46.6</ele>
        <time>2022-11-04 11:20:34</time>
      </trkpt>
      <trkpt lat="42.04857" lon="2.91535">
        <ele>46.2</ele>
        <time>2022-11-04 11:20:36</time>
      </trkpt>
      <trkpt lat="42.04857" lon="2.91541">
        <ele>46.2</ele>
        <time>2022-11-04 11:20:37</time>
      </trkpt>
      <trkpt lat="42.04856" lon="2.91561">
        <ele>46.4</ele>
        <time>2022-11-04 11:20:40</time>
      </trkpt>
      <trkpt lat="42.04857" lon="2.91586">
        <ele>46.8</ele>
        <time>2022-11-04 11:20:44</time>
      </trkpt>
      <trkpt lat="42.0486" lon="2.91604">
        <ele>47</ele>
        <time>2022-11-04 11:20:47</time>
      </trkpt>
      <trkpt lat="42.04862" lon="2.9161">
        <ele>47.2</ele>
        <time>2022-11-04 11:20:48</time>
      </trkpt>
      <trkpt lat="42.04871" lon="2.91642">
        <ele>47.8</ele>
        <time>2022-11-04 11:20:54</time>
      </trkpt>
      <trkpt lat="42.04886" lon="2.91696">
        <ele>47</ele>
        <time>2022-11-04 11:21:03</time>
      </trkpt>
      <trkpt lat="42.04894" lon="2.91739">
        <ele>46.4</ele>
        <time>2022-11-04 11:21:09</time>
      </trkpt>
      <trkpt lat="42.04895" lon="2.91747">
        <ele>46.2</ele>
        <time>2022-11-04 11:21:10</time>
      </trkpt>
      <trkpt lat="42.049" lon="2.91786">
        <ele>45.2</ele>
        <time>2022-11-04 11:21:15</time>
      </trkpt>
      <trkpt lat="42.04905" lon="2.91816">
        <ele>45.4</ele>
        <time>2022-11-04 11:21:19</time>
      </trkpt>
      <trkpt lat="42.04914" lon="2.91862">
        <ele>46</ele>
        <time>2022-11-04 11:21:26</time>
      </trkpt>
      <trkpt lat="42.04916" lon="2.91872">
        <ele>46.4</ele>
        <time>2022-11-04 11:21:28</time>
      </trkpt>
      <trkpt lat="42.04921" lon="2.919">
        <ele>46.6</ele>
        <time>2022-11-04 11:21:33</time>
      </trkpt>
      <trkpt lat="42.04928" lon="2.91931">
        <ele>46.4</ele>
        <time>2022-11-04 11:21:38</time>
      </trkpt>
      <trkpt lat="42.04929" lon="2.91943">
        <ele>46.4</ele>
        <time>2022-11-04 11:21:40</time>
      </trkpt>
      <trkpt lat="42.04932" lon="2.91995">
        <ele>46.4</ele>
        <time>2022-11-04 11:21:48</time>
      </trkpt>
      <trkpt lat="42.04937" lon="2.92019">
        <ele>46</ele>
        <time>2022-11-04 11:21:52</time>
      </trkpt>
      <trkpt lat="42.04944" lon="2.92035">
        <ele>46</ele>
        <time>2022-11-04 11:21:55</time>
      </trkpt>
      <trkpt lat="42.04947" lon="2.9204">
        <ele>46</ele>
        <time>2022-11-04 11:21:56</time>
      </trkpt>
      <trkpt lat="42.04966" lon="2.92064">
        <ele>46.6</ele>
        <time>2022-11-04 11:22:02</time>
      </trkpt>
      <trkpt lat="42.04973" lon="2.92086">
        <ele>47</ele>
        <time>2022-11-04 11:22:07</time>
      </trkpt>
      <trkpt lat="42.04971" lon="2.921">
        <ele>47.6</ele>
        <time>2022-11-04 11:22:10</time>
      </trkpt>
      <trkpt lat="42.04967" lon="2.92137">
        <ele>48.2</ele>
        <time>2022-11-04 11:22:17</time>
      </trkpt>
      <trkpt lat="42.04964" lon="2.9216">
        <ele>48</ele>
        <time>2022-11-04 11:22:21</time>
      </trkpt>
      <trkpt lat="42.04962" lon="2.92179">
        <ele>47.8</ele>
        <time>2022-11-04 11:22:24</time>
      </trkpt>
      <trkpt lat="42.04955" lon="2.92237">
        <ele>47.2</ele>
        <time>2022-11-04 11:22:33</time>
      </trkpt>
      <trkpt lat="42.04953" lon="2.92261">
        <ele>47.2</ele>
        <time>2022-11-04 11:22:37</time>
      </trkpt>
      <trkpt lat="42.0495" lon="2.92279">
        <ele>47</ele>
        <time>2022-11-04 11:22:40</time>
      </trkpt>
      <trkpt lat="42.04946" lon="2.92309">
        <ele>47</ele>
        <time>2022-11-04 11:22:45</time>
      </trkpt>
      <trkpt lat="42.04941" lon="2.92328">
        <ele>46.8</ele>
        <time>2022-11-04 11:22:48</time>
      </trkpt>
      <trkpt lat="42.04938" lon="2.92355">
        <ele>46.4</ele>
        <time>2022-11-04 11:22:52</time>
      </trkpt>
      <trkpt lat="42.04938" lon="2.9237">
        <ele>46</ele>
        <time>2022-11-04 11:22:54</time>
      </trkpt>
      <trkpt lat="42.04939" lon="2.92387">
        <ele>45.2</ele>
        <time>2022-11-04 11:22:56</time>
      </trkpt>
      <trkpt lat="42.04941" lon="2.92404">
        <ele>44.4</ele>
        <time>2022-11-04 11:22:58</time>
      </trkpt>
      <trkpt lat="42.04944" lon="2.92411">
        <ele>44.2</ele>
        <time>2022-11-04 11:22:59</time>
      </trkpt>
      <trkpt lat="42.04947" lon="2.92418">
        <ele>44</ele>
        <time>2022-11-04 11:23:00</time>
      </trkpt>
      <trkpt lat="42.04956" lon="2.92428">
        <ele>44.2</ele>
        <time>2022-11-04 11:23:02</time>
      </trkpt>
      <trkpt lat="42.04966" lon="2.92446">
        <ele>44.4</ele>
        <time>2022-11-04 11:23:06</time>
      </trkpt>
      <trkpt lat="42.04967" lon="2.9245">
        <ele>44.8</ele>
        <time>2022-11-04 11:23:07</time>
      </trkpt>
      <trkpt lat="42.04966" lon="2.92455">
        <ele>45.2</ele>
        <time>2022-11-04 11:23:09</time>
      </trkpt>
      <trkpt lat="42.04962" lon="2.92456">
        <ele>45.4</ele>
        <time>2022-11-04 11:23:11</time>
      </trkpt>
      <trkpt lat="42.04958" lon="2.92458">
        <ele>45.2</ele>
        <time>2022-11-04 11:23:13</time>
      </trkpt>
      <trkpt lat="42.04956" lon="2.92461">
        <ele>44.8</ele>
        <time>2022-11-04 11:23:15</time>
      </trkpt>
      <trkpt lat="42.04956" lon="2.92465">
        <ele>44.8</ele>
        <time>2022-11-04 11:23:17</time>
      </trkpt>
      <trkpt lat="42.04954" lon="2.92469">
        <ele>45</ele>
        <time>2022-11-04 11:23:21</time>
      </trkpt>
      <trkpt lat="42.04952" lon="2.92468">
        <ele>45</ele>
        <time>2022-11-04 11:23:23</time>
      </trkpt>
      <trkpt lat="42.04949" lon="2.92463">
        <ele>45</ele>
        <time>2022-11-04 11:23:27</time>
      </trkpt>
      <trkpt lat="42.04952" lon="2.9246">
        <ele>44.8</ele>
        <time>2022-11-04 11:23:31</time>
      </trkpt>
      <trkpt lat="42.04953" lon="2.92461">
        <ele>44.8</ele>
        <time>2022-11-04 11:23:38</time>
      </trkpt>
      <trkpt lat="42.04953" lon="2.92461">
        <ele>44.8</ele>
        <time>2022-11-04 11:23:52</time>
      </trkpt>
      <trkpt lat="42.04953" lon="2.92461">
        <ele>44.8</ele>
        <time>2022-11-04 11:24:04</time>
      </trkpt>
      <trkpt lat="42.04953" lon="2.9246">
        <ele>44.8</ele>
        <time>2022-11-04 11:24:12</time>
      </trkpt>
      <trkpt lat="42.04953" lon="2.9246">
        <ele>44.8</ele>
        <time>2022-11-04 11:24:17</time>
      </trkpt>
      <trkpt lat="42.04955" lon="2.9247">
        <ele>44.8</ele>
        <time>2022-11-04 11:24:23</time>
      </trkpt>
      <trkpt lat="42.04956" lon="2.92472">
        <ele>44.8</ele>
        <time>2022-11-04 11:24:24</time>
      </trkpt>
      <trkpt lat="42.0496" lon="2.92486">
        <ele>44.8</ele>
        <time>2022-11-04 11:24:29</time>
      </trkpt>
      <trkpt lat="42.04962" lon="2.92509">
        <ele>46.2</ele>
        <time>2022-11-04 11:24:34</time>
      </trkpt>
      <trkpt lat="42.04966" lon="2.92549">
        <ele>46.6</ele>
        <time>2022-11-04 11:24:42</time>
      </trkpt>
      <trkpt lat="42.04968" lon="2.9259">
        <ele>46.8</ele>
        <time>2022-11-04 11:24:50</time>
      </trkpt>
      <trkpt lat="42.04972" lon="2.92644">
        <ele>46.6</ele>
        <time>2022-11-04 11:24:59</time>
      </trkpt>
      <trkpt lat="42.04973" lon="2.92686">
        <ele>46.8</ele>
        <time>2022-11-04 11:25:06</time>
      </trkpt>
      <trkpt lat="42.04976" lon="2.9275">
        <ele>46.8</ele>
        <time>2022-11-04 11:25:17</time>
      </trkpt>
      <trkpt lat="42.04976" lon="2.92761">
        <ele>47.2</ele>
        <time>2022-11-04 11:25:19</time>
      </trkpt>
      <trkpt lat="42.04977" lon="2.92773">
        <ele>47.4</ele>
        <time>2022-11-04 11:25:21</time>
      </trkpt>
      <trkpt lat="42.0498" lon="2.92794">
        <ele>47.8</ele>
        <time>2022-11-04 11:25:25</time>
      </trkpt>
      <trkpt lat="42.04983" lon="2.92804">
        <ele>48.2</ele>
        <time>2022-11-04 11:25:27</time>
      </trkpt>
      <trkpt lat="42.04992" lon="2.9284">
        <ele>48.6</ele>
        <time>2022-11-04 11:25:34</time>
      </trkpt>
      <trkpt lat="42.05007" lon="2.92886">
        <ele>48.6</ele>
        <time>2022-11-04 11:25:43</time>
      </trkpt>
      <trkpt lat="42.05019" lon="2.92935">
        <ele>48.4</ele>
        <time>2022-11-04 11:25:52</time>
      </trkpt>
      <trkpt lat="42.0503" lon="2.92987">
        <ele>48.2</ele>
        <time>2022-11-04 11:26:02</time>
      </trkpt>
      <trkpt lat="42.05035" lon="2.93017">
        <ele>48</ele>
        <time>2022-11-04 11:26:08</time>
      </trkpt>
      <trkpt lat="42.05042" lon="2.93057">
        <ele>48</ele>
        <time>2022-11-04 11:26:16</time>
      </trkpt>
      <trkpt lat="42.05043" lon="2.9309">
        <ele>47.8</ele>
        <time>2022-11-04 11:26:23</time>
      </trkpt>
      <trkpt lat="42.0504" lon="2.93127">
        <ele>48</ele>
        <time>2022-11-04 11:26:31</time>
      </trkpt>
      <trkpt lat="42.0503" lon="2.93182">
        <ele>47.8</ele>
        <time>2022-11-04 11:26:41</time>
      </trkpt>
      <trkpt lat="42.0502" lon="2.93223">
        <ele>47.8</ele>
        <time>2022-11-04 11:26:49</time>
      </trkpt>
      <trkpt lat="42.05011" lon="2.9326">
        <ele>47.4</ele>
        <time>2022-11-04 11:26:56</time>
      </trkpt>
      <trkpt lat="42.0501" lon="2.93265">
        <ele>47.4</ele>
        <time>2022-11-04 11:26:57</time>
      </trkpt>
      <trkpt lat="42.04996" lon="2.93311">
        <ele>47.8</ele>
        <time>2022-11-04 11:27:05</time>
      </trkpt>
      <trkpt lat="42.04983" lon="2.93358">
        <ele>47.4</ele>
        <time>2022-11-04 11:27:13</time>
      </trkpt>
      <trkpt lat="42.04973" lon="2.93398">
        <ele>47.6</ele>
        <time>2022-11-04 11:27:20</time>
      </trkpt>
      <trkpt lat="42.04962" lon="2.93449">
        <ele>47.8</ele>
        <time>2022-11-04 11:27:29</time>
      </trkpt>
      <trkpt lat="42.0496" lon="2.93461">
        <ele>47.8</ele>
        <time>2022-11-04 11:27:31</time>
      </trkpt>
      <trkpt lat="42.04956" lon="2.93483">
        <ele>47.8</ele>
        <time>2022-11-04 11:27:35</time>
      </trkpt>
      <trkpt lat="42.04952" lon="2.93516">
        <ele>48</ele>
        <time>2022-11-04 11:27:41</time>
      </trkpt>
      <trkpt lat="42.04951" lon="2.93522">
        <ele>48</ele>
        <time>2022-11-04 11:27:42</time>
      </trkpt>
      <trkpt lat="42.0495" lon="2.9356">
        <ele>48.2</ele>
        <time>2022-11-04 11:27:49</time>
      </trkpt>
      <trkpt lat="42.0495" lon="2.93607">
        <ele>48.6</ele>
        <time>2022-11-04 11:27:58</time>
      </trkpt>
      <trkpt lat="42.0495" lon="2.93645">
        <ele>49</ele>
        <time>2022-11-04 11:28:05</time>
      </trkpt>
      <trkpt lat="42.04951" lon="2.93694">
        <ele>48.8</ele>
        <time>2022-11-04 11:28:14</time>
      </trkpt>
      <trkpt lat="42.0495" lon="2.93715">
        <ele>49</ele>
        <time>2022-11-04 11:28:18</time>
      </trkpt>
      <trkpt lat="42.0495" lon="2.9372">
        <ele>49</ele>
        <time>2022-11-04 11:28:19</time>
      </trkpt>
      <trkpt lat="42.04948" lon="2.9373">
        <ele>49.4</ele>
        <time>2022-11-04 11:28:21</time>
      </trkpt>
      <trkpt lat="42.04943" lon="2.93745">
        <ele>50.4</ele>
        <time>2022-11-04 11:28:25</time>
      </trkpt>
      <trkpt lat="42.04941" lon="2.93749">
        <ele>50.4</ele>
        <time>2022-11-04 11:28:26</time>
      </trkpt>
      <trkpt lat="42.04927" lon="2.93776">
        <ele>50</ele>
        <time>2022-11-04 11:28:32</time>
      </trkpt>
      <trkpt lat="42.04912" lon="2.93802">
        <ele>49.4</ele>
        <time>2022-11-04 11:28:36</time>
      </trkpt>
      <trkpt lat="42.04909" lon="2.93807">
        <ele>49.2</ele>
        <time>2022-11-04 11:28:37</time>
      </trkpt>
      <trkpt lat="42.04904" lon="2.93816">
        <ele>49.2</ele>
        <time>2022-11-04 11:28:40</time>
      </trkpt>
      <trkpt lat="42.04891" lon="2.93841">
        <ele>48.8</ele>
        <time>2022-11-04 11:28:46</time>
      </trkpt>
      <trkpt lat="42.04881" lon="2.93867">
        <ele>48.4</ele>
        <time>2022-11-04 11:28:51</time>
      </trkpt>
      <trkpt lat="42.04878" lon="2.93878">
        <ele>48</ele>
        <time>2022-11-04 11:28:53</time>
      </trkpt>
      <trkpt lat="42.04876" lon="2.93909">
        <ele>47.2</ele>
        <time>2022-11-04 11:28:58</time>
      </trkpt>
      <trkpt lat="42.04876" lon="2.93921">
        <ele>47.2</ele>
        <time>2022-11-04 11:29:00</time>
      </trkpt>
      <trkpt lat="42.04872" lon="2.93961">
        <ele>46.8</ele>
        <time>2022-11-04 11:29:07</time>
      </trkpt>
      <trkpt lat="42.04866" lon="2.93982">
        <ele>46.4</ele>
        <time>2022-11-04 11:29:11</time>
      </trkpt>
      <trkpt lat="42.04858" lon="2.93999">
        <ele>46</ele>
        <time>2022-11-04 11:29:14</time>
      </trkpt>
      <trkpt lat="42.04844" lon="2.94013">
        <ele>46.8</ele>
        <time>2022-11-04 11:29:18</time>
      </trkpt>
      <trkpt lat="42.04841" lon="2.94016">
        <ele>47</ele>
        <time>2022-11-04 11:29:19</time>
      </trkpt>
      <trkpt lat="42.04823" lon="2.94032">
        <ele>47.8</ele>
        <time>2022-11-04 11:29:25</time>
      </trkpt>
      <trkpt lat="42.04802" lon="2.94052">
        <ele>47</ele>
        <time>2022-11-04 11:29:31</time>
      </trkpt>
      <trkpt lat="42.04797" lon="2.94055">
        <ele>47</ele>
        <time>2022-11-04 11:29:32</time>
      </trkpt>
      <trkpt lat="42.04784" lon="2.94059">
        <ele>47.6</ele>
        <time>2022-11-04 11:29:35</time>
      </trkpt>
      <trkpt lat="42.0478" lon="2.9406">
        <ele>47.8</ele>
        <time>2022-11-04 11:29:36</time>
      </trkpt>
      <trkpt lat="42.04773" lon="2.94064">
        <ele>48</ele>
        <time>2022-11-04 11:29:38</time>
      </trkpt>
      <trkpt lat="42.04769" lon="2.94071">
        <ele>48.2</ele>
        <time>2022-11-04 11:29:40</time>
      </trkpt>
      <trkpt lat="42.04758" lon="2.94101">
        <ele>48.4</ele>
        <time>2022-11-04 11:29:47</time>
      </trkpt>
      <trkpt lat="42.04749" lon="2.94122">
        <ele>48.8</ele>
        <time>2022-11-04 11:29:52</time>
      </trkpt>
      <trkpt lat="42.04747" lon="2.94127">
        <ele>49</ele>
        <time>2022-11-04 11:29:53</time>
      </trkpt>
      <trkpt lat="42.04739" lon="2.9414">
        <ele>49</ele>
        <time>2022-11-04 11:29:56</time>
      </trkpt>
      <trkpt lat="42.04724" lon="2.94154">
        <ele>49.8</ele>
        <time>2022-11-04 11:30:01</time>
      </trkpt>
      <trkpt lat="42.04706" lon="2.94159">
        <ele>50</ele>
        <time>2022-11-04 11:30:06</time>
      </trkpt>
      <trkpt lat="42.04698" lon="2.9416">
        <ele>50</ele>
        <time>2022-11-04 11:30:08</time>
      </trkpt>
      <trkpt lat="42.04668" lon="2.94163">
        <ele>51.2</ele>
        <time>2022-11-04 11:30:16</time>
      </trkpt>
      <trkpt lat="42.04659" lon="2.94166">
        <ele>51.4</ele>
        <time>2022-11-04 11:30:20</time>
      </trkpt>
      <trkpt lat="42.04658" lon="2.94169">
        <ele>51.4</ele>
        <time>2022-11-04 11:30:21</time>
      </trkpt>
      <trkpt lat="42.04658" lon="2.94176">
        <ele>51.6</ele>
        <time>2022-11-04 11:30:24</time>
      </trkpt>
      <trkpt lat="42.04659" lon="2.94178">
        <ele>51.6</ele>
        <time>2022-11-04 11:30:25</time>
      </trkpt>
      <trkpt lat="42.04664" lon="2.94191">
        <ele>51.6</ele>
        <time>2022-11-04 11:30:30</time>
      </trkpt>
      <trkpt lat="42.04665" lon="2.94194">
        <ele>51.8</ele>
        <time>2022-11-04 11:30:31</time>
      </trkpt>
      <trkpt lat="42.04672" lon="2.94213">
        <ele>51.8</ele>
        <time>2022-11-04 11:30:37</time>
      </trkpt>
      <trkpt lat="42.04679" lon="2.94236">
        <ele>51</ele>
        <time>2022-11-04 11:30:43</time>
      </trkpt>
      <trkpt lat="42.04685" lon="2.94264">
        <ele>50.6</ele>
        <time>2022-11-04 11:30:49</time>
      </trkpt>
      <trkpt lat="42.0469" lon="2.94298">
        <ele>50.6</ele>
        <time>2022-11-04 11:30:56</time>
      </trkpt>
      <trkpt lat="42.04688" lon="2.94332">
        <ele>50.2</ele>
        <time>2022-11-04 11:31:03</time>
      </trkpt>
      <trkpt lat="42.04687" lon="2.94337">
        <ele>50</ele>
        <time>2022-11-04 11:31:04</time>
      </trkpt>
      <trkpt lat="42.04678" lon="2.94379">
        <ele>49.8</ele>
        <time>2022-11-04 11:31:12</time>
      </trkpt>
      <trkpt lat="42.04669" lon="2.94411">
        <ele>49.6</ele>
        <time>2022-11-04 11:31:19</time>
      </trkpt>
      <trkpt lat="42.04659" lon="2.94436">
        <ele>49.8</ele>
        <time>2022-11-04 11:31:25</time>
      </trkpt>
      <trkpt lat="42.04653" lon="2.94465">
        <ele>49.6</ele>
        <time>2022-11-04 11:31:32</time>
      </trkpt>
      <trkpt lat="42.04649" lon="2.9449">
        <ele>49.2</ele>
        <time>2022-11-04 11:31:37</time>
      </trkpt>
      <trkpt lat="42.04649" lon="2.94496">
        <ele>49</ele>
        <time>2022-11-04 11:31:38</time>
      </trkpt>
      <trkpt lat="42.0465" lon="2.94547">
        <ele>48.6</ele>
        <time>2022-11-04 11:31:47</time>
      </trkpt>
      <trkpt lat="42.04651" lon="2.94583">
        <ele>48</ele>
        <time>2022-11-04 11:31:53</time>
      </trkpt>
      <trkpt lat="42.04652" lon="2.94595">
        <ele>48</ele>
        <time>2022-11-04 11:31:55</time>
      </trkpt>
      <trkpt lat="42.04652" lon="2.94652">
        <ele>48</ele>
        <time>2022-11-04 11:32:05</time>
      </trkpt>
      <trkpt lat="42.04655" lon="2.94657">
        <ele>48</ele>
        <time>2022-11-04 11:32:07</time>
      </trkpt>
      <trkpt lat="42.04657" lon="2.94655">
        <ele>48</ele>
        <time>2022-11-04 11:32:08</time>
      </trkpt>
      <trkpt lat="42.04658" lon="2.94647">
        <ele>48</ele>
        <time>2022-11-04 11:32:11</time>
      </trkpt>
      <trkpt lat="42.04665" lon="2.94646">
        <ele>47.8</ele>
        <time>2022-11-04 11:32:14</time>
      </trkpt>
      <trkpt lat="42.04674" lon="2.94656">
        <ele>46.8</ele>
        <time>2022-11-04 11:32:17</time>
      </trkpt>
      <trkpt lat="42.04678" lon="2.94661">
        <ele>46.6</ele>
        <time>2022-11-04 11:32:18</time>
      </trkpt>
      <trkpt lat="42.0469" lon="2.94674">
        <ele>45.8</ele>
        <time>2022-11-04 11:32:21</time>
      </trkpt>
      <trkpt lat="42.04707" lon="2.94691">
        <ele>45.4</ele>
        <time>2022-11-04 11:32:25</time>
      </trkpt>
      <trkpt lat="42.0473" lon="2.94711">
        <ele>44.8</ele>
        <time>2022-11-04 11:32:30</time>
      </trkpt>
      <trkpt lat="42.04742" lon="2.94723">
        <ele>44.6</ele>
        <time>2022-11-04 11:32:33</time>
      </trkpt>
      <trkpt lat="42.04746" lon="2.94728">
        <ele>44.6</ele>
        <time>2022-11-04 11:32:34</time>
      </trkpt>
      <trkpt lat="42.04766" lon="2.94757">
        <ele>44.2</ele>
        <time>2022-11-04 11:32:40</time>
      </trkpt>
      <trkpt lat="42.04789" lon="2.94799">
        <ele>43.8</ele>
        <time>2022-11-04 11:32:48</time>
      </trkpt>
      <trkpt lat="42.04797" lon="2.94815">
        <ele>43.6</ele>
        <time>2022-11-04 11:32:51</time>
      </trkpt>
      <trkpt lat="42.04806" lon="2.94835">
        <ele>44.4</ele>
        <time>2022-11-04 11:32:55</time>
      </trkpt>
      <trkpt lat="42.04808" lon="2.9484">
        <ele>44.6</ele>
        <time>2022-11-04 11:32:56</time>
      </trkpt>
      <trkpt lat="42.04817" lon="2.94859">
        <ele>44.8</ele>
        <time>2022-11-04 11:33:00</time>
      </trkpt>
      <trkpt lat="42.04823" lon="2.94868">
        <ele>44.6</ele>
        <time>2022-11-04 11:33:02</time>
      </trkpt>
      <trkpt lat="42.04844" lon="2.94916">
        <ele>44.2</ele>
        <time>2022-11-04 11:33:11</time>
      </trkpt>
      <trkpt lat="42.04869" lon="2.94963">
        <ele>44</ele>
        <time>2022-11-04 11:33:20</time>
      </trkpt>
      <trkpt lat="42.04874" lon="2.94973">
        <ele>43.8</ele>
        <time>2022-11-04 11:33:22</time>
      </trkpt>
      <trkpt lat="42.0488" lon="2.94982">
        <ele>43.6</ele>
        <time>2022-11-04 11:33:24</time>
      </trkpt>
      <trkpt lat="42.04885" lon="2.94991">
        <ele>43.6</ele>
        <time>2022-11-04 11:33:26</time>
      </trkpt>
      <trkpt lat="42.04905" lon="2.95024">
        <ele>42.8</ele>
        <time>2022-11-04 11:33:33</time>
      </trkpt>
      <trkpt lat="42.04908" lon="2.95028">
        <ele>43</ele>
        <time>2022-11-04 11:33:34</time>
      </trkpt>
      <trkpt lat="42.04923" lon="2.95049">
        <ele>43.2</ele>
        <time>2022-11-04 11:33:39</time>
      </trkpt>
      <trkpt lat="42.04932" lon="2.95074">
        <ele>43.4</ele>
        <time>2022-11-04 11:33:44</time>
      </trkpt>
      <trkpt lat="42.04933" lon="2.95079">
        <ele>43.4</ele>
        <time>2022-11-04 11:33:45</time>
      </trkpt>
      <trkpt lat="42.04936" lon="2.95095">
        <ele>43.4</ele>
        <time>2022-11-04 11:33:48</time>
      </trkpt>
      <trkpt lat="42.04938" lon="2.95111">
        <ele>42.8</ele>
        <time>2022-11-04 11:33:51</time>
      </trkpt>
      <trkpt lat="42.04939" lon="2.95121">
        <ele>42.6</ele>
        <time>2022-11-04 11:33:53</time>
      </trkpt>
      <trkpt lat="42.04946" lon="2.9515">
        <ele>42.6</ele>
        <time>2022-11-04 11:33:59</time>
      </trkpt>
      <trkpt lat="42.04949" lon="2.95166">
        <ele>42.6</ele>
        <time>2022-11-04 11:34:02</time>
      </trkpt>
      <trkpt lat="42.04957" lon="2.95188">
        <ele>41.8</ele>
        <time>2022-11-04 11:34:07</time>
      </trkpt>
      <trkpt lat="42.04966" lon="2.95214">
        <ele>41.8</ele>
        <time>2022-11-04 11:34:13</time>
      </trkpt>
      <trkpt lat="42.04977" lon="2.95241">
        <ele>41.8</ele>
        <time>2022-11-04 11:34:19</time>
      </trkpt>
      <trkpt lat="42.04983" lon="2.95256">
        <ele>41.8</ele>
        <time>2022-11-04 11:34:24</time>
      </trkpt>
      <trkpt lat="42.04985" lon="2.9526">
        <ele>41.4</ele>
        <time>2022-11-04 11:34:26</time>
      </trkpt>
      <trkpt lat="42.0499" lon="2.95272">
        <ele>41.4</ele>
        <time>2022-11-04 11:34:30</time>
      </trkpt>
      <trkpt lat="42.04992" lon="2.95299">
        <ele>41.2</ele>
        <time>2022-11-04 11:34:35</time>
      </trkpt>
      <trkpt lat="42.04994" lon="2.95323">
        <ele>41.2</ele>
        <time>2022-11-04 11:34:41</time>
      </trkpt>
      <trkpt lat="42.04995" lon="2.95329">
        <ele>41.4</ele>
        <time>2022-11-04 11:34:43</time>
      </trkpt>
      <trkpt lat="42.04996" lon="2.95331">
        <ele>41.6</ele>
        <time>2022-11-04 11:34:45</time>
      </trkpt>
      <trkpt lat="42.04998" lon="2.95332">
        <ele>41.4</ele>
        <time>2022-11-04 11:34:46</time>
      </trkpt>
      <trkpt lat="42.05006" lon="2.95336">
        <ele>42.2</ele>
        <time>2022-11-04 11:34:50</time>
      </trkpt>
      <trkpt lat="42.05007" lon="2.95339">
        <ele>42.6</ele>
        <time>2022-11-04 11:34:51</time>
      </trkpt>
      <trkpt lat="42.05009" lon="2.95346">
        <ele>43.2</ele>
        <time>2022-11-04 11:34:54</time>
      </trkpt>
      <trkpt lat="42.05015" lon="2.95362">
        <ele>42.8</ele>
        <time>2022-11-04 11:35:00</time>
      </trkpt>
      <trkpt lat="42.05024" lon="2.95385">
        <ele>41.8</ele>
        <time>2022-11-04 11:35:05</time>
      </trkpt>
      <trkpt lat="42.05031" lon="2.95404">
        <ele>41.6</ele>
        <time>2022-11-04 11:35:10</time>
      </trkpt>
      <trkpt lat="42.05044" lon="2.95425">
        <ele>41.6</ele>
        <time>2022-11-04 11:35:16</time>
      </trkpt>
      <trkpt lat="42.05051" lon="2.95456">
        <ele>42</ele>
        <time>2022-11-04 11:35:23</time>
      </trkpt>
      <trkpt lat="42.0506" lon="2.95492">
        <ele>42.2</ele>
        <time>2022-11-04 11:35:31</time>
      </trkpt>
      <trkpt lat="42.05073" lon="2.9553">
        <ele>41.6</ele>
        <time>2022-11-04 11:35:39</time>
      </trkpt>
      <trkpt lat="42.05073" lon="2.95552">
        <ele>41.6</ele>
        <time>2022-11-04 11:35:43</time>
      </trkpt>
      <trkpt lat="42.05071" lon="2.95585">
        <ele>41.2</ele>
        <time>2022-11-04 11:35:49</time>
      </trkpt>
      <trkpt lat="42.05068" lon="2.95632">
        <ele>42</ele>
        <time>2022-11-04 11:35:57</time>
      </trkpt>
      <trkpt lat="42.05063" lon="2.95659">
        <ele>42</ele>
        <time>2022-11-04 11:36:03</time>
      </trkpt>
      <trkpt lat="42.05062" lon="2.95669">
        <ele>42</ele>
        <time>2022-11-04 11:36:05</time>
      </trkpt>
      <trkpt lat="42.05066" lon="2.95678">
        <ele>41.8</ele>
        <time>2022-11-04 11:36:07</time>
      </trkpt>
      <trkpt lat="42.05077" lon="2.95682">
        <ele>41.8</ele>
        <time>2022-11-04 11:36:11</time>
      </trkpt>
      <trkpt lat="42.05091" lon="2.95682">
        <ele>41.6</ele>
        <time>2022-11-04 11:36:15</time>
      </trkpt>
      <trkpt lat="42.05098" lon="2.95688">
        <ele>41.6</ele>
        <time>2022-11-04 11:36:17</time>
      </trkpt>
      <trkpt lat="42.05108" lon="2.95697">
        <ele>40.8</ele>
        <time>2022-11-04 11:36:20</time>
      </trkpt>
      <trkpt lat="42.05115" lon="2.95702">
        <ele>40.4</ele>
        <time>2022-11-04 11:36:22</time>
      </trkpt>
      <trkpt lat="42.05135" lon="2.95719">
        <ele>39.8</ele>
        <time>2022-11-04 11:36:27</time>
      </trkpt>
      <trkpt lat="42.05149" lon="2.95731">
        <ele>39.4</ele>
        <time>2022-11-04 11:36:30</time>
      </trkpt>
      <trkpt lat="42.05174" lon="2.95751">
        <ele>38.2</ele>
        <time>2022-11-04 11:36:35</time>
      </trkpt>
      <trkpt lat="42.05204" lon="2.9578">
        <ele>38</ele>
        <time>2022-11-04 11:36:42</time>
      </trkpt>
      <trkpt lat="42.0523" lon="2.95803">
        <ele>38.2</ele>
        <time>2022-11-04 11:36:48</time>
      </trkpt>
      <trkpt lat="42.0524" lon="2.95809">
        <ele>38.2</ele>
        <time>2022-11-04 11:36:50</time>
      </trkpt>
      <trkpt lat="42.05256" lon="2.95813">
        <ele>38.2</ele>
        <time>2022-11-04 11:36:53</time>
      </trkpt>
      <trkpt lat="42.05272" lon="2.95816">
        <ele>38.2</ele>
        <time>2022-11-04 11:36:56</time>
      </trkpt>
      <trkpt lat="42.05289" lon="2.95816">
        <ele>37.8</ele>
        <time>2022-11-04 11:36:59</time>
      </trkpt>
      <trkpt lat="42.05322" lon="2.9582">
        <ele>37.8</ele>
        <time>2022-11-04 11:37:04</time>
      </trkpt>
      <trkpt lat="42.05364" lon="2.95821">
        <ele>38.2</ele>
        <time>2022-11-04 11:37:11</time>
      </trkpt>
      <trkpt lat="42.054" lon="2.95822">
        <ele>38.6</ele>
        <time>2022-11-04 11:37:17</time>
      </trkpt>
      <trkpt lat="42.05423" lon="2.95832">
        <ele>37.8</ele>
        <time>2022-11-04 11:37:21</time>
      </trkpt>
      <trkpt lat="42.05428" lon="2.95836">
        <ele>37.8</ele>
        <time>2022-11-04 11:37:22</time>
      </trkpt>
      <trkpt lat="42.05449" lon="2.95855">
        <ele>38.2</ele>
        <time>2022-11-04 11:37:27</time>
      </trkpt>
      <trkpt lat="42.0547" lon="2.9587">
        <ele>37.2</ele>
        <time>2022-11-04 11:37:33</time>
      </trkpt>
      <trkpt lat="42.05474" lon="2.95872">
        <ele>37.2</ele>
        <time>2022-11-04 11:37:34</time>
      </trkpt>
      <trkpt lat="42.05479" lon="2.95874">
        <ele>37.4</ele>
        <time>2022-11-04 11:37:35</time>
      </trkpt>
      <trkpt lat="42.05484" lon="2.95876">
        <ele>38.2</ele>
        <time>2022-11-04 11:37:36</time>
      </trkpt>
      <trkpt lat="42.055" lon="2.95881">
        <ele>38.2</ele>
        <time>2022-11-04 11:37:39</time>
      </trkpt>
      <trkpt lat="42.0555" lon="2.95893">
        <ele>37.8</ele>
        <time>2022-11-04 11:37:48</time>
      </trkpt>
      <trkpt lat="42.05565" lon="2.95911">
        <ele>37.8</ele>
        <time>2022-11-04 11:37:52</time>
      </trkpt>
      <trkpt lat="42.05569" lon="2.95932">
        <ele>38.4</ele>
        <time>2022-11-04 11:37:56</time>
      </trkpt>
      <trkpt lat="42.05568" lon="2.95941">
        <ele>38.4</ele>
        <time>2022-11-04 11:37:58</time>
      </trkpt>
      <trkpt lat="42.05565" lon="2.95953">
        <ele>38.6</ele>
        <time>2022-11-04 11:38:01</time>
      </trkpt>
      <trkpt lat="42.05551" lon="2.95981">
        <ele>39</ele>
        <time>2022-11-04 11:38:10</time>
      </trkpt>
      <trkpt lat="42.05536" lon="2.96008">
        <ele>37.8</ele>
        <time>2022-11-04 11:38:17</time>
      </trkpt>
      <trkpt lat="42.0552" lon="2.96047">
        <ele>38</ele>
        <time>2022-11-04 11:38:25</time>
      </trkpt>
      <trkpt lat="42.05505" lon="2.96086">
        <ele>37.6</ele>
        <time>2022-11-04 11:38:32</time>
      </trkpt>
      <trkpt lat="42.05486" lon="2.96136">
        <ele>38.4</ele>
        <time>2022-11-04 11:38:40</time>
      </trkpt>
      <trkpt lat="42.05474" lon="2.96172">
        <ele>39</ele>
        <time>2022-11-04 11:38:48</time>
      </trkpt>
      <trkpt lat="42.0547" lon="2.96189">
        <ele>39.4</ele>
        <time>2022-11-04 11:38:52</time>
      </trkpt>
      <trkpt lat="42.05468" lon="2.96198">
        <ele>39.4</ele>
        <time>2022-11-04 11:38:54</time>
      </trkpt>
      <trkpt lat="42.05462" lon="2.96228">
        <ele>39.8</ele>
        <time>2022-11-04 11:39:01</time>
      </trkpt>
      <trkpt lat="42.05459" lon="2.96243">
        <ele>40.4</ele>
        <time>2022-11-04 11:39:04</time>
      </trkpt>
      <trkpt lat="42.05459" lon="2.96255">
        <ele>40.4</ele>
        <time>2022-11-04 11:39:07</time>
      </trkpt>
      <trkpt lat="42.05466" lon="2.96283">
        <ele>41</ele>
        <time>2022-11-04 11:39:13</time>
      </trkpt>
      <trkpt lat="42.05481" lon="2.96327">
        <ele>41</ele>
        <time>2022-11-04 11:39:22</time>
      </trkpt>
      <trkpt lat="42.05489" lon="2.9635">
        <ele>41</ele>
        <time>2022-11-04 11:39:27</time>
      </trkpt>
      <trkpt lat="42.05503" lon="2.96394">
        <ele>41.2</ele>
        <time>2022-11-04 11:39:35</time>
      </trkpt>
      <trkpt lat="42.05516" lon="2.96424">
        <ele>41.4</ele>
        <time>2022-11-04 11:39:41</time>
      </trkpt>
      <trkpt lat="42.05523" lon="2.96431">
        <ele>41.2</ele>
        <time>2022-11-04 11:39:43</time>
      </trkpt>
      <trkpt lat="42.05541" lon="2.96443">
        <ele>40.2</ele>
        <time>2022-11-04 11:39:47</time>
      </trkpt>
      <trkpt lat="42.05547" lon="2.96446">
        <ele>40</ele>
        <time>2022-11-04 11:39:48</time>
      </trkpt>
      <trkpt lat="42.05584" lon="2.96465">
        <ele>39</ele>
        <time>2022-11-04 11:39:54</time>
      </trkpt>
      <trkpt lat="42.0559" lon="2.96469">
        <ele>38.8</ele>
        <time>2022-11-04 11:39:55</time>
      </trkpt>
      <trkpt lat="42.05596" lon="2.96475">
        <ele>38.4</ele>
        <time>2022-11-04 11:39:56</time>
      </trkpt>
      <trkpt lat="42.05611" lon="2.96496">
        <ele>38.4</ele>
        <time>2022-11-04 11:39:59</time>
      </trkpt>
      <trkpt lat="42.05623" lon="2.96518">
        <ele>37.8</ele>
        <time>2022-11-04 11:40:02</time>
      </trkpt>
      <trkpt lat="42.05631" lon="2.96541">
        <ele>37.6</ele>
        <time>2022-11-04 11:40:05</time>
      </trkpt>
      <trkpt lat="42.0564" lon="2.96581">
        <ele>39</ele>
        <time>2022-11-04 11:40:11</time>
      </trkpt>
      <trkpt lat="42.05641" lon="2.96588">
        <ele>39.2</ele>
        <time>2022-11-04 11:40:12</time>
      </trkpt>
      <trkpt lat="42.05646" lon="2.96619">
        <ele>39.8</ele>
        <time>2022-11-04 11:40:17</time>
      </trkpt>
      <trkpt lat="42.05647" lon="2.96625">
        <ele>40.2</ele>
        <time>2022-11-04 11:40:18</time>
      </trkpt>
      <trkpt lat="42.05652" lon="2.96664">
        <ele>39.4</ele>
        <time>2022-11-04 11:40:24</time>
      </trkpt>
      <trkpt lat="42.05652" lon="2.96671">
        <ele>39</ele>
        <time>2022-11-04 11:40:25</time>
      </trkpt>
      <trkpt lat="42.05653" lon="2.96696">
        <ele>37.8</ele>
        <time>2022-11-04 11:40:28</time>
      </trkpt>
      <trkpt lat="42.05653" lon="2.96705">
        <ele>37.6</ele>
        <time>2022-11-04 11:40:29</time>
      </trkpt>
      <trkpt lat="42.0565" lon="2.96734">
        <ele>37.2</ele>
        <time>2022-11-04 11:40:32</time>
      </trkpt>
      <trkpt lat="42.05652" lon="2.96751">
        <ele>36.8</ele>
        <time>2022-11-04 11:40:34</time>
      </trkpt>
      <trkpt lat="42.05655" lon="2.96759">
        <ele>36.8</ele>
        <time>2022-11-04 11:40:35</time>
      </trkpt>
      <trkpt lat="42.05663" lon="2.96772">
        <ele>37</ele>
        <time>2022-11-04 11:40:37</time>
      </trkpt>
      <trkpt lat="42.05677" lon="2.96781">
        <ele>37</ele>
        <time>2022-11-04 11:40:40</time>
      </trkpt>
      <trkpt lat="42.05681" lon="2.96784">
        <ele>37.2</ele>
        <time>2022-11-04 11:40:41</time>
      </trkpt>
      <trkpt lat="42.0569" lon="2.96795">
        <ele>38</ele>
        <time>2022-11-04 11:40:44</time>
      </trkpt>
      <trkpt lat="42.05693" lon="2.96799">
        <ele>38.4</ele>
        <time>2022-11-04 11:40:45</time>
      </trkpt>
      <trkpt lat="42.05704" lon="2.96825">
        <ele>39.4</ele>
        <time>2022-11-04 11:40:50</time>
      </trkpt>
      <trkpt lat="42.05708" lon="2.96855">
        <ele>39.2</ele>
        <time>2022-11-04 11:40:55</time>
      </trkpt>
      <trkpt lat="42.05713" lon="2.96884">
        <ele>38.4</ele>
        <time>2022-11-04 11:41:00</time>
      </trkpt>
      <trkpt lat="42.05715" lon="2.96891">
        <ele>38</ele>
        <time>2022-11-04 11:41:01</time>
      </trkpt>
      <trkpt lat="42.05723" lon="2.96919">
        <ele>37.4</ele>
        <time>2022-11-04 11:41:05</time>
      </trkpt>
      <trkpt lat="42.05727" lon="2.96934">
        <ele>36.6</ele>
        <time>2022-11-04 11:41:07</time>
      </trkpt>
      <trkpt lat="42.05733" lon="2.96952">
        <ele>37</ele>
        <time>2022-11-04 11:41:11</time>
      </trkpt>
      <trkpt lat="42.05733" lon="2.96954">
        <ele>37</ele>
        <time>2022-11-04 11:41:12</time>
      </trkpt>
      <trkpt lat="42.0573" lon="2.96956">
        <ele>37.2</ele>
        <time>2022-11-04 11:41:14</time>
      </trkpt>
      <trkpt lat="42.05724" lon="2.96965">
        <ele>37.2</ele>
        <time>2022-11-04 11:41:18</time>
      </trkpt>
      <trkpt lat="42.05715" lon="2.96988">
        <ele>37.6</ele>
        <time>2022-11-04 11:41:24</time>
      </trkpt>
      <trkpt lat="42.05708" lon="2.97011">
        <ele>38.6</ele>
        <time>2022-11-04 11:41:30</time>
      </trkpt>
      <trkpt lat="42.05706" lon="2.97021">
        <ele>39.2</ele>
        <time>2022-11-04 11:41:34</time>
      </trkpt>
      <trkpt lat="42.05704" lon="2.97024">
        <ele>39.4</ele>
        <time>2022-11-04 11:41:36</time>
      </trkpt>
      <trkpt lat="42.05704" lon="2.97026">
        <ele>39.6</ele>
        <time>2022-11-04 11:41:37</time>
      </trkpt>
      <trkpt lat="42.05705" lon="2.97031">
        <ele>39.8</ele>
        <time>2022-11-04 11:41:39</time>
      </trkpt>
      <trkpt lat="42.05706" lon="2.97033">
        <ele>39.8</ele>
        <time>2022-11-04 11:41:40</time>
      </trkpt>
      <trkpt lat="42.0571" lon="2.97042">
        <ele>40.4</ele>
        <time>2022-11-04 11:41:44</time>
      </trkpt>
      <trkpt lat="42.05714" lon="2.97049">
        <ele>40.4</ele>
        <time>2022-11-04 11:41:47</time>
      </trkpt>
      <trkpt lat="42.05718" lon="2.97053">
        <ele>40.6</ele>
        <time>2022-11-04 11:41:49</time>
      </trkpt>
      <trkpt lat="42.0572" lon="2.97055">
        <ele>40.6</ele>
        <time>2022-11-04 11:41:50</time>
      </trkpt>
      <trkpt lat="42.05727" lon="2.97062">
        <ele>41.2</ele>
        <time>2022-11-04 11:41:55</time>
      </trkpt>
      <trkpt lat="42.05728" lon="2.97063">
        <ele>41.2</ele>
        <time>2022-11-04 11:41:56</time>
      </trkpt>
      <trkpt lat="42.0573" lon="2.97063">
        <ele>41.8</ele>
        <time>2022-11-04 11:42:01</time>
      </trkpt>
      <trkpt lat="42.0573" lon="2.97063">
        <ele>42.8</ele>
        <time>2022-11-04 11:42:12</time>
      </trkpt>
      <trkpt lat="42.0573" lon="2.97063">
        <ele>41.6</ele>
        <time>2022-11-04 11:42:18</time>
      </trkpt>
      <trkpt lat="42.0573" lon="2.97063">
        <ele>41</ele>
        <time>2022-11-04 11:42:36</time>
      </trkpt>
      <trkpt lat="42.0573" lon="2.97063">
        <ele>41.6</ele>
        <time>2022-11-04 11:42:49</time>
      </trkpt>
      <trkpt lat="42.0573" lon="2.97063">
        <ele>41.4</ele>
        <time>2022-11-04 11:43:02</time>
      </trkpt>
      <trkpt lat="42.0573" lon="2.97063">
        <ele>41.4</ele>
        <time>2022-11-04 11:43:17</time>
      </trkpt>
      <trkpt lat="42.0573" lon="2.97063">
        <ele>41.6</ele>
        <time>2022-11-04 11:43:31</time>
      </trkpt>
      <trkpt lat="42.05731" lon="2.97062">
        <ele>41.2</ele>
        <time>2022-11-04 11:43:41</time>
      </trkpt>
      <trkpt lat="42.05732" lon="2.9706">
        <ele>41</ele>
        <time>2022-11-04 11:43:42</time>
      </trkpt>
      <trkpt lat="42.05741" lon="2.97055">
        <ele>41.6</ele>
        <time>2022-11-04 11:43:46</time>
      </trkpt>
      <trkpt lat="42.05746" lon="2.9705">
        <ele>42</ele>
        <time>2022-11-04 11:43:48</time>
      </trkpt>
      <trkpt lat="42.05754" lon="2.97047">
        <ele>41.6</ele>
        <time>2022-11-04 11:43:51</time>
      </trkpt>
      <trkpt lat="42.05764" lon="2.97048">
        <ele>43.2</ele>
        <time>2022-11-04 11:43:54</time>
      </trkpt>
      <trkpt lat="42.05771" lon="2.97051">
        <ele>43.6</ele>
        <time>2022-11-04 11:43:56</time>
      </trkpt>
      <trkpt lat="42.05785" lon="2.97055">
        <ele>41.6</ele>
        <time>2022-11-04 11:44:00</time>
      </trkpt>
      <trkpt lat="42.05796" lon="2.97062">
        <ele>41.4</ele>
        <time>2022-11-04 11:44:03</time>
      </trkpt>
      <trkpt lat="42.05809" lon="2.97071">
        <ele>41.2</ele>
        <time>2022-11-04 11:44:06</time>
      </trkpt>
      <trkpt lat="42.05819" lon="2.97075">
        <ele>40.6</ele>
        <time>2022-11-04 11:44:08</time>
      </trkpt>
      <trkpt lat="42.05845" lon="2.97094">
        <ele>39.8</ele>
        <time>2022-11-04 11:44:13</time>
      </trkpt>
      <trkpt lat="42.05851" lon="2.97099">
        <ele>39.4</ele>
        <time>2022-11-04 11:44:14</time>
      </trkpt>
      <trkpt lat="42.05856" lon="2.97105">
        <ele>38.8</ele>
        <time>2022-11-04 11:44:15</time>
      </trkpt>
      <trkpt lat="42.05869" lon="2.97124">
        <ele>38.6</ele>
        <time>2022-11-04 11:44:18</time>
      </trkpt>
      <trkpt lat="42.05874" lon="2.97129">
        <ele>38.4</ele>
        <time>2022-11-04 11:44:19</time>
      </trkpt>
      <trkpt lat="42.0588" lon="2.97134">
        <ele>38</ele>
        <time>2022-11-04 11:44:20</time>
      </trkpt>
      <trkpt lat="42.05884" lon="2.97141">
        <ele>37.8</ele>
        <time>2022-11-04 11:44:21</time>
      </trkpt>
      <trkpt lat="42.05888" lon="2.97148">
        <ele>37.4</ele>
        <time>2022-11-04 11:44:22</time>
      </trkpt>
      <trkpt lat="42.05892" lon="2.97155">
        <ele>37</ele>
        <time>2022-11-04 11:44:23</time>
      </trkpt>
      <trkpt lat="42.05901" lon="2.97172">
        <ele>35.6</ele>
        <time>2022-11-04 11:44:25</time>
      </trkpt>
      <trkpt lat="42.05909" lon="2.9719">
        <ele>34.6</ele>
        <time>2022-11-04 11:44:27</time>
      </trkpt>
      <trkpt lat="42.05919" lon="2.97208">
        <ele>33.4</ele>
        <time>2022-11-04 11:44:29</time>
      </trkpt>
      <trkpt lat="42.05938" lon="2.97243">
        <ele>32.8</ele>
        <time>2022-11-04 11:44:33</time>
      </trkpt>
      <trkpt lat="42.05951" lon="2.97276">
        <ele>32.4</ele>
        <time>2022-11-04 11:44:37</time>
      </trkpt>
      <trkpt lat="42.05956" lon="2.97292">
        <ele>32.4</ele>
        <time>2022-11-04 11:44:39</time>
      </trkpt>
      <trkpt lat="42.05965" lon="2.9732">
        <ele>32.6</ele>
        <time>2022-11-04 11:44:43</time>
      </trkpt>
      <trkpt lat="42.05966" lon="2.97328">
        <ele>32.6</ele>
        <time>2022-11-04 11:44:44</time>
      </trkpt>
      <trkpt lat="42.0596" lon="2.97348">
        <ele>33</ele>
        <time>2022-11-04 11:44:47</time>
      </trkpt>
      <trkpt lat="42.0595" lon="2.97357">
        <ele>33.4</ele>
        <time>2022-11-04 11:44:49</time>
      </trkpt>
      <trkpt lat="42.05946" lon="2.97361">
        <ele>33.6</ele>
        <time>2022-11-04 11:44:50</time>
      </trkpt>
      <trkpt lat="42.05941" lon="2.97365">
        <ele>33.8</ele>
        <time>2022-11-04 11:44:51</time>
      </trkpt>
      <trkpt lat="42.05937" lon="2.9737">
        <ele>33.8</ele>
        <time>2022-11-04 11:44:52</time>
      </trkpt>
      <trkpt lat="42.05931" lon="2.97388">
        <ele>33.8</ele>
        <time>2022-11-04 11:44:55</time>
      </trkpt>
      <trkpt lat="42.05931" lon="2.97416">
        <ele>33.2</ele>
        <time>2022-11-04 11:44:59</time>
      </trkpt>
      <trkpt lat="42.05942" lon="2.97436">
        <ele>33.8</ele>
        <time>2022-11-04 11:45:03</time>
      </trkpt>
      <trkpt lat="42.05945" lon="2.9744">
        <ele>34</ele>
        <time>2022-11-04 11:45:04</time>
      </trkpt>
      <trkpt lat="42.05949" lon="2.97443">
        <ele>34</ele>
        <time>2022-11-04 11:45:05</time>
      </trkpt>
      <trkpt lat="42.05965" lon="2.97452">
        <ele>32.6</ele>
        <time>2022-11-04 11:45:09</time>
      </trkpt>
      <trkpt lat="42.0599" lon="2.97463">
        <ele>32.6</ele>
        <time>2022-11-04 11:45:15</time>
      </trkpt>
      <trkpt lat="42.05998" lon="2.97468">
        <ele>32</ele>
        <time>2022-11-04 11:45:17</time>
      </trkpt>
      <trkpt lat="42.06005" lon="2.97474">
        <ele>31.6</ele>
        <time>2022-11-04 11:45:19</time>
      </trkpt>
      <trkpt lat="42.06013" lon="2.97481">
        <ele>31.2</ele>
        <time>2022-11-04 11:45:21</time>
      </trkpt>
      <trkpt lat="42.06016" lon="2.97485">
        <ele>31.2</ele>
        <time>2022-11-04 11:45:22</time>
      </trkpt>
      <trkpt lat="42.06035" lon="2.97513">
        <ele>31.6</ele>
        <time>2022-11-04 11:45:28</time>
      </trkpt>
      <trkpt lat="42.06037" lon="2.97519">
        <ele>31.8</ele>
        <time>2022-11-04 11:45:29</time>
      </trkpt>
      <trkpt lat="42.06064" lon="2.9757">
        <ele>32.4</ele>
        <time>2022-11-04 11:45:39</time>
      </trkpt>
      <trkpt lat="42.06077" lon="2.97612">
        <ele>33</ele>
        <time>2022-11-04 11:45:47</time>
      </trkpt>
      <trkpt lat="42.06084" lon="2.97638">
        <ele>34.2</ele>
        <time>2022-11-04 11:45:53</time>
      </trkpt>
      <trkpt lat="42.06087" lon="2.9765">
        <ele>35</ele>
        <time>2022-11-04 11:45:56</time>
      </trkpt>
      <trkpt lat="42.06088" lon="2.97654">
        <ele>35.2</ele>
        <time>2022-11-04 11:45:57</time>
      </trkpt>
      <trkpt lat="42.06092" lon="2.97673">
        <ele>36.4</ele>
        <time>2022-11-04 11:46:03</time>
      </trkpt>
      <trkpt lat="42.06096" lon="2.9769">
        <ele>37</ele>
        <time>2022-11-04 11:46:10</time>
      </trkpt>
      <trkpt lat="42.06095" lon="2.97693">
        <ele>37</ele>
        <time>2022-11-04 11:46:12</time>
      </trkpt>
      <trkpt lat="42.06094" lon="2.97696">
        <ele>37.2</ele>
        <time>2022-11-04 11:46:14</time>
      </trkpt>
      <trkpt lat="42.06094" lon="2.977">
        <ele>37.4</ele>
        <time>2022-11-04 11:46:17</time>
      </trkpt>
      <trkpt lat="42.06093" lon="2.97703">
        <ele>37.6</ele>
        <time>2022-11-04 11:46:19</time>
      </trkpt>
      <trkpt lat="42.06093" lon="2.97718">
        <ele>38.4</ele>
        <time>2022-11-04 11:46:25</time>
      </trkpt>
      <trkpt lat="42.06092" lon="2.97722">
        <ele>38.6</ele>
        <time>2022-11-04 11:46:26</time>
      </trkpt>
      <trkpt lat="42.06091" lon="2.97743">
        <ele>39.2</ele>
        <time>2022-11-04 11:46:32</time>
      </trkpt>
      <trkpt lat="42.06088" lon="2.97755">
        <ele>39.6</ele>
        <time>2022-11-04 11:46:35</time>
      </trkpt>
      <trkpt lat="42.06087" lon="2.97773">
        <ele>40.6</ele>
        <time>2022-11-04 11:46:39</time>
      </trkpt>
      <trkpt lat="42.06086" lon="2.97777">
        <ele>41</ele>
        <time>2022-11-04 11:46:40</time>
      </trkpt>
      <trkpt lat="42.06084" lon="2.97795">
        <ele>41.8</ele>
        <time>2022-11-04 11:46:45</time>
      </trkpt>
      <trkpt lat="42.06084" lon="2.97798">
        <ele>42</ele>
        <time>2022-11-04 11:46:46</time>
      </trkpt>
      <trkpt lat="42.06082" lon="2.97817">
        <ele>42.6</ele>
        <time>2022-11-04 11:46:51</time>
      </trkpt>
      <trkpt lat="42.06081" lon="2.97824">
        <ele>43.2</ele>
        <time>2022-11-04 11:46:53</time>
      </trkpt>
      <trkpt lat="42.06084" lon="2.97831">
        <ele>43.6</ele>
        <time>2022-11-04 11:46:55</time>
      </trkpt>
      <trkpt lat="42.06086" lon="2.97832">
        <ele>43.6</ele>
        <time>2022-11-04 11:46:56</time>
      </trkpt>
      <trkpt lat="42.06093" lon="2.97825">
        <ele>44.2</ele>
        <time>2022-11-04 11:46:59</time>
      </trkpt>
      <trkpt lat="42.061" lon="2.97819">
        <ele>45.4</ele>
        <time>2022-11-04 11:47:02</time>
      </trkpt>
      <trkpt lat="42.06105" lon="2.97818">
        <ele>46.2</ele>
        <time>2022-11-04 11:47:04</time>
      </trkpt>
      <trkpt lat="42.06107" lon="2.97817">
        <ele>46.6</ele>
        <time>2022-11-04 11:47:05</time>
      </trkpt>
      <trkpt lat="42.0611" lon="2.97814">
        <ele>47.4</ele>
        <time>2022-11-04 11:47:07</time>
      </trkpt>
      <trkpt lat="42.06114" lon="2.9781">
        <ele>47.4</ele>
        <time>2022-11-04 11:47:09</time>
      </trkpt>
      <trkpt lat="42.06118" lon="2.9781">
        <ele>47.6</ele>
        <time>2022-11-04 11:47:11</time>
      </trkpt>
      <trkpt lat="42.06123" lon="2.97809">
        <ele>48.2</ele>
        <time>2022-11-04 11:47:14</time>
      </trkpt>
      <trkpt lat="42.06125" lon="2.9781">
        <ele>48.6</ele>
        <time>2022-11-04 11:47:16</time>
      </trkpt>
      <trkpt lat="42.06128" lon="2.97809">
        <ele>49.2</ele>
        <time>2022-11-04 11:47:19</time>
      </trkpt>
      <trkpt lat="42.06132" lon="2.97806">
        <ele>49.6</ele>
        <time>2022-11-04 11:47:22</time>
      </trkpt>
      <trkpt lat="42.06136" lon="2.97804">
        <ele>50</ele>
        <time>2022-11-04 11:47:24</time>
      </trkpt>
      <trkpt lat="42.06139" lon="2.97802">
        <ele>50.4</ele>
        <time>2022-11-04 11:47:26</time>
      </trkpt>
      <trkpt lat="42.0614" lon="2.978">
        <ele>50.4</ele>
        <time>2022-11-04 11:47:27</time>
      </trkpt>
      <trkpt lat="42.06144" lon="2.97796">
        <ele>50.6</ele>
        <time>2022-11-04 11:47:29</time>
      </trkpt>
      <trkpt lat="42.06145" lon="2.97794">
        <ele>51</ele>
        <time>2022-11-04 11:47:30</time>
      </trkpt>
      <trkpt lat="42.06155" lon="2.97784">
        <ele>51.8</ele>
        <time>2022-11-04 11:47:35</time>
      </trkpt>
      <trkpt lat="42.0616" lon="2.97781">
        <ele>52</ele>
        <time>2022-11-04 11:47:38</time>
      </trkpt>
      <trkpt lat="42.06164" lon="2.97776">
        <ele>52.4</ele>
        <time>2022-11-04 11:47:41</time>
      </trkpt>
      <trkpt lat="42.06169" lon="2.97773">
        <ele>52.2</ele>
        <time>2022-11-04 11:47:47</time>
      </trkpt>
      <trkpt lat="42.06169" lon="2.97773">
        <ele>52</ele>
        <time>2022-11-04 11:48:00</time>
      </trkpt>
      <trkpt lat="42.06171" lon="2.97774">
        <ele>52</ele>
        <time>2022-11-04 11:48:12</time>
      </trkpt>
      <trkpt lat="42.06172" lon="2.97774">
        <ele>51.4</ele>
        <time>2022-11-04 11:48:19</time>
      </trkpt>
      <trkpt lat="42.06172" lon="2.97774">
        <ele>51.6</ele>
        <time>2022-11-04 11:48:38</time>
      </trkpt>
      <trkpt lat="42.06172" lon="2.97774">
        <ele>51.6</ele>
        <time>2022-11-04 11:48:40</time>
      </trkpt>
      <trkpt lat="42.06172" lon="2.97774">
        <ele>51.8</ele>
        <time>2022-11-04 11:48:56</time>
      </trkpt>
      <trkpt lat="42.06172" lon="2.97774">
        <ele>51.6</ele>
        <time>2022-11-04 11:49:09</time>
      </trkpt>
      <trkpt lat="42.06172" lon="2.97774">
        <ele>52</ele>
        <time>2022-11-04 11:49:20</time>
      </trkpt>
      <trkpt lat="42.06171" lon="2.97775">
        <ele>52.2</ele>
        <time>2022-11-04 11:49:26</time>
      </trkpt>
      <trkpt lat="42.0617" lon="2.97774">
        <ele>52.2</ele>
        <time>2022-11-04 11:49:33</time>
      </trkpt>
      <trkpt lat="42.0617" lon="2.97774">
        <ele>51.8</ele>
        <time>2022-11-04 11:49:44</time>
      </trkpt>
      <trkpt lat="42.0617" lon="2.97774">
        <ele>52.2</ele>
        <time>2022-11-04 11:49:57</time>
      </trkpt>
      <trkpt lat="42.0617" lon="2.97774">
        <ele>51.8</ele>
        <time>2022-11-04 11:50:10</time>
      </trkpt>
      <trkpt lat="42.0617" lon="2.97774">
        <ele>52</ele>
        <time>2022-11-04 11:50:22</time>
      </trkpt>
      <trkpt lat="42.0617" lon="2.97774">
        <ele>52</ele>
        <time>2022-11-04 11:50:30</time>
      </trkpt>
      <trkpt lat="42.06177" lon="2.9777">
        <ele>51.4</ele>
        <time>2022-11-04 11:50:38</time>
      </trkpt>
      <trkpt lat="42.0618" lon="2.97772">
        <ele>51</ele>
        <time>2022-11-04 11:50:39</time>
      </trkpt>
      <trkpt lat="42.06189" lon="2.97778">
        <ele>50.2</ele>
        <time>2022-11-04 11:50:41</time>
      </trkpt>
      <trkpt lat="42.06194" lon="2.97779">
        <ele>49.8</ele>
        <time>2022-11-04 11:50:42</time>
      </trkpt>
      <trkpt lat="42.06205" lon="2.97791">
        <ele>50.4</ele>
        <time>2022-11-04 11:50:46</time>
      </trkpt>
      <trkpt lat="42.06223" lon="2.97804">
        <ele>51</ele>
        <time>2022-11-04 11:50:52</time>
      </trkpt>
      <trkpt lat="42.06226" lon="2.97807">
        <ele>51</ele>
        <time>2022-11-04 11:50:53</time>
      </trkpt>
      <trkpt lat="42.06247" lon="2.97821">
        <ele>51.4</ele>
        <time>2022-11-04 11:50:59</time>
      </trkpt>
      <trkpt lat="42.06261" lon="2.97832">
        <ele>52</ele>
        <time>2022-11-04 11:51:03</time>
      </trkpt>
      <trkpt lat="42.06269" lon="2.97834">
        <ele>52.4</ele>
        <time>2022-11-04 11:51:05</time>
      </trkpt>
      <trkpt lat="42.06283" lon="2.97842">
        <ele>52.6</ele>
        <time>2022-11-04 11:51:10</time>
      </trkpt>
      <trkpt lat="42.06305" lon="2.9786">
        <ele>53</ele>
        <time>2022-11-04 11:51:17</time>
      </trkpt>
      <trkpt lat="42.06312" lon="2.97866">
        <ele>53.2</ele>
        <time>2022-11-04 11:51:19</time>
      </trkpt>
      <trkpt lat="42.06329" lon="2.97879">
        <ele>53.2</ele>
        <time>2022-11-04 11:51:25</time>
      </trkpt>
      <trkpt lat="42.0634" lon="2.97884">
        <ele>53</ele>
        <time>2022-11-04 11:51:28</time>
      </trkpt>
      <trkpt lat="42.0635" lon="2.97888">
        <ele>51</ele>
        <time>2022-11-04 11:51:30</time>
      </trkpt>
      <trkpt lat="42.0636" lon="2.97895">
        <ele>49.4</ele>
        <time>2022-11-04 11:51:32</time>
      </trkpt>
      <trkpt lat="42.06373" lon="2.97901">
        <ele>48</ele>
        <time>2022-11-04 11:51:34</time>
      </trkpt>
      <trkpt lat="42.06381" lon="2.97904">
        <ele>47.4</ele>
        <time>2022-11-04 11:51:35</time>
      </trkpt>
      <trkpt lat="42.06396" lon="2.9791">
        <ele>46.6</ele>
        <time>2022-11-04 11:51:37</time>
      </trkpt>
      <trkpt lat="42.06412" lon="2.97911">
        <ele>46.4</ele>
        <time>2022-11-04 11:51:39</time>
      </trkpt>
      <trkpt lat="42.0642" lon="2.97908">
        <ele>46.4</ele>
        <time>2022-11-04 11:51:40</time>
      </trkpt>
      <trkpt lat="42.06458" lon="2.97896">
        <ele>45.6</ele>
        <time>2022-11-04 11:51:45</time>
      </trkpt>
      <trkpt lat="42.06465" lon="2.97894">
        <ele>45.2</ele>
        <time>2022-11-04 11:51:46</time>
      </trkpt>
      <trkpt lat="42.06472" lon="2.97892">
        <ele>44.4</ele>
        <time>2022-11-04 11:51:47</time>
      </trkpt>
      <trkpt lat="42.06485" lon="2.97885">
        <ele>43.2</ele>
        <time>2022-11-04 11:51:49</time>
      </trkpt>
      <trkpt lat="42.06491" lon="2.9788">
        <ele>42.8</ele>
        <time>2022-11-04 11:51:50</time>
      </trkpt>
      <trkpt lat="42.06498" lon="2.97875">
        <ele>42.4</ele>
        <time>2022-11-04 11:51:51</time>
      </trkpt>
      <trkpt lat="42.06504" lon="2.97868">
        <ele>41.8</ele>
        <time>2022-11-04 11:51:52</time>
      </trkpt>
      <trkpt lat="42.06512" lon="2.97863">
        <ele>40.8</ele>
        <time>2022-11-04 11:51:53</time>
      </trkpt>
      <trkpt lat="42.06521" lon="2.97862">
        <ele>39.2</ele>
        <time>2022-11-04 11:51:54</time>
      </trkpt>
      <trkpt lat="42.06547" lon="2.97857">
        <ele>37.4</ele>
        <time>2022-11-04 11:51:57</time>
      </trkpt>
      <trkpt lat="42.06556" lon="2.97854">
        <ele>37</ele>
        <time>2022-11-04 11:51:58</time>
      </trkpt>
      <trkpt lat="42.06564" lon="2.97851">
        <ele>37</ele>
        <time>2022-11-04 11:51:59</time>
      </trkpt>
      <trkpt lat="42.06573" lon="2.97849">
        <ele>37</ele>
        <time>2022-11-04 11:52:00</time>
      </trkpt>
      <trkpt lat="42.0659" lon="2.97846">
        <ele>36.6</ele>
        <time>2022-11-04 11:52:02</time>
      </trkpt>
      <trkpt lat="42.06598" lon="2.97847">
        <ele>36.4</ele>
        <time>2022-11-04 11:52:03</time>
      </trkpt>
      <trkpt lat="42.06607" lon="2.97849">
        <ele>36.2</ele>
        <time>2022-11-04 11:52:04</time>
      </trkpt>
      <trkpt lat="42.06632" lon="2.97852">
        <ele>35.2</ele>
        <time>2022-11-04 11:52:07</time>
      </trkpt>
      <trkpt lat="42.06649" lon="2.97851">
        <ele>34.2</ele>
        <time>2022-11-04 11:52:09</time>
      </trkpt>
      <trkpt lat="42.06658" lon="2.97849">
        <ele>33.8</ele>
        <time>2022-11-04 11:52:10</time>
      </trkpt>
      <trkpt lat="42.06673" lon="2.97838">
        <ele>33.2</ele>
        <time>2022-11-04 11:52:12</time>
      </trkpt>
      <trkpt lat="42.06696" lon="2.97823">
        <ele>32.6</ele>
        <time>2022-11-04 11:52:15</time>
      </trkpt>
      <trkpt lat="42.06703" lon="2.97821">
        <ele>32.6</ele>
        <time>2022-11-04 11:52:16</time>
      </trkpt>
      <trkpt lat="42.0671" lon="2.9782">
        <ele>32.4</ele>
        <time>2022-11-04 11:52:17</time>
      </trkpt>
      <trkpt lat="42.0673" lon="2.97828">
        <ele>32.8</ele>
        <time>2022-11-04 11:52:20</time>
      </trkpt>
      <trkpt lat="42.06735" lon="2.97831">
        <ele>33.4</ele>
        <time>2022-11-04 11:52:21</time>
      </trkpt>
      <trkpt lat="42.06741" lon="2.97835">
        <ele>34.2</ele>
        <time>2022-11-04 11:52:22</time>
      </trkpt>
      <trkpt lat="42.06762" lon="2.97843">
        <ele>33.6</ele>
        <time>2022-11-04 11:52:26</time>
      </trkpt>
      <trkpt lat="42.06787" lon="2.97851">
        <ele>33</ele>
        <time>2022-11-04 11:52:31</time>
      </trkpt>
      <trkpt lat="42.06792" lon="2.97852">
        <ele>32.8</ele>
        <time>2022-11-04 11:52:32</time>
      </trkpt>
      <trkpt lat="42.06797" lon="2.97852">
        <ele>32.4</ele>
        <time>2022-11-04 11:52:33</time>
      </trkpt>
      <trkpt lat="42.06806" lon="2.97856">
        <ele>32.8</ele>
        <time>2022-11-04 11:52:35</time>
      </trkpt>
      <trkpt lat="42.06817" lon="2.97866">
        <ele>33</ele>
        <time>2022-11-04 11:52:38</time>
      </trkpt>
      <trkpt lat="42.0683" lon="2.97876">
        <ele>33</ele>
        <time>2022-11-04 11:52:41</time>
      </trkpt>
      <trkpt lat="42.06839" lon="2.97884">
        <ele>33.4</ele>
        <time>2022-11-04 11:52:43</time>
      </trkpt>
      <trkpt lat="42.06848" lon="2.97891">
        <ele>33.6</ele>
        <time>2022-11-04 11:52:45</time>
      </trkpt>
      <trkpt lat="42.06861" lon="2.97899">
        <ele>33.6</ele>
        <time>2022-11-04 11:52:48</time>
      </trkpt>
      <trkpt lat="42.06865" lon="2.97902">
        <ele>33.4</ele>
        <time>2022-11-04 11:52:49</time>
      </trkpt>
      <trkpt lat="42.06875" lon="2.97911">
        <ele>32.2</ele>
        <time>2022-11-04 11:52:52</time>
      </trkpt>
      <trkpt lat="42.06878" lon="2.97916">
        <ele>32</ele>
        <time>2022-11-04 11:52:53</time>
      </trkpt>
      <trkpt lat="42.06881" lon="2.97921">
        <ele>31.8</ele>
        <time>2022-11-04 11:52:54</time>
      </trkpt>
      <trkpt lat="42.069" lon="2.97955">
        <ele>33</ele>
        <time>2022-11-04 11:53:01</time>
      </trkpt>
      <trkpt lat="42.06905" lon="2.97961">
        <ele>33.6</ele>
        <time>2022-11-04 11:53:03</time>
      </trkpt>
      <trkpt lat="42.0691" lon="2.97967">
        <ele>34.2</ele>
        <time>2022-11-04 11:53:05</time>
      </trkpt>
      <trkpt lat="42.06919" lon="2.9798">
        <ele>34.2</ele>
        <time>2022-11-04 11:53:09</time>
      </trkpt>
      <trkpt lat="42.06936" lon="2.98008">
        <ele>33.8</ele>
        <time>2022-11-04 11:53:16</time>
      </trkpt>
      <trkpt lat="42.06954" lon="2.98021">
        <ele>34.4</ele>
        <time>2022-11-04 11:53:21</time>
      </trkpt>
      <trkpt lat="42.06971" lon="2.9803">
        <ele>33.8</ele>
        <time>2022-11-04 11:53:25</time>
      </trkpt>
      <trkpt lat="42.06978" lon="2.98038">
        <ele>34</ele>
        <time>2022-11-04 11:53:27</time>
      </trkpt>
      <trkpt lat="42.06991" lon="2.98061">
        <ele>34.2</ele>
        <time>2022-11-04 11:53:33</time>
      </trkpt>
      <trkpt lat="42.06995" lon="2.98092">
        <ele>34.6</ele>
        <time>2022-11-04 11:53:40</time>
      </trkpt>
      <trkpt lat="42.07005" lon="2.98113">
        <ele>34.6</ele>
        <time>2022-11-04 11:53:45</time>
      </trkpt>
      <trkpt lat="42.07022" lon="2.98118">
        <ele>34.8</ele>
        <time>2022-11-04 11:53:50</time>
      </trkpt>
      <trkpt lat="42.07025" lon="2.98119">
        <ele>35.2</ele>
        <time>2022-11-04 11:53:51</time>
      </trkpt>
      <trkpt lat="42.07041" lon="2.98122">
        <ele>36</ele>
        <time>2022-11-04 11:53:56</time>
      </trkpt>
      <trkpt lat="42.07046" lon="2.98122">
        <ele>36.6</ele>
        <time>2022-11-04 11:53:58</time>
      </trkpt>
      <trkpt lat="42.07053" lon="2.98125">
        <ele>36.8</ele>
        <time>2022-11-04 11:54:02</time>
      </trkpt>
      <trkpt lat="42.07065" lon="2.98126">
        <ele>37.2</ele>
        <time>2022-11-04 11:54:08</time>
      </trkpt>
      <trkpt lat="42.0708" lon="2.98125">
        <ele>37.6</ele>
        <time>2022-11-04 11:54:14</time>
      </trkpt>
      <trkpt lat="42.07085" lon="2.98126">
        <ele>38</ele>
        <time>2022-11-04 11:54:16</time>
      </trkpt>
      <trkpt lat="42.071" lon="2.98127">
        <ele>37.6</ele>
        <time>2022-11-04 11:54:22</time>
      </trkpt>
      <trkpt lat="42.07114" lon="2.98128">
        <ele>38.2</ele>
        <time>2022-11-04 11:54:28</time>
      </trkpt>
      <trkpt lat="42.07136" lon="2.98128">
        <ele>37.6</ele>
        <time>2022-11-04 11:54:34</time>
      </trkpt>
      <trkpt lat="42.07167" lon="2.98128">
        <ele>38.2</ele>
        <time>2022-11-04 11:54:42</time>
      </trkpt>
      <trkpt lat="42.07194" lon="2.98128">
        <ele>38</ele>
        <time>2022-11-04 11:54:49</time>
      </trkpt>
      <trkpt lat="42.0722" lon="2.98129">
        <ele>37.4</ele>
        <time>2022-11-04 11:54:56</time>
      </trkpt>
      <trkpt lat="42.07252" lon="2.98129">
        <ele>36.6</ele>
        <time>2022-11-04 11:55:02</time>
      </trkpt>
      <trkpt lat="42.07257" lon="2.98129">
        <ele>36</ele>
        <time>2022-11-04 11:55:03</time>
      </trkpt>
      <trkpt lat="42.07263" lon="2.9813">
        <ele>35.2</ele>
        <time>2022-11-04 11:55:04</time>
      </trkpt>
      <trkpt lat="42.07288" lon="2.98133">
        <ele>34.6</ele>
        <time>2022-11-04 11:55:09</time>
      </trkpt>
      <trkpt lat="42.07326" lon="2.98135">
        <ele>34.2</ele>
        <time>2022-11-04 11:55:16</time>
      </trkpt>
      <trkpt lat="42.07332" lon="2.98135">
        <ele>34</ele>
        <time>2022-11-04 11:55:17</time>
      </trkpt>
      <trkpt lat="42.07356" lon="2.98137">
        <ele>34.2</ele>
        <time>2022-11-04 11:55:22</time>
      </trkpt>
      <trkpt lat="42.07388" lon="2.98133">
        <ele>34</ele>
        <time>2022-11-04 11:55:29</time>
      </trkpt>
      <trkpt lat="42.07419" lon="2.9812">
        <ele>34.8</ele>
        <time>2022-11-04 11:55:36</time>
      </trkpt>
      <trkpt lat="42.07427" lon="2.98117">
        <ele>34.6</ele>
        <time>2022-11-04 11:55:38</time>
      </trkpt>
      <trkpt lat="42.07437" lon="2.98118">
        <ele>34.6</ele>
        <time>2022-11-04 11:55:41</time>
      </trkpt>
      <trkpt lat="42.07451" lon="2.98128">
        <ele>35</ele>
        <time>2022-11-04 11:55:45</time>
      </trkpt>
      <trkpt lat="42.07454" lon="2.9813">
        <ele>35</ele>
        <time>2022-11-04 11:55:46</time>
      </trkpt>
      <trkpt lat="42.07469" lon="2.98134">
        <ele>35</ele>
        <time>2022-11-04 11:55:51</time>
      </trkpt>
      <trkpt lat="42.0749" lon="2.98132">
        <ele>35.4</ele>
        <time>2022-11-04 11:55:57</time>
      </trkpt>
      <trkpt lat="42.07509" lon="2.98131">
        <ele>36.2</ele>
        <time>2022-11-04 11:56:02</time>
      </trkpt>
      <trkpt lat="42.07515" lon="2.98132">
        <ele>36.4</ele>
        <time>2022-11-04 11:56:04</time>
      </trkpt>
      <trkpt lat="42.07539" lon="2.98132">
        <ele>36.8</ele>
        <time>2022-11-04 11:56:10</time>
      </trkpt>
      <trkpt lat="42.07552" lon="2.98128">
        <ele>37.4</ele>
        <time>2022-11-04 11:56:13</time>
      </trkpt>
      <trkpt lat="42.07572" lon="2.98119">
        <ele>37.8</ele>
        <time>2022-11-04 11:56:17</time>
      </trkpt>
      <trkpt lat="42.07581" lon="2.98116">
        <ele>38.6</ele>
        <time>2022-11-04 11:56:19</time>
      </trkpt>
      <trkpt lat="42.07598" lon="2.98109">
        <ele>38.8</ele>
        <time>2022-11-04 11:56:24</time>
      </trkpt>
      <trkpt lat="42.07625" lon="2.98102">
        <ele>39.4</ele>
        <time>2022-11-04 11:56:32</time>
      </trkpt>
      <trkpt lat="42.07628" lon="2.98102">
        <ele>39.6</ele>
        <time>2022-11-04 11:56:33</time>
      </trkpt>
      <trkpt lat="42.07648" lon="2.98099">
        <ele>39.4</ele>
        <time>2022-11-04 11:56:40</time>
      </trkpt>
      <trkpt lat="42.07668" lon="2.98098">
        <ele>39.8</ele>
        <time>2022-11-04 11:56:47</time>
      </trkpt>
      <trkpt lat="42.07692" lon="2.9809">
        <ele>39.8</ele>
        <time>2022-11-04 11:56:53</time>
      </trkpt>
      <trkpt lat="42.07698" lon="2.98085">
        <ele>39.6</ele>
        <time>2022-11-04 11:56:54</time>
      </trkpt>
      <trkpt lat="42.07708" lon="2.98077">
        <ele>39</ele>
        <time>2022-11-04 11:56:56</time>
      </trkpt>
      <trkpt lat="42.07713" lon="2.98075">
        <ele>38.6</ele>
        <time>2022-11-04 11:56:57</time>
      </trkpt>
      <trkpt lat="42.0773" lon="2.98072">
        <ele>37.4</ele>
        <time>2022-11-04 11:57:00</time>
      </trkpt>
      <trkpt lat="42.07747" lon="2.98066">
        <ele>36</ele>
        <time>2022-11-04 11:57:03</time>
      </trkpt>
      <trkpt lat="42.07759" lon="2.98062">
        <ele>35</ele>
        <time>2022-11-04 11:57:05</time>
      </trkpt>
      <trkpt lat="42.07765" lon="2.98061">
        <ele>34.6</ele>
        <time>2022-11-04 11:57:06</time>
      </trkpt>
      <trkpt lat="42.07784" lon="2.98052">
        <ele>33.6</ele>
        <time>2022-11-04 11:57:09</time>
      </trkpt>
      <trkpt lat="42.07796" lon="2.98045">
        <ele>33.2</ele>
        <time>2022-11-04 11:57:11</time>
      </trkpt>
      <trkpt lat="42.07821" lon="2.98031">
        <ele>32.6</ele>
        <time>2022-11-04 11:57:16</time>
      </trkpt>
      <trkpt lat="42.0783" lon="2.98026">
        <ele>32.4</ele>
        <time>2022-11-04 11:57:18</time>
      </trkpt>
      <trkpt lat="42.07839" lon="2.98023">
        <ele>32</ele>
        <time>2022-11-04 11:57:20</time>
      </trkpt>
      <trkpt lat="42.07847" lon="2.98023">
        <ele>31.8</ele>
        <time>2022-11-04 11:57:22</time>
      </trkpt>
      <trkpt lat="42.07862" lon="2.98028">
        <ele>31.4</ele>
        <time>2022-11-04 11:57:26</time>
      </trkpt>
      <trkpt lat="42.07865" lon="2.9803">
        <ele>31.4</ele>
        <time>2022-11-04 11:57:27</time>
      </trkpt>
      <trkpt lat="42.07884" lon="2.98043">
        <ele>31.2</ele>
        <time>2022-11-04 11:57:33</time>
      </trkpt>
      <trkpt lat="42.07913" lon="2.9806">
        <ele>30.6</ele>
        <time>2022-11-04 11:57:40</time>
      </trkpt>
      <trkpt lat="42.07917" lon="2.98062">
        <ele>30.4</ele>
        <time>2022-11-04 11:57:41</time>
      </trkpt>
      <trkpt lat="42.07922" lon="2.98064">
        <ele>30.2</ele>
        <time>2022-11-04 11:57:42</time>
      </trkpt>
      <trkpt lat="42.07937" lon="2.98068">
        <ele>29.8</ele>
        <time>2022-11-04 11:57:45</time>
      </trkpt>
      <trkpt lat="42.07962" lon="2.98076">
        <ele>29.8</ele>
        <time>2022-11-04 11:57:51</time>
      </trkpt>
      <trkpt lat="42.07972" lon="2.98079">
        <ele>29.2</ele>
        <time>2022-11-04 11:57:53</time>
      </trkpt>
      <trkpt lat="42.07994" lon="2.98087">
        <ele>28.2</ele>
        <time>2022-11-04 11:57:58</time>
      </trkpt>
      <trkpt lat="42.07998" lon="2.98089">
        <ele>28</ele>
        <time>2022-11-04 11:57:59</time>
      </trkpt>
      <trkpt lat="42.08019" lon="2.98098">
        <ele>29.8</ele>
        <time>2022-11-04 11:58:04</time>
      </trkpt>
      <trkpt lat="42.08026" lon="2.98102">
        <ele>30.2</ele>
        <time>2022-11-04 11:58:06</time>
      </trkpt>
      <trkpt lat="42.08035" lon="2.98118">
        <ele>29.8</ele>
        <time>2022-11-04 11:58:11</time>
      </trkpt>
      <trkpt lat="42.08032" lon="2.98134">
        <ele>29.4</ele>
        <time>2022-11-04 11:58:16</time>
      </trkpt>
      <trkpt lat="42.08031" lon="2.98138">
        <ele>29.4</ele>
        <time>2022-11-04 11:58:17</time>
      </trkpt>
      <trkpt lat="42.08028" lon="2.98156">
        <ele>28.8</ele>
        <time>2022-11-04 11:58:23</time>
      </trkpt>
      <trkpt lat="42.08026" lon="2.98163">
        <ele>28.6</ele>
        <time>2022-11-04 11:58:25</time>
      </trkpt>
      <trkpt lat="42.08021" lon="2.98178">
        <ele>28.4</ele>
        <time>2022-11-04 11:58:30</time>
      </trkpt>
      <trkpt lat="42.08013" lon="2.98199">
        <ele>28.4</ele>
        <time>2022-11-04 11:58:36</time>
      </trkpt>
      <trkpt lat="42.08013" lon="2.98203">
        <ele>28.6</ele>
        <time>2022-11-04 11:58:37</time>
      </trkpt>
      <trkpt lat="42.08011" lon="2.98215">
        <ele>28.4</ele>
        <time>2022-11-04 11:58:40</time>
      </trkpt>
      <trkpt lat="42.08009" lon="2.98217">
        <ele>28.6</ele>
        <time>2022-11-04 11:58:41</time>
      </trkpt>
      <trkpt lat="42.08002" lon="2.98235">
        <ele>28.4</ele>
        <time>2022-11-04 11:58:46</time>
      </trkpt>
      <trkpt lat="42.08" lon="2.98239">
        <ele>28.6</ele>
        <time>2022-11-04 11:58:47</time>
      </trkpt>
      <trkpt lat="42.07991" lon="2.98261">
        <ele>28.6</ele>
        <time>2022-11-04 11:58:52</time>
      </trkpt>
      <trkpt lat="42.07972" lon="2.98293">
        <ele>28.2</ele>
        <time>2022-11-04 11:59:00</time>
      </trkpt>
      <trkpt lat="42.07957" lon="2.98317">
        <ele>28.4</ele>
        <time>2022-11-04 11:59:06</time>
      </trkpt>
      <trkpt lat="42.07947" lon="2.98336">
        <ele>28</ele>
        <time>2022-11-04 11:59:11</time>
      </trkpt>
      <trkpt lat="42.07942" lon="2.98345">
        <ele>28</ele>
        <time>2022-11-04 11:59:13</time>
      </trkpt>
      <trkpt lat="42.07936" lon="2.9836">
        <ele>27.8</ele>
        <time>2022-11-04 11:59:16</time>
      </trkpt>
      <trkpt lat="42.07935" lon="2.98365">
        <ele>27.6</ele>
        <time>2022-11-04 11:59:17</time>
      </trkpt>
      <trkpt lat="42.07928" lon="2.98393">
        <ele>27.8</ele>
        <time>2022-11-04 11:59:22</time>
      </trkpt>
      <trkpt lat="42.07927" lon="2.98425">
        <ele>27.2</ele>
        <time>2022-11-04 11:59:28</time>
      </trkpt>
      <trkpt lat="42.07929" lon="2.98456">
        <ele>27.4</ele>
        <time>2022-11-04 11:59:35</time>
      </trkpt>
      <trkpt lat="42.07927" lon="2.98477">
        <ele>27.6</ele>
        <time>2022-11-04 11:59:41</time>
      </trkpt>
      <trkpt lat="42.07919" lon="2.98496">
        <ele>27.6</ele>
        <time>2022-11-04 11:59:47</time>
      </trkpt>
      <trkpt lat="42.07905" lon="2.98503">
        <ele>27.6</ele>
        <time>2022-11-04 11:59:52</time>
      </trkpt>
      <trkpt lat="42.0789" lon="2.98516">
        <ele>27.8</ele>
        <time>2022-11-04 11:59:59</time>
      </trkpt>
      <trkpt lat="42.07879" lon="2.98524">
        <ele>27.8</ele>
        <time>2022-11-04 12:00:04</time>
      </trkpt>
      <trkpt lat="42.07866" lon="2.98537">
        <ele>28</ele>
        <time>2022-11-04 12:00:09</time>
      </trkpt>
      <trkpt lat="42.07863" lon="2.98539">
        <ele>28</ele>
        <time>2022-11-04 12:00:10</time>
      </trkpt>
      <trkpt lat="42.07845" lon="2.98554">
        <ele>27.8</ele>
        <time>2022-11-04 12:00:16</time>
      </trkpt>
      <trkpt lat="42.07832" lon="2.98571">
        <ele>27.6</ele>
        <time>2022-11-04 12:00:21</time>
      </trkpt>
      <trkpt lat="42.07814" lon="2.98596">
        <ele>27.2</ele>
        <time>2022-11-04 12:00:28</time>
      </trkpt>
      <trkpt lat="42.07797" lon="2.98621">
        <ele>27.2</ele>
        <time>2022-11-04 12:00:35</time>
      </trkpt>
      <trkpt lat="42.07786" lon="2.98644">
        <ele>27.6</ele>
        <time>2022-11-04 12:00:41</time>
      </trkpt>
      <trkpt lat="42.07771" lon="2.98674">
        <ele>28.2</ele>
        <time>2022-11-04 12:00:49</time>
      </trkpt>
      <trkpt lat="42.07757" lon="2.98704">
        <ele>28.2</ele>
        <time>2022-11-04 12:00:57</time>
      </trkpt>
      <trkpt lat="42.07745" lon="2.98734">
        <ele>27.8</ele>
        <time>2022-11-04 12:01:04</time>
      </trkpt>
      <trkpt lat="42.07734" lon="2.9876">
        <ele>28</ele>
        <time>2022-11-04 12:01:10</time>
      </trkpt>
      <trkpt lat="42.0773" lon="2.98787">
        <ele>28.6</ele>
        <time>2022-11-04 12:01:16</time>
      </trkpt>
      <trkpt lat="42.07729" lon="2.98796">
        <ele>28.6</ele>
        <time>2022-11-04 12:01:18</time>
      </trkpt>
      <trkpt lat="42.07731" lon="2.9882">
        <ele>28.4</ele>
        <time>2022-11-04 12:01:23</time>
      </trkpt>
      <trkpt lat="42.07728" lon="2.98851">
        <ele>28</ele>
        <time>2022-11-04 12:01:29</time>
      </trkpt>
      <trkpt lat="42.07719" lon="2.98868">
        <ele>28</ele>
        <time>2022-11-04 12:01:34</time>
      </trkpt>
      <trkpt lat="42.07719" lon="2.98871">
        <ele>28.4</ele>
        <time>2022-11-04 12:01:38</time>
      </trkpt>
      <trkpt lat="42.07719" lon="2.98871">
        <ele>28.4</ele>
        <time>2022-11-04 12:01:52</time>
      </trkpt>
      <trkpt lat="42.07719" lon="2.98871">
        <ele>27.6</ele>
        <time>2022-11-04 12:02:08</time>
      </trkpt>
      <trkpt lat="42.07719" lon="2.98871">
        <ele>27.6</ele>
        <time>2022-11-04 12:02:11</time>
      </trkpt>
      <trkpt lat="42.07718" lon="2.98883">
        <ele>27.2</ele>
        <time>2022-11-04 12:02:15</time>
      </trkpt>
      <trkpt lat="42.07718" lon="2.98887">
        <ele>27</ele>
        <time>2022-11-04 12:02:16</time>
      </trkpt>
      <trkpt lat="42.07715" lon="2.98895">
        <ele>26.4</ele>
        <time>2022-11-04 12:02:18</time>
      </trkpt>
      <trkpt lat="42.07709" lon="2.98903">
        <ele>24.8</ele>
        <time>2022-11-04 12:02:20</time>
      </trkpt>
      <trkpt lat="42.07705" lon="2.98907">
        <ele>24.4</ele>
        <time>2022-11-04 12:02:21</time>
      </trkpt>
      <trkpt lat="42.07698" lon="2.98917">
        <ele>24</ele>
        <time>2022-11-04 12:02:23</time>
      </trkpt>
      <trkpt lat="42.07695" lon="2.98922">
        <ele>23.8</ele>
        <time>2022-11-04 12:02:24</time>
      </trkpt>
      <trkpt lat="42.07692" lon="2.98926">
        <ele>23.8</ele>
        <time>2022-11-04 12:02:25</time>
      </trkpt>
      <trkpt lat="42.07678" lon="2.98954">
        <ele>23.6</ele>
        <time>2022-11-04 12:02:32</time>
      </trkpt>
      <trkpt lat="42.07672" lon="2.9897">
        <ele>25.2</ele>
        <time>2022-11-04 12:02:38</time>
      </trkpt>
      <trkpt lat="42.07671" lon="2.98977">
        <ele>26.2</ele>
        <time>2022-11-04 12:02:41</time>
      </trkpt>
      <trkpt lat="42.07669" lon="2.98979">
        <ele>27</ele>
        <time>2022-11-04 12:02:44</time>
      </trkpt>
      <trkpt lat="42.07668" lon="2.9898">
        <ele>27.2</ele>
        <time>2022-11-04 12:02:45</time>
      </trkpt>
      <trkpt lat="42.07664" lon="2.9898">
        <ele>28.2</ele>
        <time>2022-11-04 12:02:49</time>
      </trkpt>
      <trkpt lat="42.07662" lon="2.98981">
        <ele>28.8</ele>
        <time>2022-11-04 12:02:51</time>
      </trkpt>
      <trkpt lat="42.07658" lon="2.98992">
        <ele>29.4</ele>
        <time>2022-11-04 12:02:54</time>
      </trkpt>
      <trkpt lat="42.07655" lon="2.99">
        <ele>29.8</ele>
        <time>2022-11-04 12:02:56</time>
      </trkpt>
      <trkpt lat="42.07646" lon="2.99027">
        <ele>29.4</ele>
        <time>2022-11-04 12:03:03</time>
      </trkpt>
      <trkpt lat="42.07646" lon="2.99052">
        <ele>29.2</ele>
        <time>2022-11-04 12:03:09</time>
      </trkpt>
      <trkpt lat="42.07641" lon="2.99078">
        <ele>29.2</ele>
        <time>2022-11-04 12:03:15</time>
      </trkpt>
      <trkpt lat="42.07639" lon="2.9909">
        <ele>29.4</ele>
        <time>2022-11-04 12:03:21</time>
      </trkpt>
      <trkpt lat="42.07638" lon="2.99092">
        <ele>29.2</ele>
        <time>2022-11-04 12:03:27</time>
      </trkpt>
      <trkpt lat="42.07636" lon="2.99095">
        <ele>29.4</ele>
        <time>2022-11-04 12:03:34</time>
      </trkpt>
      <trkpt lat="42.07635" lon="2.99097">
        <ele>29.8</ele>
        <time>2022-11-04 12:03:44</time>
      </trkpt>
      <trkpt lat="42.07635" lon="2.99097">
        <ele>29.6</ele>
        <time>2022-11-04 12:04:00</time>
      </trkpt>
      <trkpt lat="42.07635" lon="2.99097">
        <ele>29.2</ele>
        <time>2022-11-04 12:04:17</time>
      </trkpt>
      <trkpt lat="42.07636" lon="2.99097">
        <ele>29.4</ele>
        <time>2022-11-04 12:04:26</time>
      </trkpt>
      <trkpt lat="42.07636" lon="2.99095">
        <ele>29.4</ele>
        <time>2022-11-04 12:04:28</time>
      </trkpt>
      <trkpt lat="42.07638" lon="2.99089">
        <ele>29.2</ele>
        <time>2022-11-04 12:04:32</time>
      </trkpt>
      <trkpt lat="42.07638" lon="2.99087">
        <ele>29.4</ele>
        <time>2022-11-04 12:04:33</time>
      </trkpt>
      <trkpt lat="42.07639" lon="2.99079">
        <ele>29.4</ele>
        <time>2022-11-04 12:04:36</time>
      </trkpt>
      <trkpt lat="42.07639" lon="2.99068">
        <ele>29.6</ele>
        <time>2022-11-04 12:04:43</time>
      </trkpt>
      <trkpt lat="42.07643" lon="2.99058">
        <ele>29.4</ele>
        <time>2022-11-04 12:04:49</time>
      </trkpt>
      <trkpt lat="42.07637" lon="2.99053">
        <ele>29.2</ele>
        <time>2022-11-04 12:04:54</time>
      </trkpt>
      <trkpt lat="42.07635" lon="2.99051">
        <ele>29.2</ele>
        <time>2022-11-04 12:04:56</time>
      </trkpt>
      <trkpt lat="42.07626" lon="2.99045">
        <ele>29.4</ele>
        <time>2022-11-04 12:05:00</time>
      </trkpt>
      <trkpt lat="42.07607" lon="2.99032">
        <ele>29.8</ele>
        <time>2022-11-04 12:05:08</time>
      </trkpt>
      <trkpt lat="42.07601" lon="2.99013">
        <ele>30</ele>
        <time>2022-11-04 12:05:13</time>
      </trkpt>
      <trkpt lat="42.07596" lon="2.99006">
        <ele>30.4</ele>
        <time>2022-11-04 12:05:16</time>
      </trkpt>
      <trkpt lat="42.07592" lon="2.99003">
        <ele>30.6</ele>
        <time>2022-11-04 12:05:18</time>
      </trkpt>
      <trkpt lat="42.07582" lon="2.98994">
        <ele>30.8</ele>
        <time>2022-11-04 12:05:24</time>
      </trkpt>
      <trkpt lat="42.07569" lon="2.98992">
        <ele>31</ele>
        <time>2022-11-04 12:05:30</time>
      </trkpt>
      <trkpt lat="42.07556" lon="2.98998">
        <ele>31.4</ele>
        <time>2022-11-04 12:05:36</time>
      </trkpt>
      <trkpt lat="42.07542" lon="2.99007">
        <ele>31.6</ele>
        <time>2022-11-04 12:05:41</time>
      </trkpt>
      <trkpt lat="42.07539" lon="2.99009">
        <ele>31.6</ele>
        <time>2022-11-04 12:05:42</time>
      </trkpt>
      <trkpt lat="42.07523" lon="2.99023">
        <ele>31.8</ele>
        <time>2022-11-04 12:05:48</time>
      </trkpt>
      <trkpt lat="42.07496" lon="2.99047">
        <ele>32.2</ele>
        <time>2022-11-04 12:05:57</time>
      </trkpt>
      <trkpt lat="42.07475" lon="2.99066">
        <ele>32</ele>
        <time>2022-11-04 12:06:04</time>
      </trkpt>
      <trkpt lat="42.07452" lon="2.99089">
        <ele>30.4</ele>
        <time>2022-11-04 12:06:12</time>
      </trkpt>
      <trkpt lat="42.07442" lon="2.99103">
        <ele>29.4</ele>
        <time>2022-11-04 12:06:15</time>
      </trkpt>
      <trkpt lat="42.07435" lon="2.99112">
        <ele>29.2</ele>
        <time>2022-11-04 12:06:17</time>
      </trkpt>
      <trkpt lat="42.07407" lon="2.99135">
        <ele>29</ele>
        <time>2022-11-04 12:06:23</time>
      </trkpt>
      <trkpt lat="42.07403" lon="2.99139">
        <ele>29</ele>
        <time>2022-11-04 12:06:24</time>
      </trkpt>
      <trkpt lat="42.07389" lon="2.99159">
        <ele>29.2</ele>
        <time>2022-11-04 12:06:28</time>
      </trkpt>
      <trkpt lat="42.07365" lon="2.99196">
        <ele>29.2</ele>
        <time>2022-11-04 12:06:35</time>
      </trkpt>
      <trkpt lat="42.07348" lon="2.99217">
        <ele>30.4</ele>
        <time>2022-11-04 12:06:40</time>
      </trkpt>
      <trkpt lat="42.07342" lon="2.99225">
        <ele>30.6</ele>
        <time>2022-11-04 12:06:42</time>
      </trkpt>
      <trkpt lat="42.07319" lon="2.99259">
        <ele>29.2</ele>
        <time>2022-11-04 12:06:49</time>
      </trkpt>
      <trkpt lat="42.07299" lon="2.9928">
        <ele>29.4</ele>
        <time>2022-11-04 12:06:54</time>
      </trkpt>
      <trkpt lat="42.07287" lon="2.99289">
        <ele>29.8</ele>
        <time>2022-11-04 12:06:57</time>
      </trkpt>
      <trkpt lat="42.07272" lon="2.99301">
        <ele>30</ele>
        <time>2022-11-04 12:07:01</time>
      </trkpt>
      <trkpt lat="42.07265" lon="2.99305">
        <ele>30.2</ele>
        <time>2022-11-04 12:07:03</time>
      </trkpt>
      <trkpt lat="42.07253" lon="2.99311">
        <ele>30.2</ele>
        <time>2022-11-04 12:07:06</time>
      </trkpt>
      <trkpt lat="42.07223" lon="2.99331">
        <ele>29.2</ele>
        <time>2022-11-04 12:07:13</time>
      </trkpt>
      <trkpt lat="42.07182" lon="2.99364">
        <ele>28.6</ele>
        <time>2022-11-04 12:07:22</time>
      </trkpt>
      <trkpt lat="42.07149" lon="2.99384">
        <ele>28.6</ele>
        <time>2022-11-04 12:07:29</time>
      </trkpt>
      <trkpt lat="42.07115" lon="2.99399">
        <ele>29</ele>
        <time>2022-11-04 12:07:37</time>
      </trkpt>
      <trkpt lat="42.07106" lon="2.99402">
        <ele>29.6</ele>
        <time>2022-11-04 12:07:41</time>
      </trkpt>
      <trkpt lat="42.07105" lon="2.99402">
        <ele>29.8</ele>
        <time>2022-11-04 12:07:46</time>
      </trkpt>
      <trkpt lat="42.07105" lon="2.99402">
        <ele>29.6</ele>
        <time>2022-11-04 12:08:03</time>
      </trkpt>
      <trkpt lat="42.07105" lon="2.99402">
        <ele>29.6</ele>
        <time>2022-11-04 12:08:11</time>
      </trkpt>
      <trkpt lat="42.07089" lon="2.99406">
        <ele>29.2</ele>
        <time>2022-11-04 12:08:16</time>
      </trkpt>
      <trkpt lat="42.07061" lon="2.99415">
        <ele>28.2</ele>
        <time>2022-11-04 12:08:22</time>
      </trkpt>
      <trkpt lat="42.07043" lon="2.99425">
        <ele>28.2</ele>
        <time>2022-11-04 12:08:26</time>
      </trkpt>
      <trkpt lat="42.07035" lon="2.99429">
        <ele>28.2</ele>
        <time>2022-11-04 12:08:28</time>
      </trkpt>
      <trkpt lat="42.07006" lon="2.99445">
        <ele>28.2</ele>
        <time>2022-11-04 12:08:35</time>
      </trkpt>
      <trkpt lat="42.06976" lon="2.99459">
        <ele>28.8</ele>
        <time>2022-11-04 12:08:43</time>
      </trkpt>
      <trkpt lat="42.06947" lon="2.99471">
        <ele>28.8</ele>
        <time>2022-11-04 12:08:50</time>
      </trkpt>
      <trkpt lat="42.06938" lon="2.99475">
        <ele>29.2</ele>
        <time>2022-11-04 12:08:52</time>
      </trkpt>
      <trkpt lat="42.06916" lon="2.99487">
        <ele>29.4</ele>
        <time>2022-11-04 12:08:57</time>
      </trkpt>
      <trkpt lat="42.06898" lon="2.99495">
        <ele>29</ele>
        <time>2022-11-04 12:09:01</time>
      </trkpt>
      <trkpt lat="42.06891" lon="2.99504">
        <ele>29</ele>
        <time>2022-11-04 12:09:03</time>
      </trkpt>
      <trkpt lat="42.06884" lon="2.99527">
        <ele>28.6</ele>
        <time>2022-11-04 12:09:07</time>
      </trkpt>
      <trkpt lat="42.06876" lon="2.99547">
        <ele>28.8</ele>
        <time>2022-11-04 12:09:12</time>
      </trkpt>
      <trkpt lat="42.06861" lon="2.99563">
        <ele>28.2</ele>
        <time>2022-11-04 12:09:17</time>
      </trkpt>
      <trkpt lat="42.06856" lon="2.99566">
        <ele>28.2</ele>
        <time>2022-11-04 12:09:18</time>
      </trkpt>
      <trkpt lat="42.06822" lon="2.99583">
        <ele>27.4</ele>
        <time>2022-11-04 12:09:26</time>
      </trkpt>
      <trkpt lat="42.06806" lon="2.99589">
        <ele>27</ele>
        <time>2022-11-04 12:09:30</time>
      </trkpt>
      <trkpt lat="42.06793" lon="2.99592">
        <ele>27</ele>
        <time>2022-11-04 12:09:33</time>
      </trkpt>
      <trkpt lat="42.06752" lon="2.99595">
        <ele>26.8</ele>
        <time>2022-11-04 12:09:43</time>
      </trkpt>
      <trkpt lat="42.06747" lon="2.99594">
        <ele>26.8</ele>
        <time>2022-11-04 12:09:44</time>
      </trkpt>
      <trkpt lat="42.06732" lon="2.99585">
        <ele>26.6</ele>
        <time>2022-11-04 12:09:48</time>
      </trkpt>
      <trkpt lat="42.06729" lon="2.99581">
        <ele>26.8</ele>
        <time>2022-11-04 12:09:49</time>
      </trkpt>
      <trkpt lat="42.06718" lon="2.99573">
        <ele>26.6</ele>
        <time>2022-11-04 12:09:52</time>
      </trkpt>
      <trkpt lat="42.06706" lon="2.99569">
        <ele>26.6</ele>
        <time>2022-11-04 12:09:55</time>
      </trkpt>
      <trkpt lat="42.06693" lon="2.9957">
        <ele>26.4</ele>
        <time>2022-11-04 12:09:58</time>
      </trkpt>
      <trkpt lat="42.06675" lon="2.99573">
        <ele>26.2</ele>
        <time>2022-11-04 12:10:02</time>
      </trkpt>
      <trkpt lat="42.06632" lon="2.99578">
        <ele>26.6</ele>
        <time>2022-11-04 12:10:12</time>
      </trkpt>
      <trkpt lat="42.06595" lon="2.99585">
        <ele>26.6</ele>
        <time>2022-11-04 12:10:21</time>
      </trkpt>
      <trkpt lat="42.06559" lon="2.9959">
        <ele>26.2</ele>
        <time>2022-11-04 12:10:29</time>
      </trkpt>
      <trkpt lat="42.06518" lon="2.99596">
        <ele>26.2</ele>
        <time>2022-11-04 12:10:38</time>
      </trkpt>
      <trkpt lat="42.06484" lon="2.99605">
        <ele>26.2</ele>
        <time>2022-11-04 12:10:46</time>
      </trkpt>
      <trkpt lat="42.06457" lon="2.99625">
        <ele>26.4</ele>
        <time>2022-11-04 12:10:53</time>
      </trkpt>
      <trkpt lat="42.06438" lon="2.9965">
        <ele>26.6</ele>
        <time>2022-11-04 12:10:59</time>
      </trkpt>
      <trkpt lat="42.06431" lon="2.99656">
        <ele>26.6</ele>
        <time>2022-11-04 12:11:01</time>
      </trkpt>
      <trkpt lat="42.06422" lon="2.99662">
        <ele>26.6</ele>
        <time>2022-11-04 12:11:03</time>
      </trkpt>
      <trkpt lat="42.064" lon="2.99672">
        <ele>26.4</ele>
        <time>2022-11-04 12:11:08</time>
      </trkpt>
      <trkpt lat="42.06362" lon="2.99689">
        <ele>26.2</ele>
        <time>2022-11-04 12:11:17</time>
      </trkpt>
      <trkpt lat="42.06325" lon="2.99707">
        <ele>26.2</ele>
        <time>2022-11-04 12:11:26</time>
      </trkpt>
      <trkpt lat="42.06291" lon="2.99722">
        <ele>26.2</ele>
        <time>2022-11-04 12:11:34</time>
      </trkpt>
      <trkpt lat="42.06252" lon="2.99735">
        <ele>26.4</ele>
        <time>2022-11-04 12:11:43</time>
      </trkpt>
      <trkpt lat="42.06218" lon="2.99745">
        <ele>26</ele>
        <time>2022-11-04 12:11:51</time>
      </trkpt>
      <trkpt lat="42.06214" lon="2.99747">
        <ele>26.2</ele>
        <time>2022-11-04 12:11:52</time>
      </trkpt>
      <trkpt lat="42.0617" lon="2.99761">
        <ele>26.4</ele>
        <time>2022-11-04 12:12:03</time>
      </trkpt>
      <trkpt lat="42.06134" lon="2.99771">
        <ele>26.2</ele>
        <time>2022-11-04 12:12:12</time>
      </trkpt>
      <trkpt lat="42.06092" lon="2.99775">
        <ele>26.4</ele>
        <time>2022-11-04 12:12:22</time>
      </trkpt>
      <trkpt lat="42.06071" lon="2.99778">
        <ele>26.4</ele>
        <time>2022-11-04 12:12:28</time>
      </trkpt>
      <trkpt lat="42.06072" lon="2.9978">
        <ele>26.4</ele>
        <time>2022-11-04 12:12:34</time>
      </trkpt>
      <trkpt lat="42.06073" lon="2.9978">
        <ele>26.2</ele>
        <time>2022-11-04 12:12:35</time>
      </trkpt>
      <trkpt lat="42.06074" lon="2.99778">
        <ele>26.2</ele>
        <time>2022-11-04 12:12:38</time>
      </trkpt>
      <trkpt lat="42.06071" lon="2.99777">
        <ele>26.4</ele>
        <time>2022-11-04 12:12:43</time>
      </trkpt>
      <trkpt lat="42.0607" lon="2.99777">
        <ele>26.6</ele>
        <time>2022-11-04 12:12:53</time>
      </trkpt>
      <trkpt lat="42.06068" lon="2.99778">
        <ele>26.4</ele>
        <time>2022-11-04 12:13:03</time>
      </trkpt>
      <trkpt lat="42.06057" lon="2.99779">
        <ele>26.8</ele>
        <time>2022-11-04 12:13:09</time>
      </trkpt>
      <trkpt lat="42.06037" lon="2.99781">
        <ele>26.8</ele>
        <time>2022-11-04 12:13:16</time>
      </trkpt>
      <trkpt lat="42.06007" lon="2.99784">
        <ele>26.8</ele>
        <time>2022-11-04 12:13:24</time>
      </trkpt>
      <trkpt lat="42.06003" lon="2.99785">
        <ele>26.8</ele>
        <time>2022-11-04 12:13:25</time>
      </trkpt>
      <trkpt lat="42.05981" lon="2.99788">
        <ele>26.8</ele>
        <time>2022-11-04 12:13:30</time>
      </trkpt>
      <trkpt lat="42.05939" lon="2.99796">
        <ele>26.6</ele>
        <time>2022-11-04 12:13:39</time>
      </trkpt>
      <trkpt lat="42.05901" lon="2.99803">
        <ele>26.6</ele>
        <time>2022-11-04 12:13:47</time>
      </trkpt>
      <trkpt lat="42.05864" lon="2.9981">
        <ele>26.8</ele>
        <time>2022-11-04 12:13:55</time>
      </trkpt>
      <trkpt lat="42.05829" lon="2.99816">
        <ele>27</ele>
        <time>2022-11-04 12:14:03</time>
      </trkpt>
      <trkpt lat="42.05821" lon="2.99817">
        <ele>27</ele>
        <time>2022-11-04 12:14:05</time>
      </trkpt>
      <trkpt lat="42.05792" lon="2.99823">
        <ele>27.2</ele>
        <time>2022-11-04 12:14:12</time>
      </trkpt>
      <trkpt lat="42.05784" lon="2.99824">
        <ele>27</ele>
        <time>2022-11-04 12:14:14</time>
      </trkpt>
      <trkpt lat="42.05768" lon="2.99827">
        <ele>27.2</ele>
        <time>2022-11-04 12:14:18</time>
      </trkpt>
      <trkpt lat="42.05755" lon="2.9983">
        <ele>27.2</ele>
        <time>2022-11-04 12:14:21</time>
      </trkpt>
      <trkpt lat="42.0572" lon="2.99837">
        <ele>27.6</ele>
        <time>2022-11-04 12:14:30</time>
      </trkpt>
      <trkpt lat="42.05696" lon="2.99838">
        <ele>28</ele>
        <time>2022-11-04 12:14:36</time>
      </trkpt>
      <trkpt lat="42.05688" lon="2.99835">
        <ele>27.8</ele>
        <time>2022-11-04 12:14:38</time>
      </trkpt>
      <trkpt lat="42.05684" lon="2.99833">
        <ele>27.8</ele>
        <time>2022-11-04 12:14:39</time>
      </trkpt>
      <trkpt lat="42.0566" lon="2.99822">
        <ele>28</ele>
        <time>2022-11-04 12:14:45</time>
      </trkpt>
      <trkpt lat="42.0563" lon="2.99821">
        <ele>28</ele>
        <time>2022-11-04 12:14:52</time>
      </trkpt>
      <trkpt lat="42.05599" lon="2.99825">
        <ele>28</ele>
        <time>2022-11-04 12:14:59</time>
      </trkpt>
      <trkpt lat="42.0557" lon="2.99827">
        <ele>28.2</ele>
        <time>2022-11-04 12:15:06</time>
      </trkpt>
      <trkpt lat="42.05557" lon="2.99827">
        <ele>28.6</ele>
        <time>2022-11-04 12:15:09</time>
      </trkpt>
      <trkpt lat="42.05535" lon="2.99823">
        <ele>29.2</ele>
        <time>2022-11-04 12:15:15</time>
      </trkpt>
      <trkpt lat="42.05524" lon="2.99824">
        <ele>29.6</ele>
        <time>2022-11-04 12:15:18</time>
      </trkpt>
      <trkpt lat="42.05516" lon="2.99838">
        <ele>29.6</ele>
        <time>2022-11-04 12:15:22</time>
      </trkpt>
      <trkpt lat="42.05517" lon="2.99858">
        <ele>30</ele>
        <time>2022-11-04 12:15:26</time>
      </trkpt>
      <trkpt lat="42.05522" lon="2.99865">
        <ele>30.2</ele>
        <time>2022-11-04 12:15:28</time>
      </trkpt>
      <trkpt lat="42.05528" lon="2.99872">
        <ele>30.4</ele>
        <time>2022-11-04 12:15:30</time>
      </trkpt>
      <trkpt lat="42.05537" lon="2.99881">
        <ele>31.4</ele>
        <time>2022-11-04 12:15:33</time>
      </trkpt>
      <trkpt lat="42.05547" lon="2.9989">
        <ele>31.6</ele>
        <time>2022-11-04 12:15:36</time>
      </trkpt>
      <trkpt lat="42.05565" lon="2.99911">
        <ele>32</ele>
        <time>2022-11-04 12:15:42</time>
      </trkpt>
      <trkpt lat="42.05573" lon="2.99931">
        <ele>32.4</ele>
        <time>2022-11-04 12:15:46</time>
      </trkpt>
      <trkpt lat="42.05574" lon="2.99941">
        <ele>32.8</ele>
        <time>2022-11-04 12:15:48</time>
      </trkpt>
      <trkpt lat="42.05572" lon="2.9996">
        <ele>33.6</ele>
        <time>2022-11-04 12:15:52</time>
      </trkpt>
      <trkpt lat="42.05573" lon="2.99976">
        <ele>33.8</ele>
        <time>2022-11-04 12:15:56</time>
      </trkpt>
      <trkpt lat="42.05567" lon="2.99999">
        <ele>33.2</ele>
        <time>2022-11-04 12:16:01</time>
      </trkpt>
      <trkpt lat="42.05565" lon="3.00019">
        <ele>32.2</ele>
        <time>2022-11-04 12:16:04</time>
      </trkpt>
      <trkpt lat="42.05563" lon="3.00025">
        <ele>32.2</ele>
        <time>2022-11-04 12:16:05</time>
      </trkpt>
      <trkpt lat="42.05549" lon="3.00041">
        <ele>31.8</ele>
        <time>2022-11-04 12:16:09</time>
      </trkpt>
      <trkpt lat="42.05536" lon="3.00047">
        <ele>31.6</ele>
        <time>2022-11-04 12:16:12</time>
      </trkpt>
      <trkpt lat="42.05529" lon="3.00051">
        <ele>31.8</ele>
        <time>2022-11-04 12:16:14</time>
      </trkpt>
      <trkpt lat="42.05505" lon="3.00061">
        <ele>32</ele>
        <time>2022-11-04 12:16:21</time>
      </trkpt>
      <trkpt lat="42.05481" lon="3.00065">
        <ele>32.4</ele>
        <time>2022-11-04 12:16:27</time>
      </trkpt>
      <trkpt lat="42.05468" lon="3.00079">
        <ele>32.8</ele>
        <time>2022-11-04 12:16:32</time>
      </trkpt>
      <trkpt lat="42.05467" lon="3.00088">
        <ele>33</ele>
        <time>2022-11-04 12:16:34</time>
      </trkpt>
      <trkpt lat="42.0547" lon="3.00096">
        <ele>33</ele>
        <time>2022-11-04 12:16:36</time>
      </trkpt>
      <trkpt lat="42.05479" lon="3.00107">
        <ele>33.2</ele>
        <time>2022-11-04 12:16:40</time>
      </trkpt>
      <trkpt lat="42.05495" lon="3.00112">
        <ele>32.8</ele>
        <time>2022-11-04 12:16:45</time>
      </trkpt>
      <trkpt lat="42.05507" lon="3.00117">
        <ele>31.8</ele>
        <time>2022-11-04 12:16:48</time>
      </trkpt>
      <trkpt lat="42.05512" lon="3.00118">
        <ele>31.2</ele>
        <time>2022-11-04 12:16:49</time>
      </trkpt>
      <trkpt lat="42.05517" lon="3.0012">
        <ele>30.6</ele>
        <time>2022-11-04 12:16:50</time>
      </trkpt>
      <trkpt lat="42.05522" lon="3.00121">
        <ele>30</ele>
        <time>2022-11-04 12:16:51</time>
      </trkpt>
      <trkpt lat="42.05539" lon="3.00125">
        <ele>29</ele>
        <time>2022-11-04 12:16:54</time>
      </trkpt>
      <trkpt lat="42.05545" lon="3.00127">
        <ele>29</ele>
        <time>2022-11-04 12:16:55</time>
      </trkpt>
      <trkpt lat="42.05556" lon="3.0014">
        <ele>29.6</ele>
        <time>2022-11-04 12:16:58</time>
      </trkpt>
      <trkpt lat="42.05557" lon="3.00145">
        <ele>30</ele>
        <time>2022-11-04 12:16:59</time>
      </trkpt>
      <trkpt lat="42.05558" lon="3.00155">
        <ele>31.2</ele>
        <time>2022-11-04 12:17:01</time>
      </trkpt>
      <trkpt lat="42.05557" lon="3.00185">
        <ele>31</ele>
        <time>2022-11-04 12:17:07</time>
      </trkpt>
      <trkpt lat="42.05557" lon="3.00191">
        <ele>30</ele>
        <time>2022-11-04 12:17:08</time>
      </trkpt>
      <trkpt lat="42.05554" lon="3.00213">
        <ele>29</ele>
        <time>2022-11-04 12:17:11</time>
      </trkpt>
      <trkpt lat="42.05552" lon="3.00221">
        <ele>28.8</ele>
        <time>2022-11-04 12:17:12</time>
      </trkpt>
      <trkpt lat="42.05543" lon="3.00255">
        <ele>28.6</ele>
        <time>2022-11-04 12:17:17</time>
      </trkpt>
      <trkpt lat="42.05541" lon="3.0026">
        <ele>28.6</ele>
        <time>2022-11-04 12:17:18</time>
      </trkpt>
      <trkpt lat="42.05535" lon="3.0027">
        <ele>28.6</ele>
        <time>2022-11-04 12:17:20</time>
      </trkpt>
      <trkpt lat="42.05523" lon="3.00286">
        <ele>29</ele>
        <time>2022-11-04 12:17:24</time>
      </trkpt>
      <trkpt lat="42.05509" lon="3.00298">
        <ele>30</ele>
        <time>2022-11-04 12:17:29</time>
      </trkpt>
      <trkpt lat="42.05498" lon="3.00309">
        <ele>31</ele>
        <time>2022-11-04 12:17:34</time>
      </trkpt>
      <trkpt lat="42.05494" lon="3.00313">
        <ele>31.4</ele>
        <time>2022-11-04 12:17:36</time>
      </trkpt>
      <trkpt lat="42.05488" lon="3.00318">
        <ele>32.2</ele>
        <time>2022-11-04 12:17:39</time>
      </trkpt>
      <trkpt lat="42.05477" lon="3.00325">
        <ele>33.2</ele>
        <time>2022-11-04 12:17:44</time>
      </trkpt>
      <trkpt lat="42.0547" lon="3.0033">
        <ele>34.2</ele>
        <time>2022-11-04 12:17:48</time>
      </trkpt>
      <trkpt lat="42.05463" lon="3.00336">
        <ele>35.4</ele>
        <time>2022-11-04 12:17:52</time>
      </trkpt>
      <trkpt lat="42.0546" lon="3.00346">
        <ele>36.6</ele>
        <time>2022-11-04 12:17:56</time>
      </trkpt>
      <trkpt lat="42.0546" lon="3.00349">
        <ele>36.8</ele>
        <time>2022-11-04 12:17:57</time>
      </trkpt>
      <trkpt lat="42.05459" lon="3.00365">
        <ele>37.8</ele>
        <time>2022-11-04 12:18:02</time>
      </trkpt>
      <trkpt lat="42.05457" lon="3.00379">
        <ele>39</ele>
        <time>2022-11-04 12:18:07</time>
      </trkpt>
      <trkpt lat="42.05456" lon="3.00381">
        <ele>39.2</ele>
        <time>2022-11-04 12:18:08</time>
      </trkpt>
      <trkpt lat="42.05448" lon="3.00393">
        <ele>40.2</ele>
        <time>2022-11-04 12:18:13</time>
      </trkpt>
      <trkpt lat="42.05446" lon="3.00395">
        <ele>40.4</ele>
        <time>2022-11-04 12:18:14</time>
      </trkpt>
      <trkpt lat="42.05434" lon="3.00404">
        <ele>41</ele>
        <time>2022-11-04 12:18:19</time>
      </trkpt>
      <trkpt lat="42.05429" lon="3.00405">
        <ele>41.2</ele>
        <time>2022-11-04 12:18:21</time>
      </trkpt>
      <trkpt lat="42.05421" lon="3.00408">
        <ele>41</ele>
        <time>2022-11-04 12:18:25</time>
      </trkpt>
      <trkpt lat="42.05414" lon="3.00414">
        <ele>40.8</ele>
        <time>2022-11-04 12:18:31</time>
      </trkpt>
      <trkpt lat="42.05414" lon="3.00414">
        <ele>40.8</ele>
        <time>2022-11-04 12:18:38</time>
      </trkpt>
      <trkpt lat="42.05414" lon="3.00414">
        <ele>40.8</ele>
        <time>2022-11-04 12:18:53</time>
      </trkpt>
      <trkpt lat="42.05414" lon="3.00414">
        <ele>41</ele>
        <time>2022-11-04 12:19:07</time>
      </trkpt>
      <trkpt lat="42.05412" lon="3.00413">
        <ele>40.8</ele>
        <time>2022-11-04 12:19:10</time>
      </trkpt>
      <trkpt lat="42.0541" lon="3.00412">
        <ele>40.8</ele>
        <time>2022-11-04 12:19:12</time>
      </trkpt>
      <trkpt lat="42.05408" lon="3.00413">
        <ele>40.6</ele>
        <time>2022-11-04 12:19:16</time>
      </trkpt>
      <trkpt lat="42.05408" lon="3.00413">
        <ele>40.8</ele>
        <time>2022-11-04 12:19:28</time>
      </trkpt>
      <trkpt lat="42.05408" lon="3.00413">
        <ele>41</ele>
        <time>2022-11-04 12:19:44</time>
      </trkpt>
      <trkpt lat="42.05408" lon="3.00412">
        <ele>40.8</ele>
        <time>2022-11-04 12:19:57</time>
      </trkpt>
      <trkpt lat="42.05407" lon="3.00413">
        <ele>40.8</ele>
        <time>2022-11-04 12:20:00</time>
      </trkpt>
      <trkpt lat="42.05403" lon="3.00413">
        <ele>40.8</ele>
        <time>2022-11-04 12:20:02</time>
      </trkpt>
      <trkpt lat="42.05394" lon="3.00415">
        <ele>40.6</ele>
        <time>2022-11-04 12:20:06</time>
      </trkpt>
      <trkpt lat="42.05391" lon="3.00415">
        <ele>40.6</ele>
        <time>2022-11-04 12:20:07</time>
      </trkpt>
      <trkpt lat="42.05376" lon="3.00417">
        <ele>40.2</ele>
        <time>2022-11-04 12:20:11</time>
      </trkpt>
      <trkpt lat="42.05369" lon="3.00417">
        <ele>40</ele>
        <time>2022-11-04 12:20:13</time>
      </trkpt>
      <trkpt lat="42.0535" lon="3.00421">
        <ele>39.8</ele>
        <time>2022-11-04 12:20:18</time>
      </trkpt>
      <trkpt lat="42.05337" lon="3.00428">
        <ele>39.6</ele>
        <time>2022-11-04 12:20:22</time>
      </trkpt>
      <trkpt lat="42.05335" lon="3.00432">
        <ele>39.4</ele>
        <time>2022-11-04 12:20:23</time>
      </trkpt>
      <trkpt lat="42.05334" lon="3.00444">
        <ele>38.6</ele>
        <time>2022-11-04 12:20:25</time>
      </trkpt>
      <trkpt lat="42.05333" lon="3.00458">
        <ele>37.8</ele>
        <time>2022-11-04 12:20:27</time>
      </trkpt>
      <trkpt lat="42.0533" lon="3.00465">
        <ele>37.4</ele>
        <time>2022-11-04 12:20:28</time>
      </trkpt>
      <trkpt lat="42.05327" lon="3.0047">
        <ele>37.2</ele>
        <time>2022-11-04 12:20:29</time>
      </trkpt>
      <trkpt lat="42.05314" lon="3.00472">
        <ele>37.6</ele>
        <time>2022-11-04 12:20:32</time>
      </trkpt>
      <trkpt lat="42.05301" lon="3.00469">
        <ele>37.8</ele>
        <time>2022-11-04 12:20:36</time>
      </trkpt>
      <trkpt lat="42.05281" lon="3.00468">
        <ele>38</ele>
        <time>2022-11-04 12:20:42</time>
      </trkpt>
      <trkpt lat="42.05243" lon="3.00466">
        <ele>38</ele>
        <time>2022-11-04 12:20:51</time>
      </trkpt>
      <trkpt lat="42.05202" lon="3.0047">
        <ele>37.8</ele>
        <time>2022-11-04 12:21:01</time>
      </trkpt>
      <trkpt lat="42.05171" lon="3.00472">
        <ele>38</ele>
        <time>2022-11-04 12:21:08</time>
      </trkpt>
      <trkpt lat="42.05135" lon="3.00477">
        <ele>37.8</ele>
        <time>2022-11-04 12:21:16</time>
      </trkpt>
      <trkpt lat="42.05095" lon="3.00486">
        <ele>38.2</ele>
        <time>2022-11-04 12:21:25</time>
      </trkpt>
      <trkpt lat="42.05066" lon="3.00496">
        <ele>38.6</ele>
        <time>2022-11-04 12:21:32</time>
      </trkpt>
      <trkpt lat="42.05057" lon="3.00498">
        <ele>38.6</ele>
        <time>2022-11-04 12:21:34</time>
      </trkpt>
      <trkpt lat="42.05025" lon="3.00502">
        <ele>39.2</ele>
        <time>2022-11-04 12:21:41</time>
      </trkpt>
      <trkpt lat="42.04985" lon="3.00502">
        <ele>39</ele>
        <time>2022-11-04 12:21:50</time>
      </trkpt>
      <trkpt lat="42.04945" lon="3.00501">
        <ele>39.2</ele>
        <time>2022-11-04 12:21:59</time>
      </trkpt>
      <trkpt lat="42.04921" lon="3.00504">
        <ele>39</ele>
        <time>2022-11-04 12:22:05</time>
      </trkpt>
      <trkpt lat="42.04893" lon="3.00509">
        <ele>39</ele>
        <time>2022-11-04 12:22:12</time>
      </trkpt>
      <trkpt lat="42.04859" lon="3.00514">
        <ele>38.6</ele>
        <time>2022-11-04 12:22:20</time>
      </trkpt>
      <trkpt lat="42.04816" lon="3.00516">
        <ele>38.8</ele>
        <time>2022-11-04 12:22:29</time>
      </trkpt>
      <trkpt lat="42.04772" lon="3.00517">
        <ele>39.2</ele>
        <time>2022-11-04 12:22:38</time>
      </trkpt>
      <trkpt lat="42.04759" lon="3.00517">
        <ele>39.4</ele>
        <time>2022-11-04 12:22:41</time>
      </trkpt>
      <trkpt lat="42.04742" lon="3.00516">
        <ele>39.6</ele>
        <time>2022-11-04 12:22:45</time>
      </trkpt>
      <trkpt lat="42.04703" lon="3.00515">
        <ele>40.8</ele>
        <time>2022-11-04 12:22:54</time>
      </trkpt>
      <trkpt lat="42.04676" lon="3.00514">
        <ele>41.2</ele>
        <time>2022-11-04 12:23:01</time>
      </trkpt>
      <trkpt lat="42.04638" lon="3.00507">
        <ele>41.4</ele>
        <time>2022-11-04 12:23:10</time>
      </trkpt>
      <trkpt lat="42.04605" lon="3.00491">
        <ele>41.8</ele>
        <time>2022-11-04 12:23:18</time>
      </trkpt>
      <trkpt lat="42.04601" lon="3.00489">
        <ele>42</ele>
        <time>2022-11-04 12:23:19</time>
      </trkpt>
      <trkpt lat="42.04582" lon="3.00479">
        <ele>42.4</ele>
        <time>2022-11-04 12:23:25</time>
      </trkpt>
      <trkpt lat="42.04567" lon="3.00481">
        <ele>42.6</ele>
        <time>2022-11-04 12:23:31</time>
      </trkpt>
      <trkpt lat="42.04557" lon="3.00493">
        <ele>42.6</ele>
        <time>2022-11-04 12:23:36</time>
      </trkpt>
      <trkpt lat="42.04545" lon="3.00516">
        <ele>42.8</ele>
        <time>2022-11-04 12:23:42</time>
      </trkpt>
      <trkpt lat="42.04536" lon="3.00526">
        <ele>42.8</ele>
        <time>2022-11-04 12:23:46</time>
      </trkpt>
      <trkpt lat="42.04531" lon="3.00531">
        <ele>42.8</ele>
        <time>2022-11-04 12:23:48</time>
      </trkpt>
      <trkpt lat="42.04507" lon="3.00547">
        <ele>42.8</ele>
        <time>2022-11-04 12:23:56</time>
      </trkpt>
      <trkpt lat="42.04473" lon="3.0057">
        <ele>42.2</ele>
        <time>2022-11-04 12:24:05</time>
      </trkpt>
      <trkpt lat="42.04465" lon="3.00577">
        <ele>41.6</ele>
        <time>2022-11-04 12:24:07</time>
      </trkpt>
      <trkpt lat="42.04447" lon="3.00597">
        <ele>41</ele>
        <time>2022-11-04 12:24:11</time>
      </trkpt>
      <trkpt lat="42.04438" lon="3.00607">
        <ele>40.6</ele>
        <time>2022-11-04 12:24:13</time>
      </trkpt>
      <trkpt lat="42.04411" lon="3.00641">
        <ele>39.8</ele>
        <time>2022-11-04 12:24:19</time>
      </trkpt>
      <trkpt lat="42.04401" lon="3.00651">
        <ele>39.4</ele>
        <time>2022-11-04 12:24:21</time>
      </trkpt>
      <trkpt lat="42.04378" lon="3.00671">
        <ele>38.6</ele>
        <time>2022-11-04 12:24:25</time>
      </trkpt>
      <trkpt lat="42.04372" lon="3.00676">
        <ele>38.4</ele>
        <time>2022-11-04 12:24:26</time>
      </trkpt>
      <trkpt lat="42.04333" lon="3.007">
        <ele>37.8</ele>
        <time>2022-11-04 12:24:32</time>
      </trkpt>
      <trkpt lat="42.04313" lon="3.00706">
        <ele>37.4</ele>
        <time>2022-11-04 12:24:35</time>
      </trkpt>
      <trkpt lat="42.04292" lon="3.00711">
        <ele>37.2</ele>
        <time>2022-11-04 12:24:38</time>
      </trkpt>
      <trkpt lat="42.04266" lon="3.00721">
        <ele>36.8</ele>
        <time>2022-11-04 12:24:42</time>
      </trkpt>
      <trkpt lat="42.04261" lon="3.00726">
        <ele>36.8</ele>
        <time>2022-11-04 12:24:43</time>
      </trkpt>
      <trkpt lat="42.04239" lon="3.00746">
        <ele>36.2</ele>
        <time>2022-11-04 12:24:47</time>
      </trkpt>
      <trkpt lat="42.0423" lon="3.00758">
        <ele>36.2</ele>
        <time>2022-11-04 12:24:49</time>
      </trkpt>
      <trkpt lat="42.04217" lon="3.00787">
        <ele>35.8</ele>
        <time>2022-11-04 12:24:53</time>
      </trkpt>
      <trkpt lat="42.04214" lon="3.00795">
        <ele>35.6</ele>
        <time>2022-11-04 12:24:54</time>
      </trkpt>
      <trkpt lat="42.04208" lon="3.0081">
        <ele>35.2</ele>
        <time>2022-11-04 12:24:56</time>
      </trkpt>
      <trkpt lat="42.04184" lon="3.0086">
        <ele>34.4</ele>
        <time>2022-11-04 12:25:03</time>
      </trkpt>
      <trkpt lat="42.0418" lon="3.00867">
        <ele>34.4</ele>
        <time>2022-11-04 12:25:04</time>
      </trkpt>
      <trkpt lat="42.04172" lon="3.00888">
        <ele>34.4</ele>
        <time>2022-11-04 12:25:07</time>
      </trkpt>
      <trkpt lat="42.0417" lon="3.00895">
        <ele>34.2</ele>
        <time>2022-11-04 12:25:08</time>
      </trkpt>
      <trkpt lat="42.04157" lon="3.00929">
        <ele>34</ele>
        <time>2022-11-04 12:25:13</time>
      </trkpt>
      <trkpt lat="42.04149" lon="3.00949">
        <ele>33.8</ele>
        <time>2022-11-04 12:25:16</time>
      </trkpt>
      <trkpt lat="42.04128" lon="3.00994">
        <ele>33.8</ele>
        <time>2022-11-04 12:25:23</time>
      </trkpt>
      <trkpt lat="42.04119" lon="3.01013">
        <ele>33.6</ele>
        <time>2022-11-04 12:25:26</time>
      </trkpt>
      <trkpt lat="42.04112" lon="3.01025">
        <ele>33.2</ele>
        <time>2022-11-04 12:25:28</time>
      </trkpt>
      <trkpt lat="42.04109" lon="3.01032">
        <ele>33.2</ele>
        <time>2022-11-04 12:25:29</time>
      </trkpt>
      <trkpt lat="42.04104" lon="3.01045">
        <ele>33</ele>
        <time>2022-11-04 12:25:31</time>
      </trkpt>
      <trkpt lat="42.04095" lon="3.01081">
        <ele>32.6</ele>
        <time>2022-11-04 12:25:36</time>
      </trkpt>
      <trkpt lat="42.04091" lon="3.01109">
        <ele>32.2</ele>
        <time>2022-11-04 12:25:40</time>
      </trkpt>
      <trkpt lat="42.0409" lon="3.01129">
        <ele>32</ele>
        <time>2022-11-04 12:25:43</time>
      </trkpt>
      <trkpt lat="42.0409" lon="3.01147">
        <ele>32.2</ele>
        <time>2022-11-04 12:25:46</time>
      </trkpt>
      <trkpt lat="42.04089" lon="3.01164">
        <ele>31.8</ele>
        <time>2022-11-04 12:25:49</time>
      </trkpt>
      <trkpt lat="42.04087" lon="3.01169">
        <ele>31.8</ele>
        <time>2022-11-04 12:25:50</time>
      </trkpt>
      <trkpt lat="42.04079" lon="3.01178">
        <ele>31.6</ele>
        <time>2022-11-04 12:25:53</time>
      </trkpt>
      <trkpt lat="42.04066" lon="3.01178">
        <ele>31.8</ele>
        <time>2022-11-04 12:25:57</time>
      </trkpt>
      <trkpt lat="42.04063" lon="3.01179">
        <ele>31.8</ele>
        <time>2022-11-04 12:25:58</time>
      </trkpt>
      <trkpt lat="42.04034" lon="3.01181">
        <ele>32</ele>
        <time>2022-11-04 12:26:06</time>
      </trkpt>
      <trkpt lat="42.04001" lon="3.01184">
        <ele>32.4</ele>
        <time>2022-11-04 12:26:16</time>
      </trkpt>
      <trkpt lat="42.03977" lon="3.01185">
        <ele>32.6</ele>
        <time>2022-11-04 12:26:23</time>
      </trkpt>
      <trkpt lat="42.03968" lon="3.01184">
        <ele>32.8</ele>
        <time>2022-11-04 12:26:26</time>
      </trkpt>
      <trkpt lat="42.03957" lon="3.01179">
        <ele>33.2</ele>
        <time>2022-11-04 12:26:30</time>
      </trkpt>
      <trkpt lat="42.03939" lon="3.01173">
        <ele>33.6</ele>
        <time>2022-11-04 12:26:36</time>
      </trkpt>
      <trkpt lat="42.03927" lon="3.01184">
        <ele>33.2</ele>
        <time>2022-11-04 12:26:40</time>
      </trkpt>
      <trkpt lat="42.03914" lon="3.01195">
        <ele>33.2</ele>
        <time>2022-11-04 12:26:44</time>
      </trkpt>
      <trkpt lat="42.03891" lon="3.01218">
        <ele>33.4</ele>
        <time>2022-11-04 12:26:51</time>
      </trkpt>
      <trkpt lat="42.03865" lon="3.01236">
        <ele>33.2</ele>
        <time>2022-11-04 12:26:58</time>
      </trkpt>
      <trkpt lat="42.03844" lon="3.01257">
        <ele>33.2</ele>
        <time>2022-11-04 12:27:04</time>
      </trkpt>
      <trkpt lat="42.03822" lon="3.01267">
        <ele>32.8</ele>
        <time>2022-11-04 12:27:09</time>
      </trkpt>
      <trkpt lat="42.03818" lon="3.01268">
        <ele>32.8</ele>
        <time>2022-11-04 12:27:10</time>
      </trkpt>
      <trkpt lat="42.03779" lon="3.01278">
        <ele>33</ele>
        <time>2022-11-04 12:27:19</time>
      </trkpt>
      <trkpt lat="42.03744" lon="3.01288">
        <ele>33.2</ele>
        <time>2022-11-04 12:27:28</time>
      </trkpt>
      <trkpt lat="42.03708" lon="3.01295">
        <ele>33.2</ele>
        <time>2022-11-04 12:27:38</time>
      </trkpt>
      <trkpt lat="42.0367" lon="3.01304">
        <ele>33</ele>
        <time>2022-11-04 12:27:47</time>
      </trkpt>
      <trkpt lat="42.03621" lon="3.01315">
        <ele>33</ele>
        <time>2022-11-04 12:27:57</time>
      </trkpt>
      <trkpt lat="42.03574" lon="3.01317">
        <ele>32.4</ele>
        <time>2022-11-04 12:28:06</time>
      </trkpt>
      <trkpt lat="42.03538" lon="3.01325">
        <ele>32.8</ele>
        <time>2022-11-04 12:28:13</time>
      </trkpt>
      <trkpt lat="42.03484" lon="3.01341">
        <ele>33.6</ele>
        <time>2022-11-04 12:28:24</time>
      </trkpt>
      <trkpt lat="42.0346" lon="3.01346">
        <ele>34</ele>
        <time>2022-11-04 12:28:29</time>
      </trkpt>
      <trkpt lat="42.03446" lon="3.0135">
        <ele>34.2</ele>
        <time>2022-11-04 12:28:32</time>
      </trkpt>
      <trkpt lat="42.03403" lon="3.01363">
        <ele>34.4</ele>
        <time>2022-11-04 12:28:41</time>
      </trkpt>
      <trkpt lat="42.0336" lon="3.01378">
        <ele>34.6</ele>
        <time>2022-11-04 12:28:50</time>
      </trkpt>
      <trkpt lat="42.03326" lon="3.01391">
        <ele>34.8</ele>
        <time>2022-11-04 12:28:57</time>
      </trkpt>
      <trkpt lat="42.03321" lon="3.01393">
        <ele>35</ele>
        <time>2022-11-04 12:28:58</time>
      </trkpt>
      <trkpt lat="42.03297" lon="3.01397">
        <ele>35</ele>
        <time>2022-11-04 12:29:03</time>
      </trkpt>
      <trkpt lat="42.03271" lon="3.01395">
        <ele>35.4</ele>
        <time>2022-11-04 12:29:09</time>
      </trkpt>
      <trkpt lat="42.03264" lon="3.01394">
        <ele>36</ele>
        <time>2022-11-04 12:29:11</time>
      </trkpt>
      <trkpt lat="42.03252" lon="3.01397">
        <ele>36.2</ele>
        <time>2022-11-04 12:29:15</time>
      </trkpt>
      <trkpt lat="42.0324" lon="3.014">
        <ele>36.4</ele>
        <time>2022-11-04 12:29:20</time>
      </trkpt>
      <trkpt lat="42.03225" lon="3.01401">
        <ele>36.6</ele>
        <time>2022-11-04 12:29:25</time>
      </trkpt>
      <trkpt lat="42.03195" lon="3.01406">
        <ele>37</ele>
        <time>2022-11-04 12:29:33</time>
      </trkpt>
      <trkpt lat="42.03166" lon="3.01405">
        <ele>36.8</ele>
        <time>2022-11-04 12:29:40</time>
      </trkpt>
      <trkpt lat="42.03127" lon="3.01404">
        <ele>37.2</ele>
        <time>2022-11-04 12:29:48</time>
      </trkpt>
      <trkpt lat="42.03094" lon="3.01414">
        <ele>38</ele>
        <time>2022-11-04 12:29:55</time>
      </trkpt>
      <trkpt lat="42.03056" lon="3.01428">
        <ele>38.6</ele>
        <time>2022-11-04 12:30:04</time>
      </trkpt>
      <trkpt lat="42.03031" lon="3.01436">
        <ele>38.8</ele>
        <time>2022-11-04 12:30:10</time>
      </trkpt>
      <trkpt lat="42.03027" lon="3.01438">
        <ele>38.8</ele>
        <time>2022-11-04 12:30:11</time>
      </trkpt>
      <trkpt lat="42.03018" lon="3.01442">
        <ele>38.8</ele>
        <time>2022-11-04 12:30:13</time>
      </trkpt>
      <trkpt lat="42.03007" lon="3.0145">
        <ele>38.8</ele>
        <time>2022-11-04 12:30:16</time>
      </trkpt>
      <trkpt lat="42.02996" lon="3.01455">
        <ele>39</ele>
        <time>2022-11-04 12:30:19</time>
      </trkpt>
      <trkpt lat="42.02993" lon="3.01456">
        <ele>39</ele>
        <time>2022-11-04 12:30:20</time>
      </trkpt>
      <trkpt lat="42.02986" lon="3.01459">
        <ele>39.4</ele>
        <time>2022-11-04 12:30:22</time>
      </trkpt>
      <trkpt lat="42.02958" lon="3.01471">
        <ele>39.2</ele>
        <time>2022-11-04 12:30:29</time>
      </trkpt>
      <trkpt lat="42.02929" lon="3.01482">
        <ele>39.4</ele>
        <time>2022-11-04 12:30:36</time>
      </trkpt>
      <trkpt lat="42.0292" lon="3.01484">
        <ele>39.6</ele>
        <time>2022-11-04 12:30:38</time>
      </trkpt>
      <trkpt lat="42.02908" lon="3.01487">
        <ele>40.2</ele>
        <time>2022-11-04 12:30:41</time>
      </trkpt>
      <trkpt lat="42.02899" lon="3.01486">
        <ele>40.6</ele>
        <time>2022-11-04 12:30:44</time>
      </trkpt>
      <trkpt lat="42.02875" lon="3.01475">
        <ele>41</ele>
        <time>2022-11-04 12:30:51</time>
      </trkpt>
      <trkpt lat="42.02864" lon="3.01467">
        <ele>41.2</ele>
        <time>2022-11-04 12:30:54</time>
      </trkpt>
      <trkpt lat="42.02844" lon="3.01455">
        <ele>41.4</ele>
        <time>2022-11-04 12:30:59</time>
      </trkpt>
      <trkpt lat="42.02828" lon="3.01444">
        <ele>42</ele>
        <time>2022-11-04 12:31:03</time>
      </trkpt>
      <trkpt lat="42.02824" lon="3.01441">
        <ele>42.2</ele>
        <time>2022-11-04 12:31:04</time>
      </trkpt>
      <trkpt lat="42.02815" lon="3.01436">
        <ele>42.6</ele>
        <time>2022-11-04 12:31:06</time>
      </trkpt>
      <trkpt lat="42.02798" lon="3.01426">
        <ele>43.4</ele>
        <time>2022-11-04 12:31:10</time>
      </trkpt>
      <trkpt lat="42.02781" lon="3.01412">
        <ele>44.4</ele>
        <time>2022-11-04 12:31:14</time>
      </trkpt>
      <trkpt lat="42.02764" lon="3.01399">
        <ele>45.6</ele>
        <time>2022-11-04 12:31:18</time>
      </trkpt>
      <trkpt lat="42.02748" lon="3.01385">
        <ele>46.6</ele>
        <time>2022-11-04 12:31:22</time>
      </trkpt>
      <trkpt lat="42.02732" lon="3.01372">
        <ele>47.6</ele>
        <time>2022-11-04 12:31:26</time>
      </trkpt>
      <trkpt lat="42.02713" lon="3.01355">
        <ele>48.4</ele>
        <time>2022-11-04 12:31:31</time>
      </trkpt>
      <trkpt lat="42.02705" lon="3.01348">
        <ele>48.8</ele>
        <time>2022-11-04 12:31:33</time>
      </trkpt>
      <trkpt lat="42.02694" lon="3.01339">
        <ele>50</ele>
        <time>2022-11-04 12:31:36</time>
      </trkpt>
      <trkpt lat="42.02684" lon="3.0133">
        <ele>50.8</ele>
        <time>2022-11-04 12:31:39</time>
      </trkpt>
      <trkpt lat="42.02681" lon="3.01327">
        <ele>51</ele>
        <time>2022-11-04 12:31:40</time>
      </trkpt>
      <trkpt lat="42.0267" lon="3.01316">
        <ele>52</ele>
        <time>2022-11-04 12:31:44</time>
      </trkpt>
      <trkpt lat="42.02662" lon="3.01308">
        <ele>52.8</ele>
        <time>2022-11-04 12:31:47</time>
      </trkpt>
      <trkpt lat="42.02651" lon="3.01295">
        <ele>53</ele>
        <time>2022-11-04 12:31:51</time>
      </trkpt>
      <trkpt lat="42.02642" lon="3.01284">
        <ele>53.2</ele>
        <time>2022-11-04 12:31:54</time>
      </trkpt>
      <trkpt lat="42.02629" lon="3.01263">
        <ele>54.2</ele>
        <time>2022-11-04 12:32:00</time>
      </trkpt>
      <trkpt lat="42.02627" lon="3.0126">
        <ele>54.4</ele>
        <time>2022-11-04 12:32:01</time>
      </trkpt>
      <trkpt lat="42.02616" lon="3.01249">
        <ele>55.2</ele>
        <time>2022-11-04 12:32:05</time>
      </trkpt>
      <trkpt lat="42.02611" lon="3.01244">
        <ele>55.8</ele>
        <time>2022-11-04 12:32:07</time>
      </trkpt>
      <trkpt lat="42.02606" lon="3.01239">
        <ele>56.4</ele>
        <time>2022-11-04 12:32:09</time>
      </trkpt>
      <trkpt lat="42.02597" lon="3.01229">
        <ele>57</ele>
        <time>2022-11-04 12:32:13</time>
      </trkpt>
      <trkpt lat="42.02585" lon="3.01215">
        <ele>57.4</ele>
        <time>2022-11-04 12:32:18</time>
      </trkpt>
      <trkpt lat="42.0258" lon="3.0121">
        <ele>57.8</ele>
        <time>2022-11-04 12:32:20</time>
      </trkpt>
      <trkpt lat="42.02571" lon="3.01197">
        <ele>58.4</ele>
        <time>2022-11-04 12:32:24</time>
      </trkpt>
      <trkpt lat="42.02564" lon="3.01189">
        <ele>58.8</ele>
        <time>2022-11-04 12:32:27</time>
      </trkpt>
      <trkpt lat="42.02553" lon="3.01182">
        <ele>59.6</ele>
        <time>2022-11-04 12:32:31</time>
      </trkpt>
      <trkpt lat="42.02547" lon="3.01178">
        <ele>59.8</ele>
        <time>2022-11-04 12:32:33</time>
      </trkpt>
      <trkpt lat="42.02523" lon="3.01166">
        <ele>60.6</ele>
        <time>2022-11-04 12:32:41</time>
      </trkpt>
      <trkpt lat="42.0252" lon="3.01164">
        <ele>60.8</ele>
        <time>2022-11-04 12:32:42</time>
      </trkpt>
      <trkpt lat="42.02507" lon="3.01156">
        <ele>61.8</ele>
        <time>2022-11-04 12:32:47</time>
      </trkpt>
      <trkpt lat="42.02504" lon="3.01155">
        <ele>62</ele>
        <time>2022-11-04 12:32:48</time>
      </trkpt>
      <trkpt lat="42.02484" lon="3.01146">
        <ele>63</ele>
        <time>2022-11-04 12:32:55</time>
      </trkpt>
      <trkpt lat="42.02478" lon="3.01145">
        <ele>63.4</ele>
        <time>2022-11-04 12:32:57</time>
      </trkpt>
      <trkpt lat="42.0247" lon="3.01143">
        <ele>64</ele>
        <time>2022-11-04 12:33:00</time>
      </trkpt>
      <trkpt lat="42.02453" lon="3.01141">
        <ele>64.8</ele>
        <time>2022-11-04 12:33:06</time>
      </trkpt>
      <trkpt lat="42.02447" lon="3.0114">
        <ele>65</ele>
        <time>2022-11-04 12:33:08</time>
      </trkpt>
      <trkpt lat="42.02427" lon="3.01137">
        <ele>65.8</ele>
        <time>2022-11-04 12:33:15</time>
      </trkpt>
      <trkpt lat="42.02416" lon="3.01135">
        <ele>66</ele>
        <time>2022-11-04 12:33:19</time>
      </trkpt>
      <trkpt lat="42.0241" lon="3.01136">
        <ele>66.2</ele>
        <time>2022-11-04 12:33:21</time>
      </trkpt>
      <trkpt lat="42.02385" lon="3.01134">
        <ele>66.8</ele>
        <time>2022-11-04 12:33:29</time>
      </trkpt>
      <trkpt lat="42.02376" lon="3.01133">
        <ele>67.2</ele>
        <time>2022-11-04 12:33:32</time>
      </trkpt>
      <trkpt lat="42.02362" lon="3.01131">
        <ele>68</ele>
        <time>2022-11-04 12:33:37</time>
      </trkpt>
      <trkpt lat="42.02357" lon="3.0113">
        <ele>68.2</ele>
        <time>2022-11-04 12:33:39</time>
      </trkpt>
      <trkpt lat="42.02344" lon="3.01128">
        <ele>68.8</ele>
        <time>2022-11-04 12:33:44</time>
      </trkpt>
      <trkpt lat="42.02339" lon="3.01129">
        <ele>69</ele>
        <time>2022-11-04 12:33:48</time>
      </trkpt>
      <trkpt lat="42.02339" lon="3.01129">
        <ele>68.6</ele>
        <time>2022-11-04 12:33:55</time>
      </trkpt>
      <trkpt lat="42.02339" lon="3.01129">
        <ele>68.6</ele>
        <time>2022-11-04 12:34:10</time>
      </trkpt>
      <trkpt lat="42.02337" lon="3.01126">
        <ele>69</ele>
        <time>2022-11-04 12:34:19</time>
      </trkpt>
      <trkpt lat="42.02336" lon="3.01125">
        <ele>69</ele>
        <time>2022-11-04 12:34:20</time>
      </trkpt>
      <trkpt lat="42.02333" lon="3.01124">
        <ele>69.2</ele>
        <time>2022-11-04 12:34:22</time>
      </trkpt>
      <trkpt lat="42.02328" lon="3.01122">
        <ele>69.4</ele>
        <time>2022-11-04 12:34:24</time>
      </trkpt>
      <trkpt lat="42.02314" lon="3.01119">
        <ele>70.2</ele>
        <time>2022-11-04 12:34:30</time>
      </trkpt>
      <trkpt lat="42.02309" lon="3.01112">
        <ele>71.4</ele>
        <time>2022-11-04 12:34:36</time>
      </trkpt>
      <trkpt lat="42.02308" lon="3.01111">
        <ele>71.6</ele>
        <time>2022-11-04 12:34:42</time>
      </trkpt>
      <trkpt lat="42.02307" lon="3.01111">
        <ele>71.8</ele>
        <time>2022-11-04 12:34:46</time>
      </trkpt>
      <trkpt lat="42.02307" lon="3.01111">
        <ele>71.6</ele>
        <time>2022-11-04 12:34:49</time>
      </trkpt>
      <trkpt lat="42.02307" lon="3.01111">
        <ele>71.8</ele>
        <time>2022-11-04 12:35:02</time>
      </trkpt>
      <trkpt lat="42.02302" lon="3.01112">
        <ele>71.8</ele>
        <time>2022-11-04 12:35:10</time>
      </trkpt>
      <trkpt lat="42.02284" lon="3.01111">
        <ele>71.8</ele>
        <time>2022-11-04 12:35:15</time>
      </trkpt>
      <trkpt lat="42.02258" lon="3.01107">
        <ele>72.4</ele>
        <time>2022-11-04 12:35:23</time>
      </trkpt>
      <trkpt lat="42.02251" lon="3.01106">
        <ele>72.4</ele>
        <time>2022-11-04 12:35:25</time>
      </trkpt>
      <trkpt lat="42.02228" lon="3.01104">
        <ele>72.6</ele>
        <time>2022-11-04 12:35:32</time>
      </trkpt>
      <trkpt lat="42.02198" lon="3.01103">
        <ele>73</ele>
        <time>2022-11-04 12:35:40</time>
      </trkpt>
      <trkpt lat="42.02174" lon="3.01102">
        <ele>73.4</ele>
        <time>2022-11-04 12:35:47</time>
      </trkpt>
      <trkpt lat="42.02172" lon="3.01102">
        <ele>73.6</ele>
        <time>2022-11-04 12:35:48</time>
      </trkpt>
      <trkpt lat="42.02162" lon="3.01106">
        <ele>73.4</ele>
        <time>2022-11-04 12:35:52</time>
      </trkpt>
      <trkpt lat="42.02142" lon="3.01114">
        <ele>73</ele>
        <time>2022-11-04 12:35:58</time>
      </trkpt>
      <trkpt lat="42.02119" lon="3.01121">
        <ele>72.4</ele>
        <time>2022-11-04 12:36:04</time>
      </trkpt>
      <trkpt lat="42.02115" lon="3.0112">
        <ele>72.2</ele>
        <time>2022-11-04 12:36:05</time>
      </trkpt>
      <trkpt lat="42.0209" lon="3.01121">
        <ele>71.8</ele>
        <time>2022-11-04 12:36:11</time>
      </trkpt>
      <trkpt lat="42.02068" lon="3.01123">
        <ele>71.2</ele>
        <time>2022-11-04 12:36:16</time>
      </trkpt>
      <trkpt lat="42.02064" lon="3.01123">
        <ele>71.2</ele>
        <time>2022-11-04 12:36:17</time>
      </trkpt>
      <trkpt lat="42.02049" lon="3.01124">
        <ele>70.8</ele>
        <time>2022-11-04 12:36:21</time>
      </trkpt>
      <trkpt lat="42.02032" lon="3.01125">
        <ele>70.2</ele>
        <time>2022-11-04 12:36:26</time>
      </trkpt>
      <trkpt lat="42.02029" lon="3.01127">
        <ele>70.2</ele>
        <time>2022-11-04 12:36:27</time>
      </trkpt>
      <trkpt lat="42.02022" lon="3.01135">
        <ele>70</ele>
        <time>2022-11-04 12:36:32</time>
      </trkpt>
      <trkpt lat="42.02018" lon="3.01136">
        <ele>69.8</ele>
        <time>2022-11-04 12:36:36</time>
      </trkpt>
      <trkpt lat="42.02012" lon="3.01135">
        <ele>69.4</ele>
        <time>2022-11-04 12:36:40</time>
      </trkpt>
      <trkpt lat="42.0201" lon="3.01136">
        <ele>69.2</ele>
        <time>2022-11-04 12:36:41</time>
      </trkpt>
      <trkpt lat="42.01999" lon="3.01134">
        <ele>68.2</ele>
        <time>2022-11-04 12:36:47</time>
      </trkpt>
      <trkpt lat="42.01997" lon="3.01133">
        <ele>68</ele>
        <time>2022-11-04 12:36:49</time>
      </trkpt>
      <trkpt lat="42.01992" lon="3.01137">
        <ele>67.2</ele>
        <time>2022-11-04 12:36:54</time>
      </trkpt>
      <trkpt lat="42.01987" lon="3.01143">
        <ele>66.6</ele>
        <time>2022-11-04 12:36:57</time>
      </trkpt>
      <trkpt lat="42.01979" lon="3.01162">
        <ele>66.4</ele>
        <time>2022-11-04 12:37:03</time>
      </trkpt>
      <trkpt lat="42.0197" lon="3.01183">
        <ele>66</ele>
        <time>2022-11-04 12:37:09</time>
      </trkpt>
      <trkpt lat="42.01969" lon="3.01188">
        <ele>65.8</ele>
        <time>2022-11-04 12:37:10</time>
      </trkpt>
      <trkpt lat="42.01966" lon="3.01195">
        <ele>65.8</ele>
        <time>2022-11-04 12:37:13</time>
      </trkpt>
      <trkpt lat="42.01965" lon="3.01197">
        <ele>65.6</ele>
        <time>2022-11-04 12:37:14</time>
      </trkpt>
      <trkpt lat="42.01962" lon="3.01203">
        <ele>65.8</ele>
        <time>2022-11-04 12:37:20</time>
      </trkpt>
      <trkpt lat="42.01962" lon="3.01209">
        <ele>65.6</ele>
        <time>2022-11-04 12:37:23</time>
      </trkpt>
      <trkpt lat="42.01962" lon="3.01215">
        <ele>65.4</ele>
        <time>2022-11-04 12:37:25</time>
      </trkpt>
      <trkpt lat="42.01962" lon="3.01222">
        <ele>65.2</ele>
        <time>2022-11-04 12:37:30</time>
      </trkpt>
      <trkpt lat="42.01962" lon="3.01222">
        <ele>65.4</ele>
        <time>2022-11-04 12:37:42</time>
      </trkpt>
      <trkpt lat="42.0196" lon="3.01225">
        <ele>65.2</ele>
        <time>2022-11-04 12:37:49</time>
      </trkpt>
      <trkpt lat="42.01959" lon="3.01226">
        <ele>65</ele>
        <time>2022-11-04 12:37:50</time>
      </trkpt>
      <trkpt lat="42.01956" lon="3.01227">
        <ele>64.8</ele>
        <time>2022-11-04 12:37:51</time>
      </trkpt>
      <trkpt lat="42.0195" lon="3.01226">
        <ele>64.4</ele>
        <time>2022-11-04 12:37:53</time>
      </trkpt>
      <trkpt lat="42.01949" lon="3.01216">
        <ele>65</ele>
        <time>2022-11-04 12:37:56</time>
      </trkpt>
      <trkpt lat="42.0195" lon="3.01192">
        <ele>65.6</ele>
        <time>2022-11-04 12:38:02</time>
      </trkpt>
      <trkpt lat="42.0195" lon="3.01183">
        <ele>65.8</ele>
        <time>2022-11-04 12:38:04</time>
      </trkpt>
      <trkpt lat="42.01948" lon="3.01165">
        <ele>66.4</ele>
        <time>2022-11-04 12:38:08</time>
      </trkpt>
      <trkpt lat="42.01948" lon="3.01142">
        <ele>66.8</ele>
        <time>2022-11-04 12:38:13</time>
      </trkpt>
      <trkpt lat="42.01948" lon="3.01138">
        <ele>66.8</ele>
        <time>2022-11-04 12:38:14</time>
      </trkpt>
      <trkpt lat="42.01951" lon="3.01115">
        <ele>67.2</ele>
        <time>2022-11-04 12:38:19</time>
      </trkpt>
      <trkpt lat="42.01955" lon="3.01093">
        <ele>68</ele>
        <time>2022-11-04 12:38:24</time>
      </trkpt>
      <trkpt lat="42.01956" lon="3.01089">
        <ele>68.2</ele>
        <time>2022-11-04 12:38:25</time>
      </trkpt>
      <trkpt lat="42.01959" lon="3.01072">
        <ele>69</ele>
        <time>2022-11-04 12:38:29</time>
      </trkpt>
      <trkpt lat="42.01962" lon="3.01064">
        <ele>69.4</ele>
        <time>2022-11-04 12:38:32</time>
      </trkpt>
      <trkpt lat="42.01964" lon="3.01064">
        <ele>69.4</ele>
        <time>2022-11-04 12:38:33</time>
      </trkpt>
      <trkpt lat="42.01972" lon="3.01066">
        <ele>69.4</ele>
        <time>2022-11-04 12:38:36</time>
      </trkpt>
      <trkpt lat="42.01977" lon="3.01068">
        <ele>69.4</ele>
        <time>2022-11-04 12:38:38</time>
      </trkpt>
      <trkpt lat="42.01998" lon="3.01073">
        <ele>69.2</ele>
        <time>2022-11-04 12:38:46</time>
      </trkpt>
      <trkpt lat="42.02014" lon="3.01081">
        <ele>69.6</ele>
        <time>2022-11-04 12:38:52</time>
      </trkpt>
      <trkpt lat="42.02023" lon="3.01083">
        <ele>70.2</ele>
        <time>2022-11-04 12:38:56</time>
      </trkpt>
      <trkpt lat="42.02026" lon="3.01084">
        <ele>70.2</ele>
        <time>2022-11-04 12:38:58</time>
      </trkpt>
      <trkpt lat="42.02033" lon="3.01081">
        <ele>70.4</ele>
        <time>2022-11-04 12:39:04</time>
      </trkpt>
      <trkpt lat="42.02036" lon="3.01084">
        <ele>70.4</ele>
        <time>2022-11-04 12:39:10</time>
      </trkpt>
      <trkpt lat="42.02037" lon="3.01085">
        <ele>70.4</ele>
        <time>2022-11-04 12:39:18</time>
      </trkpt>
      <trkpt lat="42.02036" lon="3.01086">
        <ele>70.4</ele>
        <time>2022-11-04 12:39:25</time>
      </trkpt>
      <trkpt lat="42.02035" lon="3.01086">
        <ele>70.2</ele>
        <time>2022-11-04 12:39:32</time>
      </trkpt>
      <trkpt lat="42.02033" lon="3.01088">
        <ele>70.2</ele>
        <time>2022-11-04 12:39:39</time>
      </trkpt>
      <trkpt lat="42.02033" lon="3.01088">
        <ele>70.2</ele>
        <time>2022-11-04 12:39:46</time>
      </trkpt>
      <trkpt lat="42.02035" lon="3.01089">
        <ele>70.4</ele>
        <time>2022-11-04 12:39:56</time>
      </trkpt>
      <trkpt lat="42.02034" lon="3.01091">
        <ele>70.2</ele>
        <time>2022-11-04 12:40:01</time>
      </trkpt>
      <trkpt lat="42.02033" lon="3.01092">
        <ele>70.2</ele>
        <time>2022-11-04 12:40:07</time>
      </trkpt>
      <trkpt lat="42.02031" lon="3.0109">
        <ele>70.2</ele>
        <time>2022-11-04 12:40:10</time>
      </trkpt>
      <trkpt lat="42.02029" lon="3.01091">
        <ele>70.2</ele>
        <time>2022-11-04 12:40:11</time>
      </trkpt>
      <trkpt lat="42.02025" lon="3.01088">
        <ele>70.2</ele>
        <time>2022-11-04 12:40:16</time>
      </trkpt>
      <trkpt lat="42.02024" lon="3.01082">
        <ele>70.2</ele>
        <time>2022-11-04 12:40:22</time>
      </trkpt>
      <trkpt lat="42.02026" lon="3.01076">
        <ele>70.2</ele>
        <time>2022-11-04 12:40:29</time>
      </trkpt>
      <trkpt lat="42.02028" lon="3.01077">
        <ele>70.4</ele>
        <time>2022-11-04 12:40:37</time>
      </trkpt>
      <trkpt lat="42.02035" lon="3.01074">
        <ele>70.4</ele>
        <time>2022-11-04 12:40:48</time>
      </trkpt>
      <trkpt lat="42.02041" lon="3.01072">
        <ele>70.4</ele>
        <time>2022-11-04 12:40:59</time>
      </trkpt>
      <trkpt lat="42.02041" lon="3.01073">
        <ele>70.6</ele>
        <time>2022-11-04 12:41:09</time>
      </trkpt>
      <trkpt lat="42.02045" lon="3.01071">
        <ele>70.6</ele>
        <time>2022-11-04 12:41:19</time>
      </trkpt>
      <trkpt lat="42.02048" lon="3.01071">
        <ele>70.6</ele>
        <time>2022-11-04 12:41:29</time>
      </trkpt>
      <trkpt lat="42.02037" lon="3.0109">
        <ele>63</ele>
        <time>2022-11-04 14:00:23</time>
      </trkpt>
      <trkpt lat="42.02037" lon="3.01091">
        <ele>63</ele>
        <time>2022-11-04 14:00:35</time>
      </trkpt>
      <trkpt lat="42.02038" lon="3.0109">
        <ele>63</ele>
        <time>2022-11-04 14:00:47</time>
      </trkpt>
      <trkpt lat="42.02029" lon="3.01085">
        <ele>62.8</ele>
        <time>2022-11-04 14:00:52</time>
      </trkpt>
      <trkpt lat="42.02025" lon="3.01085">
        <ele>62.6</ele>
        <time>2022-11-04 14:00:54</time>
      </trkpt>
      <trkpt lat="42.02013" lon="3.01083">
        <ele>62.2</ele>
        <time>2022-11-04 14:00:58</time>
      </trkpt>
      <trkpt lat="42.01995" lon="3.01074">
        <ele>62.2</ele>
        <time>2022-11-04 14:01:04</time>
      </trkpt>
      <trkpt lat="42.01971" lon="3.01069">
        <ele>62.4</ele>
        <time>2022-11-04 14:01:12</time>
      </trkpt>
      <trkpt lat="42.01958" lon="3.01059">
        <ele>62.6</ele>
        <time>2022-11-04 14:01:18</time>
      </trkpt>
      <trkpt lat="42.01952" lon="3.01046">
        <ele>63</ele>
        <time>2022-11-04 14:01:24</time>
      </trkpt>
      <trkpt lat="42.01942" lon="3.0103">
        <ele>63.6</ele>
        <time>2022-11-04 14:01:32</time>
      </trkpt>
      <trkpt lat="42.01932" lon="3.01015">
        <ele>64.2</ele>
        <time>2022-11-04 14:01:38</time>
      </trkpt>
      <trkpt lat="42.01929" lon="3.0101">
        <ele>64.6</ele>
        <time>2022-11-04 14:01:40</time>
      </trkpt>
      <trkpt lat="42.01922" lon="3.01008">
        <ele>65.2</ele>
        <time>2022-11-04 14:01:43</time>
      </trkpt>
      <trkpt lat="42.01917" lon="3.01006">
        <ele>65.4</ele>
        <time>2022-11-04 14:01:45</time>
      </trkpt>
      <trkpt lat="42.019" lon="3.01005">
        <ele>65.6</ele>
        <time>2022-11-04 14:01:51</time>
      </trkpt>
      <trkpt lat="42.01882" lon="3.01008">
        <ele>66</ele>
        <time>2022-11-04 14:01:58</time>
      </trkpt>
      <trkpt lat="42.01876" lon="3.0101">
        <ele>66.2</ele>
        <time>2022-11-04 14:02:01</time>
      </trkpt>
      <trkpt lat="42.01864" lon="3.01015">
        <ele>66.8</ele>
        <time>2022-11-04 14:02:07</time>
      </trkpt>
      <trkpt lat="42.01849" lon="3.01023">
        <ele>67.2</ele>
        <time>2022-11-04 14:02:13</time>
      </trkpt>
      <trkpt lat="42.01847" lon="3.01024">
        <ele>67.4</ele>
        <time>2022-11-04 14:02:14</time>
      </trkpt>
      <trkpt lat="42.01833" lon="3.01031">
        <ele>68.4</ele>
        <time>2022-11-04 14:02:21</time>
      </trkpt>
      <trkpt lat="42.01818" lon="3.01039">
        <ele>69</ele>
        <time>2022-11-04 14:02:29</time>
      </trkpt>
      <trkpt lat="42.01797" lon="3.01045">
        <ele>69</ele>
        <time>2022-11-04 14:02:38</time>
      </trkpt>
      <trkpt lat="42.01774" lon="3.01052">
        <ele>69.4</ele>
        <time>2022-11-04 14:02:46</time>
      </trkpt>
      <trkpt lat="42.01761" lon="3.01056">
        <ele>69.8</ele>
        <time>2022-11-04 14:02:51</time>
      </trkpt>
      <trkpt lat="42.01742" lon="3.0106">
        <ele>70.4</ele>
        <time>2022-11-04 14:02:58</time>
      </trkpt>
      <trkpt lat="42.01722" lon="3.01064">
        <ele>70.4</ele>
        <time>2022-11-04 14:03:05</time>
      </trkpt>
      <trkpt lat="42.01719" lon="3.01064">
        <ele>70.4</ele>
        <time>2022-11-04 14:03:06</time>
      </trkpt>
      <trkpt lat="42.017" lon="3.01065">
        <ele>70.8</ele>
        <time>2022-11-04 14:03:12</time>
      </trkpt>
      <trkpt lat="42.0168" lon="3.01068">
        <ele>71.2</ele>
        <time>2022-11-04 14:03:18</time>
      </trkpt>
      <trkpt lat="42.0167" lon="3.01069">
        <ele>71.4</ele>
        <time>2022-11-04 14:03:21</time>
      </trkpt>
      <trkpt lat="42.01661" lon="3.01071">
        <ele>71.8</ele>
        <time>2022-11-04 14:03:24</time>
      </trkpt>
      <trkpt lat="42.01647" lon="3.01071">
        <ele>72.6</ele>
        <time>2022-11-04 14:03:28</time>
      </trkpt>
      <trkpt lat="42.01635" lon="3.01072">
        <ele>73.4</ele>
        <time>2022-11-04 14:03:32</time>
      </trkpt>
      <trkpt lat="42.01632" lon="3.01073">
        <ele>73.8</ele>
        <time>2022-11-04 14:03:33</time>
      </trkpt>
      <trkpt lat="42.01616" lon="3.01075">
        <ele>74.8</ele>
        <time>2022-11-04 14:03:38</time>
      </trkpt>
      <trkpt lat="42.01598" lon="3.01076">
        <ele>75.2</ele>
        <time>2022-11-04 14:03:45</time>
      </trkpt>
      <trkpt lat="42.01584" lon="3.0108">
        <ele>75.2</ele>
        <time>2022-11-04 14:03:51</time>
      </trkpt>
      <trkpt lat="42.0157" lon="3.01088">
        <ele>75.6</ele>
        <time>2022-11-04 14:03:57</time>
      </trkpt>
      <trkpt lat="42.0156" lon="3.01093">
        <ele>75.8</ele>
        <time>2022-11-04 14:04:01</time>
      </trkpt>
      <trkpt lat="42.01552" lon="3.01098">
        <ele>76</ele>
        <time>2022-11-04 14:04:04</time>
      </trkpt>
      <trkpt lat="42.01535" lon="3.01112">
        <ele>76.6</ele>
        <time>2022-11-04 14:04:11</time>
      </trkpt>
      <trkpt lat="42.0153" lon="3.01116">
        <ele>76.8</ele>
        <time>2022-11-04 14:04:13</time>
      </trkpt>
      <trkpt lat="42.01515" lon="3.01128">
        <ele>76.8</ele>
        <time>2022-11-04 14:04:19</time>
      </trkpt>
      <trkpt lat="42.01495" lon="3.01148">
        <ele>76.6</ele>
        <time>2022-11-04 14:04:26</time>
      </trkpt>
      <trkpt lat="42.0147" lon="3.01167">
        <ele>76.2</ele>
        <time>2022-11-04 14:04:33</time>
      </trkpt>
      <trkpt lat="42.01459" lon="3.01174">
        <ele>75.6</ele>
        <time>2022-11-04 14:04:36</time>
      </trkpt>
      <trkpt lat="42.0145" lon="3.01182">
        <ele>74.6</ele>
        <time>2022-11-04 14:04:38</time>
      </trkpt>
      <trkpt lat="42.0144" lon="3.01191">
        <ele>73.2</ele>
        <time>2022-11-04 14:04:40</time>
      </trkpt>
      <trkpt lat="42.01434" lon="3.01199">
        <ele>72.8</ele>
        <time>2022-11-04 14:04:41</time>
      </trkpt>
      <trkpt lat="42.01428" lon="3.01206">
        <ele>72.2</ele>
        <time>2022-11-04 14:04:42</time>
      </trkpt>
      <trkpt lat="42.01408" lon="3.01226">
        <ele>71.4</ele>
        <time>2022-11-04 14:04:45</time>
      </trkpt>
      <trkpt lat="42.01396" lon="3.01237">
        <ele>71</ele>
        <time>2022-11-04 14:04:47</time>
      </trkpt>
      <trkpt lat="42.0139" lon="3.01242">
        <ele>70.8</ele>
        <time>2022-11-04 14:04:48</time>
      </trkpt>
      <trkpt lat="42.0135" lon="3.01277">
        <ele>70</ele>
        <time>2022-11-04 14:04:55</time>
      </trkpt>
      <trkpt lat="42.01345" lon="3.01281">
        <ele>69.8</ele>
        <time>2022-11-04 14:04:56</time>
      </trkpt>
      <trkpt lat="42.01313" lon="3.01308">
        <ele>68.8</ele>
        <time>2022-11-04 14:05:02</time>
      </trkpt>
      <trkpt lat="42.01298" lon="3.01322">
        <ele>68.6</ele>
        <time>2022-11-04 14:05:05</time>
      </trkpt>
      <trkpt lat="42.01269" lon="3.01344">
        <ele>68</ele>
        <time>2022-11-04 14:05:11</time>
      </trkpt>
      <trkpt lat="42.0125" lon="3.01351">
        <ele>68.4</ele>
        <time>2022-11-04 14:05:16</time>
      </trkpt>
      <trkpt lat="42.01237" lon="3.01357">
        <ele>68.6</ele>
        <time>2022-11-04 14:05:21</time>
      </trkpt>
      <trkpt lat="42.01215" lon="3.01367">
        <ele>69.6</ele>
        <time>2022-11-04 14:05:29</time>
      </trkpt>
      <trkpt lat="42.0121" lon="3.0137">
        <ele>70</ele>
        <time>2022-11-04 14:05:31</time>
      </trkpt>
      <trkpt lat="42.01194" lon="3.01374">
        <ele>71.4</ele>
        <time>2022-11-04 14:05:36</time>
      </trkpt>
      <trkpt lat="42.01185" lon="3.01376">
        <ele>72.8</ele>
        <time>2022-11-04 14:05:39</time>
      </trkpt>
      <trkpt lat="42.01171" lon="3.01382">
        <ele>73.8</ele>
        <time>2022-11-04 14:05:44</time>
      </trkpt>
      <trkpt lat="42.01169" lon="3.01383">
        <ele>73.8</ele>
        <time>2022-11-04 14:05:45</time>
      </trkpt>
      <trkpt lat="42.01155" lon="3.0139">
        <ele>75</ele>
        <time>2022-11-04 14:05:51</time>
      </trkpt>
      <trkpt lat="42.01153" lon="3.01392">
        <ele>75</ele>
        <time>2022-11-04 14:05:52</time>
      </trkpt>
      <trkpt lat="42.01142" lon="3.01403">
        <ele>76</ele>
        <time>2022-11-04 14:05:57</time>
      </trkpt>
      <trkpt lat="42.0114" lon="3.01405">
        <ele>76</ele>
        <time>2022-11-04 14:05:58</time>
      </trkpt>
      <trkpt lat="42.01116" lon="3.01429">
        <ele>76.8</ele>
        <time>2022-11-04 14:06:09</time>
      </trkpt>
      <trkpt lat="42.01099" lon="3.01442">
        <ele>76.4</ele>
        <time>2022-11-04 14:06:15</time>
      </trkpt>
      <trkpt lat="42.01086" lon="3.01455">
        <ele>76.4</ele>
        <time>2022-11-04 14:06:21</time>
      </trkpt>
      <trkpt lat="42.01078" lon="3.01466">
        <ele>76.4</ele>
        <time>2022-11-04 14:06:27</time>
      </trkpt>
      <trkpt lat="42.01078" lon="3.01467">
        <ele>76.6</ele>
        <time>2022-11-04 14:06:32</time>
      </trkpt>
      <trkpt lat="42.01072" lon="3.01471">
        <ele>76.6</ele>
        <time>2022-11-04 14:06:40</time>
      </trkpt>
      <trkpt lat="42.01058" lon="3.01483">
        <ele>76</ele>
        <time>2022-11-04 14:06:45</time>
      </trkpt>
      <trkpt lat="42.0103" lon="3.01498">
        <ele>75.8</ele>
        <time>2022-11-04 14:06:53</time>
      </trkpt>
      <trkpt lat="42.01007" lon="3.01515">
        <ele>75.8</ele>
        <time>2022-11-04 14:07:00</time>
      </trkpt>
      <trkpt lat="42.00981" lon="3.01534">
        <ele>76</ele>
        <time>2022-11-04 14:07:08</time>
      </trkpt>
      <trkpt lat="42.00951" lon="3.01551">
        <ele>76.8</ele>
        <time>2022-11-04 14:07:17</time>
      </trkpt>
      <trkpt lat="42.00941" lon="3.01556">
        <ele>77</ele>
        <time>2022-11-04 14:07:20</time>
      </trkpt>
      <trkpt lat="42.00934" lon="3.0156">
        <ele>77.2</ele>
        <time>2022-11-04 14:07:22</time>
      </trkpt>
      <trkpt lat="42.00909" lon="3.01576">
        <ele>77.6</ele>
        <time>2022-11-04 14:07:30</time>
      </trkpt>
      <trkpt lat="42.00891" lon="3.01588">
        <ele>78</ele>
        <time>2022-11-04 14:07:36</time>
      </trkpt>
      <trkpt lat="42.00859" lon="3.016">
        <ele>78</ele>
        <time>2022-11-04 14:07:45</time>
      </trkpt>
      <trkpt lat="42.00828" lon="3.01613">
        <ele>77.8</ele>
        <time>2022-11-04 14:07:53</time>
      </trkpt>
      <trkpt lat="42.00803" lon="3.01624">
        <ele>77.6</ele>
        <time>2022-11-04 14:07:59</time>
      </trkpt>
      <trkpt lat="42.00788" lon="3.01631">
        <ele>78</ele>
        <time>2022-11-04 14:08:03</time>
      </trkpt>
      <trkpt lat="42.00772" lon="3.01638">
        <ele>78.2</ele>
        <time>2022-11-04 14:08:07</time>
      </trkpt>
      <trkpt lat="42.00745" lon="3.01652">
        <ele>78.6</ele>
        <time>2022-11-04 14:08:15</time>
      </trkpt>
      <trkpt lat="42.00715" lon="3.01668">
        <ele>78.2</ele>
        <time>2022-11-04 14:08:23</time>
      </trkpt>
      <trkpt lat="42.0069" lon="3.01682">
        <ele>76.8</ele>
        <time>2022-11-04 14:08:29</time>
      </trkpt>
      <trkpt lat="42.00685" lon="3.01685">
        <ele>76.6</ele>
        <time>2022-11-04 14:08:30</time>
      </trkpt>
      <trkpt lat="42.00675" lon="3.01695">
        <ele>75.8</ele>
        <time>2022-11-04 14:08:32</time>
      </trkpt>
      <trkpt lat="42.00666" lon="3.01712">
        <ele>75</ele>
        <time>2022-11-04 14:08:34</time>
      </trkpt>
      <trkpt lat="42.00662" lon="3.0172">
        <ele>74.8</ele>
        <time>2022-11-04 14:08:35</time>
      </trkpt>
      <trkpt lat="42.00641" lon="3.0176">
        <ele>73.8</ele>
        <time>2022-11-04 14:08:40</time>
      </trkpt>
      <trkpt lat="42.00636" lon="3.01767">
        <ele>73.8</ele>
        <time>2022-11-04 14:08:41</time>
      </trkpt>
      <trkpt lat="42.00609" lon="3.018">
        <ele>73.6</ele>
        <time>2022-11-04 14:08:47</time>
      </trkpt>
      <trkpt lat="42.00599" lon="3.01811">
        <ele>73.4</ele>
        <time>2022-11-04 14:08:50</time>
      </trkpt>
      <trkpt lat="42.00591" lon="3.0182">
        <ele>73.2</ele>
        <time>2022-11-04 14:08:52</time>
      </trkpt>
      <trkpt lat="42.00581" lon="3.01827">
        <ele>73</ele>
        <time>2022-11-04 14:08:54</time>
      </trkpt>
      <trkpt lat="42.00566" lon="3.01837">
        <ele>72.8</ele>
        <time>2022-11-04 14:08:57</time>
      </trkpt>
      <trkpt lat="42.00562" lon="3.01841">
        <ele>72.6</ele>
        <time>2022-11-04 14:08:58</time>
      </trkpt>
      <trkpt lat="42.00531" lon="3.01865">
        <ele>72</ele>
        <time>2022-11-04 14:09:05</time>
      </trkpt>
      <trkpt lat="42.00508" lon="3.01881">
        <ele>71.8</ele>
        <time>2022-11-04 14:09:11</time>
      </trkpt>
      <trkpt lat="42.005" lon="3.01886">
        <ele>71.6</ele>
        <time>2022-11-04 14:09:13</time>
      </trkpt>
      <trkpt lat="42.00495" lon="3.01887">
        <ele>71.6</ele>
        <time>2022-11-04 14:09:14</time>
      </trkpt>
      <trkpt lat="42.00487" lon="3.01893">
        <ele>71.4</ele>
        <time>2022-11-04 14:09:16</time>
      </trkpt>
      <trkpt lat="42.00465" lon="3.01908">
        <ele>71.2</ele>
        <time>2022-11-04 14:09:22</time>
      </trkpt>
      <trkpt lat="42.0046" lon="3.0191">
        <ele>71</ele>
        <time>2022-11-04 14:09:23</time>
      </trkpt>
      <trkpt lat="42.00447" lon="3.01917">
        <ele>70.8</ele>
        <time>2022-11-04 14:09:26</time>
      </trkpt>
      <trkpt lat="42.00437" lon="3.01921">
        <ele>70.6</ele>
        <time>2022-11-04 14:09:28</time>
      </trkpt>
      <trkpt lat="42.00432" lon="3.01922">
        <ele>70.6</ele>
        <time>2022-11-04 14:09:29</time>
      </trkpt>
      <trkpt lat="42.00415" lon="3.01931">
        <ele>70.4</ele>
        <time>2022-11-04 14:09:33</time>
      </trkpt>
      <trkpt lat="42.00408" lon="3.01936">
        <ele>70.6</ele>
        <time>2022-11-04 14:09:35</time>
      </trkpt>
      <trkpt lat="42.00377" lon="3.01954">
        <ele>69.8</ele>
        <time>2022-11-04 14:09:43</time>
      </trkpt>
      <trkpt lat="42.00371" lon="3.01955">
        <ele>69.4</ele>
        <time>2022-11-04 14:09:44</time>
      </trkpt>
      <trkpt lat="42.00351" lon="3.01963">
        <ele>68.8</ele>
        <time>2022-11-04 14:09:48</time>
      </trkpt>
      <trkpt lat="42.0034" lon="3.01966">
        <ele>68.4</ele>
        <time>2022-11-04 14:09:50</time>
      </trkpt>
      <trkpt lat="42.0031" lon="3.01973">
        <ele>68</ele>
        <time>2022-11-04 14:09:56</time>
      </trkpt>
      <trkpt lat="42.00301" lon="3.01977">
        <ele>68</ele>
        <time>2022-11-04 14:09:58</time>
      </trkpt>
      <trkpt lat="42.00282" lon="3.01985">
        <ele>67.8</ele>
        <time>2022-11-04 14:10:02</time>
      </trkpt>
      <trkpt lat="42.00268" lon="3.0199">
        <ele>67.4</ele>
        <time>2022-11-04 14:10:05</time>
      </trkpt>
      <trkpt lat="42.00252" lon="3.01991">
        <ele>67.4</ele>
        <time>2022-11-04 14:10:08</time>
      </trkpt>
      <trkpt lat="42.00242" lon="3.01992">
        <ele>67.2</ele>
        <time>2022-11-04 14:10:10</time>
      </trkpt>
      <trkpt lat="42.00237" lon="3.01993">
        <ele>67.2</ele>
        <time>2022-11-04 14:10:11</time>
      </trkpt>
      <trkpt lat="42.00227" lon="3.01998">
        <ele>67</ele>
        <time>2022-11-04 14:10:13</time>
      </trkpt>
      <trkpt lat="42.00201" lon="3.02012">
        <ele>66.8</ele>
        <time>2022-11-04 14:10:19</time>
      </trkpt>
      <trkpt lat="42.00173" lon="3.0203">
        <ele>66.6</ele>
        <time>2022-11-04 14:10:26</time>
      </trkpt>
      <trkpt lat="42.00169" lon="3.02032">
        <ele>66.4</ele>
        <time>2022-11-04 14:10:27</time>
      </trkpt>
      <trkpt lat="42.0015" lon="3.02041">
        <ele>66.2</ele>
        <time>2022-11-04 14:10:32</time>
      </trkpt>
      <trkpt lat="42.00132" lon="3.02062">
        <ele>65.8</ele>
        <time>2022-11-04 14:10:37</time>
      </trkpt>
      <trkpt lat="42.00125" lon="3.02072">
        <ele>65.2</ele>
        <time>2022-11-04 14:10:39</time>
      </trkpt>
      <trkpt lat="42.00121" lon="3.02078">
        <ele>65</ele>
        <time>2022-11-04 14:10:40</time>
      </trkpt>
      <trkpt lat="42.00112" lon="3.0209">
        <ele>64.2</ele>
        <time>2022-11-04 14:10:42</time>
      </trkpt>
      <trkpt lat="42.00108" lon="3.02096">
        <ele>63.8</ele>
        <time>2022-11-04 14:10:43</time>
      </trkpt>
      <trkpt lat="42.00098" lon="3.02109">
        <ele>63</ele>
        <time>2022-11-04 14:10:45</time>
      </trkpt>
      <trkpt lat="42.00085" lon="3.02123">
        <ele>62</ele>
        <time>2022-11-04 14:10:48</time>
      </trkpt>
      <trkpt lat="42.00081" lon="3.02126">
        <ele>61.6</ele>
        <time>2022-11-04 14:10:49</time>
      </trkpt>
      <trkpt lat="42.00071" lon="3.02133">
        <ele>60.4</ele>
        <time>2022-11-04 14:10:51</time>
      </trkpt>
      <trkpt lat="42.00065" lon="3.02138">
        <ele>58.6</ele>
        <time>2022-11-04 14:10:52</time>
      </trkpt>
      <trkpt lat="42.00057" lon="3.02141">
        <ele>58</ele>
        <time>2022-11-04 14:10:53</time>
      </trkpt>
      <trkpt lat="42.00049" lon="3.02142">
        <ele>57.4</ele>
        <time>2022-11-04 14:10:54</time>
      </trkpt>
      <trkpt lat="42.00035" lon="3.02138">
        <ele>57.2</ele>
        <time>2022-11-04 14:10:56</time>
      </trkpt>
      <trkpt lat="42.0003" lon="3.02136">
        <ele>57.4</ele>
        <time>2022-11-04 14:10:57</time>
      </trkpt>
      <trkpt lat="42.00018" lon="3.0213">
        <ele>57.8</ele>
        <time>2022-11-04 14:11:00</time>
      </trkpt>
      <trkpt lat="42.00005" lon="3.02126">
        <ele>58.4</ele>
        <time>2022-11-04 14:11:04</time>
      </trkpt>
      <trkpt lat="42.00002" lon="3.02125">
        <ele>58.6</ele>
        <time>2022-11-04 14:11:05</time>
      </trkpt>
      <trkpt lat="41.99982" lon="3.0212">
        <ele>59.2</ele>
        <time>2022-11-04 14:11:12</time>
      </trkpt>
      <trkpt lat="41.99974" lon="3.02118">
        <ele>59.6</ele>
        <time>2022-11-04 14:11:15</time>
      </trkpt>
      <trkpt lat="41.99958" lon="3.02118">
        <ele>60</ele>
        <time>2022-11-04 14:11:20</time>
      </trkpt>
      <trkpt lat="41.99943" lon="3.02119">
        <ele>60.2</ele>
        <time>2022-11-04 14:11:25</time>
      </trkpt>
      <trkpt lat="41.9994" lon="3.02119">
        <ele>60.4</ele>
        <time>2022-11-04 14:11:26</time>
      </trkpt>
      <trkpt lat="41.99929" lon="3.02119">
        <ele>60.4</ele>
        <time>2022-11-04 14:11:30</time>
      </trkpt>
      <trkpt lat="41.99926" lon="3.02119">
        <ele>60.4</ele>
        <time>2022-11-04 14:11:31</time>
      </trkpt>
      <trkpt lat="41.99917" lon="3.02119">
        <ele>60.6</ele>
        <time>2022-11-04 14:11:34</time>
      </trkpt>
      <trkpt lat="41.99907" lon="3.02119">
        <ele>60.8</ele>
        <time>2022-11-04 14:11:37</time>
      </trkpt>
      <trkpt lat="41.99885" lon="3.02111">
        <ele>61.4</ele>
        <time>2022-11-04 14:11:44</time>
      </trkpt>
      <trkpt lat="41.99865" lon="3.02104">
        <ele>61.6</ele>
        <time>2022-11-04 14:11:50</time>
      </trkpt>
      <trkpt lat="41.99857" lon="3.02103">
        <ele>61.6</ele>
        <time>2022-11-04 14:11:52</time>
      </trkpt>
      <trkpt lat="41.9984" lon="3.02098">
        <ele>62</ele>
        <time>2022-11-04 14:11:57</time>
      </trkpt>
      <trkpt lat="41.99813" lon="3.0209">
        <ele>62.6</ele>
        <time>2022-11-04 14:12:05</time>
      </trkpt>
      <trkpt lat="41.99809" lon="3.02088">
        <ele>62.6</ele>
        <time>2022-11-04 14:12:06</time>
      </trkpt>
      <trkpt lat="41.99791" lon="3.02082">
        <ele>63</ele>
        <time>2022-11-04 14:12:12</time>
      </trkpt>
      <trkpt lat="41.99777" lon="3.02074">
        <ele>63.2</ele>
        <time>2022-11-04 14:12:18</time>
      </trkpt>
      <trkpt lat="41.99765" lon="3.02066">
        <ele>63.2</ele>
        <time>2022-11-04 14:12:25</time>
      </trkpt>
      <trkpt lat="41.99745" lon="3.02059">
        <ele>63</ele>
        <time>2022-11-04 14:12:31</time>
      </trkpt>
      <trkpt lat="41.99714" lon="3.02049">
        <ele>62.2</ele>
        <time>2022-11-04 14:12:39</time>
      </trkpt>
      <trkpt lat="41.99691" lon="3.02043">
        <ele>61.4</ele>
        <time>2022-11-04 14:12:44</time>
      </trkpt>
      <trkpt lat="41.99676" lon="3.02041">
        <ele>61</ele>
        <time>2022-11-04 14:12:47</time>
      </trkpt>
      <trkpt lat="41.99633" lon="3.02041">
        <ele>60.6</ele>
        <time>2022-11-04 14:12:56</time>
      </trkpt>
      <trkpt lat="41.99613" lon="3.02044">
        <ele>60.4</ele>
        <time>2022-11-04 14:13:00</time>
      </trkpt>
      <trkpt lat="41.99598" lon="3.02047">
        <ele>60</ele>
        <time>2022-11-04 14:13:03</time>
      </trkpt>
      <trkpt lat="41.99572" lon="3.02051">
        <ele>59.4</ele>
        <time>2022-11-04 14:13:08</time>
      </trkpt>
      <trkpt lat="41.99551" lon="3.02055">
        <ele>59.2</ele>
        <time>2022-11-04 14:13:12</time>
      </trkpt>
      <trkpt lat="41.99515" lon="3.02062">
        <ele>58.4</ele>
        <time>2022-11-04 14:13:19</time>
      </trkpt>
      <trkpt lat="41.995" lon="3.02064">
        <ele>58.2</ele>
        <time>2022-11-04 14:13:22</time>
      </trkpt>
      <trkpt lat="41.9949" lon="3.02064">
        <ele>58</ele>
        <time>2022-11-04 14:13:24</time>
      </trkpt>
      <trkpt lat="41.9945" lon="3.02067">
        <ele>57.4</ele>
        <time>2022-11-04 14:13:32</time>
      </trkpt>
      <trkpt lat="41.99412" lon="3.02073">
        <ele>56.6</ele>
        <time>2022-11-04 14:13:40</time>
      </trkpt>
      <trkpt lat="41.99383" lon="3.02076">
        <ele>56.4</ele>
        <time>2022-11-04 14:13:47</time>
      </trkpt>
      <trkpt lat="41.99379" lon="3.02076">
        <ele>56.4</ele>
        <time>2022-11-04 14:13:48</time>
      </trkpt>
      <trkpt lat="41.99371" lon="3.02075">
        <ele>56.4</ele>
        <time>2022-11-04 14:13:50</time>
      </trkpt>
      <trkpt lat="41.99359" lon="3.02076">
        <ele>56.2</ele>
        <time>2022-11-04 14:13:53</time>
      </trkpt>
      <trkpt lat="41.99321" lon="3.02075">
        <ele>56</ele>
        <time>2022-11-04 14:14:03</time>
      </trkpt>
      <trkpt lat="41.99295" lon="3.02075">
        <ele>55.8</ele>
        <time>2022-11-04 14:14:11</time>
      </trkpt>
      <trkpt lat="41.99283" lon="3.02075">
        <ele>55.2</ele>
        <time>2022-11-04 14:14:14</time>
      </trkpt>
      <trkpt lat="41.99265" lon="3.02077">
        <ele>55.2</ele>
        <time>2022-11-04 14:14:19</time>
      </trkpt>
      <trkpt lat="41.99238" lon="3.0208">
        <ele>55</ele>
        <time>2022-11-04 14:14:26</time>
      </trkpt>
      <trkpt lat="41.99233" lon="3.0208">
        <ele>55</ele>
        <time>2022-11-04 14:14:27</time>
      </trkpt>
      <trkpt lat="41.99192" lon="3.02083">
        <ele>54.4</ele>
        <time>2022-11-04 14:14:36</time>
      </trkpt>
      <trkpt lat="41.99174" lon="3.02084">
        <ele>54.2</ele>
        <time>2022-11-04 14:14:40</time>
      </trkpt>
      <trkpt lat="41.99152" lon="3.02085">
        <ele>54</ele>
        <time>2022-11-04 14:14:45</time>
      </trkpt>
      <trkpt lat="41.99109" lon="3.02087">
        <ele>54</ele>
        <time>2022-11-04 14:14:55</time>
      </trkpt>
      <trkpt lat="41.99084" lon="3.02077">
        <ele>54</ele>
        <time>2022-11-04 14:15:02</time>
      </trkpt>
      <trkpt lat="41.99069" lon="3.02061">
        <ele>53.8</ele>
        <time>2022-11-04 14:15:07</time>
      </trkpt>
      <trkpt lat="41.9906" lon="3.02048">
        <ele>53.2</ele>
        <time>2022-11-04 14:15:10</time>
      </trkpt>
      <trkpt lat="41.99058" lon="3.02043">
        <ele>53</ele>
        <time>2022-11-04 14:15:11</time>
      </trkpt>
      <trkpt lat="41.99056" lon="3.02037">
        <ele>52.8</ele>
        <time>2022-11-04 14:15:12</time>
      </trkpt>
      <trkpt lat="41.99052" lon="3.02006">
        <ele>51.4</ele>
        <time>2022-11-04 14:15:16</time>
      </trkpt>
      <trkpt lat="41.99052" lon="3.01997">
        <ele>51</ele>
        <time>2022-11-04 14:15:17</time>
      </trkpt>
      <trkpt lat="41.99053" lon="3.01978">
        <ele>50.4</ele>
        <time>2022-11-04 14:15:19</time>
      </trkpt>
      <trkpt lat="41.99055" lon="3.01947">
        <ele>49.2</ele>
        <time>2022-11-04 14:15:22</time>
      </trkpt>
      <trkpt lat="41.99055" lon="3.01937">
        <ele>49</ele>
        <time>2022-11-04 14:15:23</time>
      </trkpt>
      <trkpt lat="41.99055" lon="3.01927">
        <ele>48.6</ele>
        <time>2022-11-04 14:15:24</time>
      </trkpt>
      <trkpt lat="41.99052" lon="3.01905">
        <ele>47.8</ele>
        <time>2022-11-04 14:15:26</time>
      </trkpt>
      <trkpt lat="41.99049" lon="3.01895">
        <ele>47.4</ele>
        <time>2022-11-04 14:15:27</time>
      </trkpt>
      <trkpt lat="41.99036" lon="3.01867">
        <ele>46.8</ele>
        <time>2022-11-04 14:15:30</time>
      </trkpt>
      <trkpt lat="41.99031" lon="3.01859">
        <ele>46.6</ele>
        <time>2022-11-04 14:15:31</time>
      </trkpt>
      <trkpt lat="41.99018" lon="3.01838">
        <ele>45.8</ele>
        <time>2022-11-04 14:15:34</time>
      </trkpt>
      <trkpt lat="41.99013" lon="3.01834">
        <ele>45.6</ele>
        <time>2022-11-04 14:15:35</time>
      </trkpt>
      <trkpt lat="41.98996" lon="3.01827">
        <ele>45</ele>
        <time>2022-11-04 14:15:39</time>
      </trkpt>
      <trkpt lat="41.98994" lon="3.01829">
        <ele>44.8</ele>
        <time>2022-11-04 14:15:40</time>
      </trkpt>
      <trkpt lat="41.98987" lon="3.01835">
        <ele>44.4</ele>
        <time>2022-11-04 14:15:42</time>
      </trkpt>
      <trkpt lat="41.98984" lon="3.01839">
        <ele>44.2</ele>
        <time>2022-11-04 14:15:43</time>
      </trkpt>
      <trkpt lat="41.98968" lon="3.01863">
        <ele>43.4</ele>
        <time>2022-11-04 14:15:48</time>
      </trkpt>
      <trkpt lat="41.98961" lon="3.01873">
        <ele>43.2</ele>
        <time>2022-11-04 14:15:50</time>
      </trkpt>
      <trkpt lat="41.98935" lon="3.01913">
        <ele>42.4</ele>
        <time>2022-11-04 14:15:58</time>
      </trkpt>
      <trkpt lat="41.98932" lon="3.01918">
        <ele>42.2</ele>
        <time>2022-11-04 14:15:59</time>
      </trkpt>
      <trkpt lat="41.98917" lon="3.01945">
        <ele>42</ele>
        <time>2022-11-04 14:16:05</time>
      </trkpt>
      <trkpt lat="41.98913" lon="3.01951">
        <ele>41.6</ele>
        <time>2022-11-04 14:16:09</time>
      </trkpt>
      <trkpt lat="41.98913" lon="3.01951">
        <ele>41.2</ele>
        <time>2022-11-04 14:16:13</time>
      </trkpt>
      <trkpt lat="41.98913" lon="3.01951">
        <ele>41.2</ele>
        <time>2022-11-04 14:16:20</time>
      </trkpt>
      <trkpt lat="41.98913" lon="3.01951">
        <ele>41</ele>
        <time>2022-11-04 14:16:43</time>
      </trkpt>
      <trkpt lat="41.98913" lon="3.01951">
        <ele>41.2</ele>
        <time>2022-11-04 14:16:49</time>
      </trkpt>
      <trkpt lat="41.98912" lon="3.01955">
        <ele>41.6</ele>
        <time>2022-11-04 14:16:51</time>
      </trkpt>
      <trkpt lat="41.98903" lon="3.01974">
        <ele>41.4</ele>
        <time>2022-11-04 14:16:56</time>
      </trkpt>
      <trkpt lat="41.98881" lon="3.02009">
        <ele>41</ele>
        <time>2022-11-04 14:17:04</time>
      </trkpt>
      <trkpt lat="41.98858" lon="3.02038">
        <ele>40.8</ele>
        <time>2022-11-04 14:17:11</time>
      </trkpt>
      <trkpt lat="41.98852" lon="3.02047">
        <ele>40.8</ele>
        <time>2022-11-04 14:17:13</time>
      </trkpt>
      <trkpt lat="41.98839" lon="3.02064">
        <ele>40.6</ele>
        <time>2022-11-04 14:17:17</time>
      </trkpt>
      <trkpt lat="41.98825" lon="3.02085">
        <ele>40.6</ele>
        <time>2022-11-04 14:17:22</time>
      </trkpt>
      <trkpt lat="41.98822" lon="3.02096">
        <ele>40.4</ele>
        <time>2022-11-04 14:17:24</time>
      </trkpt>
      <trkpt lat="41.98813" lon="3.02117">
        <ele>40.4</ele>
        <time>2022-11-04 14:17:28</time>
      </trkpt>
      <trkpt lat="41.98804" lon="3.02132">
        <ele>40.2</ele>
        <time>2022-11-04 14:17:31</time>
      </trkpt>
      <trkpt lat="41.98788" lon="3.02155">
        <ele>40.2</ele>
        <time>2022-11-04 14:17:36</time>
      </trkpt>
      <trkpt lat="41.98765" lon="3.022">
        <ele>39.6</ele>
        <time>2022-11-04 14:17:44</time>
      </trkpt>
      <trkpt lat="41.98759" lon="3.02211">
        <ele>39.6</ele>
        <time>2022-11-04 14:17:46</time>
      </trkpt>
      <trkpt lat="41.98743" lon="3.02232">
        <ele>39.4</ele>
        <time>2022-11-04 14:17:50</time>
      </trkpt>
      <trkpt lat="41.98732" lon="3.02249">
        <ele>39</ele>
        <time>2022-11-04 14:17:53</time>
      </trkpt>
      <trkpt lat="41.98722" lon="3.02269">
        <ele>38.6</ele>
        <time>2022-11-04 14:17:56</time>
      </trkpt>
      <trkpt lat="41.9872" lon="3.02276">
        <ele>38.6</ele>
        <time>2022-11-04 14:17:57</time>
      </trkpt>
      <trkpt lat="41.98719" lon="3.02298">
        <ele>38.4</ele>
        <time>2022-11-04 14:18:00</time>
      </trkpt>
      <trkpt lat="41.98719" lon="3.02306">
        <ele>38.4</ele>
        <time>2022-11-04 14:18:01</time>
      </trkpt>
      <trkpt lat="41.98716" lon="3.02335">
        <ele>38.2</ele>
        <time>2022-11-04 14:18:05</time>
      </trkpt>
      <trkpt lat="41.98715" lon="3.02339">
        <ele>38.2</ele>
        <time>2022-11-04 14:18:06</time>
      </trkpt>
      <trkpt lat="41.98708" lon="3.02347">
        <ele>37.8</ele>
        <time>2022-11-04 14:18:09</time>
      </trkpt>
      <trkpt lat="41.98704" lon="3.02349">
        <ele>37.8</ele>
        <time>2022-11-04 14:18:10</time>
      </trkpt>
      <trkpt lat="41.98694" lon="3.02352">
        <ele>38.2</ele>
        <time>2022-11-04 14:18:14</time>
      </trkpt>
      <trkpt lat="41.98693" lon="3.02354">
        <ele>38.2</ele>
        <time>2022-11-04 14:18:15</time>
      </trkpt>
      <trkpt lat="41.9869" lon="3.02362">
        <ele>38.2</ele>
        <time>2022-11-04 14:18:19</time>
      </trkpt>
      <trkpt lat="41.98688" lon="3.02366">
        <ele>38.4</ele>
        <time>2022-11-04 14:18:20</time>
      </trkpt>
      <trkpt lat="41.98677" lon="3.02394">
        <ele>37.8</ele>
        <time>2022-11-04 14:18:28</time>
      </trkpt>
      <trkpt lat="41.9867" lon="3.02409">
        <ele>37.8</ele>
        <time>2022-11-04 14:18:33</time>
      </trkpt>
      <trkpt lat="41.98653" lon="3.02435">
        <ele>37.4</ele>
        <time>2022-11-04 14:18:40</time>
      </trkpt>
      <trkpt lat="41.98629" lon="3.02469">
        <ele>37.6</ele>
        <time>2022-11-04 14:18:48</time>
      </trkpt>
      <trkpt lat="41.98619" lon="3.02481">
        <ele>37.4</ele>
        <time>2022-11-04 14:18:51</time>
      </trkpt>
      <trkpt lat="41.98605" lon="3.02498">
        <ele>37.4</ele>
        <time>2022-11-04 14:18:55</time>
      </trkpt>
      <trkpt lat="41.98579" lon="3.02531">
        <ele>37.4</ele>
        <time>2022-11-04 14:19:03</time>
      </trkpt>
      <trkpt lat="41.98546" lon="3.02568">
        <ele>37</ele>
        <time>2022-11-04 14:19:12</time>
      </trkpt>
      <trkpt lat="41.98536" lon="3.02581">
        <ele>36.8</ele>
        <time>2022-11-04 14:19:15</time>
      </trkpt>
      <trkpt lat="41.98518" lon="3.02596">
        <ele>36.4</ele>
        <time>2022-11-04 14:19:19</time>
      </trkpt>
      <trkpt lat="41.98506" lon="3.02603">
        <ele>35.4</ele>
        <time>2022-11-04 14:19:21</time>
      </trkpt>
      <trkpt lat="41.98499" lon="3.02606">
        <ele>34.8</ele>
        <time>2022-11-04 14:19:22</time>
      </trkpt>
      <trkpt lat="41.98492" lon="3.02609">
        <ele>34.6</ele>
        <time>2022-11-04 14:19:23</time>
      </trkpt>
      <trkpt lat="41.98481" lon="3.02616">
        <ele>35.8</ele>
        <time>2022-11-04 14:19:26</time>
      </trkpt>
      <trkpt lat="41.98457" lon="3.02634">
        <ele>36</ele>
        <time>2022-11-04 14:19:33</time>
      </trkpt>
      <trkpt lat="41.98447" lon="3.02642">
        <ele>36.2</ele>
        <time>2022-11-04 14:19:36</time>
      </trkpt>
      <trkpt lat="41.98437" lon="3.02651">
        <ele>36</ele>
        <time>2022-11-04 14:19:39</time>
      </trkpt>
      <trkpt lat="41.98411" lon="3.02669">
        <ele>36</ele>
        <time>2022-11-04 14:19:46</time>
      </trkpt>
      <trkpt lat="41.98383" lon="3.02687">
        <ele>35.6</ele>
        <time>2022-11-04 14:19:53</time>
      </trkpt>
      <trkpt lat="41.98379" lon="3.0269">
        <ele>35.4</ele>
        <time>2022-11-04 14:19:54</time>
      </trkpt>
      <trkpt lat="41.9837" lon="3.02695">
        <ele>35.2</ele>
        <time>2022-11-04 14:19:56</time>
      </trkpt>
      <trkpt lat="41.98357" lon="3.02699">
        <ele>34.2</ele>
        <time>2022-11-04 14:19:59</time>
      </trkpt>
      <trkpt lat="41.98354" lon="3.02699">
        <ele>33.8</ele>
        <time>2022-11-04 14:20:02</time>
      </trkpt>
      <trkpt lat="41.98353" lon="3.027">
        <ele>34</ele>
        <time>2022-11-04 14:20:04</time>
      </trkpt>
      <trkpt lat="41.98353" lon="3.02703">
        <ele>33.8</ele>
        <time>2022-11-04 14:20:06</time>
      </trkpt>
      <trkpt lat="41.98352" lon="3.0271">
        <ele>33.4</ele>
        <time>2022-11-04 14:20:08</time>
      </trkpt>
      <trkpt lat="41.9835" lon="3.02715">
        <ele>33</ele>
        <time>2022-11-04 14:20:09</time>
      </trkpt>
      <trkpt lat="41.9834" lon="3.0273">
        <ele>32.4</ele>
        <time>2022-11-04 14:20:12</time>
      </trkpt>
      <trkpt lat="41.98331" lon="3.02737">
        <ele>34</ele>
        <time>2022-11-04 14:20:16</time>
      </trkpt>
      <trkpt lat="41.98329" lon="3.02738">
        <ele>34.4</ele>
        <time>2022-11-04 14:20:17</time>
      </trkpt>
      <trkpt lat="41.98327" lon="3.02738">
        <ele>34.8</ele>
        <time>2022-11-04 14:20:18</time>
      </trkpt>
      <trkpt lat="41.98325" lon="3.02734">
        <ele>35.2</ele>
        <time>2022-11-04 14:20:20</time>
      </trkpt>
      <trkpt lat="41.98323" lon="3.0273">
        <ele>35.2</ele>
        <time>2022-11-04 14:20:22</time>
      </trkpt>
      <trkpt lat="41.98321" lon="3.02727">
        <ele>35.4</ele>
        <time>2022-11-04 14:20:24</time>
      </trkpt>
      <trkpt lat="41.98318" lon="3.02724">
        <ele>35.4</ele>
        <time>2022-11-04 14:20:26</time>
      </trkpt>
      <trkpt lat="41.98315" lon="3.02716">
        <ele>35.4</ele>
        <time>2022-11-04 14:20:30</time>
      </trkpt>
      <trkpt lat="41.98314" lon="3.02713">
        <ele>35.6</ele>
        <time>2022-11-04 14:20:32</time>
      </trkpt>
      <trkpt lat="41.98311" lon="3.02707">
        <ele>35.6</ele>
        <time>2022-11-04 14:20:36</time>
      </trkpt>
      <trkpt lat="41.98308" lon="3.027">
        <ele>35.6</ele>
        <time>2022-11-04 14:20:40</time>
      </trkpt>
      <trkpt lat="41.98305" lon="3.02693">
        <ele>35.6</ele>
        <time>2022-11-04 14:20:43</time>
      </trkpt>
      <trkpt lat="41.98295" lon="3.02671">
        <ele>35.8</ele>
        <time>2022-11-04 14:20:52</time>
      </trkpt>
      <trkpt lat="41.98287" lon="3.02651">
        <ele>35.8</ele>
        <time>2022-11-04 14:20:59</time>
      </trkpt>
      <trkpt lat="41.98273" lon="3.02622">
        <ele>35.8</ele>
        <time>2022-11-04 14:21:08</time>
      </trkpt>
      <trkpt lat="41.9826" lon="3.02594">
        <ele>35.8</ele>
        <time>2022-11-04 14:21:16</time>
      </trkpt>
      <trkpt lat="41.98247" lon="3.02565">
        <ele>36</ele>
        <time>2022-11-04 14:21:24</time>
      </trkpt>
      <trkpt lat="41.98232" lon="3.02536">
        <ele>36</ele>
        <time>2022-11-04 14:21:32</time>
      </trkpt>
      <trkpt lat="41.98218" lon="3.02509">
        <ele>36</ele>
        <time>2022-11-04 14:21:39</time>
      </trkpt>
      <trkpt lat="41.98198" lon="3.02474">
        <ele>35.8</ele>
        <time>2022-11-04 14:21:48</time>
      </trkpt>
      <trkpt lat="41.98182" lon="3.02448">
        <ele>36.2</ele>
        <time>2022-11-04 14:21:55</time>
      </trkpt>
      <trkpt lat="41.98172" lon="3.02429">
        <ele>36.4</ele>
        <time>2022-11-04 14:22:00</time>
      </trkpt>
      <trkpt lat="41.98167" lon="3.02422">
        <ele>36.4</ele>
        <time>2022-11-04 14:22:02</time>
      </trkpt>
      <trkpt lat="41.98153" lon="3.024">
        <ele>36.4</ele>
        <time>2022-11-04 14:22:08</time>
      </trkpt>
      <trkpt lat="41.9813" lon="3.0236">
        <ele>36.6</ele>
        <time>2022-11-04 14:22:18</time>
      </trkpt>
      <trkpt lat="41.98119" lon="3.02342">
        <ele>36.6</ele>
        <time>2022-11-04 14:22:23</time>
      </trkpt>
      <trkpt lat="41.98102" lon="3.0232">
        <ele>36.6</ele>
        <time>2022-11-04 14:22:30</time>
      </trkpt>
      <trkpt lat="41.98082" lon="3.02297">
        <ele>36.4</ele>
        <time>2022-11-04 14:22:37</time>
      </trkpt>
      <trkpt lat="41.98066" lon="3.02288">
        <ele>37</ele>
        <time>2022-11-04 14:22:42</time>
      </trkpt>
      <trkpt lat="41.9806" lon="3.02276">
        <ele>37.2</ele>
        <time>2022-11-04 14:22:46</time>
      </trkpt>
      <trkpt lat="41.98065" lon="3.02262">
        <ele>37.2</ele>
        <time>2022-11-04 14:22:50</time>
      </trkpt>
      <trkpt lat="41.98066" lon="3.02259">
        <ele>37.2</ele>
        <time>2022-11-04 14:22:51</time>
      </trkpt>
      <trkpt lat="41.98067" lon="3.02241">
        <ele>37.2</ele>
        <time>2022-11-04 14:22:56</time>
      </trkpt>
      <trkpt lat="41.98062" lon="3.02215">
        <ele>37.4</ele>
        <time>2022-11-04 14:23:02</time>
      </trkpt>
      <trkpt lat="41.98061" lon="3.02211">
        <ele>37.4</ele>
        <time>2022-11-04 14:23:03</time>
      </trkpt>
      <trkpt lat="41.9805" lon="3.02165">
        <ele>37.8</ele>
        <time>2022-11-04 14:23:13</time>
      </trkpt>
      <trkpt lat="41.98038" lon="3.02103">
        <ele>38</ele>
        <time>2022-11-04 14:23:25</time>
      </trkpt>
      <trkpt lat="41.9803" lon="3.0206">
        <ele>38.2</ele>
        <time>2022-11-04 14:23:33</time>
      </trkpt>
      <trkpt lat="41.9802" lon="3.02015">
        <ele>38.4</ele>
        <time>2022-11-04 14:23:41</time>
      </trkpt>
      <trkpt lat="41.98018" lon="3.02009">
        <ele>38.4</ele>
        <time>2022-11-04 14:23:42</time>
      </trkpt>
      <trkpt lat="41.98009" lon="3.01963">
        <ele>38.6</ele>
        <time>2022-11-04 14:23:50</time>
      </trkpt>
      <trkpt lat="41.98002" lon="3.01919">
        <ele>39</ele>
        <time>2022-11-04 14:23:58</time>
      </trkpt>
      <trkpt lat="41.97992" lon="3.0187">
        <ele>38.8</ele>
        <time>2022-11-04 14:24:07</time>
      </trkpt>
      <trkpt lat="41.97982" lon="3.01819">
        <ele>39.2</ele>
        <time>2022-11-04 14:24:17</time>
      </trkpt>
      <trkpt lat="41.97981" lon="3.01813">
        <ele>39.2</ele>
        <time>2022-11-04 14:24:18</time>
      </trkpt>
      <trkpt lat="41.97975" lon="3.0179">
        <ele>39.2</ele>
        <time>2022-11-04 14:24:23</time>
      </trkpt>
      <trkpt lat="41.9797" lon="3.0176">
        <ele>39.2</ele>
        <time>2022-11-04 14:24:29</time>
      </trkpt>
      <trkpt lat="41.97964" lon="3.01723">
        <ele>39.2</ele>
        <time>2022-11-04 14:24:36</time>
      </trkpt>
      <trkpt lat="41.97962" lon="3.01704">
        <ele>39.4</ele>
        <time>2022-11-04 14:24:40</time>
      </trkpt>
      <trkpt lat="41.9796" lon="3.01699">
        <ele>39.4</ele>
        <time>2022-11-04 14:24:41</time>
      </trkpt>
      <trkpt lat="41.97949" lon="3.01669">
        <ele>39.6</ele>
        <time>2022-11-04 14:24:48</time>
      </trkpt>
      <trkpt lat="41.97935" lon="3.0164">
        <ele>39.8</ele>
        <time>2022-11-04 14:24:55</time>
      </trkpt>
      <trkpt lat="41.97919" lon="3.01602">
        <ele>40</ele>
        <time>2022-11-04 14:25:03</time>
      </trkpt>
      <trkpt lat="41.97917" lon="3.01591">
        <ele>40</ele>
        <time>2022-11-04 14:25:05</time>
      </trkpt>
      <trkpt lat="41.97917" lon="3.01578">
        <ele>39.4</ele>
        <time>2022-11-04 14:25:07</time>
      </trkpt>
      <trkpt lat="41.97916" lon="3.01561">
        <ele>38.4</ele>
        <time>2022-11-04 14:25:09</time>
      </trkpt>
      <trkpt lat="41.97915" lon="3.01552">
        <ele>37.8</ele>
        <time>2022-11-04 14:25:10</time>
      </trkpt>
      <trkpt lat="41.97913" lon="3.01543">
        <ele>37.4</ele>
        <time>2022-11-04 14:25:11</time>
      </trkpt>
      <trkpt lat="41.97907" lon="3.01527">
        <ele>36.8</ele>
        <time>2022-11-04 14:25:13</time>
      </trkpt>
      <trkpt lat="41.979" lon="3.01512">
        <ele>36.4</ele>
        <time>2022-11-04 14:25:15</time>
      </trkpt>
      <trkpt lat="41.97897" lon="3.01506">
        <ele>36.4</ele>
        <time>2022-11-04 14:25:16</time>
      </trkpt>
      <trkpt lat="41.97892" lon="3.01495">
        <ele>36.8</ele>
        <time>2022-11-04 14:25:18</time>
      </trkpt>
      <trkpt lat="41.97889" lon="3.01486">
        <ele>37.6</ele>
        <time>2022-11-04 14:25:20</time>
      </trkpt>
      <trkpt lat="41.97889" lon="3.01482">
        <ele>38</ele>
        <time>2022-11-04 14:25:21</time>
      </trkpt>
      <trkpt lat="41.97889" lon="3.01468">
        <ele>39</ele>
        <time>2022-11-04 14:25:25</time>
      </trkpt>
      <trkpt lat="41.9789" lon="3.01455">
        <ele>40</ele>
        <time>2022-11-04 14:25:30</time>
      </trkpt>
      <trkpt lat="41.97893" lon="3.01439">
        <ele>40</ele>
        <time>2022-11-04 14:25:36</time>
      </trkpt>
      <trkpt lat="41.97896" lon="3.01414">
        <ele>40.4</ele>
        <time>2022-11-04 14:25:44</time>
      </trkpt>
      <trkpt lat="41.979" lon="3.01391">
        <ele>40.4</ele>
        <time>2022-11-04 14:25:50</time>
      </trkpt>
      <trkpt lat="41.97912" lon="3.01365">
        <ele>40.6</ele>
        <time>2022-11-04 14:25:57</time>
      </trkpt>
      <trkpt lat="41.97929" lon="3.01342">
        <ele>40.8</ele>
        <time>2022-11-04 14:26:04</time>
      </trkpt>
      <trkpt lat="41.97944" lon="3.0132">
        <ele>40.8</ele>
        <time>2022-11-04 14:26:11</time>
      </trkpt>
      <trkpt lat="41.97962" lon="3.01289">
        <ele>41.2</ele>
        <time>2022-11-04 14:26:20</time>
      </trkpt>
      <trkpt lat="41.9798" lon="3.0126">
        <ele>41.2</ele>
        <time>2022-11-04 14:26:28</time>
      </trkpt>
      <trkpt lat="41.98" lon="3.01227">
        <ele>41.6</ele>
        <time>2022-11-04 14:26:37</time>
      </trkpt>
      <trkpt lat="41.98007" lon="3.01197">
        <ele>41.8</ele>
        <time>2022-11-04 14:26:44</time>
      </trkpt>
      <trkpt lat="41.98007" lon="3.01168">
        <ele>42</ele>
        <time>2022-11-04 14:26:50</time>
      </trkpt>
      <trkpt lat="41.98001" lon="3.01141">
        <ele>42.2</ele>
        <time>2022-11-04 14:26:56</time>
      </trkpt>
      <trkpt lat="41.97999" lon="3.01132">
        <ele>42.2</ele>
        <time>2022-11-04 14:26:58</time>
      </trkpt>
      <trkpt lat="41.97991" lon="3.01108">
        <ele>42.2</ele>
        <time>2022-11-04 14:27:04</time>
      </trkpt>
      <trkpt lat="41.97982" lon="3.01082">
        <ele>42.4</ele>
        <time>2022-11-04 14:27:10</time>
      </trkpt>
      <trkpt lat="41.9797" lon="3.01055">
        <ele>43</ele>
        <time>2022-11-04 14:27:17</time>
      </trkpt>
      <trkpt lat="41.97961" lon="3.01036">
        <ele>43.2</ele>
        <time>2022-11-04 14:27:22</time>
      </trkpt>
      <trkpt lat="41.97957" lon="3.01029">
        <ele>43.2</ele>
        <time>2022-11-04 14:27:24</time>
      </trkpt>
      <trkpt lat="41.97939" lon="3.01">
        <ele>43.2</ele>
        <time>2022-11-04 14:27:32</time>
      </trkpt>
      <trkpt lat="41.97922" lon="3.00976">
        <ele>43.4</ele>
        <time>2022-11-04 14:27:39</time>
      </trkpt>
      <trkpt lat="41.97904" lon="3.0095">
        <ele>43.4</ele>
        <time>2022-11-04 14:27:46</time>
      </trkpt>
      <trkpt lat="41.97887" lon="3.00923">
        <ele>43.8</ele>
        <time>2022-11-04 14:27:53</time>
      </trkpt>
      <trkpt lat="41.97876" lon="3.00901">
        <ele>43.6</ele>
        <time>2022-11-04 14:27:58</time>
      </trkpt>
      <trkpt lat="41.97871" lon="3.00892">
        <ele>43.4</ele>
        <time>2022-11-04 14:28:00</time>
      </trkpt>
      <trkpt lat="41.97853" lon="3.00857">
        <ele>43.8</ele>
        <time>2022-11-04 14:28:08</time>
      </trkpt>
      <trkpt lat="41.97837" lon="3.00814">
        <ele>44</ele>
        <time>2022-11-04 14:28:17</time>
      </trkpt>
      <trkpt lat="41.97835" lon="3.00805">
        <ele>44.4</ele>
        <time>2022-11-04 14:28:19</time>
      </trkpt>
      <trkpt lat="41.97823" lon="3.00771">
        <ele>44.2</ele>
        <time>2022-11-04 14:28:26</time>
      </trkpt>
      <trkpt lat="41.97805" lon="3.00734">
        <ele>44.6</ele>
        <time>2022-11-04 14:28:34</time>
      </trkpt>
      <trkpt lat="41.97789" lon="3.00702">
        <ele>44.8</ele>
        <time>2022-11-04 14:28:41</time>
      </trkpt>
      <trkpt lat="41.97787" lon="3.00698">
        <ele>44.8</ele>
        <time>2022-11-04 14:28:42</time>
      </trkpt>
      <trkpt lat="41.97778" lon="3.00679">
        <ele>44.6</ele>
        <time>2022-11-04 14:28:46</time>
      </trkpt>
      <trkpt lat="41.97762" lon="3.00651">
        <ele>44.6</ele>
        <time>2022-11-04 14:28:52</time>
      </trkpt>
      <trkpt lat="41.97745" lon="3.00622">
        <ele>45</ele>
        <time>2022-11-04 14:28:59</time>
      </trkpt>
      <trkpt lat="41.97739" lon="3.0061">
        <ele>45.4</ele>
        <time>2022-11-04 14:29:02</time>
      </trkpt>
      <trkpt lat="41.97726" lon="3.00585">
        <ele>45.6</ele>
        <time>2022-11-04 14:29:08</time>
      </trkpt>
      <trkpt lat="41.97708" lon="3.0055">
        <ele>45.8</ele>
        <time>2022-11-04 14:29:16</time>
      </trkpt>
      <trkpt lat="41.97694" lon="3.0051">
        <ele>45.6</ele>
        <time>2022-11-04 14:29:24</time>
      </trkpt>
      <trkpt lat="41.97679" lon="3.00461">
        <ele>45.6</ele>
        <time>2022-11-04 14:29:33</time>
      </trkpt>
      <trkpt lat="41.97662" lon="3.00408">
        <ele>45.8</ele>
        <time>2022-11-04 14:29:43</time>
      </trkpt>
      <trkpt lat="41.97657" lon="3.00393">
        <ele>45.8</ele>
        <time>2022-11-04 14:29:46</time>
      </trkpt>
      <trkpt lat="41.97647" lon="3.00362">
        <ele>46</ele>
        <time>2022-11-04 14:29:52</time>
      </trkpt>
      <trkpt lat="41.97639" lon="3.00337">
        <ele>46.4</ele>
        <time>2022-11-04 14:29:57</time>
      </trkpt>
      <trkpt lat="41.97632" lon="3.00311">
        <ele>46.4</ele>
        <time>2022-11-04 14:30:02</time>
      </trkpt>
      <trkpt lat="41.97625" lon="3.00285">
        <ele>46.6</ele>
        <time>2022-11-04 14:30:07</time>
      </trkpt>
      <trkpt lat="41.97623" lon="3.0028">
        <ele>46.6</ele>
        <time>2022-11-04 14:30:08</time>
      </trkpt>
      <trkpt lat="41.97612" lon="3.00245">
        <ele>47</ele>
        <time>2022-11-04 14:30:15</time>
      </trkpt>
      <trkpt lat="41.976" lon="3.00208">
        <ele>47</ele>
        <time>2022-11-04 14:30:22</time>
      </trkpt>
      <trkpt lat="41.97592" lon="3.00172">
        <ele>47.2</ele>
        <time>2022-11-04 14:30:29</time>
      </trkpt>
      <trkpt lat="41.97591" lon="3.00163">
        <ele>47.4</ele>
        <time>2022-11-04 14:30:31</time>
      </trkpt>
      <trkpt lat="41.9759" lon="3.00149">
        <ele>47.6</ele>
        <time>2022-11-04 14:30:35</time>
      </trkpt>
      <trkpt lat="41.97589" lon="3.00144">
        <ele>47.8</ele>
        <time>2022-11-04 14:30:37</time>
      </trkpt>
      <trkpt lat="41.97587" lon="3.00139">
        <ele>47.6</ele>
        <time>2022-11-04 14:30:39</time>
      </trkpt>
      <trkpt lat="41.97583" lon="3.00122">
        <ele>47.2</ele>
        <time>2022-11-04 14:30:43</time>
      </trkpt>
      <trkpt lat="41.97577" lon="3.00106">
        <ele>46.6</ele>
        <time>2022-11-04 14:30:46</time>
      </trkpt>
      <trkpt lat="41.97576" lon="3.001">
        <ele>46.4</ele>
        <time>2022-11-04 14:30:47</time>
      </trkpt>
      <trkpt lat="41.97574" lon="3.00095">
        <ele>46.2</ele>
        <time>2022-11-04 14:30:48</time>
      </trkpt>
      <trkpt lat="41.97564" lon="3.0005">
        <ele>46.6</ele>
        <time>2022-11-04 14:30:57</time>
      </trkpt>
      <trkpt lat="41.9756" lon="3.0002">
        <ele>46.4</ele>
        <time>2022-11-04 14:31:04</time>
      </trkpt>
      <trkpt lat="41.97559" lon="2.99996">
        <ele>47</ele>
        <time>2022-11-04 14:31:10</time>
      </trkpt>
      <trkpt lat="41.97557" lon="2.99968">
        <ele>47.4</ele>
        <time>2022-11-04 14:31:17</time>
      </trkpt>
      <trkpt lat="41.97556" lon="2.99964">
        <ele>47.4</ele>
        <time>2022-11-04 14:31:18</time>
      </trkpt>
      <trkpt lat="41.97551" lon="2.99938">
        <ele>47.8</ele>
        <time>2022-11-04 14:31:24</time>
      </trkpt>
      <trkpt lat="41.97546" lon="2.99904">
        <ele>48.2</ele>
        <time>2022-11-04 14:31:32</time>
      </trkpt>
      <trkpt lat="41.97541" lon="2.99886">
        <ele>48.6</ele>
        <time>2022-11-04 14:31:37</time>
      </trkpt>
      <trkpt lat="41.97539" lon="2.99882">
        <ele>48.6</ele>
        <time>2022-11-04 14:31:38</time>
      </trkpt>
      <trkpt lat="41.97526" lon="2.99853">
        <ele>49</ele>
        <time>2022-11-04 14:31:45</time>
      </trkpt>
      <trkpt lat="41.97511" lon="2.99827">
        <ele>49.2</ele>
        <time>2022-11-04 14:31:52</time>
      </trkpt>
      <trkpt lat="41.97497" lon="2.9981">
        <ele>49</ele>
        <time>2022-11-04 14:31:58</time>
      </trkpt>
      <trkpt lat="41.9748" lon="2.99791">
        <ele>48.4</ele>
        <time>2022-11-04 14:32:04</time>
      </trkpt>
      <trkpt lat="41.9747" lon="2.99778">
        <ele>47.8</ele>
        <time>2022-11-04 14:32:07</time>
      </trkpt>
      <trkpt lat="41.97462" lon="2.99772">
        <ele>47.4</ele>
        <time>2022-11-04 14:32:09</time>
      </trkpt>
      <trkpt lat="41.97458" lon="2.99769">
        <ele>47.2</ele>
        <time>2022-11-04 14:32:10</time>
      </trkpt>
      <trkpt lat="41.97449" lon="2.99771">
        <ele>46.6</ele>
        <time>2022-11-04 14:32:12</time>
      </trkpt>
      <trkpt lat="41.97444" lon="2.99771">
        <ele>46.6</ele>
        <time>2022-11-04 14:32:13</time>
      </trkpt>
      <trkpt lat="41.9743" lon="2.99766">
        <ele>47.2</ele>
        <time>2022-11-04 14:32:17</time>
      </trkpt>
      <trkpt lat="41.97424" lon="2.99762">
        <ele>47.4</ele>
        <time>2022-11-04 14:32:19</time>
      </trkpt>
      <trkpt lat="41.97412" lon="2.99755">
        <ele>47.4</ele>
        <time>2022-11-04 14:32:23</time>
      </trkpt>
      <trkpt lat="41.97395" lon="2.99748">
        <ele>47.4</ele>
        <time>2022-11-04 14:32:29</time>
      </trkpt>
      <trkpt lat="41.9738" lon="2.99742">
        <ele>47.8</ele>
        <time>2022-11-04 14:32:35</time>
      </trkpt>
      <trkpt lat="41.97358" lon="2.99739">
        <ele>48.4</ele>
        <time>2022-11-04 14:32:41</time>
      </trkpt>
      <trkpt lat="41.97355" lon="2.99738">
        <ele>48.6</ele>
        <time>2022-11-04 14:32:42</time>
      </trkpt>
      <trkpt lat="41.97334" lon="2.9973">
        <ele>49.6</ele>
        <time>2022-11-04 14:32:48</time>
      </trkpt>
      <trkpt lat="41.97316" lon="2.99717">
        <ele>49</ele>
        <time>2022-11-04 14:32:53</time>
      </trkpt>
      <trkpt lat="41.97313" lon="2.99713">
        <ele>48.8</ele>
        <time>2022-11-04 14:32:54</time>
      </trkpt>
      <trkpt lat="41.9729" lon="2.99689">
        <ele>48.6</ele>
        <time>2022-11-04 14:33:00</time>
      </trkpt>
      <trkpt lat="41.97287" lon="2.99685">
        <ele>48.6</ele>
        <time>2022-11-04 14:33:01</time>
      </trkpt>
      <trkpt lat="41.97276" lon="2.99673">
        <ele>48.8</ele>
        <time>2022-11-04 14:33:04</time>
      </trkpt>
      <trkpt lat="41.97266" lon="2.99661">
        <ele>49</ele>
        <time>2022-11-04 14:33:07</time>
      </trkpt>
      <trkpt lat="41.97245" lon="2.99639">
        <ele>49.8</ele>
        <time>2022-11-04 14:33:13</time>
      </trkpt>
      <trkpt lat="41.97234" lon="2.99629">
        <ele>49.6</ele>
        <time>2022-11-04 14:33:16</time>
      </trkpt>
      <trkpt lat="41.9723" lon="2.99627">
        <ele>49.4</ele>
        <time>2022-11-04 14:33:17</time>
      </trkpt>
      <trkpt lat="41.97214" lon="2.99617">
        <ele>49.6</ele>
        <time>2022-11-04 14:33:21</time>
      </trkpt>
      <trkpt lat="41.972" lon="2.99595">
        <ele>50</ele>
        <time>2022-11-04 14:33:26</time>
      </trkpt>
      <trkpt lat="41.97188" lon="2.99571">
        <ele>50.2</ele>
        <time>2022-11-04 14:33:31</time>
      </trkpt>
      <trkpt lat="41.97184" lon="2.99562">
        <ele>50.4</ele>
        <time>2022-11-04 14:33:33</time>
      </trkpt>
      <trkpt lat="41.97179" lon="2.99549">
        <ele>50.2</ele>
        <time>2022-11-04 14:33:36</time>
      </trkpt>
      <trkpt lat="41.97177" lon="2.99539">
        <ele>50</ele>
        <time>2022-11-04 14:33:38</time>
      </trkpt>
      <trkpt lat="41.97175" lon="2.99506">
        <ele>49</ele>
        <time>2022-11-04 14:33:43</time>
      </trkpt>
      <trkpt lat="41.97174" lon="2.995">
        <ele>49</ele>
        <time>2022-11-04 14:33:44</time>
      </trkpt>
      <trkpt lat="41.97171" lon="2.99484">
        <ele>49.6</ele>
        <time>2022-11-04 14:33:47</time>
      </trkpt>
      <trkpt lat="41.97164" lon="2.99462">
        <ele>50</ele>
        <time>2022-11-04 14:33:52</time>
      </trkpt>
      <trkpt lat="41.97154" lon="2.99431">
        <ele>50.6</ele>
        <time>2022-11-04 14:33:59</time>
      </trkpt>
      <trkpt lat="41.97153" lon="2.99427">
        <ele>50.8</ele>
        <time>2022-11-04 14:34:00</time>
      </trkpt>
      <trkpt lat="41.9714" lon="2.99399">
        <ele>51.4</ele>
        <time>2022-11-04 14:34:07</time>
      </trkpt>
      <trkpt lat="41.9713" lon="2.99384">
        <ele>51.8</ele>
        <time>2022-11-04 14:34:11</time>
      </trkpt>
      <trkpt lat="41.97124" lon="2.99374">
        <ele>52.2</ele>
        <time>2022-11-04 14:34:14</time>
      </trkpt>
      <trkpt lat="41.97111" lon="2.99361">
        <ele>52.8</ele>
        <time>2022-11-04 14:34:19</time>
      </trkpt>
      <trkpt lat="41.97109" lon="2.99358">
        <ele>52.8</ele>
        <time>2022-11-04 14:34:20</time>
      </trkpt>
      <trkpt lat="41.97096" lon="2.99338">
        <ele>53.2</ele>
        <time>2022-11-04 14:34:26</time>
      </trkpt>
      <trkpt lat="41.9709" lon="2.99326">
        <ele>54</ele>
        <time>2022-11-04 14:34:30</time>
      </trkpt>
      <trkpt lat="41.97086" lon="2.99315">
        <ele>54.2</ele>
        <time>2022-11-04 14:34:33</time>
      </trkpt>
      <trkpt lat="41.97078" lon="2.99297">
        <ele>54.8</ele>
        <time>2022-11-04 14:34:39</time>
      </trkpt>
      <trkpt lat="41.97074" lon="2.99283">
        <ele>55</ele>
        <time>2022-11-04 14:34:43</time>
      </trkpt>
      <trkpt lat="41.97072" lon="2.99272">
        <ele>55.2</ele>
        <time>2022-11-04 14:34:46</time>
      </trkpt>
      <trkpt lat="41.97066" lon="2.99252">
        <ele>55.6</ele>
        <time>2022-11-04 14:34:52</time>
      </trkpt>
      <trkpt lat="41.97061" lon="2.99232">
        <ele>56</ele>
        <time>2022-11-04 14:34:57</time>
      </trkpt>
      <trkpt lat="41.97057" lon="2.99223">
        <ele>56</ele>
        <time>2022-11-04 14:35:00</time>
      </trkpt>
      <trkpt lat="41.97055" lon="2.99204">
        <ele>56.2</ele>
        <time>2022-11-04 14:35:05</time>
      </trkpt>
      <trkpt lat="41.9706" lon="2.9918">
        <ele>56.2</ele>
        <time>2022-11-04 14:35:11</time>
      </trkpt>
      <trkpt lat="41.9707" lon="2.99158">
        <ele>56.2</ele>
        <time>2022-11-04 14:35:18</time>
      </trkpt>
      <trkpt lat="41.97079" lon="2.9914">
        <ele>56.4</ele>
        <time>2022-11-04 14:35:24</time>
      </trkpt>
      <trkpt lat="41.9708" lon="2.9912">
        <ele>56.4</ele>
        <time>2022-11-04 14:35:29</time>
      </trkpt>
      <trkpt lat="41.97081" lon="2.99097">
        <ele>56.6</ele>
        <time>2022-11-04 14:35:35</time>
      </trkpt>
      <trkpt lat="41.97077" lon="2.99069">
        <ele>57</ele>
        <time>2022-11-04 14:35:41</time>
      </trkpt>
      <trkpt lat="41.97072" lon="2.99055">
        <ele>57</ele>
        <time>2022-11-04 14:35:44</time>
      </trkpt>
      <trkpt lat="41.97064" lon="2.99037">
        <ele>57</ele>
        <time>2022-11-04 14:35:48</time>
      </trkpt>
      <trkpt lat="41.97049" lon="2.9902">
        <ele>57</ele>
        <time>2022-11-04 14:35:53</time>
      </trkpt>
      <trkpt lat="41.97028" lon="2.99019">
        <ele>57.2</ele>
        <time>2022-11-04 14:35:58</time>
      </trkpt>
      <trkpt lat="41.97001" lon="2.99026">
        <ele>57.2</ele>
        <time>2022-11-04 14:36:05</time>
      </trkpt>
      <trkpt lat="41.96975" lon="2.99023">
        <ele>57.6</ele>
        <time>2022-11-04 14:36:12</time>
      </trkpt>
      <trkpt lat="41.96956" lon="2.99012">
        <ele>58</ele>
        <time>2022-11-04 14:36:18</time>
      </trkpt>
      <trkpt lat="41.96953" lon="2.99009">
        <ele>58.2</ele>
        <time>2022-11-04 14:36:19</time>
      </trkpt>
      <trkpt lat="41.96939" lon="2.98996">
        <ele>58.6</ele>
        <time>2022-11-04 14:36:24</time>
      </trkpt>
      <trkpt lat="41.96929" lon="2.98983">
        <ele>59</ele>
        <time>2022-11-04 14:36:28</time>
      </trkpt>
      <trkpt lat="41.9692" lon="2.9897">
        <ele>59.8</ele>
        <time>2022-11-04 14:36:33</time>
      </trkpt>
      <trkpt lat="41.96912" lon="2.9896">
        <ele>60.2</ele>
        <time>2022-11-04 14:36:37</time>
      </trkpt>
      <trkpt lat="41.96905" lon="2.98952">
        <ele>60.2</ele>
        <time>2022-11-04 14:36:40</time>
      </trkpt>
      <trkpt lat="41.96892" lon="2.98929">
        <ele>61</ele>
        <time>2022-11-04 14:36:47</time>
      </trkpt>
      <trkpt lat="41.96891" lon="2.98925">
        <ele>61.2</ele>
        <time>2022-11-04 14:36:48</time>
      </trkpt>
      <trkpt lat="41.96885" lon="2.98902">
        <ele>62.2</ele>
        <time>2022-11-04 14:36:54</time>
      </trkpt>
      <trkpt lat="41.96884" lon="2.98898">
        <ele>62.2</ele>
        <time>2022-11-04 14:36:55</time>
      </trkpt>
      <trkpt lat="41.96876" lon="2.98878">
        <ele>62.2</ele>
        <time>2022-11-04 14:37:01</time>
      </trkpt>
      <trkpt lat="41.96861" lon="2.98858">
        <ele>62.2</ele>
        <time>2022-11-04 14:37:08</time>
      </trkpt>
      <trkpt lat="41.96852" lon="2.98858">
        <ele>62.2</ele>
        <time>2022-11-04 14:37:13</time>
      </trkpt>
      <trkpt lat="41.96841" lon="2.9886">
        <ele>62.2</ele>
        <time>2022-11-04 14:37:19</time>
      </trkpt>
      <trkpt lat="41.96835" lon="2.98861">
        <ele>62.2</ele>
        <time>2022-11-04 14:37:24</time>
      </trkpt>
      <trkpt lat="41.96818" lon="2.9886">
        <ele>62</ele>
        <time>2022-11-04 14:37:30</time>
      </trkpt>
      <trkpt lat="41.96795" lon="2.98849">
        <ele>62.2</ele>
        <time>2022-11-04 14:37:37</time>
      </trkpt>
      <trkpt lat="41.96775" lon="2.9884">
        <ele>63.2</ele>
        <time>2022-11-04 14:37:44</time>
      </trkpt>
      <trkpt lat="41.96765" lon="2.98832">
        <ele>64.4</ele>
        <time>2022-11-04 14:37:49</time>
      </trkpt>
      <trkpt lat="41.96762" lon="2.98828">
        <ele>65</ele>
        <time>2022-11-04 14:37:51</time>
      </trkpt>
      <trkpt lat="41.9676" lon="2.98824">
        <ele>65.6</ele>
        <time>2022-11-04 14:37:53</time>
      </trkpt>
      <trkpt lat="41.9675" lon="2.98818">
        <ele>67</ele>
        <time>2022-11-04 14:37:57</time>
      </trkpt>
      <trkpt lat="41.9674" lon="2.98812">
        <ele>68.2</ele>
        <time>2022-11-04 14:38:01</time>
      </trkpt>
      <trkpt lat="41.96734" lon="2.98807">
        <ele>68.6</ele>
        <time>2022-11-04 14:38:04</time>
      </trkpt>
      <trkpt lat="41.96728" lon="2.988">
        <ele>69.2</ele>
        <time>2022-11-04 14:38:07</time>
      </trkpt>
      <trkpt lat="41.96719" lon="2.98788">
        <ele>69.6</ele>
        <time>2022-11-04 14:38:12</time>
      </trkpt>
      <trkpt lat="41.96706" lon="2.98776">
        <ele>70.4</ele>
        <time>2022-11-04 14:38:18</time>
      </trkpt>
      <trkpt lat="41.96704" lon="2.98774">
        <ele>70.4</ele>
        <time>2022-11-04 14:38:19</time>
      </trkpt>
      <trkpt lat="41.96687" lon="2.98769">
        <ele>71.2</ele>
        <time>2022-11-04 14:38:26</time>
      </trkpt>
      <trkpt lat="41.96679" lon="2.98765">
        <ele>71.4</ele>
        <time>2022-11-04 14:38:30</time>
      </trkpt>
      <trkpt lat="41.96671" lon="2.98763">
        <ele>72.2</ele>
        <time>2022-11-04 14:38:34</time>
      </trkpt>
      <trkpt lat="41.96665" lon="2.98762">
        <ele>72.6</ele>
        <time>2022-11-04 14:38:37</time>
      </trkpt>
      <trkpt lat="41.96653" lon="2.98761">
        <ele>73.2</ele>
        <time>2022-11-04 14:38:42</time>
      </trkpt>
      <trkpt lat="41.96644" lon="2.98758">
        <ele>73.6</ele>
        <time>2022-11-04 14:38:46</time>
      </trkpt>
      <trkpt lat="41.96635" lon="2.98756">
        <ele>73.8</ele>
        <time>2022-11-04 14:38:50</time>
      </trkpt>
      <trkpt lat="41.96619" lon="2.98751">
        <ele>74.6</ele>
        <time>2022-11-04 14:38:57</time>
      </trkpt>
      <trkpt lat="41.96617" lon="2.9875">
        <ele>74.6</ele>
        <time>2022-11-04 14:38:58</time>
      </trkpt>
      <trkpt lat="41.966" lon="2.98744">
        <ele>75.2</ele>
        <time>2022-11-04 14:39:05</time>
      </trkpt>
      <trkpt lat="41.96591" lon="2.98741">
        <ele>75.6</ele>
        <time>2022-11-04 14:39:09</time>
      </trkpt>
      <trkpt lat="41.96584" lon="2.98739">
        <ele>76</ele>
        <time>2022-11-04 14:39:12</time>
      </trkpt>
      <trkpt lat="41.9657" lon="2.98733">
        <ele>76.8</ele>
        <time>2022-11-04 14:39:18</time>
      </trkpt>
      <trkpt lat="41.96565" lon="2.98731">
        <ele>77.2</ele>
        <time>2022-11-04 14:39:20</time>
      </trkpt>
      <trkpt lat="41.96551" lon="2.98725">
        <ele>77.8</ele>
        <time>2022-11-04 14:39:26</time>
      </trkpt>
      <trkpt lat="41.96547" lon="2.98723">
        <ele>78.2</ele>
        <time>2022-11-04 14:39:28</time>
      </trkpt>
      <trkpt lat="41.96536" lon="2.98716">
        <ele>78.8</ele>
        <time>2022-11-04 14:39:33</time>
      </trkpt>
      <trkpt lat="41.96534" lon="2.98714">
        <ele>79.2</ele>
        <time>2022-11-04 14:39:34</time>
      </trkpt>
      <trkpt lat="41.96521" lon="2.98706">
        <ele>80</ele>
        <time>2022-11-04 14:39:40</time>
      </trkpt>
      <trkpt lat="41.9651" lon="2.987">
        <ele>81</ele>
        <time>2022-11-04 14:39:45</time>
      </trkpt>
      <trkpt lat="41.96508" lon="2.987">
        <ele>81</ele>
        <time>2022-11-04 14:39:46</time>
      </trkpt>
      <trkpt lat="41.96493" lon="2.98692">
        <ele>82.2</ele>
        <time>2022-11-04 14:39:53</time>
      </trkpt>
      <trkpt lat="41.96489" lon="2.98691">
        <ele>82.6</ele>
        <time>2022-11-04 14:39:55</time>
      </trkpt>
      <trkpt lat="41.96479" lon="2.98685">
        <ele>83.2</ele>
        <time>2022-11-04 14:40:00</time>
      </trkpt>
      <trkpt lat="41.96474" lon="2.98681">
        <ele>83.6</ele>
        <time>2022-11-04 14:40:03</time>
      </trkpt>
      <trkpt lat="41.96469" lon="2.98676">
        <ele>84.2</ele>
        <time>2022-11-04 14:40:06</time>
      </trkpt>
      <trkpt lat="41.96457" lon="2.98662">
        <ele>85.2</ele>
        <time>2022-11-04 14:40:13</time>
      </trkpt>
      <trkpt lat="41.96444" lon="2.98648">
        <ele>86.2</ele>
        <time>2022-11-04 14:40:21</time>
      </trkpt>
      <trkpt lat="41.96443" lon="2.98644">
        <ele>86.4</ele>
        <time>2022-11-04 14:40:23</time>
      </trkpt>
      <trkpt lat="41.96442" lon="2.98643">
        <ele>86.4</ele>
        <time>2022-11-04 14:40:24</time>
      </trkpt>
      <trkpt lat="41.96438" lon="2.98641">
        <ele>86.4</ele>
        <time>2022-11-04 14:40:26</time>
      </trkpt>
      <trkpt lat="41.96434" lon="2.98635">
        <ele>86.8</ele>
        <time>2022-11-04 14:40:29</time>
      </trkpt>
      <trkpt lat="41.96431" lon="2.98629">
        <ele>86.8</ele>
        <time>2022-11-04 14:40:32</time>
      </trkpt>
      <trkpt lat="41.96425" lon="2.98622">
        <ele>87.6</ele>
        <time>2022-11-04 14:40:36</time>
      </trkpt>
      <trkpt lat="41.9642" lon="2.98614">
        <ele>87.8</ele>
        <time>2022-11-04 14:40:40</time>
      </trkpt>
      <trkpt lat="41.96417" lon="2.98601">
        <ele>88.6</ele>
        <time>2022-11-04 14:40:46</time>
      </trkpt>
      <trkpt lat="41.96416" lon="2.98599">
        <ele>88.6</ele>
        <time>2022-11-04 14:40:47</time>
      </trkpt>
      <trkpt lat="41.96413" lon="2.98595">
        <ele>88.8</ele>
        <time>2022-11-04 14:40:50</time>
      </trkpt>
      <trkpt lat="41.96411" lon="2.98594">
        <ele>88.8</ele>
        <time>2022-11-04 14:40:52</time>
      </trkpt>
      <trkpt lat="41.96408" lon="2.98594">
        <ele>88.8</ele>
        <time>2022-11-04 14:40:54</time>
      </trkpt>
      <trkpt lat="41.96402" lon="2.98592">
        <ele>88.8</ele>
        <time>2022-11-04 14:40:58</time>
      </trkpt>
      <trkpt lat="41.96395" lon="2.98589">
        <ele>88.6</ele>
        <time>2022-11-04 14:41:05</time>
      </trkpt>
      <trkpt lat="41.96395" lon="2.98589">
        <ele>88.6</ele>
        <time>2022-11-04 14:41:16</time>
      </trkpt>
      <trkpt lat="41.96395" lon="2.98589">
        <ele>88.4</ele>
        <time>2022-11-04 14:41:29</time>
      </trkpt>
      <trkpt lat="41.96395" lon="2.98589">
        <ele>88.6</ele>
        <time>2022-11-04 14:41:45</time>
      </trkpt>
      <trkpt lat="41.96395" lon="2.98589">
        <ele>88.6</ele>
        <time>2022-11-04 14:42:05</time>
      </trkpt>
      <trkpt lat="41.96395" lon="2.98589">
        <ele>88.4</ele>
        <time>2022-11-04 14:42:19</time>
      </trkpt>
      <trkpt lat="41.96395" lon="2.98589">
        <ele>88.4</ele>
        <time>2022-11-04 14:42:37</time>
      </trkpt>
      <trkpt lat="41.96395" lon="2.98589">
        <ele>88.4</ele>
        <time>2022-11-04 14:42:51</time>
      </trkpt>
      <trkpt lat="41.96395" lon="2.98589">
        <ele>88.4</ele>
        <time>2022-11-04 14:43:01</time>
      </trkpt>
      <trkpt lat="41.96395" lon="2.98589">
        <ele>88.4</ele>
        <time>2022-11-04 14:43:18</time>
      </trkpt>
      <trkpt lat="41.96395" lon="2.98589">
        <ele>88</ele>
        <time>2022-11-04 14:43:29</time>
      </trkpt>
      <trkpt lat="41.96395" lon="2.98589">
        <ele>88</ele>
        <time>2022-11-04 14:43:42</time>
      </trkpt>
      <trkpt lat="41.96395" lon="2.98589">
        <ele>88</ele>
        <time>2022-11-04 14:43:56</time>
      </trkpt>
      <trkpt lat="41.96395" lon="2.98589">
        <ele>87.8</ele>
        <time>2022-11-04 14:44:11</time>
      </trkpt>
      <trkpt lat="41.96395" lon="2.98589">
        <ele>87.8</ele>
        <time>2022-11-04 14:44:27</time>
      </trkpt>
      <trkpt lat="41.96395" lon="2.98589">
        <ele>87.6</ele>
        <time>2022-11-04 14:44:33</time>
      </trkpt>
      <trkpt lat="41.96395" lon="2.98589">
        <ele>87.8</ele>
        <time>2022-11-04 14:44:41</time>
      </trkpt>
      <trkpt lat="41.96395" lon="2.98589">
        <ele>87.8</ele>
        <time>2022-11-04 14:44:52</time>
      </trkpt>
      <trkpt lat="41.96395" lon="2.98589">
        <ele>87.8</ele>
        <time>2022-11-04 14:45:06</time>
      </trkpt>
      <trkpt lat="41.96395" lon="2.98589">
        <ele>87.8</ele>
        <time>2022-11-04 14:45:21</time>
      </trkpt>
      <trkpt lat="41.96395" lon="2.98589">
        <ele>87.6</ele>
        <time>2022-11-04 14:45:34</time>
      </trkpt>
      <trkpt lat="41.96394" lon="2.9859">
        <ele>87.6</ele>
        <time>2022-11-04 14:45:45</time>
      </trkpt>
      <trkpt lat="41.96392" lon="2.9859">
        <ele>87.6</ele>
        <time>2022-11-04 14:45:46</time>
      </trkpt>
      <trkpt lat="41.96382" lon="2.98592">
        <ele>87.8</ele>
        <time>2022-11-04 14:45:53</time>
      </trkpt>
      <trkpt lat="41.96373" lon="2.9859">
        <ele>88</ele>
        <time>2022-11-04 14:45:58</time>
      </trkpt>
      <trkpt lat="41.96371" lon="2.98591">
        <ele>88</ele>
        <time>2022-11-04 14:45:59</time>
      </trkpt>
      <trkpt lat="41.96367" lon="2.98591">
        <ele>88</ele>
        <time>2022-11-04 14:46:03</time>
      </trkpt>
      <trkpt lat="41.96359" lon="2.9859">
        <ele>88.2</ele>
        <time>2022-11-04 14:46:08</time>
      </trkpt>
      <trkpt lat="41.96357" lon="2.9859">
        <ele>88.2</ele>
        <time>2022-11-04 14:46:09</time>
      </trkpt>
      <trkpt lat="41.96341" lon="2.98588">
        <ele>88.4</ele>
        <time>2022-11-04 14:46:15</time>
      </trkpt>
      <trkpt lat="41.96322" lon="2.98583">
        <ele>88.6</ele>
        <time>2022-11-04 14:46:22</time>
      </trkpt>
      <trkpt lat="41.96297" lon="2.98576">
        <ele>88.8</ele>
        <time>2022-11-04 14:46:30</time>
      </trkpt>
      <trkpt lat="41.96264" lon="2.98566">
        <ele>89.4</ele>
        <time>2022-11-04 14:46:39</time>
      </trkpt>
      <trkpt lat="41.96257" lon="2.98563">
        <ele>89.6</ele>
        <time>2022-11-04 14:46:41</time>
      </trkpt>
      <trkpt lat="41.96242" lon="2.98556">
        <ele>90</ele>
        <time>2022-11-04 14:46:46</time>
      </trkpt>
      <trkpt lat="41.96234" lon="2.9855">
        <ele>90.4</ele>
        <time>2022-11-04 14:46:51</time>
      </trkpt>
      <trkpt lat="41.96228" lon="2.98549">
        <ele>90.6</ele>
        <time>2022-11-04 14:46:54</time>
      </trkpt>
      <trkpt lat="41.96222" lon="2.98549">
        <ele>90.6</ele>
        <time>2022-11-04 14:46:57</time>
      </trkpt>
      <trkpt lat="41.96211" lon="2.98552">
        <ele>90.6</ele>
        <time>2022-11-04 14:47:03</time>
      </trkpt>
      <trkpt lat="41.96212" lon="2.98553">
        <ele>90.8</ele>
        <time>2022-11-04 14:47:05</time>
      </trkpt>
      <trkpt lat="41.96214" lon="2.98553">
        <ele>91</ele>
        <time>2022-11-04 14:47:06</time>
      </trkpt>
      <trkpt lat="41.96215" lon="2.98553">
        <ele>91</ele>
        <time>2022-11-04 14:47:07</time>
      </trkpt>
      <trkpt lat="41.96224" lon="2.98551">
        <ele>90.6</ele>
        <time>2022-11-04 14:47:11</time>
      </trkpt>
      <trkpt lat="41.96234" lon="2.98541">
        <ele>90.6</ele>
        <time>2022-11-04 14:47:16</time>
      </trkpt>
      <trkpt lat="41.96233" lon="2.98538">
        <ele>90.6</ele>
        <time>2022-11-04 14:47:17</time>
      </trkpt>
      <trkpt lat="41.96231" lon="2.98534">
        <ele>91.2</ele>
        <time>2022-11-04 14:47:19</time>
      </trkpt>
      <trkpt lat="41.96228" lon="2.98531">
        <ele>91.6</ele>
        <time>2022-11-04 14:47:21</time>
      </trkpt>
      <trkpt lat="41.96222" lon="2.98525">
        <ele>92.6</ele>
        <time>2022-11-04 14:47:25</time>
      </trkpt>
      <trkpt lat="41.9622" lon="2.98524">
        <ele>92.8</ele>
        <time>2022-11-04 14:47:26</time>
      </trkpt>
      <trkpt lat="41.96219" lon="2.98523">
        <ele>93</ele>
        <time>2022-11-04 14:47:27</time>
      </trkpt>
      <trkpt lat="41.96213" lon="2.9852">
        <ele>93.8</ele>
        <time>2022-11-04 14:47:30</time>
      </trkpt>
      <trkpt lat="41.96205" lon="2.98516">
        <ele>94.8</ele>
        <time>2022-11-04 14:47:34</time>
      </trkpt>
      <trkpt lat="41.96203" lon="2.98516">
        <ele>94.8</ele>
        <time>2022-11-04 14:47:35</time>
      </trkpt>
      <trkpt lat="41.9619" lon="2.98507">
        <ele>95.8</ele>
        <time>2022-11-04 14:47:41</time>
      </trkpt>
      <trkpt lat="41.96188" lon="2.98506">
        <ele>96</ele>
        <time>2022-11-04 14:47:42</time>
      </trkpt>
      <trkpt lat="41.96175" lon="2.98496">
        <ele>97.2</ele>
        <time>2022-11-04 14:47:48</time>
      </trkpt>
      <trkpt lat="41.96162" lon="2.98486">
        <ele>98.2</ele>
        <time>2022-11-04 14:47:54</time>
      </trkpt>
      <trkpt lat="41.96157" lon="2.98484">
        <ele>98.6</ele>
        <time>2022-11-04 14:47:56</time>
      </trkpt>
      <trkpt lat="41.96148" lon="2.98478">
        <ele>99.4</ele>
        <time>2022-11-04 14:48:00</time>
      </trkpt>
      <trkpt lat="41.96142" lon="2.98474">
        <ele>100</ele>
        <time>2022-11-04 14:48:03</time>
      </trkpt>
      <trkpt lat="41.96135" lon="2.9847">
        <ele>100.4</ele>
        <time>2022-11-04 14:48:06</time>
      </trkpt>
      <trkpt lat="41.96129" lon="2.98466">
        <ele>100.8</ele>
        <time>2022-11-04 14:48:09</time>
      </trkpt>
      <trkpt lat="41.96119" lon="2.98454">
        <ele>101.4</ele>
        <time>2022-11-04 14:48:15</time>
      </trkpt>
      <trkpt lat="41.96115" lon="2.98449">
        <ele>101.6</ele>
        <time>2022-11-04 14:48:17</time>
      </trkpt>
      <trkpt lat="41.96103" lon="2.9843">
        <ele>102.4</ele>
        <time>2022-11-04 14:48:25</time>
      </trkpt>
      <trkpt lat="41.96102" lon="2.98427">
        <ele>102.6</ele>
        <time>2022-11-04 14:48:26</time>
      </trkpt>
      <trkpt lat="41.96091" lon="2.98412">
        <ele>103.4</ele>
        <time>2022-11-04 14:48:32</time>
      </trkpt>
      <trkpt lat="41.9609" lon="2.9841">
        <ele>103.6</ele>
        <time>2022-11-04 14:48:33</time>
      </trkpt>
      <trkpt lat="41.9608" lon="2.98391">
        <ele>104.6</ele>
        <time>2022-11-04 14:48:40</time>
      </trkpt>
      <trkpt lat="41.96073" lon="2.98377">
        <ele>105.8</ele>
        <time>2022-11-04 14:48:46</time>
      </trkpt>
      <trkpt lat="41.96071" lon="2.98375">
        <ele>105.8</ele>
        <time>2022-11-04 14:48:47</time>
      </trkpt>
      <trkpt lat="41.96062" lon="2.98361">
        <ele>106.8</ele>
        <time>2022-11-04 14:48:53</time>
      </trkpt>
      <trkpt lat="41.9606" lon="2.98358">
        <ele>106.8</ele>
        <time>2022-11-04 14:48:54</time>
      </trkpt>
      <trkpt lat="41.9605" lon="2.98347">
        <ele>107.8</ele>
        <time>2022-11-04 14:49:00</time>
      </trkpt>
      <trkpt lat="41.96045" lon="2.98342">
        <ele>108.2</ele>
        <time>2022-11-04 14:49:03</time>
      </trkpt>
      <trkpt lat="41.96038" lon="2.98337">
        <ele>108.8</ele>
        <time>2022-11-04 14:49:07</time>
      </trkpt>
      <trkpt lat="41.96036" lon="2.98336">
        <ele>109</ele>
        <time>2022-11-04 14:49:08</time>
      </trkpt>
      <trkpt lat="41.96026" lon="2.98326">
        <ele>109.8</ele>
        <time>2022-11-04 14:49:14</time>
      </trkpt>
      <trkpt lat="41.96019" lon="2.98319">
        <ele>110</ele>
        <time>2022-11-04 14:49:18</time>
      </trkpt>
      <trkpt lat="41.96016" lon="2.98315">
        <ele>110.2</ele>
        <time>2022-11-04 14:49:20</time>
      </trkpt>
      <trkpt lat="41.96003" lon="2.98305">
        <ele>110.8</ele>
        <time>2022-11-04 14:49:27</time>
      </trkpt>
      <trkpt lat="41.95993" lon="2.98303">
        <ele>111</ele>
        <time>2022-11-04 14:49:31</time>
      </trkpt>
      <trkpt lat="41.95985" lon="2.98301">
        <ele>111</ele>
        <time>2022-11-04 14:49:34</time>
      </trkpt>
      <trkpt lat="41.9596" lon="2.98292">
        <ele>111.6</ele>
        <time>2022-11-04 14:49:43</time>
      </trkpt>
      <trkpt lat="41.95948" lon="2.98289">
        <ele>112</ele>
        <time>2022-11-04 14:49:47</time>
      </trkpt>
      <trkpt lat="41.95943" lon="2.98288">
        <ele>112.2</ele>
        <time>2022-11-04 14:49:49</time>
      </trkpt>
      <trkpt lat="41.95927" lon="2.98278">
        <ele>112.6</ele>
        <time>2022-11-04 14:49:55</time>
      </trkpt>
      <trkpt lat="41.95908" lon="2.98267">
        <ele>113</ele>
        <time>2022-11-04 14:50:02</time>
      </trkpt>
      <trkpt lat="41.95905" lon="2.98266">
        <ele>113</ele>
        <time>2022-11-04 14:50:03</time>
      </trkpt>
      <trkpt lat="41.9588" lon="2.98254">
        <ele>114</ele>
        <time>2022-11-04 14:50:12</time>
      </trkpt>
      <trkpt lat="41.95855" lon="2.98246">
        <ele>114.2</ele>
        <time>2022-11-04 14:50:20</time>
      </trkpt>
      <trkpt lat="41.9583" lon="2.98241">
        <ele>113.8</ele>
        <time>2022-11-04 14:50:27</time>
      </trkpt>
      <trkpt lat="41.95799" lon="2.98239">
        <ele>113</ele>
        <time>2022-11-04 14:50:34</time>
      </trkpt>
      <trkpt lat="41.95794" lon="2.98239">
        <ele>113</ele>
        <time>2022-11-04 14:50:35</time>
      </trkpt>
      <trkpt lat="41.95775" lon="2.98237">
        <ele>112.8</ele>
        <time>2022-11-04 14:50:39</time>
      </trkpt>
      <trkpt lat="41.95758" lon="2.98232">
        <ele>112.8</ele>
        <time>2022-11-04 14:50:43</time>
      </trkpt>
      <trkpt lat="41.95733" lon="2.98221">
        <ele>113.2</ele>
        <time>2022-11-04 14:50:50</time>
      </trkpt>
      <trkpt lat="41.95713" lon="2.98213">
        <ele>113.8</ele>
        <time>2022-11-04 14:50:57</time>
      </trkpt>
      <trkpt lat="41.95709" lon="2.98212">
        <ele>114</ele>
        <time>2022-11-04 14:50:59</time>
      </trkpt>
      <trkpt lat="41.95699" lon="2.98208">
        <ele>114.6</ele>
        <time>2022-11-04 14:51:03</time>
      </trkpt>
      <trkpt lat="41.95682" lon="2.98203">
        <ele>115.2</ele>
        <time>2022-11-04 14:51:09</time>
      </trkpt>
      <trkpt lat="41.95673" lon="2.98201">
        <ele>115.6</ele>
        <time>2022-11-04 14:51:12</time>
      </trkpt>
      <trkpt lat="41.95656" lon="2.98194">
        <ele>116.2</ele>
        <time>2022-11-04 14:51:18</time>
      </trkpt>
      <trkpt lat="41.95653" lon="2.98193">
        <ele>116.4</ele>
        <time>2022-11-04 14:51:19</time>
      </trkpt>
      <trkpt lat="41.95635" lon="2.98184">
        <ele>117.2</ele>
        <time>2022-11-04 14:51:26</time>
      </trkpt>
      <trkpt lat="41.95632" lon="2.98182">
        <ele>117.2</ele>
        <time>2022-11-04 14:51:27</time>
      </trkpt>
      <trkpt lat="41.95625" lon="2.98167">
        <ele>118.2</ele>
        <time>2022-11-04 14:51:32</time>
      </trkpt>
      <trkpt lat="41.95623" lon="2.9816">
        <ele>118.4</ele>
        <time>2022-11-04 14:51:34</time>
      </trkpt>
      <trkpt lat="41.95615" lon="2.98145">
        <ele>118.8</ele>
        <time>2022-11-04 14:51:39</time>
      </trkpt>
      <trkpt lat="41.95602" lon="2.98133">
        <ele>119.4</ele>
        <time>2022-11-04 14:51:45</time>
      </trkpt>
      <trkpt lat="41.95597" lon="2.98129">
        <ele>119.8</ele>
        <time>2022-11-04 14:51:47</time>
      </trkpt>
      <trkpt lat="41.9558" lon="2.98117">
        <ele>120.6</ele>
        <time>2022-11-04 14:51:54</time>
      </trkpt>
      <trkpt lat="41.95577" lon="2.98115">
        <ele>120.6</ele>
        <time>2022-11-04 14:51:55</time>
      </trkpt>
      <trkpt lat="41.95563" lon="2.98108">
        <ele>121</ele>
        <time>2022-11-04 14:52:02</time>
      </trkpt>
      <trkpt lat="41.95561" lon="2.98108">
        <ele>120.8</ele>
        <time>2022-11-04 14:52:03</time>
      </trkpt>
      <trkpt lat="41.95555" lon="2.98104">
        <ele>120.4</ele>
        <time>2022-11-04 14:52:07</time>
      </trkpt>
      <trkpt lat="41.95555" lon="2.98103">
        <ele>120.6</ele>
        <time>2022-11-04 14:52:08</time>
      </trkpt>
      <trkpt lat="41.95555" lon="2.98103">
        <ele>120.6</ele>
        <time>2022-11-04 14:52:13</time>
      </trkpt>
      <trkpt lat="41.95555" lon="2.98103">
        <ele>120.4</ele>
        <time>2022-11-04 14:52:28</time>
      </trkpt>
      <trkpt lat="41.95555" lon="2.98103">
        <ele>120.6</ele>
        <time>2022-11-04 14:52:48</time>
      </trkpt>
      <trkpt lat="41.95555" lon="2.98103">
        <ele>120.6</ele>
        <time>2022-11-04 14:53:00</time>
      </trkpt>
      <trkpt lat="41.95554" lon="2.981">
        <ele>120.8</ele>
        <time>2022-11-04 14:53:12</time>
      </trkpt>
      <trkpt lat="41.9555" lon="2.9808">
        <ele>121</ele>
        <time>2022-11-04 14:53:17</time>
      </trkpt>
      <trkpt lat="41.95544" lon="2.9805">
        <ele>121.6</ele>
        <time>2022-11-04 14:53:23</time>
      </trkpt>
      <trkpt lat="41.95537" lon="2.98009">
        <ele>121.6</ele>
        <time>2022-11-04 14:53:31</time>
      </trkpt>
      <trkpt lat="41.95529" lon="2.9796">
        <ele>121.2</ele>
        <time>2022-11-04 14:53:40</time>
      </trkpt>
      <trkpt lat="41.95522" lon="2.97919">
        <ele>120.8</ele>
        <time>2022-11-04 14:53:48</time>
      </trkpt>
      <trkpt lat="41.95517" lon="2.97887">
        <ele>120.6</ele>
        <time>2022-11-04 14:53:55</time>
      </trkpt>
      <trkpt lat="41.95512" lon="2.97853">
        <ele>120.6</ele>
        <time>2022-11-04 14:54:02</time>
      </trkpt>
      <trkpt lat="41.95508" lon="2.9783">
        <ele>120.4</ele>
        <time>2022-11-04 14:54:07</time>
      </trkpt>
      <trkpt lat="41.95508" lon="2.97824">
        <ele>120.4</ele>
        <time>2022-11-04 14:54:08</time>
      </trkpt>
      <trkpt lat="41.95499" lon="2.97789">
        <ele>120.2</ele>
        <time>2022-11-04 14:54:15</time>
      </trkpt>
      <trkpt lat="41.95496" lon="2.97785">
        <ele>120</ele>
        <time>2022-11-04 14:54:16</time>
      </trkpt>
      <trkpt lat="41.95486" lon="2.97775">
        <ele>119.8</ele>
        <time>2022-11-04 14:54:19</time>
      </trkpt>
      <trkpt lat="41.95482" lon="2.97773">
        <ele>119.6</ele>
        <time>2022-11-04 14:54:20</time>
      </trkpt>
      <trkpt lat="41.95473" lon="2.9777">
        <ele>119.4</ele>
        <time>2022-11-04 14:54:22</time>
      </trkpt>
      <trkpt lat="41.95469" lon="2.9777">
        <ele>119.2</ele>
        <time>2022-11-04 14:54:23</time>
      </trkpt>
      <trkpt lat="41.95454" lon="2.9777">
        <ele>118.4</ele>
        <time>2022-11-04 14:54:26</time>
      </trkpt>
      <trkpt lat="41.95448" lon="2.97769">
        <ele>118.2</ele>
        <time>2022-11-04 14:54:27</time>
      </trkpt>
      <trkpt lat="41.95442" lon="2.97769">
        <ele>118.2</ele>
        <time>2022-11-04 14:54:28</time>
      </trkpt>
      <trkpt lat="41.95422" lon="2.97769">
        <ele>117.2</ele>
        <time>2022-11-04 14:54:31</time>
      </trkpt>
      <trkpt lat="41.95401" lon="2.97768">
        <ele>116.2</ele>
        <time>2022-11-04 14:54:34</time>
      </trkpt>
      <trkpt lat="41.95371" lon="2.97763">
        <ele>115</ele>
        <time>2022-11-04 14:54:38</time>
      </trkpt>
      <trkpt lat="41.95364" lon="2.97759">
        <ele>114.6</ele>
        <time>2022-11-04 14:54:39</time>
      </trkpt>
      <trkpt lat="41.95358" lon="2.97752">
        <ele>114.4</ele>
        <time>2022-11-04 14:54:40</time>
      </trkpt>
      <trkpt lat="41.95347" lon="2.97737">
        <ele>113.6</ele>
        <time>2022-11-04 14:54:42</time>
      </trkpt>
      <trkpt lat="41.9533" lon="2.97715">
        <ele>112.4</ele>
        <time>2022-11-04 14:54:45</time>
      </trkpt>
      <trkpt lat="41.95314" lon="2.97692">
        <ele>111.2</ele>
        <time>2022-11-04 14:54:48</time>
      </trkpt>
      <trkpt lat="41.95297" lon="2.97669">
        <ele>110.2</ele>
        <time>2022-11-04 14:54:51</time>
      </trkpt>
      <trkpt lat="41.95283" lon="2.97656">
        <ele>109.4</ele>
        <time>2022-11-04 14:54:53</time>
      </trkpt>
      <trkpt lat="41.95276" lon="2.97652">
        <ele>109</ele>
        <time>2022-11-04 14:54:54</time>
      </trkpt>
      <trkpt lat="41.9526" lon="2.97646">
        <ele>107.8</ele>
        <time>2022-11-04 14:54:56</time>
      </trkpt>
      <trkpt lat="41.95252" lon="2.97643">
        <ele>107.4</ele>
        <time>2022-11-04 14:54:57</time>
      </trkpt>
      <trkpt lat="41.95244" lon="2.97642">
        <ele>107</ele>
        <time>2022-11-04 14:54:58</time>
      </trkpt>
      <trkpt lat="41.95236" lon="2.9764">
        <ele>106.6</ele>
        <time>2022-11-04 14:54:59</time>
      </trkpt>
      <trkpt lat="41.9521" lon="2.97636">
        <ele>105.4</ele>
        <time>2022-11-04 14:55:02</time>
      </trkpt>
      <trkpt lat="41.95201" lon="2.97635">
        <ele>105</ele>
        <time>2022-11-04 14:55:03</time>
      </trkpt>
      <trkpt lat="41.95193" lon="2.97633">
        <ele>104.4</ele>
        <time>2022-11-04 14:55:04</time>
      </trkpt>
      <trkpt lat="41.95167" lon="2.97628">
        <ele>103.2</ele>
        <time>2022-11-04 14:55:07</time>
      </trkpt>
      <trkpt lat="41.9515" lon="2.97625">
        <ele>102.4</ele>
        <time>2022-11-04 14:55:09</time>
      </trkpt>
      <trkpt lat="41.95142" lon="2.97623">
        <ele>102</ele>
        <time>2022-11-04 14:55:10</time>
      </trkpt>
      <trkpt lat="41.95117" lon="2.97618">
        <ele>100.8</ele>
        <time>2022-11-04 14:55:13</time>
      </trkpt>
      <trkpt lat="41.95092" lon="2.97613">
        <ele>99.8</ele>
        <time>2022-11-04 14:55:16</time>
      </trkpt>
      <trkpt lat="41.95067" lon="2.97605">
        <ele>98.4</ele>
        <time>2022-11-04 14:55:19</time>
      </trkpt>
      <trkpt lat="41.9505" lon="2.97599">
        <ele>97.4</ele>
        <time>2022-11-04 14:55:21</time>
      </trkpt>
      <trkpt lat="41.95025" lon="2.97588">
        <ele>96.2</ele>
        <time>2022-11-04 14:55:24</time>
      </trkpt>
      <trkpt lat="41.95008" lon="2.97581">
        <ele>95.6</ele>
        <time>2022-11-04 14:55:26</time>
      </trkpt>
      <trkpt lat="41.94991" lon="2.97574">
        <ele>94.8</ele>
        <time>2022-11-04 14:55:28</time>
      </trkpt>
      <trkpt lat="41.94966" lon="2.97564">
        <ele>93.2</ele>
        <time>2022-11-04 14:55:31</time>
      </trkpt>
      <trkpt lat="41.94941" lon="2.97554">
        <ele>92.2</ele>
        <time>2022-11-04 14:55:34</time>
      </trkpt>
      <trkpt lat="41.94933" lon="2.9755">
        <ele>91.8</ele>
        <time>2022-11-04 14:55:35</time>
      </trkpt>
      <trkpt lat="41.94915" lon="2.97544">
        <ele>90.8</ele>
        <time>2022-11-04 14:55:37</time>
      </trkpt>
      <trkpt lat="41.9489" lon="2.97534">
        <ele>89.6</ele>
        <time>2022-11-04 14:55:40</time>
      </trkpt>
      <trkpt lat="41.94864" lon="2.97525">
        <ele>88.6</ele>
        <time>2022-11-04 14:55:43</time>
      </trkpt>
      <trkpt lat="41.94856" lon="2.97522">
        <ele>87.8</ele>
        <time>2022-11-04 14:55:44</time>
      </trkpt>
      <trkpt lat="41.94847" lon="2.97519">
        <ele>87.4</ele>
        <time>2022-11-04 14:55:45</time>
      </trkpt>
      <trkpt lat="41.94831" lon="2.97508">
        <ele>86.6</ele>
        <time>2022-11-04 14:55:47</time>
      </trkpt>
      <trkpt lat="41.94825" lon="2.975">
        <ele>86</ele>
        <time>2022-11-04 14:55:48</time>
      </trkpt>
      <trkpt lat="41.94821" lon="2.97489">
        <ele>85.6</ele>
        <time>2022-11-04 14:55:49</time>
      </trkpt>
      <trkpt lat="41.94819" lon="2.97477">
        <ele>85.2</ele>
        <time>2022-11-04 14:55:50</time>
      </trkpt>
      <trkpt lat="41.94821" lon="2.97441">
        <ele>84.2</ele>
        <time>2022-11-04 14:55:53</time>
      </trkpt>
      <trkpt lat="41.94827" lon="2.97376">
        <ele>83.2</ele>
        <time>2022-11-04 14:55:59</time>
      </trkpt>
      <trkpt lat="41.94827" lon="2.97366">
        <ele>83.2</ele>
        <time>2022-11-04 14:56:00</time>
      </trkpt>
      <trkpt lat="41.94828" lon="2.97312">
        <ele>83</ele>
        <time>2022-11-04 14:56:06</time>
      </trkpt>
      <trkpt lat="41.9482" lon="2.97273">
        <ele>83</ele>
        <time>2022-11-04 14:56:11</time>
      </trkpt>
      <trkpt lat="41.94807" lon="2.97228">
        <ele>82.6</ele>
        <time>2022-11-04 14:56:18</time>
      </trkpt>
      <trkpt lat="41.94798" lon="2.97203">
        <ele>82.6</ele>
        <time>2022-11-04 14:56:23</time>
      </trkpt>
      <trkpt lat="41.94797" lon="2.97198">
        <ele>82.6</ele>
        <time>2022-11-04 14:56:24</time>
      </trkpt>
      <trkpt lat="41.94787" lon="2.9716">
        <ele>82.6</ele>
        <time>2022-11-04 14:56:31</time>
      </trkpt>
      <trkpt lat="41.94783" lon="2.97149">
        <ele>82.6</ele>
        <time>2022-11-04 14:56:33</time>
      </trkpt>
      <trkpt lat="41.94778" lon="2.97131">
        <ele>82.8</ele>
        <time>2022-11-04 14:56:36</time>
      </trkpt>
      <trkpt lat="41.94765" lon="2.97084">
        <ele>82.6</ele>
        <time>2022-11-04 14:56:44</time>
      </trkpt>
      <trkpt lat="41.94754" lon="2.97044">
        <ele>83</ele>
        <time>2022-11-04 14:56:51</time>
      </trkpt>
      <trkpt lat="41.94741" lon="2.97">
        <ele>83.4</ele>
        <time>2022-11-04 14:56:59</time>
      </trkpt>
      <trkpt lat="41.94729" lon="2.96959">
        <ele>83.4</ele>
        <time>2022-11-04 14:57:07</time>
      </trkpt>
      <trkpt lat="41.94719" lon="2.96932">
        <ele>83.4</ele>
        <time>2022-11-04 14:57:12</time>
      </trkpt>
      <trkpt lat="41.94714" lon="2.96923">
        <ele>83.6</ele>
        <time>2022-11-04 14:57:14</time>
      </trkpt>
      <trkpt lat="41.94704" lon="2.96912">
        <ele>83.4</ele>
        <time>2022-11-04 14:57:17</time>
      </trkpt>
      <trkpt lat="41.94691" lon="2.96902">
        <ele>83.4</ele>
        <time>2022-11-04 14:57:20</time>
      </trkpt>
      <trkpt lat="41.94659" lon="2.96881">
        <ele>83.4</ele>
        <time>2022-11-04 14:57:28</time>
      </trkpt>
      <trkpt lat="41.94615" lon="2.96852">
        <ele>83.6</ele>
        <time>2022-11-04 14:57:39</time>
      </trkpt>
      <trkpt lat="41.94579" lon="2.96828">
        <ele>83.6</ele>
        <time>2022-11-04 14:57:48</time>
      </trkpt>
      <trkpt lat="41.94542" lon="2.96804">
        <ele>84</ele>
        <time>2022-11-04 14:57:57</time>
      </trkpt>
      <trkpt lat="41.94504" lon="2.96779">
        <ele>84</ele>
        <time>2022-11-04 14:58:06</time>
      </trkpt>
      <trkpt lat="41.94491" lon="2.9677">
        <ele>84.2</ele>
        <time>2022-11-04 14:58:09</time>
      </trkpt>
      <trkpt lat="41.94467" lon="2.96756">
        <ele>84.4</ele>
        <time>2022-11-04 14:58:15</time>
      </trkpt>
      <trkpt lat="41.94443" lon="2.9674">
        <ele>84.6</ele>
        <time>2022-11-04 14:58:21</time>
      </trkpt>
      <trkpt lat="41.9444" lon="2.96738">
        <ele>84.8</ele>
        <time>2022-11-04 14:58:22</time>
      </trkpt>
      <trkpt lat="41.94419" lon="2.96723">
        <ele>85.2</ele>
        <time>2022-11-04 14:58:28</time>
      </trkpt>
      <trkpt lat="41.94412" lon="2.96718">
        <ele>85.4</ele>
        <time>2022-11-04 14:58:30</time>
      </trkpt>
      <trkpt lat="41.94388" lon="2.96702">
        <ele>85.8</ele>
        <time>2022-11-04 14:58:37</time>
      </trkpt>
      <trkpt lat="41.94374" lon="2.96693">
        <ele>86.2</ele>
        <time>2022-11-04 14:58:41</time>
      </trkpt>
      <trkpt lat="41.94363" lon="2.96686">
        <ele>86.4</ele>
        <time>2022-11-04 14:58:44</time>
      </trkpt>
      <trkpt lat="41.9436" lon="2.96684">
        <ele>86.4</ele>
        <time>2022-11-04 14:58:45</time>
      </trkpt>
      <trkpt lat="41.94331" lon="2.96666">
        <ele>87.2</ele>
        <time>2022-11-04 14:58:54</time>
      </trkpt>
      <trkpt lat="41.94327" lon="2.96664">
        <ele>87.4</ele>
        <time>2022-11-04 14:58:55</time>
      </trkpt>
      <trkpt lat="41.94312" lon="2.9666">
        <ele>88</ele>
        <time>2022-11-04 14:59:00</time>
      </trkpt>
      <trkpt lat="41.94293" lon="2.96662">
        <ele>88.4</ele>
        <time>2022-11-04 14:59:06</time>
      </trkpt>
      <trkpt lat="41.94289" lon="2.96663">
        <ele>88.4</ele>
        <time>2022-11-04 14:59:07</time>
      </trkpt>
      <trkpt lat="41.94271" lon="2.96668">
        <ele>88.8</ele>
        <time>2022-11-04 14:59:13</time>
      </trkpt>
      <trkpt lat="41.94239" lon="2.96679">
        <ele>89.6</ele>
        <time>2022-11-04 14:59:22</time>
      </trkpt>
      <trkpt lat="41.94236" lon="2.9668">
        <ele>89.6</ele>
        <time>2022-11-04 14:59:23</time>
      </trkpt>
      <trkpt lat="41.94221" lon="2.96685">
        <ele>90</ele>
        <time>2022-11-04 14:59:28</time>
      </trkpt>
      <trkpt lat="41.94198" lon="2.96695">
        <ele>90.4</ele>
        <time>2022-11-04 14:59:35</time>
      </trkpt>
      <trkpt lat="41.94196" lon="2.96697">
        <ele>90.6</ele>
        <time>2022-11-04 14:59:36</time>
      </trkpt>
      <trkpt lat="41.94175" lon="2.96714">
        <ele>91</ele>
        <time>2022-11-04 14:59:43</time>
      </trkpt>
      <trkpt lat="41.94154" lon="2.96725">
        <ele>91.6</ele>
        <time>2022-11-04 14:59:50</time>
      </trkpt>
      <trkpt lat="41.9415" lon="2.96726">
        <ele>91.6</ele>
        <time>2022-11-04 14:59:51</time>
      </trkpt>
      <trkpt lat="41.94126" lon="2.96732">
        <ele>92.2</ele>
        <time>2022-11-04 14:59:58</time>
      </trkpt>
      <trkpt lat="41.94099" lon="2.96737">
        <ele>92.8</ele>
        <time>2022-11-04 15:00:06</time>
      </trkpt>
      <trkpt lat="41.94074" lon="2.96734">
        <ele>93.2</ele>
        <time>2022-11-04 15:00:14</time>
      </trkpt>
      <trkpt lat="41.94053" lon="2.9673">
        <ele>93.8</ele>
        <time>2022-11-04 15:00:20</time>
      </trkpt>
      <trkpt lat="41.9405" lon="2.9673">
        <ele>93.8</ele>
        <time>2022-11-04 15:00:21</time>
      </trkpt>
      <trkpt lat="41.94019" lon="2.96726">
        <ele>94.4</ele>
        <time>2022-11-04 15:00:30</time>
      </trkpt>
      <trkpt lat="41.94006" lon="2.96722">
        <ele>94.6</ele>
        <time>2022-11-04 15:00:35</time>
      </trkpt>
      <trkpt lat="41.93992" lon="2.96719">
        <ele>94.8</ele>
        <time>2022-11-04 15:00:40</time>
      </trkpt>
      <trkpt lat="41.93986" lon="2.96718">
        <ele>94.8</ele>
        <time>2022-11-04 15:00:42</time>
      </trkpt>
      <trkpt lat="41.93975" lon="2.96705">
        <ele>95</ele>
        <time>2022-11-04 15:00:47</time>
      </trkpt>
      <trkpt lat="41.93971" lon="2.96685">
        <ele>95.2</ele>
        <time>2022-11-04 15:00:52</time>
      </trkpt>
      <trkpt lat="41.93974" lon="2.96654">
        <ele>95.8</ele>
        <time>2022-11-04 15:01:00</time>
      </trkpt>
      <trkpt lat="41.93975" lon="2.96643">
        <ele>95.8</ele>
        <time>2022-11-04 15:01:03</time>
      </trkpt>
      <trkpt lat="41.93977" lon="2.96627">
        <ele>96</ele>
        <time>2022-11-04 15:01:07</time>
      </trkpt>
      <trkpt lat="41.93982" lon="2.96602">
        <ele>96.4</ele>
        <time>2022-11-04 15:01:14</time>
      </trkpt>
      <trkpt lat="41.9399" lon="2.96577">
        <ele>97</ele>
        <time>2022-11-04 15:01:21</time>
      </trkpt>
      <trkpt lat="41.9399" lon="2.96573">
        <ele>97</ele>
        <time>2022-11-04 15:01:22</time>
      </trkpt>
      <trkpt lat="41.93991" lon="2.96545">
        <ele>97.2</ele>
        <time>2022-11-04 15:01:29</time>
      </trkpt>
      <trkpt lat="41.9399" lon="2.96511">
        <ele>97.6</ele>
        <time>2022-11-04 15:01:37</time>
      </trkpt>
      <trkpt lat="41.93986" lon="2.96487">
        <ele>97.8</ele>
        <time>2022-11-04 15:01:43</time>
      </trkpt>
      <trkpt lat="41.93985" lon="2.96483">
        <ele>98</ele>
        <time>2022-11-04 15:01:44</time>
      </trkpt>
      <trkpt lat="41.93978" lon="2.96474">
        <ele>98</ele>
        <time>2022-11-04 15:01:48</time>
      </trkpt>
      <trkpt lat="41.93964" lon="2.96453">
        <ele>98.6</ele>
        <time>2022-11-04 15:01:55</time>
      </trkpt>
      <trkpt lat="41.93945" lon="2.96428">
        <ele>98.8</ele>
        <time>2022-11-04 15:02:04</time>
      </trkpt>
      <trkpt lat="41.93943" lon="2.96425">
        <ele>99</ele>
        <time>2022-11-04 15:02:05</time>
      </trkpt>
      <trkpt lat="41.93934" lon="2.9641">
        <ele>99.2</ele>
        <time>2022-11-04 15:02:10</time>
      </trkpt>
      <trkpt lat="41.9392" lon="2.96388">
        <ele>99.4</ele>
        <time>2022-11-04 15:02:17</time>
      </trkpt>
      <trkpt lat="41.93914" lon="2.96363">
        <ele>99.8</ele>
        <time>2022-11-04 15:02:23</time>
      </trkpt>
      <trkpt lat="41.93913" lon="2.9635">
        <ele>100</ele>
        <time>2022-11-04 15:02:26</time>
      </trkpt>
      <trkpt lat="41.93914" lon="2.96333">
        <ele>100</ele>
        <time>2022-11-04 15:02:30</time>
      </trkpt>
      <trkpt lat="41.93915" lon="2.96309">
        <ele>100.4</ele>
        <time>2022-11-04 15:02:36</time>
      </trkpt>
      <trkpt lat="41.93927" lon="2.96286">
        <ele>100.8</ele>
        <time>2022-11-04 15:02:43</time>
      </trkpt>
      <trkpt lat="41.93933" lon="2.96276">
        <ele>101</ele>
        <time>2022-11-04 15:02:46</time>
      </trkpt>
      <trkpt lat="41.9394" lon="2.96257">
        <ele>101.2</ele>
        <time>2022-11-04 15:02:51</time>
      </trkpt>
      <trkpt lat="41.93942" lon="2.96231">
        <ele>101.6</ele>
        <time>2022-11-04 15:02:57</time>
      </trkpt>
      <trkpt lat="41.93944" lon="2.9621">
        <ele>102</ele>
        <time>2022-11-04 15:03:02</time>
      </trkpt>
      <trkpt lat="41.93948" lon="2.96199">
        <ele>102.2</ele>
        <time>2022-11-04 15:03:05</time>
      </trkpt>
      <trkpt lat="41.93949" lon="2.96182">
        <ele>102.4</ele>
        <time>2022-11-04 15:03:09</time>
      </trkpt>
      <trkpt lat="41.93937" lon="2.96154">
        <ele>102.8</ele>
        <time>2022-11-04 15:03:16</time>
      </trkpt>
      <trkpt lat="41.93933" lon="2.96147">
        <ele>103</ele>
        <time>2022-11-04 15:03:18</time>
      </trkpt>
      <trkpt lat="41.93922" lon="2.96122">
        <ele>103.4</ele>
        <time>2022-11-04 15:03:24</time>
      </trkpt>
      <trkpt lat="41.93901" lon="2.96078">
        <ele>103.6</ele>
        <time>2022-11-04 15:03:34</time>
      </trkpt>
      <trkpt lat="41.93878" lon="2.96034">
        <ele>103.6</ele>
        <time>2022-11-04 15:03:44</time>
      </trkpt>
      <trkpt lat="41.9387" lon="2.96014">
        <ele>103.6</ele>
        <time>2022-11-04 15:03:48</time>
      </trkpt>
      <trkpt lat="41.93859" lon="2.9599">
        <ele>103.6</ele>
        <time>2022-11-04 15:03:53</time>
      </trkpt>
      <trkpt lat="41.93836" lon="2.95958">
        <ele>103.6</ele>
        <time>2022-11-04 15:04:01</time>
      </trkpt>
      <trkpt lat="41.93818" lon="2.9593">
        <ele>103.6</ele>
        <time>2022-11-04 15:04:08</time>
      </trkpt>
      <trkpt lat="41.93808" lon="2.959">
        <ele>103.8</ele>
        <time>2022-11-04 15:04:14</time>
      </trkpt>
      <trkpt lat="41.93807" lon="2.95895">
        <ele>103.8</ele>
        <time>2022-11-04 15:04:15</time>
      </trkpt>
      <trkpt lat="41.93809" lon="2.9587">
        <ele>103.8</ele>
        <time>2022-11-04 15:04:20</time>
      </trkpt>
      <trkpt lat="41.93811" lon="2.95866">
        <ele>103.8</ele>
        <time>2022-11-04 15:04:21</time>
      </trkpt>
      <trkpt lat="41.93821" lon="2.95842">
        <ele>103.6</ele>
        <time>2022-11-04 15:04:26</time>
      </trkpt>
      <trkpt lat="41.93823" lon="2.95837">
        <ele>103.6</ele>
        <time>2022-11-04 15:04:27</time>
      </trkpt>
      <trkpt lat="41.93834" lon="2.95806">
        <ele>104</ele>
        <time>2022-11-04 15:04:33</time>
      </trkpt>
      <trkpt lat="41.93838" lon="2.95797">
        <ele>104</ele>
        <time>2022-11-04 15:04:35</time>
      </trkpt>
      <trkpt lat="41.93855" lon="2.95782">
        <ele>104.2</ele>
        <time>2022-11-04 15:04:40</time>
      </trkpt>
      <trkpt lat="41.9386" lon="2.9578">
        <ele>104.2</ele>
        <time>2022-11-04 15:04:41</time>
      </trkpt>
      <trkpt lat="41.93891" lon="2.95772">
        <ele>104.4</ele>
        <time>2022-11-04 15:04:48</time>
      </trkpt>
      <trkpt lat="41.9392" lon="2.95761">
        <ele>104.8</ele>
        <time>2022-11-04 15:04:55</time>
      </trkpt>
      <trkpt lat="41.93923" lon="2.95758">
        <ele>104.8</ele>
        <time>2022-11-04 15:04:56</time>
      </trkpt>
      <trkpt lat="41.93926" lon="2.95753">
        <ele>105</ele>
        <time>2022-11-04 15:04:57</time>
      </trkpt>
      <trkpt lat="41.93931" lon="2.95737">
        <ele>105.2</ele>
        <time>2022-11-04 15:05:00</time>
      </trkpt>
      <trkpt lat="41.9393" lon="2.9572">
        <ele>105.4</ele>
        <time>2022-11-04 15:05:03</time>
      </trkpt>
      <trkpt lat="41.93928" lon="2.95714">
        <ele>105.4</ele>
        <time>2022-11-04 15:05:04</time>
      </trkpt>
      <trkpt lat="41.93925" lon="2.95703">
        <ele>105.6</ele>
        <time>2022-11-04 15:05:06</time>
      </trkpt>
      <trkpt lat="41.93915" lon="2.95691">
        <ele>105.4</ele>
        <time>2022-11-04 15:05:09</time>
      </trkpt>
      <trkpt lat="41.93893" lon="2.95684">
        <ele>105.4</ele>
        <time>2022-11-04 15:05:14</time>
      </trkpt>
      <trkpt lat="41.93863" lon="2.95681">
        <ele>105.6</ele>
        <time>2022-11-04 15:05:21</time>
      </trkpt>
      <trkpt lat="41.93838" lon="2.95685">
        <ele>105.8</ele>
        <time>2022-11-04 15:05:27</time>
      </trkpt>
      <trkpt lat="41.93833" lon="2.95687">
        <ele>105.8</ele>
        <time>2022-11-04 15:05:28</time>
      </trkpt>
      <trkpt lat="41.93826" lon="2.95689">
        <ele>105.8</ele>
        <time>2022-11-04 15:05:30</time>
      </trkpt>
      <trkpt lat="41.93814" lon="2.95688">
        <ele>105.8</ele>
        <time>2022-11-04 15:05:33</time>
      </trkpt>
      <trkpt lat="41.9381" lon="2.95686">
        <ele>105.8</ele>
        <time>2022-11-04 15:05:34</time>
      </trkpt>
      <trkpt lat="41.93805" lon="2.95684">
        <ele>106</ele>
        <time>2022-11-04 15:05:35</time>
      </trkpt>
      <trkpt lat="41.9379" lon="2.95671">
        <ele>106</ele>
        <time>2022-11-04 15:05:39</time>
      </trkpt>
      <trkpt lat="41.93769" lon="2.95648">
        <ele>106</ele>
        <time>2022-11-04 15:05:45</time>
      </trkpt>
      <trkpt lat="41.93753" lon="2.95635">
        <ele>105.8</ele>
        <time>2022-11-04 15:05:49</time>
      </trkpt>
      <trkpt lat="41.93749" lon="2.95632">
        <ele>106</ele>
        <time>2022-11-04 15:05:50</time>
      </trkpt>
      <trkpt lat="41.9373" lon="2.95615">
        <ele>106.2</ele>
        <time>2022-11-04 15:05:56</time>
      </trkpt>
      <trkpt lat="41.9372" lon="2.95605">
        <ele>106.4</ele>
        <time>2022-11-04 15:05:59</time>
      </trkpt>
      <trkpt lat="41.9371" lon="2.95595">
        <ele>106.6</ele>
        <time>2022-11-04 15:06:02</time>
      </trkpt>
      <trkpt lat="41.93683" lon="2.9557">
        <ele>107.2</ele>
        <time>2022-11-04 15:06:10</time>
      </trkpt>
      <trkpt lat="41.93665" lon="2.95553">
        <ele>107.6</ele>
        <time>2022-11-04 15:06:17</time>
      </trkpt>
      <trkpt lat="41.9366" lon="2.95546">
        <ele>107.6</ele>
        <time>2022-11-04 15:06:20</time>
      </trkpt>
      <trkpt lat="41.9366" lon="2.95541">
        <ele>107.6</ele>
        <time>2022-11-04 15:06:22</time>
      </trkpt>
      <trkpt lat="41.93668" lon="2.95535">
        <ele>107.8</ele>
        <time>2022-11-04 15:06:27</time>
      </trkpt>
      <trkpt lat="41.93671" lon="2.95534">
        <ele>108.2</ele>
        <time>2022-11-04 15:06:29</time>
      </trkpt>
      <trkpt lat="41.93673" lon="2.95533">
        <ele>108.4</ele>
        <time>2022-11-04 15:06:30</time>
      </trkpt>
      <trkpt lat="41.9368" lon="2.9553">
        <ele>109.4</ele>
        <time>2022-11-04 15:06:34</time>
      </trkpt>
      <trkpt lat="41.93682" lon="2.95531">
        <ele>109.4</ele>
        <time>2022-11-04 15:06:35</time>
      </trkpt>
      <trkpt lat="41.93693" lon="2.95533">
        <ele>110.4</ele>
        <time>2022-11-04 15:06:40</time>
      </trkpt>
      <trkpt lat="41.93697" lon="2.95535">
        <ele>110.6</ele>
        <time>2022-11-04 15:06:42</time>
      </trkpt>
      <trkpt lat="41.93707" lon="2.9554">
        <ele>111.4</ele>
        <time>2022-11-04 15:06:46</time>
      </trkpt>
      <trkpt lat="41.93712" lon="2.95541">
        <ele>111.6</ele>
        <time>2022-11-04 15:06:48</time>
      </trkpt>
      <trkpt lat="41.93717" lon="2.95542">
        <ele>112</ele>
        <time>2022-11-04 15:06:50</time>
      </trkpt>
      <trkpt lat="41.9373" lon="2.95543">
        <ele>112.8</ele>
        <time>2022-11-04 15:06:55</time>
      </trkpt>
      <trkpt lat="41.9374" lon="2.95542">
        <ele>113.6</ele>
        <time>2022-11-04 15:06:59</time>
      </trkpt>
      <trkpt lat="41.93745" lon="2.95543">
        <ele>113.8</ele>
        <time>2022-11-04 15:07:01</time>
      </trkpt>
      <trkpt lat="41.93753" lon="2.95541">
        <ele>114.2</ele>
        <time>2022-11-04 15:07:04</time>
      </trkpt>
      <trkpt lat="41.93754" lon="2.9554">
        <ele>114.4</ele>
        <time>2022-11-04 15:07:05</time>
      </trkpt>
      <trkpt lat="41.93758" lon="2.95539">
        <ele>114.6</ele>
        <time>2022-11-04 15:07:08</time>
      </trkpt>
      <trkpt lat="41.93759" lon="2.95539">
        <ele>114.6</ele>
        <time>2022-11-04 15:07:09</time>
      </trkpt>
      <trkpt lat="41.9376" lon="2.95539">
        <ele>114.8</ele>
        <time>2022-11-04 15:07:10</time>
      </trkpt>
      <trkpt lat="41.93764" lon="2.95535">
        <ele>114.8</ele>
        <time>2022-11-04 15:07:13</time>
      </trkpt>
      <trkpt lat="41.93766" lon="2.95537">
        <ele>114.8</ele>
        <time>2022-11-04 15:07:15</time>
      </trkpt>
      <trkpt lat="41.93769" lon="2.95537">
        <ele>115</ele>
        <time>2022-11-04 15:07:17</time>
      </trkpt>
      <trkpt lat="41.9377" lon="2.95536">
        <ele>115</ele>
        <time>2022-11-04 15:07:19</time>
      </trkpt>
      <trkpt lat="41.93774" lon="2.95534">
        <ele>115.2</ele>
        <time>2022-11-04 15:07:22</time>
      </trkpt>
      <trkpt lat="41.93776" lon="2.95534">
        <ele>115.4</ele>
        <time>2022-11-04 15:07:23</time>
      </trkpt>
      <trkpt lat="41.93783" lon="2.95528">
        <ele>115.4</ele>
        <time>2022-11-04 15:07:27</time>
      </trkpt>
      <trkpt lat="41.93793" lon="2.95518">
        <ele>115.8</ele>
        <time>2022-11-04 15:07:33</time>
      </trkpt>
      <trkpt lat="41.93798" lon="2.95511">
        <ele>115.8</ele>
        <time>2022-11-04 15:07:36</time>
      </trkpt>
      <trkpt lat="41.938" lon="2.95505">
        <ele>116</ele>
        <time>2022-11-04 15:07:38</time>
      </trkpt>
      <trkpt lat="41.93808" lon="2.95492">
        <ele>116.2</ele>
        <time>2022-11-04 15:07:43</time>
      </trkpt>
      <trkpt lat="41.93814" lon="2.95475">
        <ele>116.6</ele>
        <time>2022-11-04 15:07:49</time>
      </trkpt>
      <trkpt lat="41.93818" lon="2.95468">
        <ele>117</ele>
        <time>2022-11-04 15:07:52</time>
      </trkpt>
      <trkpt lat="41.93823" lon="2.9546">
        <ele>117.4</ele>
        <time>2022-11-04 15:07:56</time>
      </trkpt>
      <trkpt lat="41.93826" lon="2.95456">
        <ele>117.8</ele>
        <time>2022-11-04 15:07:58</time>
      </trkpt>
      <trkpt lat="41.93828" lon="2.95451">
        <ele>118</ele>
        <time>2022-11-04 15:08:00</time>
      </trkpt>
      <trkpt lat="41.9383" lon="2.95446">
        <ele>118.2</ele>
        <time>2022-11-04 15:08:02</time>
      </trkpt>
      <trkpt lat="41.93837" lon="2.95433">
        <ele>119</ele>
        <time>2022-11-04 15:08:08</time>
      </trkpt>
      <trkpt lat="41.93838" lon="2.95431">
        <ele>119.2</ele>
        <time>2022-11-04 15:08:09</time>
      </trkpt>
      <trkpt lat="41.93845" lon="2.95417">
        <ele>120</ele>
        <time>2022-11-04 15:08:15</time>
      </trkpt>
      <trkpt lat="41.93848" lon="2.95414">
        <ele>120.4</ele>
        <time>2022-11-04 15:08:17</time>
      </trkpt>
      <trkpt lat="41.93853" lon="2.95406">
        <ele>121</ele>
        <time>2022-11-04 15:08:21</time>
      </trkpt>
      <trkpt lat="41.93856" lon="2.954">
        <ele>121.6</ele>
        <time>2022-11-04 15:08:24</time>
      </trkpt>
      <trkpt lat="41.93856" lon="2.95398">
        <ele>121.6</ele>
        <time>2022-11-04 15:08:25</time>
      </trkpt>
      <trkpt lat="41.93859" lon="2.95393">
        <ele>122</ele>
        <time>2022-11-04 15:08:28</time>
      </trkpt>
      <trkpt lat="41.93859" lon="2.95389">
        <ele>122.2</ele>
        <time>2022-11-04 15:08:30</time>
      </trkpt>
      <trkpt lat="41.93861" lon="2.95384">
        <ele>122.6</ele>
        <time>2022-11-04 15:08:33</time>
      </trkpt>
      <trkpt lat="41.93862" lon="2.95375">
        <ele>123</ele>
        <time>2022-11-04 15:08:37</time>
      </trkpt>
      <trkpt lat="41.93863" lon="2.95371">
        <ele>123.2</ele>
        <time>2022-11-04 15:08:39</time>
      </trkpt>
      <trkpt lat="41.93862" lon="2.95369">
        <ele>123.2</ele>
        <time>2022-11-04 15:08:40</time>
      </trkpt>
      <trkpt lat="41.93861" lon="2.95359">
        <ele>123.6</ele>
        <time>2022-11-04 15:08:44</time>
      </trkpt>
      <trkpt lat="41.93862" lon="2.95353">
        <ele>124</ele>
        <time>2022-11-04 15:08:46</time>
      </trkpt>
      <trkpt lat="41.93863" lon="2.95347">
        <ele>124.4</ele>
        <time>2022-11-04 15:08:49</time>
      </trkpt>
      <trkpt lat="41.93864" lon="2.95339">
        <ele>124.8</ele>
        <time>2022-11-04 15:08:52</time>
      </trkpt>
      <trkpt lat="41.93867" lon="2.95328">
        <ele>125.4</ele>
        <time>2022-11-04 15:08:57</time>
      </trkpt>
      <trkpt lat="41.93869" lon="2.95322">
        <ele>125.8</ele>
        <time>2022-11-04 15:09:00</time>
      </trkpt>
      <trkpt lat="41.93879" lon="2.953">
        <ele>126.4</ele>
        <time>2022-11-04 15:09:09</time>
      </trkpt>
      <trkpt lat="41.93887" lon="2.95285">
        <ele>127</ele>
        <time>2022-11-04 15:09:16</time>
      </trkpt>
      <trkpt lat="41.93889" lon="2.95284">
        <ele>127.2</ele>
        <time>2022-11-04 15:09:17</time>
      </trkpt>
      <trkpt lat="41.93894" lon="2.95281">
        <ele>127.4</ele>
        <time>2022-11-04 15:09:20</time>
      </trkpt>
      <trkpt lat="41.93896" lon="2.95279">
        <ele>127.6</ele>
        <time>2022-11-04 15:09:21</time>
      </trkpt>
      <trkpt lat="41.93898" lon="2.95275">
        <ele>128</ele>
        <time>2022-11-04 15:09:23</time>
      </trkpt>
      <trkpt lat="41.93901" lon="2.95271">
        <ele>128.2</ele>
        <time>2022-11-04 15:09:25</time>
      </trkpt>
      <trkpt lat="41.93902" lon="2.9527">
        <ele>128.2</ele>
        <time>2022-11-04 15:09:26</time>
      </trkpt>
      <trkpt lat="41.93911" lon="2.95265">
        <ele>128.4</ele>
        <time>2022-11-04 15:09:31</time>
      </trkpt>
      <trkpt lat="41.93919" lon="2.95262">
        <ele>128.8</ele>
        <time>2022-11-04 15:09:35</time>
      </trkpt>
      <trkpt lat="41.93927" lon="2.95263">
        <ele>129.2</ele>
        <time>2022-11-04 15:09:40</time>
      </trkpt>
      <trkpt lat="41.93935" lon="2.95269">
        <ele>129.6</ele>
        <time>2022-11-04 15:09:44</time>
      </trkpt>
      <trkpt lat="41.93939" lon="2.95272">
        <ele>129.8</ele>
        <time>2022-11-04 15:09:46</time>
      </trkpt>
      <trkpt lat="41.93945" lon="2.95279">
        <ele>130.6</ele>
        <time>2022-11-04 15:09:50</time>
      </trkpt>
      <trkpt lat="41.93946" lon="2.95283">
        <ele>130.8</ele>
        <time>2022-11-04 15:09:52</time>
      </trkpt>
      <trkpt lat="41.93954" lon="2.95292">
        <ele>131.4</ele>
        <time>2022-11-04 15:09:59</time>
      </trkpt>
      <trkpt lat="41.93955" lon="2.95293">
        <ele>131.6</ele>
        <time>2022-11-04 15:10:00</time>
      </trkpt>
      <trkpt lat="41.93964" lon="2.95302">
        <ele>132.2</ele>
        <time>2022-11-04 15:10:06</time>
      </trkpt>
      <trkpt lat="41.93968" lon="2.95306">
        <ele>132.6</ele>
        <time>2022-11-04 15:10:09</time>
      </trkpt>
      <trkpt lat="41.93974" lon="2.95312">
        <ele>133</ele>
        <time>2022-11-04 15:10:13</time>
      </trkpt>
      <trkpt lat="41.93982" lon="2.95317">
        <ele>133.6</ele>
        <time>2022-11-04 15:10:18</time>
      </trkpt>
      <trkpt lat="41.93985" lon="2.95319">
        <ele>134</ele>
        <time>2022-11-04 15:10:20</time>
      </trkpt>
      <trkpt lat="41.93997" lon="2.95324">
        <ele>134.6</ele>
        <time>2022-11-04 15:10:27</time>
      </trkpt>
      <trkpt lat="41.93999" lon="2.95325">
        <ele>134.6</ele>
        <time>2022-11-04 15:10:28</time>
      </trkpt>
      <trkpt lat="41.94009" lon="2.95328">
        <ele>135</ele>
        <time>2022-11-04 15:10:33</time>
      </trkpt>
      <trkpt lat="41.9402" lon="2.95327">
        <ele>135.4</ele>
        <time>2022-11-04 15:10:39</time>
      </trkpt>
      <trkpt lat="41.94031" lon="2.95332">
        <ele>135.8</ele>
        <time>2022-11-04 15:10:44</time>
      </trkpt>
      <trkpt lat="41.94034" lon="2.95333">
        <ele>135.8</ele>
        <time>2022-11-04 15:10:45</time>
      </trkpt>
      <trkpt lat="41.94036" lon="2.95335">
        <ele>135.8</ele>
        <time>2022-11-04 15:10:46</time>
      </trkpt>
      <trkpt lat="41.94042" lon="2.95347">
        <ele>136.4</ele>
        <time>2022-11-04 15:10:51</time>
      </trkpt>
      <trkpt lat="41.94042" lon="2.9535">
        <ele>136.4</ele>
        <time>2022-11-04 15:10:52</time>
      </trkpt>
      <trkpt lat="41.9404" lon="2.95359">
        <ele>136.6</ele>
        <time>2022-11-04 15:10:55</time>
      </trkpt>
      <trkpt lat="41.94037" lon="2.95363">
        <ele>137</ele>
        <time>2022-11-04 15:10:57</time>
      </trkpt>
      <trkpt lat="41.94026" lon="2.95368">
        <ele>137</ele>
        <time>2022-11-04 15:11:02</time>
      </trkpt>
      <trkpt lat="41.94008" lon="2.95368">
        <ele>137.6</ele>
        <time>2022-11-04 15:11:10</time>
      </trkpt>
      <trkpt lat="41.93991" lon="2.95368">
        <ele>137.8</ele>
        <time>2022-11-04 15:11:17</time>
      </trkpt>
      <trkpt lat="41.93982" lon="2.95371">
        <ele>138</ele>
        <time>2022-11-04 15:11:21</time>
      </trkpt>
      <trkpt lat="41.93975" lon="2.95376">
        <ele>138.2</ele>
        <time>2022-11-04 15:11:24</time>
      </trkpt>
      <trkpt lat="41.93969" lon="2.95394">
        <ele>139</ele>
        <time>2022-11-04 15:11:30</time>
      </trkpt>
      <trkpt lat="41.93973" lon="2.9541">
        <ele>139</ele>
        <time>2022-11-04 15:11:35</time>
      </trkpt>
      <trkpt lat="41.93975" lon="2.95412">
        <ele>139</ele>
        <time>2022-11-04 15:11:36</time>
      </trkpt>
      <trkpt lat="41.93979" lon="2.95424">
        <ele>139</ele>
        <time>2022-11-04 15:11:40</time>
      </trkpt>
      <trkpt lat="41.93981" lon="2.9543">
        <ele>139</ele>
        <time>2022-11-04 15:11:42</time>
      </trkpt>
      <trkpt lat="41.93979" lon="2.95447">
        <ele>139.2</ele>
        <time>2022-11-04 15:11:47</time>
      </trkpt>
      <trkpt lat="41.93972" lon="2.9547">
        <ele>139.8</ele>
        <time>2022-11-04 15:11:54</time>
      </trkpt>
      <trkpt lat="41.93971" lon="2.95493">
        <ele>139.8</ele>
        <time>2022-11-04 15:12:01</time>
      </trkpt>
      <trkpt lat="41.93976" lon="2.95512">
        <ele>140</ele>
        <time>2022-11-04 15:12:07</time>
      </trkpt>
      <trkpt lat="41.93977" lon="2.95519">
        <ele>140</ele>
        <time>2022-11-04 15:12:09</time>
      </trkpt>
      <trkpt lat="41.93985" lon="2.95542">
        <ele>140.4</ele>
        <time>2022-11-04 15:12:16</time>
      </trkpt>
      <trkpt lat="41.94" lon="2.95554">
        <ele>140.6</ele>
        <time>2022-11-04 15:12:22</time>
      </trkpt>
      <trkpt lat="41.94013" lon="2.95552">
        <ele>141</ele>
        <time>2022-11-04 15:12:27</time>
      </trkpt>
      <trkpt lat="41.94024" lon="2.95543">
        <ele>141</ele>
        <time>2022-11-04 15:12:32</time>
      </trkpt>
      <trkpt lat="41.94029" lon="2.9554">
        <ele>141</ele>
        <time>2022-11-04 15:12:34</time>
      </trkpt>
      <trkpt lat="41.94045" lon="2.95531">
        <ele>141</ele>
        <time>2022-11-04 15:12:41</time>
      </trkpt>
      <trkpt lat="41.94061" lon="2.95522">
        <ele>141.2</ele>
        <time>2022-11-04 15:12:48</time>
      </trkpt>
      <trkpt lat="41.94073" lon="2.95514">
        <ele>141.6</ele>
        <time>2022-11-04 15:12:54</time>
      </trkpt>
      <trkpt lat="41.94086" lon="2.95506">
        <ele>141.6</ele>
        <time>2022-11-04 15:13:00</time>
      </trkpt>
      <trkpt lat="41.94098" lon="2.955">
        <ele>142</ele>
        <time>2022-11-04 15:13:05</time>
      </trkpt>
      <trkpt lat="41.94101" lon="2.95498">
        <ele>142</ele>
        <time>2022-11-04 15:13:06</time>
      </trkpt>
      <trkpt lat="41.94121" lon="2.95487">
        <ele>142.2</ele>
        <time>2022-11-04 15:13:14</time>
      </trkpt>
      <trkpt lat="41.9414" lon="2.95475">
        <ele>142.4</ele>
        <time>2022-11-04 15:13:22</time>
      </trkpt>
      <trkpt lat="41.94153" lon="2.95466">
        <ele>142.6</ele>
        <time>2022-11-04 15:13:28</time>
      </trkpt>
      <trkpt lat="41.94168" lon="2.95457">
        <ele>143</ele>
        <time>2022-11-04 15:13:34</time>
      </trkpt>
      <trkpt lat="41.9418" lon="2.95449">
        <ele>143</ele>
        <time>2022-11-04 15:13:39</time>
      </trkpt>
      <trkpt lat="41.94188" lon="2.95445">
        <ele>143.2</ele>
        <time>2022-11-04 15:13:42</time>
      </trkpt>
      <trkpt lat="41.94207" lon="2.95434">
        <ele>143.4</ele>
        <time>2022-11-04 15:13:49</time>
      </trkpt>
      <trkpt lat="41.94227" lon="2.95422">
        <ele>143.6</ele>
        <time>2022-11-04 15:13:56</time>
      </trkpt>
      <trkpt lat="41.94248" lon="2.95407">
        <ele>143.8</ele>
        <time>2022-11-04 15:14:04</time>
      </trkpt>
      <trkpt lat="41.94258" lon="2.95393">
        <ele>144</ele>
        <time>2022-11-04 15:14:09</time>
      </trkpt>
      <trkpt lat="41.94262" lon="2.95386">
        <ele>144.2</ele>
        <time>2022-11-04 15:14:11</time>
      </trkpt>
      <trkpt lat="41.94273" lon="2.95352">
        <ele>144.8</ele>
        <time>2022-11-04 15:14:20</time>
      </trkpt>
      <trkpt lat="41.94281" lon="2.95335">
        <ele>145.2</ele>
        <time>2022-11-04 15:14:25</time>
      </trkpt>
      <trkpt lat="41.94284" lon="2.95333">
        <ele>145.2</ele>
        <time>2022-11-04 15:14:26</time>
      </trkpt>
      <trkpt lat="41.94297" lon="2.95337">
        <ele>145.2</ele>
        <time>2022-11-04 15:14:30</time>
      </trkpt>
      <trkpt lat="41.94321" lon="2.95354">
        <ele>145.8</ele>
        <time>2022-11-04 15:14:38</time>
      </trkpt>
      <trkpt lat="41.94344" lon="2.95358">
        <ele>146</ele>
        <time>2022-11-04 15:14:44</time>
      </trkpt>
      <trkpt lat="41.94373" lon="2.95357">
        <ele>146</ele>
        <time>2022-11-04 15:14:52</time>
      </trkpt>
      <trkpt lat="41.9438" lon="2.95356">
        <ele>146.2</ele>
        <time>2022-11-04 15:14:54</time>
      </trkpt>
      <trkpt lat="41.944" lon="2.95348">
        <ele>146.4</ele>
        <time>2022-11-04 15:15:00</time>
      </trkpt>
      <trkpt lat="41.94425" lon="2.95328">
        <ele>146.8</ele>
        <time>2022-11-04 15:15:08</time>
      </trkpt>
      <trkpt lat="41.94433" lon="2.95314">
        <ele>147.2</ele>
        <time>2022-11-04 15:15:12</time>
      </trkpt>
      <trkpt lat="41.94435" lon="2.9531">
        <ele>147.2</ele>
        <time>2022-11-04 15:15:13</time>
      </trkpt>
      <trkpt lat="41.94434" lon="2.95289">
        <ele>147.6</ele>
        <time>2022-11-04 15:15:18</time>
      </trkpt>
      <trkpt lat="41.94424" lon="2.95266">
        <ele>147.6</ele>
        <time>2022-11-04 15:15:24</time>
      </trkpt>
      <trkpt lat="41.94412" lon="2.95236">
        <ele>148</ele>
        <time>2022-11-04 15:15:32</time>
      </trkpt>
      <trkpt lat="41.94414" lon="2.95224">
        <ele>148.2</ele>
        <time>2022-11-04 15:15:35</time>
      </trkpt>
      <trkpt lat="41.94417" lon="2.95217">
        <ele>148.4</ele>
        <time>2022-11-04 15:15:37</time>
      </trkpt>
      <trkpt lat="41.9443" lon="2.95207">
        <ele>148.4</ele>
        <time>2022-11-04 15:15:42</time>
      </trkpt>
      <trkpt lat="41.9445" lon="2.95195">
        <ele>149.2</ele>
        <time>2022-11-04 15:15:50</time>
      </trkpt>
      <trkpt lat="41.94464" lon="2.95187">
        <ele>149.8</ele>
        <time>2022-11-04 15:15:56</time>
      </trkpt>
      <trkpt lat="41.94476" lon="2.95181">
        <ele>150.2</ele>
        <time>2022-11-04 15:16:01</time>
      </trkpt>
      <trkpt lat="41.94483" lon="2.95177">
        <ele>150.6</ele>
        <time>2022-11-04 15:16:04</time>
      </trkpt>
      <trkpt lat="41.94494" lon="2.95167">
        <ele>151.4</ele>
        <time>2022-11-04 15:16:09</time>
      </trkpt>
      <trkpt lat="41.945" lon="2.9516">
        <ele>152</ele>
        <time>2022-11-04 15:16:12</time>
      </trkpt>
      <trkpt lat="41.94509" lon="2.95149">
        <ele>152.6</ele>
        <time>2022-11-04 15:16:17</time>
      </trkpt>
      <trkpt lat="41.94513" lon="2.95144">
        <ele>152.8</ele>
        <time>2022-11-04 15:16:19</time>
      </trkpt>
      <trkpt lat="41.94524" lon="2.95134">
        <ele>153.4</ele>
        <time>2022-11-04 15:16:25</time>
      </trkpt>
      <trkpt lat="41.94526" lon="2.95134">
        <ele>153.6</ele>
        <time>2022-11-04 15:16:26</time>
      </trkpt>
      <trkpt lat="41.94537" lon="2.95136">
        <ele>154.2</ele>
        <time>2022-11-04 15:16:31</time>
      </trkpt>
      <trkpt lat="41.94541" lon="2.9514">
        <ele>154.6</ele>
        <time>2022-11-04 15:16:33</time>
      </trkpt>
      <trkpt lat="41.94548" lon="2.95144">
        <ele>155</ele>
        <time>2022-11-04 15:16:36</time>
      </trkpt>
      <trkpt lat="41.94558" lon="2.95147">
        <ele>155.8</ele>
        <time>2022-11-04 15:16:40</time>
      </trkpt>
      <trkpt lat="41.94571" lon="2.95149">
        <ele>156.2</ele>
        <time>2022-11-04 15:16:45</time>
      </trkpt>
      <trkpt lat="41.94584" lon="2.95144">
        <ele>156.8</ele>
        <time>2022-11-04 15:16:51</time>
      </trkpt>
      <trkpt lat="41.94594" lon="2.95135">
        <ele>157.4</ele>
        <time>2022-11-04 15:16:57</time>
      </trkpt>
      <trkpt lat="41.946" lon="2.95123">
        <ele>157.8</ele>
        <time>2022-11-04 15:17:03</time>
      </trkpt>
      <trkpt lat="41.94601" lon="2.95121">
        <ele>158</ele>
        <time>2022-11-04 15:17:04</time>
      </trkpt>
      <trkpt lat="41.94611" lon="2.95103">
        <ele>158.8</ele>
        <time>2022-11-04 15:17:12</time>
      </trkpt>
      <trkpt lat="41.94614" lon="2.95098">
        <ele>159</ele>
        <time>2022-11-04 15:17:14</time>
      </trkpt>
      <trkpt lat="41.94622" lon="2.95083">
        <ele>159.4</ele>
        <time>2022-11-04 15:17:20</time>
      </trkpt>
      <trkpt lat="41.94632" lon="2.95073">
        <ele>160</ele>
        <time>2022-11-04 15:17:26</time>
      </trkpt>
      <trkpt lat="41.94634" lon="2.95072">
        <ele>160</ele>
        <time>2022-11-04 15:17:27</time>
      </trkpt>
      <trkpt lat="41.94646" lon="2.95075">
        <ele>160.6</ele>
        <time>2022-11-04 15:17:33</time>
      </trkpt>
      <trkpt lat="41.94655" lon="2.95088">
        <ele>161</ele>
        <time>2022-11-04 15:17:39</time>
      </trkpt>
      <trkpt lat="41.94656" lon="2.95109">
        <ele>162</ele>
        <time>2022-11-04 15:17:46</time>
      </trkpt>
      <trkpt lat="41.94656" lon="2.95112">
        <ele>162</ele>
        <time>2022-11-04 15:17:47</time>
      </trkpt>
      <trkpt lat="41.94657" lon="2.95129">
        <ele>162.4</ele>
        <time>2022-11-04 15:17:52</time>
      </trkpt>
      <trkpt lat="41.9466" lon="2.95146">
        <ele>163.2</ele>
        <time>2022-11-04 15:17:57</time>
      </trkpt>
      <trkpt lat="41.94663" lon="2.95154">
        <ele>163.6</ele>
        <time>2022-11-04 15:18:00</time>
      </trkpt>
      <trkpt lat="41.94672" lon="2.95163">
        <ele>164.2</ele>
        <time>2022-11-04 15:18:05</time>
      </trkpt>
      <trkpt lat="41.94685" lon="2.9517">
        <ele>165</ele>
        <time>2022-11-04 15:18:11</time>
      </trkpt>
      <trkpt lat="41.94689" lon="2.95172">
        <ele>165.2</ele>
        <time>2022-11-04 15:18:13</time>
      </trkpt>
      <trkpt lat="41.94695" lon="2.95174">
        <ele>165.6</ele>
        <time>2022-11-04 15:18:16</time>
      </trkpt>
      <trkpt lat="41.94707" lon="2.95187">
        <ele>166.4</ele>
        <time>2022-11-04 15:18:22</time>
      </trkpt>
      <trkpt lat="41.94708" lon="2.9519">
        <ele>166.4</ele>
        <time>2022-11-04 15:18:23</time>
      </trkpt>
      <trkpt lat="41.94709" lon="2.95205">
        <ele>167</ele>
        <time>2022-11-04 15:18:28</time>
      </trkpt>
      <trkpt lat="41.94704" lon="2.95224">
        <ele>167.6</ele>
        <time>2022-11-04 15:18:34</time>
      </trkpt>
      <trkpt lat="41.94704" lon="2.95231">
        <ele>167.8</ele>
        <time>2022-11-04 15:18:36</time>
      </trkpt>
      <trkpt lat="41.94712" lon="2.95251">
        <ele>168.4</ele>
        <time>2022-11-04 15:18:43</time>
      </trkpt>
      <trkpt lat="41.94713" lon="2.95253">
        <ele>168.6</ele>
        <time>2022-11-04 15:18:44</time>
      </trkpt>
      <trkpt lat="41.94724" lon="2.95266">
        <ele>169.2</ele>
        <time>2022-11-04 15:18:50</time>
      </trkpt>
      <trkpt lat="41.94733" lon="2.95273">
        <ele>169.6</ele>
        <time>2022-11-04 15:18:54</time>
      </trkpt>
      <trkpt lat="41.9474" lon="2.95276">
        <ele>170</ele>
        <time>2022-11-04 15:18:57</time>
      </trkpt>
      <trkpt lat="41.94756" lon="2.95284">
        <ele>170.8</ele>
        <time>2022-11-04 15:19:04</time>
      </trkpt>
      <trkpt lat="41.94777" lon="2.95293">
        <ele>171.4</ele>
        <time>2022-11-04 15:19:13</time>
      </trkpt>
      <trkpt lat="41.94787" lon="2.95296">
        <ele>171.8</ele>
        <time>2022-11-04 15:19:17</time>
      </trkpt>
      <trkpt lat="41.94796" lon="2.95297">
        <ele>172</ele>
        <time>2022-11-04 15:19:21</time>
      </trkpt>
      <trkpt lat="41.94813" lon="2.95296">
        <ele>172.8</ele>
        <time>2022-11-04 15:19:28</time>
      </trkpt>
      <trkpt lat="41.9483" lon="2.95288">
        <ele>173.4</ele>
        <time>2022-11-04 15:19:35</time>
      </trkpt>
      <trkpt lat="41.94843" lon="2.95284">
        <ele>173.8</ele>
        <time>2022-11-04 15:19:41</time>
      </trkpt>
      <trkpt lat="41.94846" lon="2.95285">
        <ele>173.8</ele>
        <time>2022-11-04 15:19:42</time>
      </trkpt>
      <trkpt lat="41.94851" lon="2.95288">
        <ele>174</ele>
        <time>2022-11-04 15:19:44</time>
      </trkpt>
      <trkpt lat="41.94858" lon="2.95293">
        <ele>174.4</ele>
        <time>2022-11-04 15:19:47</time>
      </trkpt>
      <trkpt lat="41.94865" lon="2.95296">
        <ele>174.6</ele>
        <time>2022-11-04 15:19:50</time>
      </trkpt>
      <trkpt lat="41.94873" lon="2.95296">
        <ele>175</ele>
        <time>2022-11-04 15:19:53</time>
      </trkpt>
      <trkpt lat="41.94881" lon="2.95291">
        <ele>175.2</ele>
        <time>2022-11-04 15:19:56</time>
      </trkpt>
      <trkpt lat="41.94892" lon="2.95277">
        <ele>175.8</ele>
        <time>2022-11-04 15:20:02</time>
      </trkpt>
      <trkpt lat="41.94894" lon="2.95271">
        <ele>176</ele>
        <time>2022-11-04 15:20:04</time>
      </trkpt>
      <trkpt lat="41.94899" lon="2.9526">
        <ele>176.4</ele>
        <time>2022-11-04 15:20:08</time>
      </trkpt>
      <trkpt lat="41.9491" lon="2.9524">
        <ele>177</ele>
        <time>2022-11-04 15:20:15</time>
      </trkpt>
      <trkpt lat="41.94912" lon="2.95238">
        <ele>177</ele>
        <time>2022-11-04 15:20:16</time>
      </trkpt>
      <trkpt lat="41.94925" lon="2.95221">
        <ele>178</ele>
        <time>2022-11-04 15:20:23</time>
      </trkpt>
      <trkpt lat="41.94927" lon="2.95219">
        <ele>178.2</ele>
        <time>2022-11-04 15:20:24</time>
      </trkpt>
      <trkpt lat="41.94938" lon="2.95202">
        <ele>178.8</ele>
        <time>2022-11-04 15:20:30</time>
      </trkpt>
      <trkpt lat="41.94943" lon="2.95193">
        <ele>179.2</ele>
        <time>2022-11-04 15:20:33</time>
      </trkpt>
      <trkpt lat="41.9495" lon="2.95182">
        <ele>180</ele>
        <time>2022-11-04 15:20:37</time>
      </trkpt>
      <trkpt lat="41.94952" lon="2.95179">
        <ele>180.2</ele>
        <time>2022-11-04 15:20:38</time>
      </trkpt>
      <trkpt lat="41.9496" lon="2.95158">
        <ele>181.2</ele>
        <time>2022-11-04 15:20:44</time>
      </trkpt>
      <trkpt lat="41.94961" lon="2.95154">
        <ele>181.4</ele>
        <time>2022-11-04 15:20:45</time>
      </trkpt>
      <trkpt lat="41.94962" lon="2.95138">
        <ele>182.2</ele>
        <time>2022-11-04 15:20:49</time>
      </trkpt>
      <trkpt lat="41.94962" lon="2.9513">
        <ele>182.6</ele>
        <time>2022-11-04 15:20:51</time>
      </trkpt>
      <trkpt lat="41.94963" lon="2.95114">
        <ele>183</ele>
        <time>2022-11-04 15:20:55</time>
      </trkpt>
      <trkpt lat="41.94961" lon="2.95102">
        <ele>183.6</ele>
        <time>2022-11-04 15:20:58</time>
      </trkpt>
      <trkpt lat="41.94957" lon="2.95097">
        <ele>184</ele>
        <time>2022-11-04 15:21:00</time>
      </trkpt>
      <trkpt lat="41.94955" lon="2.95092">
        <ele>184.2</ele>
        <time>2022-11-04 15:21:03</time>
      </trkpt>
      <trkpt lat="41.94954" lon="2.95092">
        <ele>184.2</ele>
        <time>2022-11-04 15:21:04</time>
      </trkpt>
      <trkpt lat="41.94953" lon="2.95091">
        <ele>184.2</ele>
        <time>2022-11-04 15:21:05</time>
      </trkpt>
      <trkpt lat="41.94953" lon="2.95091">
        <ele>184.2</ele>
        <time>2022-11-04 15:21:09</time>
      </trkpt>
      <trkpt lat="41.94953" lon="2.95091">
        <ele>184.2</ele>
        <time>2022-11-04 15:21:23</time>
      </trkpt>
      <trkpt lat="41.94953" lon="2.95091">
        <ele>184</ele>
        <time>2022-11-04 15:21:36</time>
      </trkpt>
      <trkpt lat="41.94953" lon="2.95092">
        <ele>184.2</ele>
        <time>2022-11-04 15:21:54</time>
      </trkpt>
      <trkpt lat="41.94953" lon="2.95092">
        <ele>184</ele>
        <time>2022-11-04 15:22:14</time>
      </trkpt>
      <trkpt lat="41.94953" lon="2.9509">
        <ele>184.2</ele>
        <time>2022-11-04 15:22:26</time>
      </trkpt>
      <trkpt lat="41.94953" lon="2.95089">
        <ele>184.2</ele>
        <time>2022-11-04 15:22:27</time>
      </trkpt>
      <trkpt lat="41.9495" lon="2.95085">
        <ele>184.4</ele>
        <time>2022-11-04 15:22:32</time>
      </trkpt>
      <trkpt lat="41.94948" lon="2.95082">
        <ele>184.6</ele>
        <time>2022-11-04 15:22:33</time>
      </trkpt>
      <trkpt lat="41.94939" lon="2.95074">
        <ele>185.4</ele>
        <time>2022-11-04 15:22:37</time>
      </trkpt>
      <trkpt lat="41.94932" lon="2.95074">
        <ele>185.6</ele>
        <time>2022-11-04 15:22:39</time>
      </trkpt>
      <trkpt lat="41.9492" lon="2.95076">
        <ele>186.2</ele>
        <time>2022-11-04 15:22:43</time>
      </trkpt>
      <trkpt lat="41.94901" lon="2.95081">
        <ele>186.6</ele>
        <time>2022-11-04 15:22:50</time>
      </trkpt>
      <trkpt lat="41.94898" lon="2.95081">
        <ele>186.6</ele>
        <time>2022-11-04 15:22:51</time>
      </trkpt>
      <trkpt lat="41.94886" lon="2.95075">
        <ele>186.6</ele>
        <time>2022-11-04 15:22:55</time>
      </trkpt>
      <trkpt lat="41.94878" lon="2.95053">
        <ele>186.6</ele>
        <time>2022-11-04 15:23:00</time>
      </trkpt>
      <trkpt lat="41.9488" lon="2.95044">
        <ele>186.8</ele>
        <time>2022-11-04 15:23:02</time>
      </trkpt>
      <trkpt lat="41.94883" lon="2.95036">
        <ele>187.2</ele>
        <time>2022-11-04 15:23:04</time>
      </trkpt>
      <trkpt lat="41.94888" lon="2.95022">
        <ele>187.8</ele>
        <time>2022-11-04 15:23:08</time>
      </trkpt>
      <trkpt lat="41.9489" lon="2.95019">
        <ele>187.8</ele>
        <time>2022-11-04 15:23:09</time>
      </trkpt>
      <trkpt lat="41.94904" lon="2.94996">
        <ele>188.8</ele>
        <time>2022-11-04 15:23:17</time>
      </trkpt>
      <trkpt lat="41.94907" lon="2.94979">
        <ele>189.6</ele>
        <time>2022-11-04 15:23:23</time>
      </trkpt>
      <trkpt lat="41.94907" lon="2.94975">
        <ele>189.8</ele>
        <time>2022-11-04 15:23:25</time>
      </trkpt>
      <trkpt lat="41.94904" lon="2.94965">
        <ele>190.2</ele>
        <time>2022-11-04 15:23:29</time>
      </trkpt>
      <trkpt lat="41.94897" lon="2.94953">
        <ele>190.8</ele>
        <time>2022-11-04 15:23:35</time>
      </trkpt>
      <trkpt lat="41.94895" lon="2.94952">
        <ele>191</ele>
        <time>2022-11-04 15:23:36</time>
      </trkpt>
      <trkpt lat="41.94885" lon="2.94945">
        <ele>191.6</ele>
        <time>2022-11-04 15:23:42</time>
      </trkpt>
      <trkpt lat="41.94878" lon="2.94941">
        <ele>191.8</ele>
        <time>2022-11-04 15:23:47</time>
      </trkpt>
      <trkpt lat="41.94875" lon="2.94937">
        <ele>192</ele>
        <time>2022-11-04 15:23:50</time>
      </trkpt>
      <trkpt lat="41.94874" lon="2.94934">
        <ele>192</ele>
        <time>2022-11-04 15:23:53</time>
      </trkpt>
      <trkpt lat="41.94875" lon="2.94933">
        <ele>192</ele>
        <time>2022-11-04 15:24:00</time>
      </trkpt>
      <trkpt lat="41.94875" lon="2.94933">
        <ele>192</ele>
        <time>2022-11-04 15:24:16</time>
      </trkpt>
      <trkpt lat="41.94875" lon="2.94933">
        <ele>191.8</ele>
        <time>2022-11-04 15:24:26</time>
      </trkpt>
      <trkpt lat="41.94875" lon="2.94933">
        <ele>191.8</ele>
        <time>2022-11-04 15:24:27</time>
      </trkpt>
      <trkpt lat="41.94874" lon="2.94933">
        <ele>191.8</ele>
        <time>2022-11-04 15:24:35</time>
      </trkpt>
      <trkpt lat="41.94874" lon="2.9493">
        <ele>191.6</ele>
        <time>2022-11-04 15:24:45</time>
      </trkpt>
      <trkpt lat="41.94876" lon="2.94915">
        <ele>191.8</ele>
        <time>2022-11-04 15:24:49</time>
      </trkpt>
      <trkpt lat="41.94877" lon="2.94911">
        <ele>192</ele>
        <time>2022-11-04 15:24:50</time>
      </trkpt>
      <trkpt lat="41.94886" lon="2.94896">
        <ele>192.4</ele>
        <time>2022-11-04 15:24:55</time>
      </trkpt>
      <trkpt lat="41.94904" lon="2.94878">
        <ele>192.8</ele>
        <time>2022-11-04 15:25:02</time>
      </trkpt>
      <trkpt lat="41.94914" lon="2.9487">
        <ele>193</ele>
        <time>2022-11-04 15:25:06</time>
      </trkpt>
      <trkpt lat="41.94926" lon="2.94861">
        <ele>193.6</ele>
        <time>2022-11-04 15:25:11</time>
      </trkpt>
      <trkpt lat="41.94929" lon="2.94857">
        <ele>193.8</ele>
        <time>2022-11-04 15:25:15</time>
      </trkpt>
      <trkpt lat="41.9493" lon="2.94856">
        <ele>194</ele>
        <time>2022-11-04 15:25:24</time>
      </trkpt>
      <trkpt lat="41.9493" lon="2.94856">
        <ele>193.8</ele>
        <time>2022-11-04 15:25:38</time>
      </trkpt>
      <trkpt lat="41.94936" lon="2.94852">
        <ele>193.8</ele>
        <time>2022-11-04 15:25:43</time>
      </trkpt>
      <trkpt lat="41.94943" lon="2.94844">
        <ele>194</ele>
        <time>2022-11-04 15:25:47</time>
      </trkpt>
      <trkpt lat="41.9495" lon="2.94833">
        <ele>194.2</ele>
        <time>2022-11-04 15:25:50</time>
      </trkpt>
      <trkpt lat="41.94959" lon="2.94806">
        <ele>194.8</ele>
        <time>2022-11-04 15:25:56</time>
      </trkpt>
      <trkpt lat="41.94959" lon="2.94793">
        <ele>195.2</ele>
        <time>2022-11-04 15:25:59</time>
      </trkpt>
      <trkpt lat="41.94956" lon="2.94785">
        <ele>195.4</ele>
        <time>2022-11-04 15:26:01</time>
      </trkpt>
      <trkpt lat="41.94945" lon="2.9477">
        <ele>195.6</ele>
        <time>2022-11-04 15:26:06</time>
      </trkpt>
      <trkpt lat="41.94925" lon="2.94763">
        <ele>196</ele>
        <time>2022-11-04 15:26:12</time>
      </trkpt>
      <trkpt lat="41.94917" lon="2.94759">
        <ele>196.2</ele>
        <time>2022-11-04 15:26:15</time>
      </trkpt>
      <trkpt lat="41.94912" lon="2.94756">
        <ele>196.2</ele>
        <time>2022-11-04 15:26:17</time>
      </trkpt>
      <trkpt lat="41.94892" lon="2.94741">
        <ele>196.6</ele>
        <time>2022-11-04 15:26:24</time>
      </trkpt>
      <trkpt lat="41.94888" lon="2.94725">
        <ele>196.8</ele>
        <time>2022-11-04 15:26:28</time>
      </trkpt>
      <trkpt lat="41.94895" lon="2.94708">
        <ele>197.2</ele>
        <time>2022-11-04 15:26:32</time>
      </trkpt>
      <trkpt lat="41.94905" lon="2.94692">
        <ele>197.4</ele>
        <time>2022-11-04 15:26:37</time>
      </trkpt>
      <trkpt lat="41.94909" lon="2.94669">
        <ele>197.8</ele>
        <time>2022-11-04 15:26:43</time>
      </trkpt>
      <trkpt lat="41.94901" lon="2.94642">
        <ele>198.2</ele>
        <time>2022-11-04 15:26:50</time>
      </trkpt>
      <trkpt lat="41.949" lon="2.94639">
        <ele>198.4</ele>
        <time>2022-11-04 15:26:51</time>
      </trkpt>
      <trkpt lat="41.94885" lon="2.94617">
        <ele>198.4</ele>
        <time>2022-11-04 15:26:58</time>
      </trkpt>
      <trkpt lat="41.94868" lon="2.94605">
        <ele>198.6</ele>
        <time>2022-11-04 15:27:04</time>
      </trkpt>
      <trkpt lat="41.94851" lon="2.94588">
        <ele>199.2</ele>
        <time>2022-11-04 15:27:10</time>
      </trkpt>
      <trkpt lat="41.94851" lon="2.94567">
        <ele>199</ele>
        <time>2022-11-04 15:27:14</time>
      </trkpt>
      <trkpt lat="41.94852" lon="2.94532">
        <ele>199.4</ele>
        <time>2022-11-04 15:27:21</time>
      </trkpt>
      <trkpt lat="41.94837" lon="2.94496">
        <ele>199.6</ele>
        <time>2022-11-04 15:27:29</time>
      </trkpt>
      <trkpt lat="41.94825" lon="2.94458">
        <ele>199.2</ele>
        <time>2022-11-04 15:27:36</time>
      </trkpt>
      <trkpt lat="41.94831" lon="2.94436">
        <ele>199.6</ele>
        <time>2022-11-04 15:27:40</time>
      </trkpt>
      <trkpt lat="41.94847" lon="2.94427">
        <ele>200</ele>
        <time>2022-11-04 15:27:44</time>
      </trkpt>
      <trkpt lat="41.94855" lon="2.94427">
        <ele>200.4</ele>
        <time>2022-11-04 15:27:46</time>
      </trkpt>
      <trkpt lat="41.94858" lon="2.94428">
        <ele>200.6</ele>
        <time>2022-11-04 15:27:47</time>
      </trkpt>
      <trkpt lat="41.94864" lon="2.94428">
        <ele>200.8</ele>
        <time>2022-11-04 15:27:49</time>
      </trkpt>
      <trkpt lat="41.94881" lon="2.94425">
        <ele>201.4</ele>
        <time>2022-11-04 15:27:56</time>
      </trkpt>
      <trkpt lat="41.94885" lon="2.94422">
        <ele>201.6</ele>
        <time>2022-11-04 15:27:58</time>
      </trkpt>
      <trkpt lat="41.94896" lon="2.9441">
        <ele>202</ele>
        <time>2022-11-04 15:28:03</time>
      </trkpt>
      <trkpt lat="41.94905" lon="2.94388">
        <ele>202.6</ele>
        <time>2022-11-04 15:28:10</time>
      </trkpt>
      <trkpt lat="41.9491" lon="2.94369">
        <ele>203</ele>
        <time>2022-11-04 15:28:16</time>
      </trkpt>
      <trkpt lat="41.9491" lon="2.9434">
        <ele>203.6</ele>
        <time>2022-11-04 15:28:23</time>
      </trkpt>
      <trkpt lat="41.94912" lon="2.94313">
        <ele>204.4</ele>
        <time>2022-11-04 15:28:30</time>
      </trkpt>
      <trkpt lat="41.94919" lon="2.943">
        <ele>204.8</ele>
        <time>2022-11-04 15:28:34</time>
      </trkpt>
      <trkpt lat="41.94923" lon="2.94296">
        <ele>205</ele>
        <time>2022-11-04 15:28:36</time>
      </trkpt>
      <trkpt lat="41.94935" lon="2.94298">
        <ele>205.2</ele>
        <time>2022-11-04 15:28:40</time>
      </trkpt>
      <trkpt lat="41.94945" lon="2.94315">
        <ele>205.4</ele>
        <time>2022-11-04 15:28:44</time>
      </trkpt>
      <trkpt lat="41.94952" lon="2.94333">
        <ele>205.8</ele>
        <time>2022-11-04 15:28:48</time>
      </trkpt>
      <trkpt lat="41.94963" lon="2.94359">
        <ele>206.2</ele>
        <time>2022-11-04 15:28:54</time>
      </trkpt>
      <trkpt lat="41.94977" lon="2.94394">
        <ele>206.4</ele>
        <time>2022-11-04 15:29:02</time>
      </trkpt>
      <trkpt lat="41.94983" lon="2.94411">
        <ele>206.8</ele>
        <time>2022-11-04 15:29:06</time>
      </trkpt>
      <trkpt lat="41.94983" lon="2.94415">
        <ele>207</ele>
        <time>2022-11-04 15:29:07</time>
      </trkpt>
      <trkpt lat="41.94987" lon="2.94447">
        <ele>207.4</ele>
        <time>2022-11-04 15:29:14</time>
      </trkpt>
      <trkpt lat="41.94992" lon="2.94459">
        <ele>207.8</ele>
        <time>2022-11-04 15:29:17</time>
      </trkpt>
      <trkpt lat="41.94999" lon="2.94466">
        <ele>208.2</ele>
        <time>2022-11-04 15:29:20</time>
      </trkpt>
      <trkpt lat="41.95016" lon="2.94463">
        <ele>208.6</ele>
        <time>2022-11-04 15:29:25</time>
      </trkpt>
      <trkpt lat="41.95027" lon="2.94444">
        <ele>208.8</ele>
        <time>2022-11-04 15:29:30</time>
      </trkpt>
      <trkpt lat="41.95032" lon="2.94422">
        <ele>209.6</ele>
        <time>2022-11-04 15:29:36</time>
      </trkpt>
      <trkpt lat="41.95032" lon="2.94408">
        <ele>210</ele>
        <time>2022-11-04 15:29:41</time>
      </trkpt>
      <trkpt lat="41.95034" lon="2.94391">
        <ele>210.6</ele>
        <time>2022-11-04 15:29:46</time>
      </trkpt>
      <trkpt lat="41.95038" lon="2.94382">
        <ele>211</ele>
        <time>2022-11-04 15:29:49</time>
      </trkpt>
      <trkpt lat="41.95042" lon="2.94369">
        <ele>211.4</ele>
        <time>2022-11-04 15:29:53</time>
      </trkpt>
      <trkpt lat="41.95048" lon="2.94353">
        <ele>212</ele>
        <time>2022-11-04 15:29:58</time>
      </trkpt>
      <trkpt lat="41.95053" lon="2.94346">
        <ele>212.2</ele>
        <time>2022-11-04 15:30:01</time>
      </trkpt>
      <trkpt lat="41.95063" lon="2.94332">
        <ele>213</ele>
        <time>2022-11-04 15:30:07</time>
      </trkpt>
      <trkpt lat="41.95064" lon="2.94329">
        <ele>213.2</ele>
        <time>2022-11-04 15:30:08</time>
      </trkpt>
      <trkpt lat="41.95071" lon="2.94317">
        <ele>213.8</ele>
        <time>2022-11-04 15:30:14</time>
      </trkpt>
      <trkpt lat="41.95068" lon="2.94319">
        <ele>214.2</ele>
        <time>2022-11-04 15:30:17</time>
      </trkpt>
      <trkpt lat="41.95067" lon="2.94321">
        <ele>214</ele>
        <time>2022-11-04 15:30:18</time>
      </trkpt>
      <trkpt lat="41.95057" lon="2.94341">
        <ele>213.2</ele>
        <time>2022-11-04 15:30:22</time>
      </trkpt>
      <trkpt lat="41.95054" lon="2.94347">
        <ele>212.8</ele>
        <time>2022-11-04 15:30:23</time>
      </trkpt>
      <trkpt lat="41.95044" lon="2.9437">
        <ele>211.8</ele>
        <time>2022-11-04 15:30:28</time>
      </trkpt>
      <trkpt lat="41.95046" lon="2.94366">
        <ele>211.8</ele>
        <time>2022-11-04 15:30:31</time>
      </trkpt>
      <trkpt lat="41.95054" lon="2.94349">
        <ele>212.8</ele>
        <time>2022-11-04 15:30:36</time>
      </trkpt>
      <trkpt lat="41.95056" lon="2.94346">
        <ele>213</ele>
        <time>2022-11-04 15:30:37</time>
      </trkpt>
      <trkpt lat="41.95069" lon="2.94321">
        <ele>214</ele>
        <time>2022-11-04 15:30:44</time>
      </trkpt>
      <trkpt lat="41.95071" lon="2.94318">
        <ele>214.2</ele>
        <time>2022-11-04 15:30:45</time>
      </trkpt>
      <trkpt lat="41.95086" lon="2.9431">
        <ele>215</ele>
        <time>2022-11-04 15:30:50</time>
      </trkpt>
      <trkpt lat="41.95089" lon="2.9431">
        <ele>215</ele>
        <time>2022-11-04 15:30:51</time>
      </trkpt>
      <trkpt lat="41.95115" lon="2.94312">
        <ele>215.8</ele>
        <time>2022-11-04 15:30:58</time>
      </trkpt>
      <trkpt lat="41.95122" lon="2.94317">
        <ele>216.2</ele>
        <time>2022-11-04 15:31:00</time>
      </trkpt>
      <trkpt lat="41.95136" lon="2.94323">
        <ele>216.8</ele>
        <time>2022-11-04 15:31:04</time>
      </trkpt>
      <trkpt lat="41.95144" lon="2.94324">
        <ele>217.2</ele>
        <time>2022-11-04 15:31:06</time>
      </trkpt>
      <trkpt lat="41.95154" lon="2.94321">
        <ele>217.6</ele>
        <time>2022-11-04 15:31:09</time>
      </trkpt>
      <trkpt lat="41.9517" lon="2.94304">
        <ele>218.2</ele>
        <time>2022-11-04 15:31:15</time>
      </trkpt>
      <trkpt lat="41.95184" lon="2.94271">
        <ele>219.4</ele>
        <time>2022-11-04 15:31:24</time>
      </trkpt>
      <trkpt lat="41.95191" lon="2.94241">
        <ele>220.4</ele>
        <time>2022-11-04 15:31:32</time>
      </trkpt>
      <trkpt lat="41.95192" lon="2.94238">
        <ele>220.4</ele>
        <time>2022-11-04 15:31:33</time>
      </trkpt>
      <trkpt lat="41.95203" lon="2.94214">
        <ele>221.4</ele>
        <time>2022-11-04 15:31:40</time>
      </trkpt>
      <trkpt lat="41.95204" lon="2.94211">
        <ele>221.6</ele>
        <time>2022-11-04 15:31:41</time>
      </trkpt>
      <trkpt lat="41.95214" lon="2.94191">
        <ele>222.4</ele>
        <time>2022-11-04 15:31:47</time>
      </trkpt>
      <trkpt lat="41.95214" lon="2.94187">
        <ele>222.6</ele>
        <time>2022-11-04 15:31:48</time>
      </trkpt>
      <trkpt lat="41.95219" lon="2.94173">
        <ele>223.4</ele>
        <time>2022-11-04 15:31:52</time>
      </trkpt>
      <trkpt lat="41.95221" lon="2.9417">
        <ele>223.8</ele>
        <time>2022-11-04 15:31:53</time>
      </trkpt>
      <trkpt lat="41.95226" lon="2.94148">
        <ele>224.8</ele>
        <time>2022-11-04 15:31:59</time>
      </trkpt>
      <trkpt lat="41.95235" lon="2.94128">
        <ele>225.8</ele>
        <time>2022-11-04 15:32:05</time>
      </trkpt>
      <trkpt lat="41.95238" lon="2.94122">
        <ele>226</ele>
        <time>2022-11-04 15:32:07</time>
      </trkpt>
      <trkpt lat="41.95252" lon="2.94112">
        <ele>226.8</ele>
        <time>2022-11-04 15:32:13</time>
      </trkpt>
      <trkpt lat="41.95254" lon="2.9411">
        <ele>227</ele>
        <time>2022-11-04 15:32:14</time>
      </trkpt>
      <trkpt lat="41.95267" lon="2.94106">
        <ele>227.8</ele>
        <time>2022-11-04 15:32:19</time>
      </trkpt>
      <trkpt lat="41.95273" lon="2.94106">
        <ele>228.2</ele>
        <time>2022-11-04 15:32:21</time>
      </trkpt>
      <trkpt lat="41.95286" lon="2.94106">
        <ele>228.8</ele>
        <time>2022-11-04 15:32:26</time>
      </trkpt>
      <trkpt lat="41.95296" lon="2.94108">
        <ele>229.2</ele>
        <time>2022-11-04 15:32:30</time>
      </trkpt>
      <trkpt lat="41.95309" lon="2.9411">
        <ele>229.8</ele>
        <time>2022-11-04 15:32:35</time>
      </trkpt>
      <trkpt lat="41.95317" lon="2.94112">
        <ele>230.2</ele>
        <time>2022-11-04 15:32:38</time>
      </trkpt>
      <trkpt lat="41.95331" lon="2.94114">
        <ele>231</ele>
        <time>2022-11-04 15:32:43</time>
      </trkpt>
      <trkpt lat="41.95338" lon="2.94111">
        <ele>231.4</ele>
        <time>2022-11-04 15:32:46</time>
      </trkpt>
      <trkpt lat="41.95343" lon="2.9411">
        <ele>231.8</ele>
        <time>2022-11-04 15:32:48</time>
      </trkpt>
      <trkpt lat="41.95357" lon="2.94105">
        <ele>232.4</ele>
        <time>2022-11-04 15:32:53</time>
      </trkpt>
      <trkpt lat="41.95363" lon="2.94102">
        <ele>232.6</ele>
        <time>2022-11-04 15:32:55</time>
      </trkpt>
      <trkpt lat="41.95375" lon="2.94094">
        <ele>233.6</ele>
        <time>2022-11-04 15:33:00</time>
      </trkpt>
      <trkpt lat="41.9538" lon="2.94091">
        <ele>234</ele>
        <time>2022-11-04 15:33:02</time>
      </trkpt>
      <trkpt lat="41.95386" lon="2.94089">
        <ele>234</ele>
        <time>2022-11-04 15:33:04</time>
      </trkpt>
      <trkpt lat="41.95397" lon="2.94077">
        <ele>234.8</ele>
        <time>2022-11-04 15:33:09</time>
      </trkpt>
      <trkpt lat="41.95406" lon="2.94051">
        <ele>235.6</ele>
        <time>2022-11-04 15:33:16</time>
      </trkpt>
      <trkpt lat="41.95407" lon="2.94047">
        <ele>235.8</ele>
        <time>2022-11-04 15:33:17</time>
      </trkpt>
      <trkpt lat="41.95408" lon="2.94027">
        <ele>236.2</ele>
        <time>2022-11-04 15:33:22</time>
      </trkpt>
      <trkpt lat="41.95413" lon="2.94004">
        <ele>236.8</ele>
        <time>2022-11-04 15:33:28</time>
      </trkpt>
      <trkpt lat="41.95414" lon="2.93996">
        <ele>237</ele>
        <time>2022-11-04 15:33:30</time>
      </trkpt>
      <trkpt lat="41.95424" lon="2.93967">
        <ele>238</ele>
        <time>2022-11-04 15:33:38</time>
      </trkpt>
      <trkpt lat="41.95432" lon="2.9395">
        <ele>239.2</ele>
        <time>2022-11-04 15:33:44</time>
      </trkpt>
      <trkpt lat="41.95438" lon="2.93941">
        <ele>240.2</ele>
        <time>2022-11-04 15:33:49</time>
      </trkpt>
      <trkpt lat="41.9544" lon="2.9394">
        <ele>240.4</ele>
        <time>2022-11-04 15:33:51</time>
      </trkpt>
      <trkpt lat="41.95445" lon="2.93945">
        <ele>240.6</ele>
        <time>2022-11-04 15:33:56</time>
      </trkpt>
      <trkpt lat="41.95445" lon="2.93946">
        <ele>240.6</ele>
        <time>2022-11-04 15:33:57</time>
      </trkpt>
      <trkpt lat="41.95442" lon="2.93946">
        <ele>240.6</ele>
        <time>2022-11-04 15:33:58</time>
      </trkpt>
      <trkpt lat="41.95436" lon="2.93944">
        <ele>240.2</ele>
        <time>2022-11-04 15:34:00</time>
      </trkpt>
      <trkpt lat="41.95432" lon="2.93938">
        <ele>240</ele>
        <time>2022-11-04 15:34:04</time>
      </trkpt>
      <trkpt lat="41.95432" lon="2.93939">
        <ele>240</ele>
        <time>2022-11-04 15:34:09</time>
      </trkpt>
      <trkpt lat="41.95432" lon="2.93939">
        <ele>239.8</ele>
        <time>2022-11-04 15:34:24</time>
      </trkpt>
      <trkpt lat="41.95431" lon="2.93943">
        <ele>239.8</ele>
        <time>2022-11-04 15:34:36</time>
      </trkpt>
      <trkpt lat="41.95432" lon="2.93951">
        <ele>239.4</ele>
        <time>2022-11-04 15:34:41</time>
      </trkpt>
      <trkpt lat="41.95433" lon="2.93951">
        <ele>239.4</ele>
        <time>2022-11-04 15:34:42</time>
      </trkpt>
      <trkpt lat="41.95436" lon="2.93951">
        <ele>239.4</ele>
        <time>2022-11-04 15:34:48</time>
      </trkpt>
      <trkpt lat="41.95436" lon="2.93951">
        <ele>239.4</ele>
        <time>2022-11-04 15:34:57</time>
      </trkpt>
      <trkpt lat="41.95438" lon="2.9395">
        <ele>239.4</ele>
        <time>2022-11-04 15:35:03</time>
      </trkpt>
      <trkpt lat="41.95439" lon="2.93949">
        <ele>239.6</ele>
        <time>2022-11-04 15:35:04</time>
      </trkpt>
      <trkpt lat="41.95447" lon="2.93942">
        <ele>240.6</ele>
        <time>2022-11-04 15:35:10</time>
      </trkpt>
      <trkpt lat="41.95447" lon="2.93941">
        <ele>240.4</ele>
        <time>2022-11-04 15:35:16</time>
      </trkpt>
      <trkpt lat="41.9545" lon="2.93941">
        <ele>240.4</ele>
        <time>2022-11-04 15:35:25</time>
      </trkpt>
      <trkpt lat="41.95459" lon="2.93943">
        <ele>241.2</ele>
        <time>2022-11-04 15:35:33</time>
      </trkpt>
      <trkpt lat="41.9546" lon="2.93944">
        <ele>241.4</ele>
        <time>2022-11-04 15:35:34</time>
      </trkpt>
      <trkpt lat="41.95468" lon="2.93945">
        <ele>242.4</ele>
        <time>2022-11-04 15:35:41</time>
      </trkpt>
      <trkpt lat="41.9547" lon="2.93946">
        <ele>242.6</ele>
        <time>2022-11-04 15:35:43</time>
      </trkpt>
      <trkpt lat="41.95475" lon="2.93948">
        <ele>243.4</ele>
        <time>2022-11-04 15:35:48</time>
      </trkpt>
      <trkpt lat="41.95479" lon="2.93948">
        <ele>243.8</ele>
        <time>2022-11-04 15:35:52</time>
      </trkpt>
      <trkpt lat="41.95487" lon="2.93947">
        <ele>244.6</ele>
        <time>2022-11-04 15:35:58</time>
      </trkpt>
      <trkpt lat="41.95493" lon="2.93945">
        <ele>245</ele>
        <time>2022-11-04 15:36:03</time>
      </trkpt>
      <trkpt lat="41.95496" lon="2.93944">
        <ele>245.6</ele>
        <time>2022-11-04 15:36:08</time>
      </trkpt>
      <trkpt lat="41.95497" lon="2.93944">
        <ele>245.8</ele>
        <time>2022-11-04 15:36:10</time>
      </trkpt>
      <trkpt lat="41.95497" lon="2.93944">
        <ele>245.8</ele>
        <time>2022-11-04 15:36:19</time>
      </trkpt>
      <trkpt lat="41.95497" lon="2.93944">
        <ele>245.8</ele>
        <time>2022-11-04 15:36:32</time>
      </trkpt>
      <trkpt lat="41.95497" lon="2.93943">
        <ele>245.8</ele>
        <time>2022-11-04 15:36:41</time>
      </trkpt>
      <trkpt lat="41.95497" lon="2.93943">
        <ele>245.8</ele>
        <time>2022-11-04 15:36:49</time>
      </trkpt>
      <trkpt lat="41.95501" lon="2.93942">
        <ele>246.2</ele>
        <time>2022-11-04 15:36:53</time>
      </trkpt>
      <trkpt lat="41.95506" lon="2.93939">
        <ele>246.6</ele>
        <time>2022-11-04 15:36:56</time>
      </trkpt>
      <trkpt lat="41.95509" lon="2.93937">
        <ele>247</ele>
        <time>2022-11-04 15:36:58</time>
      </trkpt>
      <trkpt lat="41.95513" lon="2.93936">
        <ele>247.6</ele>
        <time>2022-11-04 15:37:00</time>
      </trkpt>
      <trkpt lat="41.95522" lon="2.93933">
        <ele>248.8</ele>
        <time>2022-11-04 15:37:06</time>
      </trkpt>
      <trkpt lat="41.95536" lon="2.93927">
        <ele>249.8</ele>
        <time>2022-11-04 15:37:13</time>
      </trkpt>
      <trkpt lat="41.95549" lon="2.93927">
        <ele>250.8</ele>
        <time>2022-11-04 15:37:19</time>
      </trkpt>
      <trkpt lat="41.95551" lon="2.93927">
        <ele>251</ele>
        <time>2022-11-04 15:37:20</time>
      </trkpt>
      <trkpt lat="41.95559" lon="2.93931">
        <ele>252</ele>
        <time>2022-11-04 15:37:24</time>
      </trkpt>
      <trkpt lat="41.95569" lon="2.93932">
        <ele>253</ele>
        <time>2022-11-04 15:37:29</time>
      </trkpt>
      <trkpt lat="41.95571" lon="2.93932">
        <ele>253.2</ele>
        <time>2022-11-04 15:37:30</time>
      </trkpt>
      <trkpt lat="41.95581" lon="2.93933">
        <ele>254.4</ele>
        <time>2022-11-04 15:37:35</time>
      </trkpt>
      <trkpt lat="41.95585" lon="2.93932">
        <ele>254.8</ele>
        <time>2022-11-04 15:37:37</time>
      </trkpt>
      <trkpt lat="41.95592" lon="2.93931">
        <ele>255.4</ele>
        <time>2022-11-04 15:37:41</time>
      </trkpt>
      <trkpt lat="41.956" lon="2.93928">
        <ele>256.2</ele>
        <time>2022-11-04 15:37:46</time>
      </trkpt>
      <trkpt lat="41.95604" lon="2.93927">
        <ele>256.4</ele>
        <time>2022-11-04 15:37:48</time>
      </trkpt>
      <trkpt lat="41.95616" lon="2.93922">
        <ele>257.4</ele>
        <time>2022-11-04 15:37:55</time>
      </trkpt>
      <trkpt lat="41.95618" lon="2.93921">
        <ele>257.6</ele>
        <time>2022-11-04 15:37:56</time>
      </trkpt>
      <trkpt lat="41.95631" lon="2.93914">
        <ele>258.6</ele>
        <time>2022-11-04 15:38:04</time>
      </trkpt>
      <trkpt lat="41.95641" lon="2.93907">
        <ele>259.8</ele>
        <time>2022-11-04 15:38:10</time>
      </trkpt>
      <trkpt lat="41.95644" lon="2.93905">
        <ele>260.4</ele>
        <time>2022-11-04 15:38:12</time>
      </trkpt>
      <trkpt lat="41.95646" lon="2.93903">
        <ele>260.8</ele>
        <time>2022-11-04 15:38:14</time>
      </trkpt>
      <trkpt lat="41.95652" lon="2.93896">
        <ele>261.8</ele>
        <time>2022-11-04 15:38:19</time>
      </trkpt>
      <trkpt lat="41.95654" lon="2.93893">
        <ele>262</ele>
        <time>2022-11-04 15:38:21</time>
      </trkpt>
      <trkpt lat="41.9566" lon="2.93882">
        <ele>263</ele>
        <time>2022-11-04 15:38:27</time>
      </trkpt>
      <trkpt lat="41.95665" lon="2.93868">
        <ele>264</ele>
        <time>2022-11-04 15:38:34</time>
      </trkpt>
      <trkpt lat="41.95666" lon="2.93866">
        <ele>264.2</ele>
        <time>2022-11-04 15:38:35</time>
      </trkpt>
      <trkpt lat="41.9567" lon="2.93856">
        <ele>265.2</ele>
        <time>2022-11-04 15:38:40</time>
      </trkpt>
      <trkpt lat="41.95672" lon="2.9385">
        <ele>265.6</ele>
        <time>2022-11-04 15:38:43</time>
      </trkpt>
      <trkpt lat="41.95676" lon="2.93842">
        <ele>266.2</ele>
        <time>2022-11-04 15:38:48</time>
      </trkpt>
      <trkpt lat="41.95678" lon="2.93837">
        <ele>266.8</ele>
        <time>2022-11-04 15:38:51</time>
      </trkpt>
      <trkpt lat="41.95678" lon="2.93826">
        <ele>267.4</ele>
        <time>2022-11-04 15:38:56</time>
      </trkpt>
      <trkpt lat="41.95677" lon="2.9382">
        <ele>267.8</ele>
        <time>2022-11-04 15:38:59</time>
      </trkpt>
      <trkpt lat="41.95677" lon="2.9381">
        <ele>268.4</ele>
        <time>2022-11-04 15:39:04</time>
      </trkpt>
      <trkpt lat="41.95676" lon="2.93805">
        <ele>268.8</ele>
        <time>2022-11-04 15:39:06</time>
      </trkpt>
      <trkpt lat="41.95672" lon="2.93793">
        <ele>269.4</ele>
        <time>2022-11-04 15:39:12</time>
      </trkpt>
      <trkpt lat="41.95671" lon="2.93791">
        <ele>269.6</ele>
        <time>2022-11-04 15:39:13</time>
      </trkpt>
      <trkpt lat="41.95669" lon="2.93775">
        <ele>270.4</ele>
        <time>2022-11-04 15:39:20</time>
      </trkpt>
      <trkpt lat="41.95667" lon="2.93767">
        <ele>270.6</ele>
        <time>2022-11-04 15:39:23</time>
      </trkpt>
      <trkpt lat="41.95666" lon="2.93754">
        <ele>271.2</ele>
        <time>2022-11-04 15:39:28</time>
      </trkpt>
      <trkpt lat="41.95664" lon="2.93746">
        <ele>271.6</ele>
        <time>2022-11-04 15:39:31</time>
      </trkpt>
      <trkpt lat="41.95661" lon="2.93736">
        <ele>272</ele>
        <time>2022-11-04 15:39:35</time>
      </trkpt>
      <trkpt lat="41.95652" lon="2.93719">
        <ele>272.6</ele>
        <time>2022-11-04 15:39:43</time>
      </trkpt>
      <trkpt lat="41.95651" lon="2.93716">
        <ele>272.8</ele>
        <time>2022-11-04 15:39:44</time>
      </trkpt>
      <trkpt lat="41.95647" lon="2.93702">
        <ele>273.4</ele>
        <time>2022-11-04 15:39:50</time>
      </trkpt>
      <trkpt lat="41.95644" lon="2.93692">
        <ele>273.8</ele>
        <time>2022-11-04 15:39:56</time>
      </trkpt>
      <trkpt lat="41.95644" lon="2.93693">
        <ele>273.8</ele>
        <time>2022-11-04 15:39:57</time>
      </trkpt>
      <trkpt lat="41.95644" lon="2.93692">
        <ele>274</ele>
        <time>2022-11-04 15:40:05</time>
      </trkpt>
      <trkpt lat="41.95641" lon="2.93691">
        <ele>274</ele>
        <time>2022-11-04 15:40:13</time>
      </trkpt>
      <trkpt lat="41.95641" lon="2.93691">
        <ele>273.2</ele>
        <time>2022-11-04 15:40:19</time>
      </trkpt>
      <trkpt lat="41.95641" lon="2.93691">
        <ele>273.4</ele>
        <time>2022-11-04 15:40:36</time>
      </trkpt>
      <trkpt lat="41.95641" lon="2.93691">
        <ele>273.4</ele>
        <time>2022-11-04 15:40:51</time>
      </trkpt>
      <trkpt lat="41.95641" lon="2.93691">
        <ele>274.2</ele>
        <time>2022-11-04 15:41:01</time>
      </trkpt>
      <trkpt lat="41.95641" lon="2.93691">
        <ele>274.2</ele>
        <time>2022-11-04 15:41:16</time>
      </trkpt>
      <trkpt lat="41.9564" lon="2.93684">
        <ele>274.4</ele>
        <time>2022-11-04 15:41:23</time>
      </trkpt>
      <trkpt lat="41.95635" lon="2.93672">
        <ele>274.8</ele>
        <time>2022-11-04 15:41:27</time>
      </trkpt>
      <trkpt lat="41.95634" lon="2.93668">
        <ele>274.8</ele>
        <time>2022-11-04 15:41:28</time>
      </trkpt>
      <trkpt lat="41.95629" lon="2.93649">
        <ele>275.6</ele>
        <time>2022-11-04 15:41:34</time>
      </trkpt>
      <trkpt lat="41.95625" lon="2.9364">
        <ele>276</ele>
        <time>2022-11-04 15:41:37</time>
      </trkpt>
      <trkpt lat="41.95624" lon="2.93627">
        <ele>276.4</ele>
        <time>2022-11-04 15:41:41</time>
      </trkpt>
      <trkpt lat="41.95617" lon="2.93609">
        <ele>277</ele>
        <time>2022-11-04 15:41:47</time>
      </trkpt>
      <trkpt lat="41.95615" lon="2.93607">
        <ele>277</ele>
        <time>2022-11-04 15:41:48</time>
      </trkpt>
      <trkpt lat="41.95608" lon="2.93596">
        <ele>277.4</ele>
        <time>2022-11-04 15:41:53</time>
      </trkpt>
      <trkpt lat="41.95603" lon="2.93576">
        <ele>277.8</ele>
        <time>2022-11-04 15:42:00</time>
      </trkpt>
      <trkpt lat="41.956" lon="2.93556">
        <ele>278</ele>
        <time>2022-11-04 15:42:06</time>
      </trkpt>
      <trkpt lat="41.956" lon="2.93549">
        <ele>278.2</ele>
        <time>2022-11-04 15:42:08</time>
      </trkpt>
      <trkpt lat="41.95605" lon="2.93524">
        <ele>279</ele>
        <time>2022-11-04 15:42:15</time>
      </trkpt>
      <trkpt lat="41.95608" lon="2.93518">
        <ele>279.2</ele>
        <time>2022-11-04 15:42:17</time>
      </trkpt>
      <trkpt lat="41.95615" lon="2.93501">
        <ele>280</ele>
        <time>2022-11-04 15:42:23</time>
      </trkpt>
      <trkpt lat="41.9562" lon="2.93492">
        <ele>280.2</ele>
        <time>2022-11-04 15:42:26</time>
      </trkpt>
      <trkpt lat="41.95626" lon="2.93474">
        <ele>280.8</ele>
        <time>2022-11-04 15:42:32</time>
      </trkpt>
      <trkpt lat="41.9563" lon="2.93457">
        <ele>281.2</ele>
        <time>2022-11-04 15:42:37</time>
      </trkpt>
      <trkpt lat="41.95631" lon="2.93443">
        <ele>281.6</ele>
        <time>2022-11-04 15:42:41</time>
      </trkpt>
      <trkpt lat="41.95631" lon="2.93414">
        <ele>282.2</ele>
        <time>2022-11-04 15:42:49</time>
      </trkpt>
      <trkpt lat="41.95633" lon="2.93407">
        <ele>282.4</ele>
        <time>2022-11-04 15:42:51</time>
      </trkpt>
      <trkpt lat="41.9564" lon="2.93393">
        <ele>282.6</ele>
        <time>2022-11-04 15:42:56</time>
      </trkpt>
      <trkpt lat="41.95655" lon="2.93385">
        <ele>282.8</ele>
        <time>2022-11-04 15:43:02</time>
      </trkpt>
      <trkpt lat="41.95671" lon="2.93383">
        <ele>283.4</ele>
        <time>2022-11-04 15:43:08</time>
      </trkpt>
      <trkpt lat="41.95674" lon="2.93383">
        <ele>283.4</ele>
        <time>2022-11-04 15:43:09</time>
      </trkpt>
      <trkpt lat="41.95688" lon="2.93382">
        <ele>284.4</ele>
        <time>2022-11-04 15:43:15</time>
      </trkpt>
      <trkpt lat="41.95697" lon="2.9338">
        <ele>284.8</ele>
        <time>2022-11-04 15:43:19</time>
      </trkpt>
      <trkpt lat="41.95706" lon="2.93377">
        <ele>285.4</ele>
        <time>2022-11-04 15:43:23</time>
      </trkpt>
      <trkpt lat="41.95712" lon="2.93373">
        <ele>285.8</ele>
        <time>2022-11-04 15:43:26</time>
      </trkpt>
      <trkpt lat="41.95717" lon="2.9337">
        <ele>286.4</ele>
        <time>2022-11-04 15:43:29</time>
      </trkpt>
      <trkpt lat="41.95722" lon="2.93364">
        <ele>286.8</ele>
        <time>2022-11-04 15:43:33</time>
      </trkpt>
      <trkpt lat="41.95727" lon="2.93356">
        <ele>287.6</ele>
        <time>2022-11-04 15:43:37</time>
      </trkpt>
      <trkpt lat="41.95731" lon="2.9335">
        <ele>288.2</ele>
        <time>2022-11-04 15:43:41</time>
      </trkpt>
      <trkpt lat="41.95735" lon="2.93344">
        <ele>288.6</ele>
        <time>2022-11-04 15:43:44</time>
      </trkpt>
      <trkpt lat="41.95738" lon="2.93337">
        <ele>289.2</ele>
        <time>2022-11-04 15:43:47</time>
      </trkpt>
      <trkpt lat="41.95739" lon="2.9333">
        <ele>289.6</ele>
        <time>2022-11-04 15:43:50</time>
      </trkpt>
      <trkpt lat="41.95739" lon="2.93327">
        <ele>289.8</ele>
        <time>2022-11-04 15:43:51</time>
      </trkpt>
      <trkpt lat="41.95744" lon="2.93316">
        <ele>290.2</ele>
        <time>2022-11-04 15:43:56</time>
      </trkpt>
      <trkpt lat="41.95746" lon="2.93306">
        <ele>290.8</ele>
        <time>2022-11-04 15:44:00</time>
      </trkpt>
      <trkpt lat="41.95747" lon="2.93301">
        <ele>291</ele>
        <time>2022-11-04 15:44:02</time>
      </trkpt>
      <trkpt lat="41.95749" lon="2.93286">
        <ele>291.8</ele>
        <time>2022-11-04 15:44:08</time>
      </trkpt>
      <trkpt lat="41.9575" lon="2.9328">
        <ele>292</ele>
        <time>2022-11-04 15:44:10</time>
      </trkpt>
      <trkpt lat="41.95752" lon="2.93267">
        <ele>293</ele>
        <time>2022-11-04 15:44:16</time>
      </trkpt>
      <trkpt lat="41.95753" lon="2.93262">
        <ele>293.2</ele>
        <time>2022-11-04 15:44:18</time>
      </trkpt>
      <trkpt lat="41.95754" lon="2.93249">
        <ele>294</ele>
        <time>2022-11-04 15:44:23</time>
      </trkpt>
      <trkpt lat="41.95755" lon="2.93239">
        <ele>294.6</ele>
        <time>2022-11-04 15:44:27</time>
      </trkpt>
      <trkpt lat="41.95756" lon="2.93235">
        <ele>295</ele>
        <time>2022-11-04 15:44:29</time>
      </trkpt>
      <trkpt lat="41.95757" lon="2.93219">
        <ele>295.8</ele>
        <time>2022-11-04 15:44:35</time>
      </trkpt>
      <trkpt lat="41.95758" lon="2.93217">
        <ele>296</ele>
        <time>2022-11-04 15:44:36</time>
      </trkpt>
      <trkpt lat="41.95762" lon="2.93202">
        <ele>297</ele>
        <time>2022-11-04 15:44:43</time>
      </trkpt>
      <trkpt lat="41.95762" lon="2.932">
        <ele>297.2</ele>
        <time>2022-11-04 15:44:44</time>
      </trkpt>
      <trkpt lat="41.95764" lon="2.93187">
        <ele>298</ele>
        <time>2022-11-04 15:44:50</time>
      </trkpt>
      <trkpt lat="41.95765" lon="2.93185">
        <ele>298.2</ele>
        <time>2022-11-04 15:44:51</time>
      </trkpt>
      <trkpt lat="41.95769" lon="2.93174">
        <ele>299.4</ele>
        <time>2022-11-04 15:44:56</time>
      </trkpt>
      <trkpt lat="41.95771" lon="2.93165">
        <ele>300.4</ele>
        <time>2022-11-04 15:45:01</time>
      </trkpt>
      <trkpt lat="41.95772" lon="2.9316">
        <ele>301</ele>
        <time>2022-11-04 15:45:04</time>
      </trkpt>
      <trkpt lat="41.95773" lon="2.93153">
        <ele>301.6</ele>
        <time>2022-11-04 15:45:07</time>
      </trkpt>
      <trkpt lat="41.95775" lon="2.93145">
        <ele>302.2</ele>
        <time>2022-11-04 15:45:11</time>
      </trkpt>
      <trkpt lat="41.95778" lon="2.93136">
        <ele>302.6</ele>
        <time>2022-11-04 15:45:15</time>
      </trkpt>
      <trkpt lat="41.95778" lon="2.93131">
        <ele>302.8</ele>
        <time>2022-11-04 15:45:17</time>
      </trkpt>
      <trkpt lat="41.95778" lon="2.93121">
        <ele>303.2</ele>
        <time>2022-11-04 15:45:24</time>
      </trkpt>
      <trkpt lat="41.95779" lon="2.93119">
        <ele>303.2</ele>
        <time>2022-11-04 15:45:30</time>
      </trkpt>
      <trkpt lat="41.95779" lon="2.93119">
        <ele>303.2</ele>
        <time>2022-11-04 15:45:45</time>
      </trkpt>
      <trkpt lat="41.9578" lon="2.93116">
        <ele>303.2</ele>
        <time>2022-11-04 15:45:48</time>
      </trkpt>
      <trkpt lat="41.95782" lon="2.93115">
        <ele>303.4</ele>
        <time>2022-11-04 15:45:49</time>
      </trkpt>
      <trkpt lat="41.95784" lon="2.93112">
        <ele>303.6</ele>
        <time>2022-11-04 15:45:51</time>
      </trkpt>
      <trkpt lat="41.95785" lon="2.93111">
        <ele>303.6</ele>
        <time>2022-11-04 15:45:52</time>
      </trkpt>
      <trkpt lat="41.95788" lon="2.93104">
        <ele>304</ele>
        <time>2022-11-04 15:45:55</time>
      </trkpt>
      <trkpt lat="41.95797" lon="2.9309">
        <ele>304.6</ele>
        <time>2022-11-04 15:46:02</time>
      </trkpt>
      <trkpt lat="41.9581" lon="2.93079">
        <ele>305.4</ele>
        <time>2022-11-04 15:46:09</time>
      </trkpt>
      <trkpt lat="41.95812" lon="2.93075">
        <ele>305.6</ele>
        <time>2022-11-04 15:46:11</time>
      </trkpt>
      <trkpt lat="41.95818" lon="2.93064">
        <ele>306.6</ele>
        <time>2022-11-04 15:46:16</time>
      </trkpt>
      <trkpt lat="41.95821" lon="2.9306">
        <ele>306.8</ele>
        <time>2022-11-04 15:46:18</time>
      </trkpt>
      <trkpt lat="41.95826" lon="2.93053">
        <ele>307.2</ele>
        <time>2022-11-04 15:46:22</time>
      </trkpt>
      <trkpt lat="41.95827" lon="2.93052">
        <ele>307.2</ele>
        <time>2022-11-04 15:46:23</time>
      </trkpt>
      <trkpt lat="41.95833" lon="2.93044">
        <ele>307.6</ele>
        <time>2022-11-04 15:46:27</time>
      </trkpt>
      <trkpt lat="41.95835" lon="2.93042">
        <ele>307.8</ele>
        <time>2022-11-04 15:46:28</time>
      </trkpt>
      <trkpt lat="41.95845" lon="2.93027">
        <ele>308.8</ele>
        <time>2022-11-04 15:46:35</time>
      </trkpt>
      <trkpt lat="41.95847" lon="2.93025">
        <ele>309</ele>
        <time>2022-11-04 15:46:36</time>
      </trkpt>
      <trkpt lat="41.95853" lon="2.93008">
        <ele>309.4</ele>
        <time>2022-11-04 15:46:41</time>
      </trkpt>
      <trkpt lat="41.9586" lon="2.92978">
        <ele>309.6</ele>
        <time>2022-11-04 15:46:49</time>
      </trkpt>
      <trkpt lat="41.95861" lon="2.92963">
        <ele>309.8</ele>
        <time>2022-11-04 15:46:53</time>
      </trkpt>
      <trkpt lat="41.95861" lon="2.9295">
        <ele>309.8</ele>
        <time>2022-11-04 15:46:57</time>
      </trkpt>
      <trkpt lat="41.95864" lon="2.92927">
        <ele>309.8</ele>
        <time>2022-11-04 15:47:03</time>
      </trkpt>
      <trkpt lat="41.95865" lon="2.92905">
        <ele>309.2</ele>
        <time>2022-11-04 15:47:07</time>
      </trkpt>
      <trkpt lat="41.95868" lon="2.92893">
        <ele>308.6</ele>
        <time>2022-11-04 15:47:09</time>
      </trkpt>
      <trkpt lat="41.95875" lon="2.92881">
        <ele>308.2</ele>
        <time>2022-11-04 15:47:11</time>
      </trkpt>
      <trkpt lat="41.95885" lon="2.92872">
        <ele>307.4</ele>
        <time>2022-11-04 15:47:13</time>
      </trkpt>
      <trkpt lat="41.95914" lon="2.9285">
        <ele>306.4</ele>
        <time>2022-11-04 15:47:18</time>
      </trkpt>
      <trkpt lat="41.9592" lon="2.92847">
        <ele>306.2</ele>
        <time>2022-11-04 15:47:19</time>
      </trkpt>
      <trkpt lat="41.95957" lon="2.9282">
        <ele>305.4</ele>
        <time>2022-11-04 15:47:25</time>
      </trkpt>
      <trkpt lat="41.9596" lon="2.92812">
        <ele>305.4</ele>
        <time>2022-11-04 15:47:26</time>
      </trkpt>
      <trkpt lat="41.95961" lon="2.92784">
        <ele>304.8</ele>
        <time>2022-11-04 15:47:29</time>
      </trkpt>
      <trkpt lat="41.95957" lon="2.92758">
        <ele>304.8</ele>
        <time>2022-11-04 15:47:32</time>
      </trkpt>
      <trkpt lat="41.95954" lon="2.92743">
        <ele>305</ele>
        <time>2022-11-04 15:47:34</time>
      </trkpt>
      <trkpt lat="41.95945" lon="2.92707">
        <ele>305.6</ele>
        <time>2022-11-04 15:47:40</time>
      </trkpt>
      <trkpt lat="41.95945" lon="2.92683">
        <ele>306.6</ele>
        <time>2022-11-04 15:47:45</time>
      </trkpt>
      <trkpt lat="41.9595" lon="2.92662">
        <ele>307.8</ele>
        <time>2022-11-04 15:47:50</time>
      </trkpt>
      <trkpt lat="41.95953" lon="2.92637">
        <ele>308.8</ele>
        <time>2022-11-04 15:47:56</time>
      </trkpt>
      <trkpt lat="41.95953" lon="2.92632">
        <ele>308.8</ele>
        <time>2022-11-04 15:47:57</time>
      </trkpt>
      <trkpt lat="41.95949" lon="2.92606">
        <ele>309.8</ele>
        <time>2022-11-04 15:48:04</time>
      </trkpt>
      <trkpt lat="41.95948" lon="2.92603">
        <ele>310</ele>
        <time>2022-11-04 15:48:05</time>
      </trkpt>
      <trkpt lat="41.95948" lon="2.92594">
        <ele>310.4</ele>
        <time>2022-11-04 15:48:08</time>
      </trkpt>
      <trkpt lat="41.95948" lon="2.92587">
        <ele>310.6</ele>
        <time>2022-11-04 15:48:10</time>
      </trkpt>
      <trkpt lat="41.95945" lon="2.92575">
        <ele>310.4</ele>
        <time>2022-11-04 15:48:13</time>
      </trkpt>
      <trkpt lat="41.95943" lon="2.9256">
        <ele>310</ele>
        <time>2022-11-04 15:48:16</time>
      </trkpt>
      <trkpt lat="41.95939" lon="2.92517">
        <ele>309</ele>
        <time>2022-11-04 15:48:23</time>
      </trkpt>
      <trkpt lat="41.95937" lon="2.92503">
        <ele>308.8</ele>
        <time>2022-11-04 15:48:25</time>
      </trkpt>
      <trkpt lat="41.9593" lon="2.92476">
        <ele>308.2</ele>
        <time>2022-11-04 15:48:29</time>
      </trkpt>
      <trkpt lat="41.95927" lon="2.92471">
        <ele>308</ele>
        <time>2022-11-04 15:48:30</time>
      </trkpt>
      <trkpt lat="41.9592" lon="2.92462">
        <ele>307.8</ele>
        <time>2022-11-04 15:48:32</time>
      </trkpt>
      <trkpt lat="41.95908" lon="2.92454">
        <ele>307.6</ele>
        <time>2022-11-04 15:48:34</time>
      </trkpt>
      <trkpt lat="41.95902" lon="2.9245">
        <ele>307.6</ele>
        <time>2022-11-04 15:48:35</time>
      </trkpt>
      <trkpt lat="41.95893" lon="2.9244">
        <ele>307</ele>
        <time>2022-11-04 15:48:37</time>
      </trkpt>
      <trkpt lat="41.95886" lon="2.92427">
        <ele>306.8</ele>
        <time>2022-11-04 15:48:39</time>
      </trkpt>
      <trkpt lat="41.95884" lon="2.9242">
        <ele>306.8</ele>
        <time>2022-11-04 15:48:40</time>
      </trkpt>
      <trkpt lat="41.95877" lon="2.92397">
        <ele>306.2</ele>
        <time>2022-11-04 15:48:43</time>
      </trkpt>
      <trkpt lat="41.95875" lon="2.9239">
        <ele>306.2</ele>
        <time>2022-11-04 15:48:44</time>
      </trkpt>
      <trkpt lat="41.95866" lon="2.92361">
        <ele>305.6</ele>
        <time>2022-11-04 15:48:48</time>
      </trkpt>
      <trkpt lat="41.95866" lon="2.92353">
        <ele>305.6</ele>
        <time>2022-11-04 15:48:49</time>
      </trkpt>
      <trkpt lat="41.95865" lon="2.92329">
        <ele>304.6</ele>
        <time>2022-11-04 15:48:52</time>
      </trkpt>
      <trkpt lat="41.95864" lon="2.92303">
        <ele>303.4</ele>
        <time>2022-11-04 15:48:55</time>
      </trkpt>
      <trkpt lat="41.95863" lon="2.92276">
        <ele>302.6</ele>
        <time>2022-11-04 15:48:58</time>
      </trkpt>
      <trkpt lat="41.95864" lon="2.92268">
        <ele>302.2</ele>
        <time>2022-11-04 15:48:59</time>
      </trkpt>
      <trkpt lat="41.95869" lon="2.92251">
        <ele>301.8</ele>
        <time>2022-11-04 15:49:01</time>
      </trkpt>
      <trkpt lat="41.95879" lon="2.92229">
        <ele>302.2</ele>
        <time>2022-11-04 15:49:04</time>
      </trkpt>
      <trkpt lat="41.95883" lon="2.92215">
        <ele>302.6</ele>
        <time>2022-11-04 15:49:06</time>
      </trkpt>
      <trkpt lat="41.95881" lon="2.92195">
        <ele>302.8</ele>
        <time>2022-11-04 15:49:09</time>
      </trkpt>
      <trkpt lat="41.95877" lon="2.92183">
        <ele>303</ele>
        <time>2022-11-04 15:49:11</time>
      </trkpt>
      <trkpt lat="41.95873" lon="2.92162">
        <ele>303.2</ele>
        <time>2022-11-04 15:49:15</time>
      </trkpt>
      <trkpt lat="41.9588" lon="2.92144">
        <ele>303.8</ele>
        <time>2022-11-04 15:49:19</time>
      </trkpt>
      <trkpt lat="41.95888" lon="2.92135">
        <ele>304.4</ele>
        <time>2022-11-04 15:49:22</time>
      </trkpt>
      <trkpt lat="41.95896" lon="2.9213">
        <ele>305.2</ele>
        <time>2022-11-04 15:49:25</time>
      </trkpt>
      <trkpt lat="41.95899" lon="2.92128">
        <ele>305.4</ele>
        <time>2022-11-04 15:49:26</time>
      </trkpt>
      <trkpt lat="41.95908" lon="2.9212">
        <ele>306.4</ele>
        <time>2022-11-04 15:49:30</time>
      </trkpt>
      <trkpt lat="41.95912" lon="2.92114">
        <ele>307</ele>
        <time>2022-11-04 15:49:32</time>
      </trkpt>
      <trkpt lat="41.95915" lon="2.92103">
        <ele>307.4</ele>
        <time>2022-11-04 15:49:35</time>
      </trkpt>
      <trkpt lat="41.95915" lon="2.921">
        <ele>307.6</ele>
        <time>2022-11-04 15:49:36</time>
      </trkpt>
      <trkpt lat="41.95915" lon="2.92096">
        <ele>307.8</ele>
        <time>2022-11-04 15:49:37</time>
      </trkpt>
      <trkpt lat="41.9592" lon="2.92081">
        <ele>308.6</ele>
        <time>2022-11-04 15:49:42</time>
      </trkpt>
      <trkpt lat="41.95929" lon="2.92062">
        <ele>309.6</ele>
        <time>2022-11-04 15:49:48</time>
      </trkpt>
      <trkpt lat="41.9593" lon="2.92059">
        <ele>310</ele>
        <time>2022-11-04 15:49:49</time>
      </trkpt>
      <trkpt lat="41.95937" lon="2.92048">
        <ele>310.6</ele>
        <time>2022-11-04 15:49:54</time>
      </trkpt>
      <trkpt lat="41.95938" lon="2.92045">
        <ele>310.8</ele>
        <time>2022-11-04 15:49:55</time>
      </trkpt>
      <trkpt lat="41.9594" lon="2.92043">
        <ele>311</ele>
        <time>2022-11-04 15:49:56</time>
      </trkpt>
      <trkpt lat="41.95945" lon="2.92035">
        <ele>311.4</ele>
        <time>2022-11-04 15:50:00</time>
      </trkpt>
      <trkpt lat="41.95948" lon="2.92031">
        <ele>311.6</ele>
        <time>2022-11-04 15:50:02</time>
      </trkpt>
      <trkpt lat="41.95958" lon="2.92019">
        <ele>312.6</ele>
        <time>2022-11-04 15:50:08</time>
      </trkpt>
      <trkpt lat="41.95962" lon="2.92015">
        <ele>312.8</ele>
        <time>2022-11-04 15:50:10</time>
      </trkpt>
      <trkpt lat="41.9597" lon="2.92006">
        <ele>313.4</ele>
        <time>2022-11-04 15:50:14</time>
      </trkpt>
      <trkpt lat="41.95975" lon="2.91998">
        <ele>313.8</ele>
        <time>2022-11-04 15:50:17</time>
      </trkpt>
      <trkpt lat="41.95977" lon="2.91988">
        <ele>314</ele>
        <time>2022-11-04 15:50:20</time>
      </trkpt>
      <trkpt lat="41.95976" lon="2.91985">
        <ele>314.2</ele>
        <time>2022-11-04 15:50:21</time>
      </trkpt>
      <trkpt lat="41.95974" lon="2.91972">
        <ele>314.2</ele>
        <time>2022-11-04 15:50:25</time>
      </trkpt>
      <trkpt lat="41.95969" lon="2.91949">
        <ele>314.6</ele>
        <time>2022-11-04 15:50:31</time>
      </trkpt>
      <trkpt lat="41.95967" lon="2.91938">
        <ele>314.8</ele>
        <time>2022-11-04 15:50:34</time>
      </trkpt>
      <trkpt lat="41.95967" lon="2.91918">
        <ele>315.4</ele>
        <time>2022-11-04 15:50:39</time>
      </trkpt>
      <trkpt lat="41.95968" lon="2.91903">
        <ele>316</ele>
        <time>2022-11-04 15:50:43</time>
      </trkpt>
      <trkpt lat="41.9597" lon="2.91888">
        <ele>316.2</ele>
        <time>2022-11-04 15:50:47</time>
      </trkpt>
      <trkpt lat="41.95968" lon="2.91867">
        <ele>317</ele>
        <time>2022-11-04 15:50:54</time>
      </trkpt>
      <trkpt lat="41.95958" lon="2.91851">
        <ele>318</ele>
        <time>2022-11-04 15:51:00</time>
      </trkpt>
      <trkpt lat="41.95956" lon="2.91849">
        <ele>318.6</ele>
        <time>2022-11-04 15:51:01</time>
      </trkpt>
      <trkpt lat="41.95944" lon="2.91838">
        <ele>319.6</ele>
        <time>2022-11-04 15:51:06</time>
      </trkpt>
      <trkpt lat="41.95942" lon="2.91836">
        <ele>319.8</ele>
        <time>2022-11-04 15:51:07</time>
      </trkpt>
      <trkpt lat="41.95929" lon="2.91834">
        <ele>320.6</ele>
        <time>2022-11-04 15:51:12</time>
      </trkpt>
      <trkpt lat="41.95924" lon="2.91833">
        <ele>321</ele>
        <time>2022-11-04 15:51:14</time>
      </trkpt>
      <trkpt lat="41.95914" lon="2.9183">
        <ele>321.8</ele>
        <time>2022-11-04 15:51:19</time>
      </trkpt>
      <trkpt lat="41.95911" lon="2.91829">
        <ele>322</ele>
        <time>2022-11-04 15:51:20</time>
      </trkpt>
      <trkpt lat="41.95901" lon="2.91822">
        <ele>322.8</ele>
        <time>2022-11-04 15:51:25</time>
      </trkpt>
      <trkpt lat="41.95899" lon="2.91824">
        <ele>323</ele>
        <time>2022-11-04 15:51:27</time>
      </trkpt>
      <trkpt lat="41.959" lon="2.91826">
        <ele>323</ele>
        <time>2022-11-04 15:51:28</time>
      </trkpt>
      <trkpt lat="41.95905" lon="2.9183">
        <ele>322.8</ele>
        <time>2022-11-04 15:51:31</time>
      </trkpt>
      <trkpt lat="41.95923" lon="2.91835">
        <ele>322</ele>
        <time>2022-11-04 15:51:36</time>
      </trkpt>
      <trkpt lat="41.95928" lon="2.91835">
        <ele>321.6</ele>
        <time>2022-11-04 15:51:37</time>
      </trkpt>
      <trkpt lat="41.9594" lon="2.91837">
        <ele>320.6</ele>
        <time>2022-11-04 15:51:40</time>
      </trkpt>
      <trkpt lat="41.95941" lon="2.91835">
        <ele>320.6</ele>
        <time>2022-11-04 15:51:41</time>
      </trkpt>
      <trkpt lat="41.95941" lon="2.91832">
        <ele>320.8</ele>
        <time>2022-11-04 15:51:44</time>
      </trkpt>
      <trkpt lat="41.95939" lon="2.91831">
        <ele>320.8</ele>
        <time>2022-11-04 15:51:45</time>
      </trkpt>
      <trkpt lat="41.95931" lon="2.91831">
        <ele>321.4</ele>
        <time>2022-11-04 15:51:48</time>
      </trkpt>
      <trkpt lat="41.95928" lon="2.9183">
        <ele>321.8</ele>
        <time>2022-11-04 15:51:49</time>
      </trkpt>
      <trkpt lat="41.95912" lon="2.91824">
        <ele>322.8</ele>
        <time>2022-11-04 15:51:55</time>
      </trkpt>
      <trkpt lat="41.95898" lon="2.91812">
        <ele>323.8</ele>
        <time>2022-11-04 15:52:02</time>
      </trkpt>
      <trkpt lat="41.95894" lon="2.91808">
        <ele>324</ele>
        <time>2022-11-04 15:52:04</time>
      </trkpt>
      <trkpt lat="41.95888" lon="2.91797">
        <ele>324.8</ele>
        <time>2022-11-04 15:52:09</time>
      </trkpt>
      <trkpt lat="41.95887" lon="2.91794">
        <ele>325</ele>
        <time>2022-11-04 15:52:10</time>
      </trkpt>
      <trkpt lat="41.95883" lon="2.91786">
        <ele>326</ele>
        <time>2022-11-04 15:52:14</time>
      </trkpt>
      <trkpt lat="41.95883" lon="2.91783">
        <ele>326</ele>
        <time>2022-11-04 15:52:15</time>
      </trkpt>
      <trkpt lat="41.95884" lon="2.9178">
        <ele>326.2</ele>
        <time>2022-11-04 15:52:16</time>
      </trkpt>
      <trkpt lat="41.95881" lon="2.91774">
        <ele>326.4</ele>
        <time>2022-11-04 15:52:20</time>
      </trkpt>
      <trkpt lat="41.95881" lon="2.9177">
        <ele>326.6</ele>
        <time>2022-11-04 15:52:22</time>
      </trkpt>
      <trkpt lat="41.95882" lon="2.91764">
        <ele>326.8</ele>
        <time>2022-11-04 15:52:26</time>
      </trkpt>
      <trkpt lat="41.95883" lon="2.91756">
        <ele>327.2</ele>
        <time>2022-11-04 15:52:30</time>
      </trkpt>
      <trkpt lat="41.95884" lon="2.91755">
        <ele>327.2</ele>
        <time>2022-11-04 15:52:31</time>
      </trkpt>
      <trkpt lat="41.95885" lon="2.91754">
        <ele>327.4</ele>
        <time>2022-11-04 15:52:32</time>
      </trkpt>
      <trkpt lat="41.95895" lon="2.91742">
        <ele>328</ele>
        <time>2022-11-04 15:52:40</time>
      </trkpt>
      <trkpt lat="41.95896" lon="2.91741">
        <ele>328.2</ele>
        <time>2022-11-04 15:52:41</time>
      </trkpt>
      <trkpt lat="41.95905" lon="2.9173">
        <ele>329.2</ele>
        <time>2022-11-04 15:52:47</time>
      </trkpt>
      <trkpt lat="41.95907" lon="2.91729">
        <ele>329.2</ele>
        <time>2022-11-04 15:52:48</time>
      </trkpt>
      <trkpt lat="41.95915" lon="2.91721">
        <ele>330.2</ele>
        <time>2022-11-04 15:52:55</time>
      </trkpt>
      <trkpt lat="41.95916" lon="2.91719">
        <ele>330.4</ele>
        <time>2022-11-04 15:52:56</time>
      </trkpt>
      <trkpt lat="41.95917" lon="2.91711">
        <ele>330.4</ele>
        <time>2022-11-04 15:52:59</time>
      </trkpt>
      <trkpt lat="41.95923" lon="2.91705">
        <ele>331.2</ele>
        <time>2022-11-04 15:53:03</time>
      </trkpt>
      <trkpt lat="41.95924" lon="2.91703">
        <ele>331.2</ele>
        <time>2022-11-04 15:53:04</time>
      </trkpt>
      <trkpt lat="41.95923" lon="2.91698">
        <ele>331.4</ele>
        <time>2022-11-04 15:53:06</time>
      </trkpt>
      <trkpt lat="41.95923" lon="2.91696">
        <ele>331.4</ele>
        <time>2022-11-04 15:53:07</time>
      </trkpt>
      <trkpt lat="41.95923" lon="2.91691">
        <ele>331.6</ele>
        <time>2022-11-04 15:53:10</time>
      </trkpt>
      <trkpt lat="41.95924" lon="2.91684">
        <ele>332.2</ele>
        <time>2022-11-04 15:53:13</time>
      </trkpt>
      <trkpt lat="41.95925" lon="2.91679">
        <ele>332.2</ele>
        <time>2022-11-04 15:53:15</time>
      </trkpt>
      <trkpt lat="41.95929" lon="2.91662">
        <ele>332.8</ele>
        <time>2022-11-04 15:53:22</time>
      </trkpt>
      <trkpt lat="41.95931" lon="2.91654">
        <ele>333.2</ele>
        <time>2022-11-04 15:53:26</time>
      </trkpt>
      <trkpt lat="41.95933" lon="2.91644">
        <ele>333.6</ele>
        <time>2022-11-04 15:53:30</time>
      </trkpt>
      <trkpt lat="41.95932" lon="2.91638">
        <ele>333.6</ele>
        <time>2022-11-04 15:53:32</time>
      </trkpt>
      <trkpt lat="41.95929" lon="2.9163">
        <ele>333.8</ele>
        <time>2022-11-04 15:53:35</time>
      </trkpt>
      <trkpt lat="41.95921" lon="2.91619">
        <ele>334.4</ele>
        <time>2022-11-04 15:53:39</time>
      </trkpt>
      <trkpt lat="41.95917" lon="2.91615">
        <ele>334.4</ele>
        <time>2022-11-04 15:53:41</time>
      </trkpt>
      <trkpt lat="41.95903" lon="2.91605">
        <ele>334.8</ele>
        <time>2022-11-04 15:53:47</time>
      </trkpt>
      <trkpt lat="41.9589" lon="2.91599">
        <ele>334.6</ele>
        <time>2022-11-04 15:53:52</time>
      </trkpt>
      <trkpt lat="41.95878" lon="2.91591">
        <ele>334.2</ele>
        <time>2022-11-04 15:53:57</time>
      </trkpt>
      <trkpt lat="41.9587" lon="2.91573">
        <ele>333.2</ele>
        <time>2022-11-04 15:54:01</time>
      </trkpt>
      <trkpt lat="41.95867" lon="2.91561">
        <ele>332.6</ele>
        <time>2022-11-04 15:54:03</time>
      </trkpt>
      <trkpt lat="41.95867" lon="2.91553">
        <ele>332.2</ele>
        <time>2022-11-04 15:54:04</time>
      </trkpt>
      <trkpt lat="41.95867" lon="2.91545">
        <ele>331.8</ele>
        <time>2022-11-04 15:54:05</time>
      </trkpt>
      <trkpt lat="41.95871" lon="2.91529">
        <ele>331</ele>
        <time>2022-11-04 15:54:07</time>
      </trkpt>
      <trkpt lat="41.95877" lon="2.91512">
        <ele>330.2</ele>
        <time>2022-11-04 15:54:09</time>
      </trkpt>
      <trkpt lat="41.95881" lon="2.91505">
        <ele>329.8</ele>
        <time>2022-11-04 15:54:10</time>
      </trkpt>
      <trkpt lat="41.95886" lon="2.91497">
        <ele>329.2</ele>
        <time>2022-11-04 15:54:11</time>
      </trkpt>
      <trkpt lat="41.9589" lon="2.91488">
        <ele>328.8</ele>
        <time>2022-11-04 15:54:12</time>
      </trkpt>
      <trkpt lat="41.95891" lon="2.91479">
        <ele>327.8</ele>
        <time>2022-11-04 15:54:13</time>
      </trkpt>
      <trkpt lat="41.95886" lon="2.91448">
        <ele>326.8</ele>
        <time>2022-11-04 15:54:16</time>
      </trkpt>
      <trkpt lat="41.95884" lon="2.91421">
        <ele>327.2</ele>
        <time>2022-11-04 15:54:19</time>
      </trkpt>
      <trkpt lat="41.95884" lon="2.91414">
        <ele>327.4</ele>
        <time>2022-11-04 15:54:20</time>
      </trkpt>
      <trkpt lat="41.95886" lon="2.91379">
        <ele>328.4</ele>
        <time>2022-11-04 15:54:25</time>
      </trkpt>
      <trkpt lat="41.95886" lon="2.91372">
        <ele>328.6</ele>
        <time>2022-11-04 15:54:26</time>
      </trkpt>
      <trkpt lat="41.95886" lon="2.91365">
        <ele>328.8</ele>
        <time>2022-11-04 15:54:27</time>
      </trkpt>
      <trkpt lat="41.95886" lon="2.91359">
        <ele>329</ele>
        <time>2022-11-04 15:54:28</time>
      </trkpt>
      <trkpt lat="41.95884" lon="2.91345">
        <ele>329.2</ele>
        <time>2022-11-04 15:54:30</time>
      </trkpt>
      <trkpt lat="41.95882" lon="2.9134">
        <ele>329.4</ele>
        <time>2022-11-04 15:54:31</time>
      </trkpt>
      <trkpt lat="41.95876" lon="2.91326">
        <ele>330</ele>
        <time>2022-11-04 15:54:34</time>
      </trkpt>
      <trkpt lat="41.95871" lon="2.9132">
        <ele>330.6</ele>
        <time>2022-11-04 15:54:36</time>
      </trkpt>
      <trkpt lat="41.9587" lon="2.91318">
        <ele>331.2</ele>
        <time>2022-11-04 15:54:37</time>
      </trkpt>
      <trkpt lat="41.95868" lon="2.91313">
        <ele>331.4</ele>
        <time>2022-11-04 15:54:39</time>
      </trkpt>
      <trkpt lat="41.95867" lon="2.9131">
        <ele>331.4</ele>
        <time>2022-11-04 15:54:40</time>
      </trkpt>
      <trkpt lat="41.95863" lon="2.91294">
        <ele>332.2</ele>
        <time>2022-11-04 15:54:44</time>
      </trkpt>
      <trkpt lat="41.95862" lon="2.91286">
        <ele>332.6</ele>
        <time>2022-11-04 15:54:46</time>
      </trkpt>
      <trkpt lat="41.95858" lon="2.91268">
        <ele>333.4</ele>
        <time>2022-11-04 15:54:51</time>
      </trkpt>
      <trkpt lat="41.95856" lon="2.91257">
        <ele>333.4</ele>
        <time>2022-11-04 15:54:54</time>
      </trkpt>
      <trkpt lat="41.95852" lon="2.9123">
        <ele>334.2</ele>
        <time>2022-11-04 15:55:01</time>
      </trkpt>
      <trkpt lat="41.95841" lon="2.91204">
        <ele>334</ele>
        <time>2022-11-04 15:55:08</time>
      </trkpt>
      <trkpt lat="41.95824" lon="2.91174">
        <ele>332.8</ele>
        <time>2022-11-04 15:55:14</time>
      </trkpt>
      <trkpt lat="41.95819" lon="2.91161">
        <ele>332.4</ele>
        <time>2022-11-04 15:55:16</time>
      </trkpt>
      <trkpt lat="41.95816" lon="2.91139">
        <ele>331.8</ele>
        <time>2022-11-04 15:55:19</time>
      </trkpt>
      <trkpt lat="41.95812" lon="2.91116">
        <ele>331.2</ele>
        <time>2022-11-04 15:55:22</time>
      </trkpt>
      <trkpt lat="41.95805" lon="2.91092">
        <ele>330.2</ele>
        <time>2022-11-04 15:55:25</time>
      </trkpt>
      <trkpt lat="41.95799" lon="2.91056">
        <ele>329</ele>
        <time>2022-11-04 15:55:29</time>
      </trkpt>
      <trkpt lat="41.95798" lon="2.91037">
        <ele>328.6</ele>
        <time>2022-11-04 15:55:31</time>
      </trkpt>
      <trkpt lat="41.95795" lon="2.90965">
        <ele>328.8</ele>
        <time>2022-11-04 15:55:39</time>
      </trkpt>
      <trkpt lat="41.95793" lon="2.90938">
        <ele>330.2</ele>
        <time>2022-11-04 15:55:43</time>
      </trkpt>
      <trkpt lat="41.95791" lon="2.90932">
        <ele>330.6</ele>
        <time>2022-11-04 15:55:44</time>
      </trkpt>
      <trkpt lat="41.95786" lon="2.90924">
        <ele>331.6</ele>
        <time>2022-11-04 15:55:46</time>
      </trkpt>
      <trkpt lat="41.95779" lon="2.90919">
        <ele>332.2</ele>
        <time>2022-11-04 15:55:48</time>
      </trkpt>
      <trkpt lat="41.95775" lon="2.90917">
        <ele>332.4</ele>
        <time>2022-11-04 15:55:49</time>
      </trkpt>
      <trkpt lat="41.95771" lon="2.90915">
        <ele>333.2</ele>
        <time>2022-11-04 15:55:50</time>
      </trkpt>
      <trkpt lat="41.95757" lon="2.9091">
        <ele>334.2</ele>
        <time>2022-11-04 15:55:54</time>
      </trkpt>
      <trkpt lat="41.95753" lon="2.9091">
        <ele>334.6</ele>
        <time>2022-11-04 15:55:55</time>
      </trkpt>
      <trkpt lat="41.95742" lon="2.90907">
        <ele>335.4</ele>
        <time>2022-11-04 15:55:58</time>
      </trkpt>
      <trkpt lat="41.95728" lon="2.90904">
        <ele>336.6</ele>
        <time>2022-11-04 15:56:02</time>
      </trkpt>
      <trkpt lat="41.95712" lon="2.90898">
        <ele>337.8</ele>
        <time>2022-11-04 15:56:07</time>
      </trkpt>
      <trkpt lat="41.95702" lon="2.90899">
        <ele>338.4</ele>
        <time>2022-11-04 15:56:10</time>
      </trkpt>
      <trkpt lat="41.95696" lon="2.90901">
        <ele>338.8</ele>
        <time>2022-11-04 15:56:12</time>
      </trkpt>
      <trkpt lat="41.95685" lon="2.90905">
        <ele>340</ele>
        <time>2022-11-04 15:56:16</time>
      </trkpt>
      <trkpt lat="41.9567" lon="2.90915">
        <ele>341.4</ele>
        <time>2022-11-04 15:56:22</time>
      </trkpt>
      <trkpt lat="41.95655" lon="2.90921">
        <ele>342.4</ele>
        <time>2022-11-04 15:56:28</time>
      </trkpt>
      <trkpt lat="41.95653" lon="2.90923">
        <ele>342.6</ele>
        <time>2022-11-04 15:56:29</time>
      </trkpt>
      <trkpt lat="41.95641" lon="2.90926">
        <ele>343.4</ele>
        <time>2022-11-04 15:56:35</time>
      </trkpt>
      <trkpt lat="41.95626" lon="2.90931">
        <ele>344.6</ele>
        <time>2022-11-04 15:56:41</time>
      </trkpt>
      <trkpt lat="41.95623" lon="2.9093">
        <ele>344.8</ele>
        <time>2022-11-04 15:56:42</time>
      </trkpt>
      <trkpt lat="41.95611" lon="2.90929">
        <ele>345.6</ele>
        <time>2022-11-04 15:56:47</time>
      </trkpt>
      <trkpt lat="41.95607" lon="2.90927">
        <ele>346</ele>
        <time>2022-11-04 15:56:49</time>
      </trkpt>
      <trkpt lat="41.956" lon="2.9092">
        <ele>346.6</ele>
        <time>2022-11-04 15:56:53</time>
      </trkpt>
      <trkpt lat="41.95597" lon="2.90916">
        <ele>347</ele>
        <time>2022-11-04 15:56:55</time>
      </trkpt>
      <trkpt lat="41.95595" lon="2.90903">
        <ele>347.8</ele>
        <time>2022-11-04 15:56:59</time>
      </trkpt>
      <trkpt lat="41.95595" lon="2.909">
        <ele>348</ele>
        <time>2022-11-04 15:57:00</time>
      </trkpt>
      <trkpt lat="41.95596" lon="2.90891">
        <ele>349</ele>
        <time>2022-11-04 15:57:03</time>
      </trkpt>
      <trkpt lat="41.95598" lon="2.90881">
        <ele>349.6</ele>
        <time>2022-11-04 15:57:07</time>
      </trkpt>
      <trkpt lat="41.95598" lon="2.9087">
        <ele>350</ele>
        <time>2022-11-04 15:57:11</time>
      </trkpt>
      <trkpt lat="41.95597" lon="2.90861">
        <ele>350.6</ele>
        <time>2022-11-04 15:57:14</time>
      </trkpt>
      <trkpt lat="41.95597" lon="2.90853">
        <ele>351</ele>
        <time>2022-11-04 15:57:17</time>
      </trkpt>
      <trkpt lat="41.95595" lon="2.90842">
        <ele>351.8</ele>
        <time>2022-11-04 15:57:21</time>
      </trkpt>
      <trkpt lat="41.95593" lon="2.90836">
        <ele>352</ele>
        <time>2022-11-04 15:57:23</time>
      </trkpt>
      <trkpt lat="41.95589" lon="2.90826">
        <ele>352.8</ele>
        <time>2022-11-04 15:57:27</time>
      </trkpt>
      <trkpt lat="41.95579" lon="2.90812">
        <ele>353.2</ele>
        <time>2022-11-04 15:57:33</time>
      </trkpt>
      <trkpt lat="41.95565" lon="2.90789">
        <ele>353.8</ele>
        <time>2022-11-04 15:57:41</time>
      </trkpt>
      <trkpt lat="41.95555" lon="2.90767">
        <ele>354.2</ele>
        <time>2022-11-04 15:57:48</time>
      </trkpt>
      <trkpt lat="41.95554" lon="2.90764">
        <ele>354.2</ele>
        <time>2022-11-04 15:57:49</time>
      </trkpt>
      <trkpt lat="41.95547" lon="2.90745">
        <ele>355.2</ele>
        <time>2022-11-04 15:57:55</time>
      </trkpt>
      <trkpt lat="41.95542" lon="2.90737">
        <ele>355.6</ele>
        <time>2022-11-04 15:57:58</time>
      </trkpt>
      <trkpt lat="41.95534" lon="2.90728">
        <ele>356.2</ele>
        <time>2022-11-04 15:58:02</time>
      </trkpt>
      <trkpt lat="41.95523" lon="2.90715">
        <ele>357</ele>
        <time>2022-11-04 15:58:08</time>
      </trkpt>
      <trkpt lat="41.95521" lon="2.90714">
        <ele>357</ele>
        <time>2022-11-04 15:58:09</time>
      </trkpt>
      <trkpt lat="41.95517" lon="2.90714">
        <ele>357.2</ele>
        <time>2022-11-04 15:58:12</time>
      </trkpt>
      <trkpt lat="41.95517" lon="2.90713">
        <ele>357.4</ele>
        <time>2022-11-04 15:58:13</time>
      </trkpt>
      <trkpt lat="41.95516" lon="2.9071">
        <ele>357.6</ele>
        <time>2022-11-04 15:58:15</time>
      </trkpt>
      <trkpt lat="41.95511" lon="2.90706">
        <ele>357.8</ele>
        <time>2022-11-04 15:58:18</time>
      </trkpt>
      <trkpt lat="41.95502" lon="2.90697">
        <ele>358.4</ele>
        <time>2022-11-04 15:58:24</time>
      </trkpt>
      <trkpt lat="41.95493" lon="2.90683">
        <ele>358.8</ele>
        <time>2022-11-04 15:58:31</time>
      </trkpt>
      <trkpt lat="41.95485" lon="2.9067">
        <ele>359.4</ele>
        <time>2022-11-04 15:58:37</time>
      </trkpt>
      <trkpt lat="41.95475" lon="2.90654">
        <ele>360.2</ele>
        <time>2022-11-04 15:58:44</time>
      </trkpt>
      <trkpt lat="41.95471" lon="2.90647">
        <ele>360.4</ele>
        <time>2022-11-04 15:58:47</time>
      </trkpt>
      <trkpt lat="41.95466" lon="2.90636">
        <ele>360.8</ele>
        <time>2022-11-04 15:58:51</time>
      </trkpt>
      <trkpt lat="41.9546" lon="2.90617">
        <ele>361.2</ele>
        <time>2022-11-04 15:58:58</time>
      </trkpt>
      <trkpt lat="41.95458" lon="2.90605">
        <ele>361.6</ele>
        <time>2022-11-04 15:59:02</time>
      </trkpt>
      <trkpt lat="41.95458" lon="2.90598">
        <ele>361.8</ele>
        <time>2022-11-04 15:59:05</time>
      </trkpt>
      <trkpt lat="41.95459" lon="2.90597">
        <ele>361.8</ele>
        <time>2022-11-04 15:59:06</time>
      </trkpt>
      <trkpt lat="41.95462" lon="2.906">
        <ele>362.2</ele>
        <time>2022-11-04 15:59:08</time>
      </trkpt>
      <trkpt lat="41.95465" lon="2.90604">
        <ele>362.6</ele>
        <time>2022-11-04 15:59:10</time>
      </trkpt>
      <trkpt lat="41.95468" lon="2.90608">
        <ele>363.2</ele>
        <time>2022-11-04 15:59:12</time>
      </trkpt>
      <trkpt lat="41.95471" lon="2.90612">
        <ele>363.6</ele>
        <time>2022-11-04 15:59:14</time>
      </trkpt>
      <trkpt lat="41.95472" lon="2.90614">
        <ele>363.8</ele>
        <time>2022-11-04 15:59:15</time>
      </trkpt>
      <trkpt lat="41.95472" lon="2.90619">
        <ele>364.6</ele>
        <time>2022-11-04 15:59:19</time>
      </trkpt>
      <trkpt lat="41.95471" lon="2.90618">
        <ele>364.4</ele>
        <time>2022-11-04 15:59:25</time>
      </trkpt>
      <trkpt lat="41.95471" lon="2.90618">
        <ele>364.6</ele>
        <time>2022-11-04 15:59:34</time>
      </trkpt>
      <trkpt lat="41.95471" lon="2.90615">
        <ele>364.6</ele>
        <time>2022-11-04 15:59:35</time>
      </trkpt>
      <trkpt lat="41.95463" lon="2.906">
        <ele>363.8</ele>
        <time>2022-11-04 15:59:39</time>
      </trkpt>
      <trkpt lat="41.95458" lon="2.90591">
        <ele>362.6</ele>
        <time>2022-11-04 15:59:42</time>
      </trkpt>
      <trkpt lat="41.95458" lon="2.90592">
        <ele>362.4</ele>
        <time>2022-11-04 15:59:43</time>
      </trkpt>
      <trkpt lat="41.95457" lon="2.9059">
        <ele>362.4</ele>
        <time>2022-11-04 15:59:51</time>
      </trkpt>
      <trkpt lat="41.95457" lon="2.9059">
        <ele>362.4</ele>
        <time>2022-11-04 16:00:03</time>
      </trkpt>
      <trkpt lat="41.95452" lon="2.90583">
        <ele>362.4</ele>
        <time>2022-11-04 16:00:08</time>
      </trkpt>
      <trkpt lat="41.95438" lon="2.90567">
        <ele>362.8</ele>
        <time>2022-11-04 16:00:15</time>
      </trkpt>
      <trkpt lat="41.95426" lon="2.90547">
        <ele>363</ele>
        <time>2022-11-04 16:00:22</time>
      </trkpt>
      <trkpt lat="41.95424" lon="2.90527">
        <ele>362.6</ele>
        <time>2022-11-04 16:00:27</time>
      </trkpt>
      <trkpt lat="41.95423" lon="2.90504">
        <ele>362.4</ele>
        <time>2022-11-04 16:00:31</time>
      </trkpt>
      <trkpt lat="41.95419" lon="2.90494">
        <ele>362.4</ele>
        <time>2022-11-04 16:00:33</time>
      </trkpt>
      <trkpt lat="41.95414" lon="2.90487">
        <ele>362.4</ele>
        <time>2022-11-04 16:00:35</time>
      </trkpt>
      <trkpt lat="41.95403" lon="2.90474">
        <ele>363</ele>
        <time>2022-11-04 16:00:39</time>
      </trkpt>
      <trkpt lat="41.95389" lon="2.90458">
        <ele>363.6</ele>
        <time>2022-11-04 16:00:44</time>
      </trkpt>
      <trkpt lat="41.95381" lon="2.90448">
        <ele>363.6</ele>
        <time>2022-11-04 16:00:47</time>
      </trkpt>
      <trkpt lat="41.95363" lon="2.90419">
        <ele>364.6</ele>
        <time>2022-11-04 16:00:55</time>
      </trkpt>
      <trkpt lat="41.95362" lon="2.90415">
        <ele>364.6</ele>
        <time>2022-11-04 16:00:56</time>
      </trkpt>
      <trkpt lat="41.95357" lon="2.90393">
        <ele>366</ele>
        <time>2022-11-04 16:01:02</time>
      </trkpt>
      <trkpt lat="41.95357" lon="2.9039">
        <ele>366.2</ele>
        <time>2022-11-04 16:01:03</time>
      </trkpt>
      <trkpt lat="41.95359" lon="2.90376">
        <ele>366.4</ele>
        <time>2022-11-04 16:01:07</time>
      </trkpt>
      <trkpt lat="41.95369" lon="2.90356">
        <ele>366.8</ele>
        <time>2022-11-04 16:01:13</time>
      </trkpt>
      <trkpt lat="41.95376" lon="2.90339">
        <ele>367</ele>
        <time>2022-11-04 16:01:18</time>
      </trkpt>
      <trkpt lat="41.95378" lon="2.90334">
        <ele>367</ele>
        <time>2022-11-04 16:01:20</time>
      </trkpt>
      <trkpt lat="41.95385" lon="2.90322">
        <ele>367.6</ele>
        <time>2022-11-04 16:01:25</time>
      </trkpt>
      <trkpt lat="41.95397" lon="2.90309">
        <ele>368</ele>
        <time>2022-11-04 16:01:31</time>
      </trkpt>
      <trkpt lat="41.95415" lon="2.90304">
        <ele>368</ele>
        <time>2022-11-04 16:01:36</time>
      </trkpt>
      <trkpt lat="41.9544" lon="2.90291">
        <ele>367.8</ele>
        <time>2022-11-04 16:01:43</time>
      </trkpt>
      <trkpt lat="41.95455" lon="2.90279">
        <ele>367.8</ele>
        <time>2022-11-04 16:01:47</time>
      </trkpt>
      <trkpt lat="41.95463" lon="2.90268">
        <ele>367.8</ele>
        <time>2022-11-04 16:01:50</time>
      </trkpt>
      <trkpt lat="41.95465" lon="2.90265">
        <ele>368.2</ele>
        <time>2022-11-04 16:01:51</time>
      </trkpt>
      <trkpt lat="41.95478" lon="2.90246">
        <ele>369</ele>
        <time>2022-11-04 16:01:56</time>
      </trkpt>
      <trkpt lat="41.9548" lon="2.90242">
        <ele>369.2</ele>
        <time>2022-11-04 16:01:57</time>
      </trkpt>
      <trkpt lat="41.95497" lon="2.90214">
        <ele>370</ele>
        <time>2022-11-04 16:02:04</time>
      </trkpt>
      <trkpt lat="41.95505" lon="2.90188">
        <ele>370.2</ele>
        <time>2022-11-04 16:02:10</time>
      </trkpt>
      <trkpt lat="41.95505" lon="2.90183">
        <ele>370.2</ele>
        <time>2022-11-04 16:02:11</time>
      </trkpt>
      <trkpt lat="41.95507" lon="2.90165">
        <ele>370</ele>
        <time>2022-11-04 16:02:15</time>
      </trkpt>
      <trkpt lat="41.95511" lon="2.90156">
        <ele>369.6</ele>
        <time>2022-11-04 16:02:17</time>
      </trkpt>
      <trkpt lat="41.9552" lon="2.90142">
        <ele>369.2</ele>
        <time>2022-11-04 16:02:20</time>
      </trkpt>
      <trkpt lat="41.95523" lon="2.90137">
        <ele>369.2</ele>
        <time>2022-11-04 16:02:21</time>
      </trkpt>
      <trkpt lat="41.95526" lon="2.90131">
        <ele>369</ele>
        <time>2022-11-04 16:02:22</time>
      </trkpt>
      <trkpt lat="41.95531" lon="2.90112">
        <ele>368.6</ele>
        <time>2022-11-04 16:02:25</time>
      </trkpt>
      <trkpt lat="41.95529" lon="2.90082">
        <ele>368.2</ele>
        <time>2022-11-04 16:02:29</time>
      </trkpt>
      <trkpt lat="41.95529" lon="2.90075">
        <ele>368.4</ele>
        <time>2022-11-04 16:02:30</time>
      </trkpt>
      <trkpt lat="41.95526" lon="2.9004">
        <ele>369.2</ele>
        <time>2022-11-04 16:02:36</time>
      </trkpt>
      <trkpt lat="41.95534" lon="2.90024">
        <ele>370.4</ele>
        <time>2022-11-04 16:02:40</time>
      </trkpt>
      <trkpt lat="41.95543" lon="2.90009">
        <ele>371.4</ele>
        <time>2022-11-04 16:02:45</time>
      </trkpt>
      <trkpt lat="41.95546" lon="2.90003">
        <ele>371.4</ele>
        <time>2022-11-04 16:02:47</time>
      </trkpt>
      <trkpt lat="41.95552" lon="2.89984">
        <ele>371.6</ele>
        <time>2022-11-04 16:02:52</time>
      </trkpt>
      <trkpt lat="41.95551" lon="2.89955">
        <ele>371</ele>
        <time>2022-11-04 16:02:58</time>
      </trkpt>
      <trkpt lat="41.9555" lon="2.8995">
        <ele>370.8</ele>
        <time>2022-11-04 16:02:59</time>
      </trkpt>
      <trkpt lat="41.95547" lon="2.89946">
        <ele>370.6</ele>
        <time>2022-11-04 16:03:00</time>
      </trkpt>
      <trkpt lat="41.95539" lon="2.89936">
        <ele>370.2</ele>
        <time>2022-11-04 16:03:02</time>
      </trkpt>
      <trkpt lat="41.9551" lon="2.89912">
        <ele>369.2</ele>
        <time>2022-11-04 16:03:08</time>
      </trkpt>
      <trkpt lat="41.95505" lon="2.89906">
        <ele>368.8</ele>
        <time>2022-11-04 16:03:09</time>
      </trkpt>
      <trkpt lat="41.95499" lon="2.89891">
        <ele>368</ele>
        <time>2022-11-04 16:03:11</time>
      </trkpt>
      <trkpt lat="41.95498" lon="2.89871">
        <ele>366.8</ele>
        <time>2022-11-04 16:03:13</time>
      </trkpt>
      <trkpt lat="41.955" lon="2.89861">
        <ele>366.2</ele>
        <time>2022-11-04 16:03:14</time>
      </trkpt>
      <trkpt lat="41.95501" lon="2.8984">
        <ele>365.4</ele>
        <time>2022-11-04 16:03:16</time>
      </trkpt>
      <trkpt lat="41.95501" lon="2.89829">
        <ele>365.2</ele>
        <time>2022-11-04 16:03:17</time>
      </trkpt>
      <trkpt lat="41.95498" lon="2.89809">
        <ele>364.6</ele>
        <time>2022-11-04 16:03:19</time>
      </trkpt>
      <trkpt lat="41.95496" lon="2.898">
        <ele>364.2</ele>
        <time>2022-11-04 16:03:20</time>
      </trkpt>
      <trkpt lat="41.95494" lon="2.89792">
        <ele>363.8</ele>
        <time>2022-11-04 16:03:21</time>
      </trkpt>
      <trkpt lat="41.95491" lon="2.89779">
        <ele>362.8</ele>
        <time>2022-11-04 16:03:23</time>
      </trkpt>
      <trkpt lat="41.9549" lon="2.89767">
        <ele>361.8</ele>
        <time>2022-11-04 16:03:27</time>
      </trkpt>
      <trkpt lat="41.95491" lon="2.89767">
        <ele>362</ele>
        <time>2022-11-04 16:03:32</time>
      </trkpt>
      <trkpt lat="41.95489" lon="2.89761">
        <ele>361.6</ele>
        <time>2022-11-04 16:03:39</time>
      </trkpt>
      <trkpt lat="41.95488" lon="2.89759">
        <ele>361.6</ele>
        <time>2022-11-04 16:03:41</time>
      </trkpt>
      <trkpt lat="41.95486" lon="2.89756">
        <ele>361.6</ele>
        <time>2022-11-04 16:03:43</time>
      </trkpt>
      <trkpt lat="41.95482" lon="2.89743">
        <ele>361.6</ele>
        <time>2022-11-04 16:03:47</time>
      </trkpt>
      <trkpt lat="41.95479" lon="2.89723">
        <ele>360.8</ele>
        <time>2022-11-04 16:03:51</time>
      </trkpt>
      <trkpt lat="41.95478" lon="2.89717">
        <ele>360.6</ele>
        <time>2022-11-04 16:03:52</time>
      </trkpt>
      <trkpt lat="41.95477" lon="2.89704">
        <ele>359.8</ele>
        <time>2022-11-04 16:03:55</time>
      </trkpt>
      <trkpt lat="41.95476" lon="2.89699">
        <ele>359.6</ele>
        <time>2022-11-04 16:03:56</time>
      </trkpt>
      <trkpt lat="41.95474" lon="2.89684">
        <ele>359.2</ele>
        <time>2022-11-04 16:03:59</time>
      </trkpt>
      <trkpt lat="41.95473" lon="2.89671">
        <ele>358.8</ele>
        <time>2022-11-04 16:04:01</time>
      </trkpt>
      <trkpt lat="41.95467" lon="2.89649">
        <ele>357.6</ele>
        <time>2022-11-04 16:04:04</time>
      </trkpt>
      <trkpt lat="41.95463" lon="2.89641">
        <ele>357.2</ele>
        <time>2022-11-04 16:04:05</time>
      </trkpt>
      <trkpt lat="41.95455" lon="2.89624">
        <ele>356.2</ele>
        <time>2022-11-04 16:04:07</time>
      </trkpt>
      <trkpt lat="41.9545" lon="2.89604">
        <ele>355.2</ele>
        <time>2022-11-04 16:04:09</time>
      </trkpt>
      <trkpt lat="41.95449" lon="2.89592">
        <ele>354.8</ele>
        <time>2022-11-04 16:04:10</time>
      </trkpt>
      <trkpt lat="41.95451" lon="2.89557">
        <ele>354</ele>
        <time>2022-11-04 16:04:13</time>
      </trkpt>
      <trkpt lat="41.95452" lon="2.89545">
        <ele>353.6</ele>
        <time>2022-11-04 16:04:14</time>
      </trkpt>
      <trkpt lat="41.95454" lon="2.89522">
        <ele>353.4</ele>
        <time>2022-11-04 16:04:16</time>
      </trkpt>
      <trkpt lat="41.95452" lon="2.89499">
        <ele>353.6</ele>
        <time>2022-11-04 16:04:18</time>
      </trkpt>
      <trkpt lat="41.95449" lon="2.89468">
        <ele>354</ele>
        <time>2022-11-04 16:04:21</time>
      </trkpt>
      <trkpt lat="41.9545" lon="2.89449">
        <ele>354.4</ele>
        <time>2022-11-04 16:04:23</time>
      </trkpt>
      <trkpt lat="41.95452" lon="2.8944">
        <ele>354.6</ele>
        <time>2022-11-04 16:04:24</time>
      </trkpt>
      <trkpt lat="41.95454" lon="2.89431">
        <ele>354.8</ele>
        <time>2022-11-04 16:04:25</time>
      </trkpt>
      <trkpt lat="41.95462" lon="2.89404">
        <ele>354.8</ele>
        <time>2022-11-04 16:04:28</time>
      </trkpt>
      <trkpt lat="41.95481" lon="2.89346">
        <ele>353.6</ele>
        <time>2022-11-04 16:04:34</time>
      </trkpt>
      <trkpt lat="41.95489" lon="2.89293">
        <ele>353.2</ele>
        <time>2022-11-04 16:04:39</time>
      </trkpt>
      <trkpt lat="41.95486" lon="2.89256">
        <ele>353.8</ele>
        <time>2022-11-04 16:04:43</time>
      </trkpt>
      <trkpt lat="41.95478" lon="2.89208">
        <ele>354.6</ele>
        <time>2022-11-04 16:04:49</time>
      </trkpt>
      <trkpt lat="41.95476" lon="2.89201">
        <ele>354.8</ele>
        <time>2022-11-04 16:04:50</time>
      </trkpt>
      <trkpt lat="41.95467" lon="2.89175">
        <ele>355.2</ele>
        <time>2022-11-04 16:04:54</time>
      </trkpt>
      <trkpt lat="41.95447" lon="2.8913">
        <ele>355.2</ele>
        <time>2022-11-04 16:05:01</time>
      </trkpt>
      <trkpt lat="41.95424" lon="2.89076">
        <ele>353.4</ele>
        <time>2022-11-04 16:05:08</time>
      </trkpt>
      <trkpt lat="41.9541" lon="2.89042">
        <ele>352.2</ele>
        <time>2022-11-04 16:05:12</time>
      </trkpt>
      <trkpt lat="41.95405" lon="2.89023">
        <ele>351.6</ele>
        <time>2022-11-04 16:05:14</time>
      </trkpt>
      <trkpt lat="41.95402" lon="2.89004">
        <ele>351</ele>
        <time>2022-11-04 16:05:16</time>
      </trkpt>
      <trkpt lat="41.95392" lon="2.88976">
        <ele>350.2</ele>
        <time>2022-11-04 16:05:19</time>
      </trkpt>
      <trkpt lat="41.9539" lon="2.88966">
        <ele>349.8</ele>
        <time>2022-11-04 16:05:20</time>
      </trkpt>
      <trkpt lat="41.95387" lon="2.88943">
        <ele>348.8</ele>
        <time>2022-11-04 16:05:22</time>
      </trkpt>
      <trkpt lat="41.95387" lon="2.88931">
        <ele>348.2</ele>
        <time>2022-11-04 16:05:23</time>
      </trkpt>
      <trkpt lat="41.95393" lon="2.88896">
        <ele>347.2</ele>
        <time>2022-11-04 16:05:26</time>
      </trkpt>
      <trkpt lat="41.95401" lon="2.88854">
        <ele>347.6</ele>
        <time>2022-11-04 16:05:30</time>
      </trkpt>
      <trkpt lat="41.95402" lon="2.88844">
        <ele>347.8</ele>
        <time>2022-11-04 16:05:31</time>
      </trkpt>
      <trkpt lat="41.95405" lon="2.88807">
        <ele>347.4</ele>
        <time>2022-11-04 16:05:35</time>
      </trkpt>
      <trkpt lat="41.95407" lon="2.88798">
        <ele>347.2</ele>
        <time>2022-11-04 16:05:36</time>
      </trkpt>
      <trkpt lat="41.95411" lon="2.8878">
        <ele>346.8</ele>
        <time>2022-11-04 16:05:38</time>
      </trkpt>
      <trkpt lat="41.95413" lon="2.88749">
        <ele>345.6</ele>
        <time>2022-11-04 16:05:41</time>
      </trkpt>
      <trkpt lat="41.95407" lon="2.88718">
        <ele>344.2</ele>
        <time>2022-11-04 16:05:44</time>
      </trkpt>
      <trkpt lat="41.95391" lon="2.8869">
        <ele>343</ele>
        <time>2022-11-04 16:05:47</time>
      </trkpt>
      <trkpt lat="41.95385" lon="2.88682">
        <ele>342.6</ele>
        <time>2022-11-04 16:05:48</time>
      </trkpt>
      <trkpt lat="41.95375" lon="2.88664">
        <ele>341.6</ele>
        <time>2022-11-04 16:05:50</time>
      </trkpt>
      <trkpt lat="41.95371" lon="2.88654">
        <ele>341.2</ele>
        <time>2022-11-04 16:05:51</time>
      </trkpt>
      <trkpt lat="41.95369" lon="2.88631">
        <ele>340</ele>
        <time>2022-11-04 16:05:53</time>
      </trkpt>
      <trkpt lat="41.95371" lon="2.8862">
        <ele>339.6</ele>
        <time>2022-11-04 16:05:54</time>
      </trkpt>
      <trkpt lat="41.95375" lon="2.88609">
        <ele>339</ele>
        <time>2022-11-04 16:05:55</time>
      </trkpt>
      <trkpt lat="41.95383" lon="2.88588">
        <ele>338.2</ele>
        <time>2022-11-04 16:05:57</time>
      </trkpt>
      <trkpt lat="41.95387" lon="2.88579">
        <ele>337.6</ele>
        <time>2022-11-04 16:05:58</time>
      </trkpt>
      <trkpt lat="41.95395" lon="2.88558">
        <ele>336.8</ele>
        <time>2022-11-04 16:06:00</time>
      </trkpt>
      <trkpt lat="41.95398" lon="2.88548">
        <ele>336.4</ele>
        <time>2022-11-04 16:06:01</time>
      </trkpt>
      <trkpt lat="41.95398" lon="2.88538">
        <ele>335.6</ele>
        <time>2022-11-04 16:06:02</time>
      </trkpt>
      <trkpt lat="41.95396" lon="2.88529">
        <ele>334.8</ele>
        <time>2022-11-04 16:06:03</time>
      </trkpt>
      <trkpt lat="41.95385" lon="2.88515">
        <ele>333.4</ele>
        <time>2022-11-04 16:06:05</time>
      </trkpt>
      <trkpt lat="41.95377" lon="2.88507">
        <ele>332.8</ele>
        <time>2022-11-04 16:06:06</time>
      </trkpt>
      <trkpt lat="41.9537" lon="2.885">
        <ele>332.2</ele>
        <time>2022-11-04 16:06:07</time>
      </trkpt>
      <trkpt lat="41.95365" lon="2.8849">
        <ele>331.6</ele>
        <time>2022-11-04 16:06:08</time>
      </trkpt>
      <trkpt lat="41.95362" lon="2.88479">
        <ele>331.2</ele>
        <time>2022-11-04 16:06:09</time>
      </trkpt>
      <trkpt lat="41.95362" lon="2.88442">
        <ele>330</ele>
        <time>2022-11-04 16:06:12</time>
      </trkpt>
      <trkpt lat="41.95367" lon="2.88394">
        <ele>329.2</ele>
        <time>2022-11-04 16:06:16</time>
      </trkpt>
      <trkpt lat="41.95364" lon="2.88371">
        <ele>328.6</ele>
        <time>2022-11-04 16:06:18</time>
      </trkpt>
      <trkpt lat="41.95363" lon="2.88359">
        <ele>328.2</ele>
        <time>2022-11-04 16:06:19</time>
      </trkpt>
      <trkpt lat="41.95363" lon="2.88348">
        <ele>328</ele>
        <time>2022-11-04 16:06:20</time>
      </trkpt>
      <trkpt lat="41.95368" lon="2.88325">
        <ele>327.6</ele>
        <time>2022-11-04 16:06:22</time>
      </trkpt>
      <trkpt lat="41.95372" lon="2.88317">
        <ele>327.6</ele>
        <time>2022-11-04 16:06:23</time>
      </trkpt>
      <trkpt lat="41.9539" lon="2.88298">
        <ele>327</ele>
        <time>2022-11-04 16:06:26</time>
      </trkpt>
      <trkpt lat="41.95397" lon="2.88292">
        <ele>326.8</ele>
        <time>2022-11-04 16:06:27</time>
      </trkpt>
      <trkpt lat="41.95405" lon="2.88274">
        <ele>326.4</ele>
        <time>2022-11-04 16:06:29</time>
      </trkpt>
      <trkpt lat="41.95407" lon="2.88253">
        <ele>325.4</ele>
        <time>2022-11-04 16:06:31</time>
      </trkpt>
      <trkpt lat="41.95406" lon="2.88242">
        <ele>324.8</ele>
        <time>2022-11-04 16:06:32</time>
      </trkpt>
      <trkpt lat="41.95403" lon="2.88231">
        <ele>324.4</ele>
        <time>2022-11-04 16:06:33</time>
      </trkpt>
      <trkpt lat="41.95396" lon="2.88209">
        <ele>323</ele>
        <time>2022-11-04 16:06:35</time>
      </trkpt>
      <trkpt lat="41.95391" lon="2.88199">
        <ele>322.6</ele>
        <time>2022-11-04 16:06:36</time>
      </trkpt>
      <trkpt lat="41.95384" lon="2.88191">
        <ele>321.8</ele>
        <time>2022-11-04 16:06:37</time>
      </trkpt>
      <trkpt lat="41.95377" lon="2.88184">
        <ele>320.6</ele>
        <time>2022-11-04 16:06:38</time>
      </trkpt>
      <trkpt lat="41.95369" lon="2.88178">
        <ele>320</ele>
        <time>2022-11-04 16:06:39</time>
      </trkpt>
      <trkpt lat="41.95361" lon="2.88171">
        <ele>319.4</ele>
        <time>2022-11-04 16:06:40</time>
      </trkpt>
      <trkpt lat="41.95355" lon="2.88164">
        <ele>318.8</ele>
        <time>2022-11-04 16:06:41</time>
      </trkpt>
      <trkpt lat="41.9535" lon="2.88154">
        <ele>318</ele>
        <time>2022-11-04 16:06:42</time>
      </trkpt>
      <trkpt lat="41.95347" lon="2.88143">
        <ele>317.2</ele>
        <time>2022-11-04 16:06:43</time>
      </trkpt>
      <trkpt lat="41.95345" lon="2.88131">
        <ele>316.4</ele>
        <time>2022-11-04 16:06:44</time>
      </trkpt>
      <trkpt lat="41.95343" lon="2.88119">
        <ele>315.6</ele>
        <time>2022-11-04 16:06:45</time>
      </trkpt>
      <trkpt lat="41.95342" lon="2.88106">
        <ele>314.8</ele>
        <time>2022-11-04 16:06:46</time>
      </trkpt>
      <trkpt lat="41.9534" lon="2.88093">
        <ele>314.2</ele>
        <time>2022-11-04 16:06:47</time>
      </trkpt>
      <trkpt lat="41.95338" lon="2.88079">
        <ele>313.6</ele>
        <time>2022-11-04 16:06:48</time>
      </trkpt>
      <trkpt lat="41.95329" lon="2.88038">
        <ele>312</ele>
        <time>2022-11-04 16:06:51</time>
      </trkpt>
      <trkpt lat="41.95326" lon="2.88024">
        <ele>311</ele>
        <time>2022-11-04 16:06:52</time>
      </trkpt>
      <trkpt lat="41.95322" lon="2.88011">
        <ele>310</ele>
        <time>2022-11-04 16:06:53</time>
      </trkpt>
      <trkpt lat="41.95318" lon="2.87999">
        <ele>309.2</ele>
        <time>2022-11-04 16:06:54</time>
      </trkpt>
      <trkpt lat="41.95313" lon="2.87988">
        <ele>308.6</ele>
        <time>2022-11-04 16:06:55</time>
      </trkpt>
      <trkpt lat="41.9531" lon="2.87978">
        <ele>307.8</ele>
        <time>2022-11-04 16:06:56</time>
      </trkpt>
      <trkpt lat="41.95309" lon="2.87968">
        <ele>307</ele>
        <time>2022-11-04 16:06:57</time>
      </trkpt>
      <trkpt lat="41.95313" lon="2.87949">
        <ele>305.2</ele>
        <time>2022-11-04 16:06:59</time>
      </trkpt>
      <trkpt lat="41.95321" lon="2.87937">
        <ele>303.8</ele>
        <time>2022-11-04 16:07:01</time>
      </trkpt>
      <trkpt lat="41.95327" lon="2.87936">
        <ele>302.4</ele>
        <time>2022-11-04 16:07:02</time>
      </trkpt>
      <trkpt lat="41.95345" lon="2.8794">
        <ele>301.2</ele>
        <time>2022-11-04 16:07:04</time>
      </trkpt>
      <trkpt lat="41.95365" lon="2.87935">
        <ele>300</ele>
        <time>2022-11-04 16:07:06</time>
      </trkpt>
      <trkpt lat="41.95373" lon="2.87929">
        <ele>299.6</ele>
        <time>2022-11-04 16:07:07</time>
      </trkpt>
      <trkpt lat="41.95381" lon="2.87923">
        <ele>299</ele>
        <time>2022-11-04 16:07:08</time>
      </trkpt>
      <trkpt lat="41.95387" lon="2.87903">
        <ele>298</ele>
        <time>2022-11-04 16:07:10</time>
      </trkpt>
      <trkpt lat="41.95389" lon="2.87893">
        <ele>297.6</ele>
        <time>2022-11-04 16:07:11</time>
      </trkpt>
      <trkpt lat="41.95389" lon="2.87875">
        <ele>296.4</ele>
        <time>2022-11-04 16:07:13</time>
      </trkpt>
      <trkpt lat="41.95389" lon="2.87866">
        <ele>295.6</ele>
        <time>2022-11-04 16:07:14</time>
      </trkpt>
      <trkpt lat="41.95388" lon="2.87858">
        <ele>295</ele>
        <time>2022-11-04 16:07:15</time>
      </trkpt>
      <trkpt lat="41.95383" lon="2.87843">
        <ele>293.6</ele>
        <time>2022-11-04 16:07:17</time>
      </trkpt>
      <trkpt lat="41.95368" lon="2.87826">
        <ele>292</ele>
        <time>2022-11-04 16:07:19</time>
      </trkpt>
      <trkpt lat="41.95364" lon="2.87816">
        <ele>291.2</ele>
        <time>2022-11-04 16:07:20</time>
      </trkpt>
      <trkpt lat="41.95363" lon="2.87806">
        <ele>290.6</ele>
        <time>2022-11-04 16:07:21</time>
      </trkpt>
      <trkpt lat="41.95367" lon="2.87788">
        <ele>289.2</ele>
        <time>2022-11-04 16:07:23</time>
      </trkpt>
      <trkpt lat="41.9537" lon="2.87776">
        <ele>287.8</ele>
        <time>2022-11-04 16:07:25</time>
      </trkpt>
      <trkpt lat="41.95373" lon="2.87771">
        <ele>286.8</ele>
        <time>2022-11-04 16:07:26</time>
      </trkpt>
      <trkpt lat="41.95375" lon="2.87765">
        <ele>286.6</ele>
        <time>2022-11-04 16:07:27</time>
      </trkpt>
      <trkpt lat="41.95365" lon="2.87757">
        <ele>286</ele>
        <time>2022-11-04 16:07:29</time>
      </trkpt>
      <trkpt lat="41.9536" lon="2.87756">
        <ele>285.8</ele>
        <time>2022-11-04 16:07:30</time>
      </trkpt>
      <trkpt lat="41.95359" lon="2.87756">
        <ele>285.6</ele>
        <time>2022-11-04 16:07:31</time>
      </trkpt>
      <trkpt lat="41.95359" lon="2.87756">
        <ele>285.6</ele>
        <time>2022-11-04 16:07:32</time>
      </trkpt>
      <trkpt lat="41.95358" lon="2.87756">
        <ele>285.4</ele>
        <time>2022-11-04 16:07:41</time>
      </trkpt>
      <trkpt lat="41.95358" lon="2.87756">
        <ele>285.4</ele>
        <time>2022-11-04 16:07:52</time>
      </trkpt>
      <trkpt lat="41.95358" lon="2.87756">
        <ele>285.2</ele>
        <time>2022-11-04 16:08:08</time>
      </trkpt>
      <trkpt lat="41.95356" lon="2.87757">
        <ele>285.2</ele>
        <time>2022-11-04 16:08:24</time>
      </trkpt>
      <trkpt lat="41.95356" lon="2.87757">
        <ele>285</ele>
        <time>2022-11-04 16:08:37</time>
      </trkpt>
      <trkpt lat="41.95346" lon="2.87757">
        <ele>285</ele>
        <time>2022-11-04 16:08:47</time>
      </trkpt>
      <trkpt lat="41.95342" lon="2.87755">
        <ele>284.8</ele>
        <time>2022-11-04 16:08:48</time>
      </trkpt>
      <trkpt lat="41.95336" lon="2.87747">
        <ele>284.4</ele>
        <time>2022-11-04 16:08:50</time>
      </trkpt>
      <trkpt lat="41.95331" lon="2.87744">
        <ele>284.2</ele>
        <time>2022-11-04 16:08:51</time>
      </trkpt>
      <trkpt lat="41.9532" lon="2.87741">
        <ele>283.4</ele>
        <time>2022-11-04 16:08:53</time>
      </trkpt>
      <trkpt lat="41.95307" lon="2.87737">
        <ele>282.6</ele>
        <time>2022-11-04 16:08:55</time>
      </trkpt>
      <trkpt lat="41.953" lon="2.87736">
        <ele>282.2</ele>
        <time>2022-11-04 16:08:56</time>
      </trkpt>
      <trkpt lat="41.9528" lon="2.87729">
        <ele>281.2</ele>
        <time>2022-11-04 16:08:59</time>
      </trkpt>
      <trkpt lat="41.95274" lon="2.87727">
        <ele>281.2</ele>
        <time>2022-11-04 16:09:00</time>
      </trkpt>
      <trkpt lat="41.95266" lon="2.87725">
        <ele>280.2</ele>
        <time>2022-11-04 16:09:03</time>
      </trkpt>
      <trkpt lat="41.95256" lon="2.87729">
        <ele>279.6</ele>
        <time>2022-11-04 16:09:08</time>
      </trkpt>
      <trkpt lat="41.95252" lon="2.87728">
        <ele>279.6</ele>
        <time>2022-11-04 16:09:09</time>
      </trkpt>
      <trkpt lat="41.95239" lon="2.87727">
        <ele>279</ele>
        <time>2022-11-04 16:09:12</time>
      </trkpt>
      <trkpt lat="41.95233" lon="2.87726">
        <ele>278.8</ele>
        <time>2022-11-04 16:09:13</time>
      </trkpt>
      <trkpt lat="41.95216" lon="2.8772">
        <ele>278</ele>
        <time>2022-11-04 16:09:16</time>
      </trkpt>
      <trkpt lat="41.95203" lon="2.87714">
        <ele>277.2</ele>
        <time>2022-11-04 16:09:18</time>
      </trkpt>
      <trkpt lat="41.95196" lon="2.8771">
        <ele>276.8</ele>
        <time>2022-11-04 16:09:19</time>
      </trkpt>
      <trkpt lat="41.9519" lon="2.87706">
        <ele>276.4</ele>
        <time>2022-11-04 16:09:20</time>
      </trkpt>
      <trkpt lat="41.95177" lon="2.87693">
        <ele>275.6</ele>
        <time>2022-11-04 16:09:22</time>
      </trkpt>
      <trkpt lat="41.95164" lon="2.87665">
        <ele>274.2</ele>
        <time>2022-11-04 16:09:25</time>
      </trkpt>
      <trkpt lat="41.95156" lon="2.87644">
        <ele>272.6</ele>
        <time>2022-11-04 16:09:27</time>
      </trkpt>
      <trkpt lat="41.95142" lon="2.87612">
        <ele>271.4</ele>
        <time>2022-11-04 16:09:30</time>
      </trkpt>
      <trkpt lat="41.95131" lon="2.87592">
        <ele>270.6</ele>
        <time>2022-11-04 16:09:32</time>
      </trkpt>
      <trkpt lat="41.95124" lon="2.87583">
        <ele>270.2</ele>
        <time>2022-11-04 16:09:33</time>
      </trkpt>
      <trkpt lat="41.95102" lon="2.87557">
        <ele>269</ele>
        <time>2022-11-04 16:09:36</time>
      </trkpt>
      <trkpt lat="41.95087" lon="2.8754">
        <ele>267.6</ele>
        <time>2022-11-04 16:09:38</time>
      </trkpt>
      <trkpt lat="41.95075" lon="2.87516">
        <ele>266</ele>
        <time>2022-11-04 16:09:40</time>
      </trkpt>
      <trkpt lat="41.95064" lon="2.87491">
        <ele>264.6</ele>
        <time>2022-11-04 16:09:42</time>
      </trkpt>
      <trkpt lat="41.95046" lon="2.87473">
        <ele>263.2</ele>
        <time>2022-11-04 16:09:44</time>
      </trkpt>
      <trkpt lat="41.95028" lon="2.87462">
        <ele>261.6</ele>
        <time>2022-11-04 16:09:46</time>
      </trkpt>
      <trkpt lat="41.95019" lon="2.87459">
        <ele>260.8</ele>
        <time>2022-11-04 16:09:47</time>
      </trkpt>
      <trkpt lat="41.9501" lon="2.87456">
        <ele>260</ele>
        <time>2022-11-04 16:09:48</time>
      </trkpt>
      <trkpt lat="41.95003" lon="2.87451">
        <ele>259</ele>
        <time>2022-11-04 16:09:49</time>
      </trkpt>
      <trkpt lat="41.94998" lon="2.87444">
        <ele>258.4</ele>
        <time>2022-11-04 16:09:50</time>
      </trkpt>
      <trkpt lat="41.94995" lon="2.87434">
        <ele>256.8</ele>
        <time>2022-11-04 16:09:51</time>
      </trkpt>
      <trkpt lat="41.94995" lon="2.87422">
        <ele>256.2</ele>
        <time>2022-11-04 16:09:52</time>
      </trkpt>
      <trkpt lat="41.94996" lon="2.8741">
        <ele>255.4</ele>
        <time>2022-11-04 16:09:53</time>
      </trkpt>
      <trkpt lat="41.95002" lon="2.87386">
        <ele>253.8</ele>
        <time>2022-11-04 16:09:55</time>
      </trkpt>
      <trkpt lat="41.95003" lon="2.87359">
        <ele>252.4</ele>
        <time>2022-11-04 16:09:57</time>
      </trkpt>
      <trkpt lat="41.94999" lon="2.87331">
        <ele>251</ele>
        <time>2022-11-04 16:09:59</time>
      </trkpt>
      <trkpt lat="41.94996" lon="2.87317">
        <ele>250.2</ele>
        <time>2022-11-04 16:10:00</time>
      </trkpt>
      <trkpt lat="41.94994" lon="2.87305">
        <ele>249.4</ele>
        <time>2022-11-04 16:10:01</time>
      </trkpt>
      <trkpt lat="41.94991" lon="2.87281">
        <ele>248</ele>
        <time>2022-11-04 16:10:03</time>
      </trkpt>
      <trkpt lat="41.94995" lon="2.8726">
        <ele>246.6</ele>
        <time>2022-11-04 16:10:05</time>
      </trkpt>
      <trkpt lat="41.95" lon="2.87251">
        <ele>246</ele>
        <time>2022-11-04 16:10:06</time>
      </trkpt>
      <trkpt lat="41.95007" lon="2.87245">
        <ele>245.4</ele>
        <time>2022-11-04 16:10:07</time>
      </trkpt>
      <trkpt lat="41.95026" lon="2.87242">
        <ele>244.2</ele>
        <time>2022-11-04 16:10:09</time>
      </trkpt>
      <trkpt lat="41.95044" lon="2.87252">
        <ele>243.2</ele>
        <time>2022-11-04 16:10:11</time>
      </trkpt>
      <trkpt lat="41.95052" lon="2.87263">
        <ele>242.4</ele>
        <time>2022-11-04 16:10:12</time>
      </trkpt>
      <trkpt lat="41.9506" lon="2.87275">
        <ele>241.8</ele>
        <time>2022-11-04 16:10:13</time>
      </trkpt>
      <trkpt lat="41.95075" lon="2.87296">
        <ele>239.8</ele>
        <time>2022-11-04 16:10:15</time>
      </trkpt>
      <trkpt lat="41.95084" lon="2.87304">
        <ele>239</ele>
        <time>2022-11-04 16:10:16</time>
      </trkpt>
      <trkpt lat="41.95094" lon="2.87312">
        <ele>238.4</ele>
        <time>2022-11-04 16:10:17</time>
      </trkpt>
      <trkpt lat="41.95104" lon="2.87319">
        <ele>237.8</ele>
        <time>2022-11-04 16:10:18</time>
      </trkpt>
      <trkpt lat="41.95114" lon="2.87326">
        <ele>237</ele>
        <time>2022-11-04 16:10:19</time>
      </trkpt>
      <trkpt lat="41.95135" lon="2.87341">
        <ele>235.6</ele>
        <time>2022-11-04 16:10:21</time>
      </trkpt>
      <trkpt lat="41.95155" lon="2.87358">
        <ele>234.2</ele>
        <time>2022-11-04 16:10:23</time>
      </trkpt>
      <trkpt lat="41.95172" lon="2.87373">
        <ele>232.8</ele>
        <time>2022-11-04 16:10:25</time>
      </trkpt>
      <trkpt lat="41.9518" lon="2.87377">
        <ele>232</ele>
        <time>2022-11-04 16:10:26</time>
      </trkpt>
      <trkpt lat="41.95188" lon="2.87377">
        <ele>231.4</ele>
        <time>2022-11-04 16:10:27</time>
      </trkpt>
      <trkpt lat="41.95203" lon="2.87368">
        <ele>230.6</ele>
        <time>2022-11-04 16:10:29</time>
      </trkpt>
      <trkpt lat="41.95208" lon="2.87359">
        <ele>230.4</ele>
        <time>2022-11-04 16:10:30</time>
      </trkpt>
      <trkpt lat="41.95211" lon="2.87348">
        <ele>230</ele>
        <time>2022-11-04 16:10:31</time>
      </trkpt>
      <trkpt lat="41.95213" lon="2.87319">
        <ele>229.2</ele>
        <time>2022-11-04 16:10:34</time>
      </trkpt>
      <trkpt lat="41.95203" lon="2.87285">
        <ele>227.8</ele>
        <time>2022-11-04 16:10:38</time>
      </trkpt>
      <trkpt lat="41.95199" lon="2.87276">
        <ele>226.8</ele>
        <time>2022-11-04 16:10:39</time>
      </trkpt>
      <trkpt lat="41.95188" lon="2.87261">
        <ele>225.6</ele>
        <time>2022-11-04 16:10:41</time>
      </trkpt>
      <trkpt lat="41.95176" lon="2.87254">
        <ele>225</ele>
        <time>2022-11-04 16:10:42</time>
      </trkpt>
      <trkpt lat="41.95166" lon="2.87247">
        <ele>224.4</ele>
        <time>2022-11-04 16:10:43</time>
      </trkpt>
      <trkpt lat="41.95151" lon="2.87224">
        <ele>223</ele>
        <time>2022-11-04 16:10:45</time>
      </trkpt>
      <trkpt lat="41.95133" lon="2.87199">
        <ele>221.6</ele>
        <time>2022-11-04 16:10:47</time>
      </trkpt>
      <trkpt lat="41.95125" lon="2.87172">
        <ele>220.2</ele>
        <time>2022-11-04 16:10:49</time>
      </trkpt>
      <trkpt lat="41.95114" lon="2.87145">
        <ele>218.8</ele>
        <time>2022-11-04 16:10:51</time>
      </trkpt>
      <trkpt lat="41.95108" lon="2.87132">
        <ele>218.2</ele>
        <time>2022-11-04 16:10:52</time>
      </trkpt>
      <trkpt lat="41.95101" lon="2.87119">
        <ele>217.4</ele>
        <time>2022-11-04 16:10:53</time>
      </trkpt>
      <trkpt lat="41.95088" lon="2.87093">
        <ele>215.6</ele>
        <time>2022-11-04 16:10:55</time>
      </trkpt>
      <trkpt lat="41.95078" lon="2.87082">
        <ele>214.4</ele>
        <time>2022-11-04 16:10:56</time>
      </trkpt>
      <trkpt lat="41.95068" lon="2.87072">
        <ele>213.2</ele>
        <time>2022-11-04 16:10:57</time>
      </trkpt>
      <trkpt lat="41.95057" lon="2.87062">
        <ele>211.2</ele>
        <time>2022-11-04 16:10:58</time>
      </trkpt>
      <trkpt lat="41.95047" lon="2.87052">
        <ele>209.6</ele>
        <time>2022-11-04 16:10:59</time>
      </trkpt>
      <trkpt lat="41.95037" lon="2.87042">
        <ele>208.2</ele>
        <time>2022-11-04 16:11:00</time>
      </trkpt>
      <trkpt lat="41.95019" lon="2.87025">
        <ele>210.2</ele>
        <time>2022-11-04 16:11:02</time>
      </trkpt>
      <trkpt lat="41.95011" lon="2.87017">
        <ele>211.8</ele>
        <time>2022-11-04 16:11:03</time>
      </trkpt>
      <trkpt lat="41.95004" lon="2.87009">
        <ele>211.8</ele>
        <time>2022-11-04 16:11:04</time>
      </trkpt>
      <trkpt lat="41.94972" lon="2.86973">
        <ele>213</ele>
        <time>2022-11-04 16:11:09</time>
      </trkpt>
      <trkpt lat="41.94947" lon="2.86945">
        <ele>213.8</ele>
        <time>2022-11-04 16:11:14</time>
      </trkpt>
      <trkpt lat="41.94943" lon="2.86939">
        <ele>214</ele>
        <time>2022-11-04 16:11:15</time>
      </trkpt>
      <trkpt lat="41.9492" lon="2.86912">
        <ele>214.6</ele>
        <time>2022-11-04 16:11:21</time>
      </trkpt>
      <trkpt lat="41.94905" lon="2.86894">
        <ele>215</ele>
        <time>2022-11-04 16:11:25</time>
      </trkpt>
      <trkpt lat="41.94888" lon="2.86874">
        <ele>215.8</ele>
        <time>2022-11-04 16:11:30</time>
      </trkpt>
      <trkpt lat="41.94875" lon="2.86858">
        <ele>216.2</ele>
        <time>2022-11-04 16:11:34</time>
      </trkpt>
      <trkpt lat="41.94865" lon="2.86847">
        <ele>216.6</ele>
        <time>2022-11-04 16:11:37</time>
      </trkpt>
      <trkpt lat="41.94859" lon="2.8684">
        <ele>216.6</ele>
        <time>2022-11-04 16:11:39</time>
      </trkpt>
      <trkpt lat="41.94854" lon="2.86832">
        <ele>216.8</ele>
        <time>2022-11-04 16:11:41</time>
      </trkpt>
      <trkpt lat="41.94843" lon="2.86818">
        <ele>217.2</ele>
        <time>2022-11-04 16:11:45</time>
      </trkpt>
      <trkpt lat="41.9484" lon="2.86816">
        <ele>217.4</ele>
        <time>2022-11-04 16:11:46</time>
      </trkpt>
      <trkpt lat="41.9483" lon="2.86806">
        <ele>217.8</ele>
        <time>2022-11-04 16:11:51</time>
      </trkpt>
      <trkpt lat="41.94821" lon="2.86788">
        <ele>218</ele>
        <time>2022-11-04 16:11:57</time>
      </trkpt>
      <trkpt lat="41.9482" lon="2.86779">
        <ele>218.2</ele>
        <time>2022-11-04 16:12:00</time>
      </trkpt>
      <trkpt lat="41.9482" lon="2.86771">
        <ele>218</ele>
        <time>2022-11-04 16:12:03</time>
      </trkpt>
      <trkpt lat="41.94816" lon="2.86755">
        <ele>218.2</ele>
        <time>2022-11-04 16:12:10</time>
      </trkpt>
      <trkpt lat="41.94804" lon="2.86744">
        <ele>218.4</ele>
        <time>2022-11-04 16:12:17</time>
      </trkpt>
      <trkpt lat="41.94796" lon="2.86744">
        <ele>218.8</ele>
        <time>2022-11-04 16:12:22</time>
      </trkpt>
      <trkpt lat="41.94794" lon="2.86744">
        <ele>218.8</ele>
        <time>2022-11-04 16:12:23</time>
      </trkpt>
      <trkpt lat="41.94792" lon="2.86743">
        <ele>219</ele>
        <time>2022-11-04 16:12:27</time>
      </trkpt>
      <trkpt lat="41.9479" lon="2.86743">
        <ele>219</ele>
        <time>2022-11-04 16:12:35</time>
      </trkpt>
      <trkpt lat="41.9479" lon="2.86743">
        <ele>219</ele>
        <time>2022-11-04 16:12:39</time>
      </trkpt>
      <trkpt lat="41.94785" lon="2.86743">
        <ele>219</ele>
        <time>2022-11-04 16:12:42</time>
      </trkpt>
      <trkpt lat="41.94768" lon="2.86735">
        <ele>218.8</ele>
        <time>2022-11-04 16:12:47</time>
      </trkpt>
      <trkpt lat="41.94741" lon="2.86722">
        <ele>219</ele>
        <time>2022-11-04 16:12:53</time>
      </trkpt>
      <trkpt lat="41.94697" lon="2.86704">
        <ele>218.8</ele>
        <time>2022-11-04 16:13:01</time>
      </trkpt>
      <trkpt lat="41.94655" lon="2.86695">
        <ele>218.4</ele>
        <time>2022-11-04 16:13:08</time>
      </trkpt>
      <trkpt lat="41.94611" lon="2.86691">
        <ele>218</ele>
        <time>2022-11-04 16:13:14</time>
      </trkpt>
      <trkpt lat="41.9457" lon="2.86677">
        <ele>218</ele>
        <time>2022-11-04 16:13:20</time>
      </trkpt>
      <trkpt lat="41.94529" lon="2.86654">
        <ele>219</ele>
        <time>2022-11-04 16:13:27</time>
      </trkpt>
      <trkpt lat="41.94524" lon="2.86649">
        <ele>219.2</ele>
        <time>2022-11-04 16:13:28</time>
      </trkpt>
      <trkpt lat="41.94519" lon="2.86644">
        <ele>219.4</ele>
        <time>2022-11-04 16:13:29</time>
      </trkpt>
      <trkpt lat="41.94514" lon="2.86639">
        <ele>219.8</ele>
        <time>2022-11-04 16:13:30</time>
      </trkpt>
      <trkpt lat="41.94503" lon="2.86632">
        <ele>220.2</ele>
        <time>2022-11-04 16:13:32</time>
      </trkpt>
      <trkpt lat="41.9449" lon="2.86626">
        <ele>220.6</ele>
        <time>2022-11-04 16:13:34</time>
      </trkpt>
      <trkpt lat="41.94466" lon="2.86615">
        <ele>221.6</ele>
        <time>2022-11-04 16:13:38</time>
      </trkpt>
      <trkpt lat="41.9446" lon="2.86614">
        <ele>221.8</ele>
        <time>2022-11-04 16:13:39</time>
      </trkpt>
      <trkpt lat="41.94455" lon="2.86612">
        <ele>222.2</ele>
        <time>2022-11-04 16:13:40</time>
      </trkpt>
      <trkpt lat="41.94437" lon="2.86608">
        <ele>222.8</ele>
        <time>2022-11-04 16:13:44</time>
      </trkpt>
      <trkpt lat="41.94433" lon="2.86607">
        <ele>223</ele>
        <time>2022-11-04 16:13:45</time>
      </trkpt>
      <trkpt lat="41.94418" lon="2.86599">
        <ele>223.6</ele>
        <time>2022-11-04 16:13:49</time>
      </trkpt>
      <trkpt lat="41.9441" lon="2.86582">
        <ele>223.8</ele>
        <time>2022-11-04 16:13:53</time>
      </trkpt>
      <trkpt lat="41.94407" lon="2.86573">
        <ele>224</ele>
        <time>2022-11-04 16:13:55</time>
      </trkpt>
      <trkpt lat="41.94405" lon="2.86568">
        <ele>224.2</ele>
        <time>2022-11-04 16:13:56</time>
      </trkpt>
      <trkpt lat="41.94398" lon="2.86555">
        <ele>224.2</ele>
        <time>2022-11-04 16:13:59</time>
      </trkpt>
      <trkpt lat="41.94388" lon="2.86543">
        <ele>224</ele>
        <time>2022-11-04 16:14:02</time>
      </trkpt>
      <trkpt lat="41.94375" lon="2.86532">
        <ele>223.4</ele>
        <time>2022-11-04 16:14:05</time>
      </trkpt>
      <trkpt lat="41.94356" lon="2.86516">
        <ele>222.8</ele>
        <time>2022-11-04 16:14:09</time>
      </trkpt>
      <trkpt lat="41.9434" lon="2.86502">
        <ele>222.4</ele>
        <time>2022-11-04 16:14:12</time>
      </trkpt>
      <trkpt lat="41.94323" lon="2.86477">
        <ele>221.8</ele>
        <time>2022-11-04 16:14:16</time>
      </trkpt>
      <trkpt lat="41.94319" lon="2.86471">
        <ele>221.6</ele>
        <time>2022-11-04 16:14:17</time>
      </trkpt>
      <trkpt lat="41.9431" lon="2.86459">
        <ele>221.2</ele>
        <time>2022-11-04 16:14:19</time>
      </trkpt>
      <trkpt lat="41.94297" lon="2.86448">
        <ele>220.4</ele>
        <time>2022-11-04 16:14:21</time>
      </trkpt>
      <trkpt lat="41.94282" lon="2.86439">
        <ele>219.4</ele>
        <time>2022-11-04 16:14:23</time>
      </trkpt>
      <trkpt lat="41.94266" lon="2.86429">
        <ele>218.4</ele>
        <time>2022-11-04 16:14:25</time>
      </trkpt>
      <trkpt lat="41.94258" lon="2.86424">
        <ele>217.8</ele>
        <time>2022-11-04 16:14:26</time>
      </trkpt>
      <trkpt lat="41.94249" lon="2.86418">
        <ele>217.2</ele>
        <time>2022-11-04 16:14:27</time>
      </trkpt>
      <trkpt lat="41.94232" lon="2.86408">
        <ele>215.8</ele>
        <time>2022-11-04 16:14:29</time>
      </trkpt>
      <trkpt lat="41.94214" lon="2.86396">
        <ele>214.6</ele>
        <time>2022-11-04 16:14:31</time>
      </trkpt>
      <trkpt lat="41.94195" lon="2.86384">
        <ele>213.4</ele>
        <time>2022-11-04 16:14:33</time>
      </trkpt>
      <trkpt lat="41.94176" lon="2.86371">
        <ele>212.2</ele>
        <time>2022-11-04 16:14:35</time>
      </trkpt>
      <trkpt lat="41.9414" lon="2.86347">
        <ele>210.8</ele>
        <time>2022-11-04 16:14:39</time>
      </trkpt>
      <trkpt lat="41.94132" lon="2.86344">
        <ele>210.4</ele>
        <time>2022-11-04 16:14:40</time>
      </trkpt>
      <trkpt lat="41.94104" lon="2.86339">
        <ele>209.6</ele>
        <time>2022-11-04 16:14:43</time>
      </trkpt>
      <trkpt lat="41.94095" lon="2.86338">
        <ele>209.2</ele>
        <time>2022-11-04 16:14:44</time>
      </trkpt>
      <trkpt lat="41.94075" lon="2.86336">
        <ele>208.4</ele>
        <time>2022-11-04 16:14:46</time>
      </trkpt>
      <trkpt lat="41.94065" lon="2.86333">
        <ele>207.8</ele>
        <time>2022-11-04 16:14:47</time>
      </trkpt>
      <trkpt lat="41.94047" lon="2.86323">
        <ele>207</ele>
        <time>2022-11-04 16:14:50</time>
      </trkpt>
      <trkpt lat="41.94038" lon="2.86317">
        <ele>206.8</ele>
        <time>2022-11-04 16:14:51</time>
      </trkpt>
      <trkpt lat="41.94013" lon="2.86295">
        <ele>205.8</ele>
        <time>2022-11-04 16:14:54</time>
      </trkpt>
      <trkpt lat="41.94006" lon="2.86286">
        <ele>205.6</ele>
        <time>2022-11-04 16:14:55</time>
      </trkpt>
      <trkpt lat="41.9399" lon="2.86273">
        <ele>205.2</ele>
        <time>2022-11-04 16:14:57</time>
      </trkpt>
      <trkpt lat="41.93972" lon="2.86265">
        <ele>204.8</ele>
        <time>2022-11-04 16:14:59</time>
      </trkpt>
      <trkpt lat="41.93938" lon="2.86253">
        <ele>203.6</ele>
        <time>2022-11-04 16:15:03</time>
      </trkpt>
      <trkpt lat="41.9392" lon="2.86249">
        <ele>202.6</ele>
        <time>2022-11-04 16:15:05</time>
      </trkpt>
      <trkpt lat="41.93912" lon="2.86244">
        <ele>202.4</ele>
        <time>2022-11-04 16:15:06</time>
      </trkpt>
      <trkpt lat="41.93899" lon="2.86228">
        <ele>201.6</ele>
        <time>2022-11-04 16:15:08</time>
      </trkpt>
      <trkpt lat="41.93893" lon="2.86218">
        <ele>201</ele>
        <time>2022-11-04 16:15:09</time>
      </trkpt>
      <trkpt lat="41.93874" lon="2.86191">
        <ele>199.6</ele>
        <time>2022-11-04 16:15:12</time>
      </trkpt>
      <trkpt lat="41.93861" lon="2.86172">
        <ele>198.8</ele>
        <time>2022-11-04 16:15:14</time>
      </trkpt>
      <trkpt lat="41.93857" lon="2.86161">
        <ele>198.2</ele>
        <time>2022-11-04 16:15:15</time>
      </trkpt>
      <trkpt lat="41.93852" lon="2.86139">
        <ele>196.8</ele>
        <time>2022-11-04 16:15:17</time>
      </trkpt>
      <trkpt lat="41.93856" lon="2.86119">
        <ele>195.6</ele>
        <time>2022-11-04 16:15:19</time>
      </trkpt>
      <trkpt lat="41.93869" lon="2.86105">
        <ele>194.2</ele>
        <time>2022-11-04 16:15:21</time>
      </trkpt>
      <trkpt lat="41.93884" lon="2.86094">
        <ele>192.8</ele>
        <time>2022-11-04 16:15:23</time>
      </trkpt>
      <trkpt lat="41.93897" lon="2.86081">
        <ele>191.4</ele>
        <time>2022-11-04 16:15:25</time>
      </trkpt>
      <trkpt lat="41.939" lon="2.86071">
        <ele>190.8</ele>
        <time>2022-11-04 16:15:26</time>
      </trkpt>
      <trkpt lat="41.93901" lon="2.8606">
        <ele>190.4</ele>
        <time>2022-11-04 16:15:27</time>
      </trkpt>
      <trkpt lat="41.939" lon="2.86038">
        <ele>189</ele>
        <time>2022-11-04 16:15:29</time>
      </trkpt>
      <trkpt lat="41.93886" lon="2.85999">
        <ele>188.2</ele>
        <time>2022-11-04 16:15:33</time>
      </trkpt>
      <trkpt lat="41.9388" lon="2.8599">
        <ele>188</ele>
        <time>2022-11-04 16:15:34</time>
      </trkpt>
      <trkpt lat="41.93866" lon="2.85974">
        <ele>187.8</ele>
        <time>2022-11-04 16:15:36</time>
      </trkpt>
      <trkpt lat="41.93858" lon="2.85966">
        <ele>187.4</ele>
        <time>2022-11-04 16:15:37</time>
      </trkpt>
      <trkpt lat="41.93843" lon="2.85951">
        <ele>186.8</ele>
        <time>2022-11-04 16:15:39</time>
      </trkpt>
      <trkpt lat="41.9382" lon="2.85933">
        <ele>185.8</ele>
        <time>2022-11-04 16:15:42</time>
      </trkpt>
      <trkpt lat="41.93812" lon="2.85928">
        <ele>185.4</ele>
        <time>2022-11-04 16:15:43</time>
      </trkpt>
      <trkpt lat="41.93777" lon="2.85913">
        <ele>184.4</ele>
        <time>2022-11-04 16:15:47</time>
      </trkpt>
      <trkpt lat="41.93768" lon="2.85911">
        <ele>184</ele>
        <time>2022-11-04 16:15:48</time>
      </trkpt>
      <trkpt lat="41.93749" lon="2.85906">
        <ele>183</ele>
        <time>2022-11-04 16:15:50</time>
      </trkpt>
      <trkpt lat="41.9373" lon="2.85902">
        <ele>181.2</ele>
        <time>2022-11-04 16:15:52</time>
      </trkpt>
      <trkpt lat="41.93711" lon="2.85893">
        <ele>180.2</ele>
        <time>2022-11-04 16:15:54</time>
      </trkpt>
      <trkpt lat="41.93703" lon="2.85886">
        <ele>179.8</ele>
        <time>2022-11-04 16:15:55</time>
      </trkpt>
      <trkpt lat="41.93686" lon="2.8587">
        <ele>178.8</ele>
        <time>2022-11-04 16:15:57</time>
      </trkpt>
      <trkpt lat="41.9368" lon="2.85859">
        <ele>178.2</ele>
        <time>2022-11-04 16:15:58</time>
      </trkpt>
      <trkpt lat="41.93676" lon="2.85846">
        <ele>177.8</ele>
        <time>2022-11-04 16:15:59</time>
      </trkpt>
      <trkpt lat="41.93675" lon="2.85832">
        <ele>177.2</ele>
        <time>2022-11-04 16:16:00</time>
      </trkpt>
      <trkpt lat="41.93674" lon="2.85806">
        <ele>176</ele>
        <time>2022-11-04 16:16:02</time>
      </trkpt>
      <trkpt lat="41.93667" lon="2.85782">
        <ele>174.8</ele>
        <time>2022-11-04 16:16:04</time>
      </trkpt>
      <trkpt lat="41.93659" lon="2.85773">
        <ele>174.2</ele>
        <time>2022-11-04 16:16:05</time>
      </trkpt>
      <trkpt lat="41.9365" lon="2.85766">
        <ele>173.6</ele>
        <time>2022-11-04 16:16:06</time>
      </trkpt>
      <trkpt lat="41.93641" lon="2.85759">
        <ele>173</ele>
        <time>2022-11-04 16:16:07</time>
      </trkpt>
      <trkpt lat="41.93632" lon="2.85752">
        <ele>172.2</ele>
        <time>2022-11-04 16:16:08</time>
      </trkpt>
      <trkpt lat="41.93614" lon="2.85735">
        <ele>170.8</ele>
        <time>2022-11-04 16:16:10</time>
      </trkpt>
      <trkpt lat="41.93599" lon="2.85712">
        <ele>169.4</ele>
        <time>2022-11-04 16:16:12</time>
      </trkpt>
      <trkpt lat="41.93586" lon="2.85686">
        <ele>167.8</ele>
        <time>2022-11-04 16:16:14</time>
      </trkpt>
      <trkpt lat="41.93578" lon="2.85673">
        <ele>167.2</ele>
        <time>2022-11-04 16:16:15</time>
      </trkpt>
      <trkpt lat="41.93569" lon="2.85661">
        <ele>165.4</ele>
        <time>2022-11-04 16:16:16</time>
      </trkpt>
      <trkpt lat="41.93548" lon="2.8564">
        <ele>164</ele>
        <time>2022-11-04 16:16:18</time>
      </trkpt>
      <trkpt lat="41.93537" lon="2.85631">
        <ele>163</ele>
        <time>2022-11-04 16:16:19</time>
      </trkpt>
      <trkpt lat="41.93525" lon="2.85624">
        <ele>162.2</ele>
        <time>2022-11-04 16:16:20</time>
      </trkpt>
      <trkpt lat="41.935" lon="2.85615">
        <ele>160.6</ele>
        <time>2022-11-04 16:16:22</time>
      </trkpt>
      <trkpt lat="41.93474" lon="2.85615">
        <ele>158.6</ele>
        <time>2022-11-04 16:16:24</time>
      </trkpt>
      <trkpt lat="41.93461" lon="2.85613">
        <ele>157.8</ele>
        <time>2022-11-04 16:16:25</time>
      </trkpt>
      <trkpt lat="41.93447" lon="2.85611">
        <ele>157</ele>
        <time>2022-11-04 16:16:26</time>
      </trkpt>
      <trkpt lat="41.93435" lon="2.85607">
        <ele>156.4</ele>
        <time>2022-11-04 16:16:27</time>
      </trkpt>
      <trkpt lat="41.93423" lon="2.856">
        <ele>155.6</ele>
        <time>2022-11-04 16:16:28</time>
      </trkpt>
      <trkpt lat="41.93413" lon="2.85591">
        <ele>154.6</ele>
        <time>2022-11-04 16:16:29</time>
      </trkpt>
      <trkpt lat="41.93394" lon="2.85566">
        <ele>152.6</ele>
        <time>2022-11-04 16:16:31</time>
      </trkpt>
      <trkpt lat="41.93387" lon="2.85551">
        <ele>151.8</ele>
        <time>2022-11-04 16:16:32</time>
      </trkpt>
      <trkpt lat="41.9338" lon="2.85537">
        <ele>150.8</ele>
        <time>2022-11-04 16:16:33</time>
      </trkpt>
      <trkpt lat="41.93371" lon="2.85522">
        <ele>149.8</ele>
        <time>2022-11-04 16:16:34</time>
      </trkpt>
      <trkpt lat="41.93361" lon="2.8551">
        <ele>149</ele>
        <time>2022-11-04 16:16:35</time>
      </trkpt>
      <trkpt lat="41.93351" lon="2.85498">
        <ele>148.2</ele>
        <time>2022-11-04 16:16:36</time>
      </trkpt>
      <trkpt lat="41.93342" lon="2.85486">
        <ele>147.4</ele>
        <time>2022-11-04 16:16:37</time>
      </trkpt>
      <trkpt lat="41.93324" lon="2.85459">
        <ele>145.8</ele>
        <time>2022-11-04 16:16:39</time>
      </trkpt>
      <trkpt lat="41.93314" lon="2.85446">
        <ele>143.8</ele>
        <time>2022-11-04 16:16:40</time>
      </trkpt>
      <trkpt lat="41.93303" lon="2.85433">
        <ele>142.8</ele>
        <time>2022-11-04 16:16:41</time>
      </trkpt>
      <trkpt lat="41.93291" lon="2.85423">
        <ele>142</ele>
        <time>2022-11-04 16:16:42</time>
      </trkpt>
      <trkpt lat="41.93278" lon="2.85414">
        <ele>141.4</ele>
        <time>2022-11-04 16:16:43</time>
      </trkpt>
      <trkpt lat="41.93265" lon="2.85408">
        <ele>140.8</ele>
        <time>2022-11-04 16:16:44</time>
      </trkpt>
      <trkpt lat="41.93239" lon="2.85399">
        <ele>139.6</ele>
        <time>2022-11-04 16:16:46</time>
      </trkpt>
      <trkpt lat="41.93203" lon="2.85382">
        <ele>138.6</ele>
        <time>2022-11-04 16:16:49</time>
      </trkpt>
      <trkpt lat="41.93193" lon="2.85374">
        <ele>138.4</ele>
        <time>2022-11-04 16:16:50</time>
      </trkpt>
      <trkpt lat="41.93183" lon="2.85365">
        <ele>138</ele>
        <time>2022-11-04 16:16:51</time>
      </trkpt>
      <trkpt lat="41.93169" lon="2.85345">
        <ele>137.4</ele>
        <time>2022-11-04 16:16:53</time>
      </trkpt>
      <trkpt lat="41.93159" lon="2.85326">
        <ele>137</ele>
        <time>2022-11-04 16:16:55</time>
      </trkpt>
      <trkpt lat="41.93155" lon="2.85307">
        <ele>136.4</ele>
        <time>2022-11-04 16:16:57</time>
      </trkpt>
      <trkpt lat="41.93155" lon="2.85298">
        <ele>136.2</ele>
        <time>2022-11-04 16:16:58</time>
      </trkpt>
      <trkpt lat="41.93159" lon="2.85286">
        <ele>136</ele>
        <time>2022-11-04 16:17:00</time>
      </trkpt>
      <trkpt lat="41.93169" lon="2.85287">
        <ele>135.8</ele>
        <time>2022-11-04 16:17:02</time>
      </trkpt>
      <trkpt lat="41.93181" lon="2.85293">
        <ele>135.4</ele>
        <time>2022-11-04 16:17:04</time>
      </trkpt>
      <trkpt lat="41.93189" lon="2.85296">
        <ele>135.2</ele>
        <time>2022-11-04 16:17:05</time>
      </trkpt>
      <trkpt lat="41.93203" lon="2.85303">
        <ele>134.6</ele>
        <time>2022-11-04 16:17:07</time>
      </trkpt>
      <trkpt lat="41.93211" lon="2.85305">
        <ele>134.4</ele>
        <time>2022-11-04 16:17:08</time>
      </trkpt>
      <trkpt lat="41.93228" lon="2.85303">
        <ele>133.8</ele>
        <time>2022-11-04 16:17:10</time>
      </trkpt>
      <trkpt lat="41.93237" lon="2.85298">
        <ele>133.4</ele>
        <time>2022-11-04 16:17:11</time>
      </trkpt>
      <trkpt lat="41.93251" lon="2.85284">
        <ele>132.6</ele>
        <time>2022-11-04 16:17:13</time>
      </trkpt>
      <trkpt lat="41.93256" lon="2.85276">
        <ele>132.4</ele>
        <time>2022-11-04 16:17:14</time>
      </trkpt>
      <trkpt lat="41.93265" lon="2.85257">
        <ele>131.6</ele>
        <time>2022-11-04 16:17:16</time>
      </trkpt>
      <trkpt lat="41.93268" lon="2.85235">
        <ele>130.8</ele>
        <time>2022-11-04 16:17:18</time>
      </trkpt>
      <trkpt lat="41.93267" lon="2.85226">
        <ele>130.4</ele>
        <time>2022-11-04 16:17:19</time>
      </trkpt>
      <trkpt lat="41.93259" lon="2.85211">
        <ele>129.4</ele>
        <time>2022-11-04 16:17:21</time>
      </trkpt>
      <trkpt lat="41.93253" lon="2.85203">
        <ele>128.8</ele>
        <time>2022-11-04 16:17:22</time>
      </trkpt>
      <trkpt lat="41.93247" lon="2.85194">
        <ele>128</ele>
        <time>2022-11-04 16:17:23</time>
      </trkpt>
      <trkpt lat="41.93242" lon="2.85182">
        <ele>127.6</ele>
        <time>2022-11-04 16:17:24</time>
      </trkpt>
      <trkpt lat="41.93238" lon="2.8517">
        <ele>127</ele>
        <time>2022-11-04 16:17:25</time>
      </trkpt>
      <trkpt lat="41.93233" lon="2.85132">
        <ele>125.8</ele>
        <time>2022-11-04 16:17:28</time>
      </trkpt>
      <trkpt lat="41.93233" lon="2.85121">
        <ele>125.6</ele>
        <time>2022-11-04 16:17:29</time>
      </trkpt>
      <trkpt lat="41.93231" lon="2.85111">
        <ele>125.4</ele>
        <time>2022-11-04 16:17:30</time>
      </trkpt>
      <trkpt lat="41.93223" lon="2.85098">
        <ele>124.8</ele>
        <time>2022-11-04 16:17:32</time>
      </trkpt>
      <trkpt lat="41.93203" lon="2.85086">
        <ele>123.6</ele>
        <time>2022-11-04 16:17:35</time>
      </trkpt>
      <trkpt lat="41.93165" lon="2.85083">
        <ele>122.8</ele>
        <time>2022-11-04 16:17:39</time>
      </trkpt>
      <trkpt lat="41.93148" lon="2.85087">
        <ele>122.6</ele>
        <time>2022-11-04 16:17:41</time>
      </trkpt>
      <trkpt lat="41.9314" lon="2.85086">
        <ele>122.4</ele>
        <time>2022-11-04 16:17:42</time>
      </trkpt>
      <trkpt lat="41.93136" lon="2.85081">
        <ele>122.2</ele>
        <time>2022-11-04 16:17:43</time>
      </trkpt>
      <trkpt lat="41.93134" lon="2.85067">
        <ele>122.2</ele>
        <time>2022-11-04 16:17:45</time>
      </trkpt>
      <trkpt lat="41.93143" lon="2.85051">
        <ele>122.2</ele>
        <time>2022-11-04 16:17:48</time>
      </trkpt>
      <trkpt lat="41.93147" lon="2.85047">
        <ele>122.2</ele>
        <time>2022-11-04 16:17:49</time>
      </trkpt>
      <trkpt lat="41.93172" lon="2.8502">
        <ele>122.4</ele>
        <time>2022-11-04 16:17:55</time>
      </trkpt>
      <trkpt lat="41.93184" lon="2.85007">
        <ele>122.4</ele>
        <time>2022-11-04 16:17:58</time>
      </trkpt>
      <trkpt lat="41.93198" lon="2.84999">
        <ele>122.4</ele>
        <time>2022-11-04 16:18:01</time>
      </trkpt>
      <trkpt lat="41.93226" lon="2.84991">
        <ele>122.8</ele>
        <time>2022-11-04 16:18:07</time>
      </trkpt>
      <trkpt lat="41.93261" lon="2.84978">
        <ele>122.8</ele>
        <time>2022-11-04 16:18:15</time>
      </trkpt>
      <trkpt lat="41.9328" lon="2.84964">
        <ele>123.2</ele>
        <time>2022-11-04 16:18:20</time>
      </trkpt>
      <trkpt lat="41.93282" lon="2.8496">
        <ele>123.2</ele>
        <time>2022-11-04 16:18:21</time>
      </trkpt>
      <trkpt lat="41.93284" lon="2.84944">
        <ele>123.4</ele>
        <time>2022-11-04 16:18:24</time>
      </trkpt>
      <trkpt lat="41.93283" lon="2.84939">
        <ele>123.4</ele>
        <time>2022-11-04 16:18:25</time>
      </trkpt>
      <trkpt lat="41.93275" lon="2.84926">
        <ele>123.4</ele>
        <time>2022-11-04 16:18:28</time>
      </trkpt>
      <trkpt lat="41.93271" lon="2.84922">
        <ele>123.4</ele>
        <time>2022-11-04 16:18:29</time>
      </trkpt>
      <trkpt lat="41.93258" lon="2.8491">
        <ele>123.2</ele>
        <time>2022-11-04 16:18:32</time>
      </trkpt>
      <trkpt lat="41.93253" lon="2.84907">
        <ele>123.2</ele>
        <time>2022-11-04 16:18:33</time>
      </trkpt>
      <trkpt lat="41.93235" lon="2.84898">
        <ele>123</ele>
        <time>2022-11-04 16:18:36</time>
      </trkpt>
      <trkpt lat="41.93217" lon="2.84891">
        <ele>122.8</ele>
        <time>2022-11-04 16:18:39</time>
      </trkpt>
      <trkpt lat="41.93205" lon="2.84888">
        <ele>122.2</ele>
        <time>2022-11-04 16:18:41</time>
      </trkpt>
      <trkpt lat="41.93169" lon="2.84879">
        <ele>121.2</ele>
        <time>2022-11-04 16:18:47</time>
      </trkpt>
      <trkpt lat="41.93164" lon="2.84878">
        <ele>121</ele>
        <time>2022-11-04 16:18:48</time>
      </trkpt>
      <trkpt lat="41.93158" lon="2.84878">
        <ele>121</ele>
        <time>2022-11-04 16:18:49</time>
      </trkpt>
      <trkpt lat="41.93133" lon="2.84877">
        <ele>120</ele>
        <time>2022-11-04 16:18:53</time>
      </trkpt>
      <trkpt lat="41.93127" lon="2.84876">
        <ele>119.6</ele>
        <time>2022-11-04 16:18:54</time>
      </trkpt>
      <trkpt lat="41.93117" lon="2.84868">
        <ele>119</ele>
        <time>2022-11-04 16:18:56</time>
      </trkpt>
      <trkpt lat="41.93113" lon="2.8486">
        <ele>118.6</ele>
        <time>2022-11-04 16:18:57</time>
      </trkpt>
      <trkpt lat="41.93108" lon="2.84842">
        <ele>117.6</ele>
        <time>2022-11-04 16:18:59</time>
      </trkpt>
      <trkpt lat="41.93105" lon="2.84832">
        <ele>117.2</ele>
        <time>2022-11-04 16:19:00</time>
      </trkpt>
      <trkpt lat="41.93102" lon="2.84814">
        <ele>115.8</ele>
        <time>2022-11-04 16:19:02</time>
      </trkpt>
      <trkpt lat="41.931" lon="2.84802">
        <ele>114.6</ele>
        <time>2022-11-04 16:19:04</time>
      </trkpt>
      <trkpt lat="41.93099" lon="2.84795">
        <ele>113.4</ele>
        <time>2022-11-04 16:19:05</time>
      </trkpt>
      <trkpt lat="41.93098" lon="2.84781">
        <ele>112.2</ele>
        <time>2022-11-04 16:19:08</time>
      </trkpt>
      <trkpt lat="41.93099" lon="2.84779">
        <ele>111.8</ele>
        <time>2022-11-04 16:19:09</time>
      </trkpt>
      <trkpt lat="41.93099" lon="2.84778">
        <ele>111.4</ele>
        <time>2022-11-04 16:19:13</time>
      </trkpt>
      <trkpt lat="41.93099" lon="2.84778">
        <ele>111.4</ele>
        <time>2022-11-04 16:19:21</time>
      </trkpt>
      <trkpt lat="41.93099" lon="2.84778">
        <ele>111.4</ele>
        <time>2022-11-04 16:19:35</time>
      </trkpt>
      <trkpt lat="41.93099" lon="2.84778">
        <ele>111.4</ele>
        <time>2022-11-04 16:19:49</time>
      </trkpt>
      <trkpt lat="41.93098" lon="2.84777">
        <ele>111.4</ele>
        <time>2022-11-04 16:19:59</time>
      </trkpt>
      <trkpt lat="41.93097" lon="2.84775">
        <ele>111.4</ele>
        <time>2022-11-04 16:20:00</time>
      </trkpt>
      <trkpt lat="41.9309" lon="2.84779">
        <ele>111.4</ele>
        <time>2022-11-04 16:20:03</time>
      </trkpt>
      <trkpt lat="41.93094" lon="2.84789">
        <ele>111.8</ele>
        <time>2022-11-04 16:20:06</time>
      </trkpt>
      <trkpt lat="41.93096" lon="2.84792">
        <ele>112</ele>
        <time>2022-11-04 16:20:07</time>
      </trkpt>
      <trkpt lat="41.93109" lon="2.848">
        <ele>113.2</ele>
        <time>2022-11-04 16:20:12</time>
      </trkpt>
      <trkpt lat="41.93112" lon="2.84801">
        <ele>113.2</ele>
        <time>2022-11-04 16:20:13</time>
      </trkpt>
      <trkpt lat="41.9313" lon="2.84799">
        <ele>113.8</ele>
        <time>2022-11-04 16:20:18</time>
      </trkpt>
      <trkpt lat="41.93144" lon="2.84793">
        <ele>114.4</ele>
        <time>2022-11-04 16:20:23</time>
      </trkpt>
      <trkpt lat="41.93146" lon="2.84791">
        <ele>114.6</ele>
        <time>2022-11-04 16:20:24</time>
      </trkpt>
      <trkpt lat="41.93155" lon="2.8478">
        <ele>115.2</ele>
        <time>2022-11-04 16:20:30</time>
      </trkpt>
      <trkpt lat="41.93159" lon="2.84775">
        <ele>115.4</ele>
        <time>2022-11-04 16:20:32</time>
      </trkpt>
      <trkpt lat="41.93164" lon="2.84764">
        <ele>115.4</ele>
        <time>2022-11-04 16:20:35</time>
      </trkpt>
      <trkpt lat="41.93165" lon="2.84764">
        <ele>115.2</ele>
        <time>2022-11-04 16:20:38</time>
      </trkpt>
      <trkpt lat="41.93169" lon="2.84756">
        <ele>115.2</ele>
        <time>2022-11-04 16:20:44</time>
      </trkpt>
      <trkpt lat="41.93178" lon="2.84735">
        <ele>115.6</ele>
        <time>2022-11-04 16:20:49</time>
      </trkpt>
      <trkpt lat="41.9319" lon="2.84715">
        <ele>115.8</ele>
        <time>2022-11-04 16:20:54</time>
      </trkpt>
      <trkpt lat="41.93203" lon="2.84682">
        <ele>115.6</ele>
        <time>2022-11-04 16:21:00</time>
      </trkpt>
      <trkpt lat="41.93221" lon="2.84654">
        <ele>115.4</ele>
        <time>2022-11-04 16:21:06</time>
      </trkpt>
      <trkpt lat="41.9324" lon="2.84631">
        <ele>114.2</ele>
        <time>2022-11-04 16:21:10</time>
      </trkpt>
      <trkpt lat="41.93246" lon="2.84624">
        <ele>113.6</ele>
        <time>2022-11-04 16:21:11</time>
      </trkpt>
      <trkpt lat="41.93251" lon="2.84617">
        <ele>113</ele>
        <time>2022-11-04 16:21:12</time>
      </trkpt>
      <trkpt lat="41.93264" lon="2.846">
        <ele>111.6</ele>
        <time>2022-11-04 16:21:14</time>
      </trkpt>
      <trkpt lat="41.93271" lon="2.8459">
        <ele>110.6</ele>
        <time>2022-11-04 16:21:15</time>
      </trkpt>
      <trkpt lat="41.93277" lon="2.84581">
        <ele>109.6</ele>
        <time>2022-11-04 16:21:16</time>
      </trkpt>
      <trkpt lat="41.93284" lon="2.84571">
        <ele>108.6</ele>
        <time>2022-11-04 16:21:17</time>
      </trkpt>
      <trkpt lat="41.933" lon="2.8455">
        <ele>107</ele>
        <time>2022-11-04 16:21:19</time>
      </trkpt>
      <trkpt lat="41.93315" lon="2.84529">
        <ele>105.8</ele>
        <time>2022-11-04 16:21:21</time>
      </trkpt>
      <trkpt lat="41.9333" lon="2.84509">
        <ele>104.4</ele>
        <time>2022-11-04 16:21:23</time>
      </trkpt>
      <trkpt lat="41.93346" lon="2.84491">
        <ele>103.2</ele>
        <time>2022-11-04 16:21:25</time>
      </trkpt>
      <trkpt lat="41.93363" lon="2.84475">
        <ele>102.6</ele>
        <time>2022-11-04 16:21:27</time>
      </trkpt>
      <trkpt lat="41.93378" lon="2.84461">
        <ele>102</ele>
        <time>2022-11-04 16:21:29</time>
      </trkpt>
      <trkpt lat="41.93401" lon="2.8444">
        <ele>100.6</ele>
        <time>2022-11-04 16:21:32</time>
      </trkpt>
      <trkpt lat="41.9343" lon="2.84412">
        <ele>99.6</ele>
        <time>2022-11-04 16:21:36</time>
      </trkpt>
      <trkpt lat="41.93434" lon="2.84403">
        <ele>99.4</ele>
        <time>2022-11-04 16:21:37</time>
      </trkpt>
      <trkpt lat="41.93441" lon="2.84372">
        <ele>98.6</ele>
        <time>2022-11-04 16:21:40</time>
      </trkpt>
      <trkpt lat="41.93441" lon="2.84364">
        <ele>98.4</ele>
        <time>2022-11-04 16:21:41</time>
      </trkpt>
      <trkpt lat="41.93441" lon="2.84358">
        <ele>98.2</ele>
        <time>2022-11-04 16:21:42</time>
      </trkpt>
      <trkpt lat="41.93441" lon="2.84352">
        <ele>98</ele>
        <time>2022-11-04 16:21:43</time>
      </trkpt>
      <trkpt lat="41.9344" lon="2.84328">
        <ele>97.8</ele>
        <time>2022-11-04 16:21:48</time>
      </trkpt>
      <trkpt lat="41.93449" lon="2.84317">
        <ele>98</ele>
        <time>2022-11-04 16:21:52</time>
      </trkpt>
      <trkpt lat="41.93469" lon="2.84302">
        <ele>98</ele>
        <time>2022-11-04 16:21:59</time>
      </trkpt>
      <trkpt lat="41.93486" lon="2.84295">
        <ele>98.2</ele>
        <time>2022-11-04 16:22:04</time>
      </trkpt>
      <trkpt lat="41.93493" lon="2.84291">
        <ele>98.2</ele>
        <time>2022-11-04 16:22:06</time>
      </trkpt>
      <trkpt lat="41.93514" lon="2.84283">
        <ele>98</ele>
        <time>2022-11-04 16:22:12</time>
      </trkpt>
      <trkpt lat="41.93541" lon="2.8427">
        <ele>97.6</ele>
        <time>2022-11-04 16:22:19</time>
      </trkpt>
      <trkpt lat="41.93575" lon="2.84256">
        <ele>96.8</ele>
        <time>2022-11-04 16:22:27</time>
      </trkpt>
      <trkpt lat="41.93601" lon="2.84243">
        <ele>96.4</ele>
        <time>2022-11-04 16:22:33</time>
      </trkpt>
      <trkpt lat="41.93611" lon="2.8424">
        <ele>96.2</ele>
        <time>2022-11-04 16:22:35</time>
      </trkpt>
      <trkpt lat="41.93648" lon="2.84224">
        <ele>95.4</ele>
        <time>2022-11-04 16:22:42</time>
      </trkpt>
      <trkpt lat="41.93653" lon="2.84221">
        <ele>95.2</ele>
        <time>2022-11-04 16:22:43</time>
      </trkpt>
      <trkpt lat="41.93687" lon="2.84205">
        <ele>94.2</ele>
        <time>2022-11-04 16:22:49</time>
      </trkpt>
      <trkpt lat="41.93704" lon="2.84198">
        <ele>93.8</ele>
        <time>2022-11-04 16:22:52</time>
      </trkpt>
      <trkpt lat="41.93732" lon="2.84185">
        <ele>93.2</ele>
        <time>2022-11-04 16:22:57</time>
      </trkpt>
      <trkpt lat="41.93738" lon="2.84183">
        <ele>93</ele>
        <time>2022-11-04 16:22:58</time>
      </trkpt>
      <trkpt lat="41.93764" lon="2.84169">
        <ele>92</ele>
        <time>2022-11-04 16:23:03</time>
      </trkpt>
      <trkpt lat="41.93771" lon="2.84163">
        <ele>91.6</ele>
        <time>2022-11-04 16:23:05</time>
      </trkpt>
      <trkpt lat="41.9379" lon="2.84152">
        <ele>91.4</ele>
        <time>2022-11-04 16:23:11</time>
      </trkpt>
      <trkpt lat="41.93816" lon="2.84137">
        <ele>91</ele>
        <time>2022-11-04 16:23:19</time>
      </trkpt>
      <trkpt lat="41.93818" lon="2.84135">
        <ele>90.8</ele>
        <time>2022-11-04 16:23:20</time>
      </trkpt>
      <trkpt lat="41.9382" lon="2.84134">
        <ele>90.8</ele>
        <time>2022-11-04 16:23:23</time>
      </trkpt>
      <trkpt lat="41.93821" lon="2.84133">
        <ele>90.8</ele>
        <time>2022-11-04 16:23:30</time>
      </trkpt>
      <trkpt lat="41.93821" lon="2.84133">
        <ele>90.6</ele>
        <time>2022-11-04 16:23:41</time>
      </trkpt>
      <trkpt lat="41.93829" lon="2.84125">
        <ele>90.6</ele>
        <time>2022-11-04 16:23:46</time>
      </trkpt>
      <trkpt lat="41.93832" lon="2.8412">
        <ele>90.4</ele>
        <time>2022-11-04 16:23:49</time>
      </trkpt>
      <trkpt lat="41.93832" lon="2.84112">
        <ele>90.4</ele>
        <time>2022-11-04 16:23:51</time>
      </trkpt>
      <trkpt lat="41.93832" lon="2.84077">
        <ele>90.4</ele>
        <time>2022-11-04 16:23:57</time>
      </trkpt>
      <trkpt lat="41.93833" lon="2.84032">
        <ele>90.4</ele>
        <time>2022-11-04 16:24:04</time>
      </trkpt>
      <trkpt lat="41.93832" lon="2.83985">
        <ele>90.8</ele>
        <time>2022-11-04 16:24:12</time>
      </trkpt>
      <trkpt lat="41.93836" lon="2.83966">
        <ele>90.6</ele>
        <time>2022-11-04 16:24:16</time>
      </trkpt>
      <trkpt lat="41.93838" lon="2.83962">
        <ele>90.6</ele>
        <time>2022-11-04 16:24:17</time>
      </trkpt>
      <trkpt lat="41.93846" lon="2.83944">
        <ele>90.4</ele>
        <time>2022-11-04 16:24:21</time>
      </trkpt>
      <trkpt lat="41.93845" lon="2.83939">
        <ele>90.2</ele>
        <time>2022-11-04 16:24:22</time>
      </trkpt>
      <trkpt lat="41.93837" lon="2.83929">
        <ele>90.4</ele>
        <time>2022-11-04 16:24:25</time>
      </trkpt>
      <trkpt lat="41.93831" lon="2.83923">
        <ele>90.6</ele>
        <time>2022-11-04 16:24:28</time>
      </trkpt>
      <trkpt lat="41.93829" lon="2.83921">
        <ele>90.6</ele>
        <time>2022-11-04 16:24:29</time>
      </trkpt>
      <trkpt lat="41.93828" lon="2.83919">
        <ele>90.6</ele>
        <time>2022-11-04 16:24:30</time>
      </trkpt>
      <trkpt lat="41.93831" lon="2.83913">
        <ele>90.6</ele>
        <time>2022-11-04 16:24:33</time>
      </trkpt>
      <trkpt lat="41.93837" lon="2.83901">
        <ele>90.8</ele>
        <time>2022-11-04 16:24:37</time>
      </trkpt>
      <trkpt lat="41.93852" lon="2.8387">
        <ele>90.6</ele>
        <time>2022-11-04 16:24:44</time>
      </trkpt>
      <trkpt lat="41.93868" lon="2.83841">
        <ele>90.4</ele>
        <time>2022-11-04 16:24:50</time>
      </trkpt>
      <trkpt lat="41.93886" lon="2.83802">
        <ele>90</ele>
        <time>2022-11-04 16:24:58</time>
      </trkpt>
      <trkpt lat="41.93889" lon="2.83792">
        <ele>90</ele>
        <time>2022-11-04 16:25:00</time>
      </trkpt>
      <trkpt lat="41.93895" lon="2.83777">
        <ele>90.2</ele>
        <time>2022-11-04 16:25:03</time>
      </trkpt>
      <trkpt lat="41.9391" lon="2.83746">
        <ele>90.4</ele>
        <time>2022-11-04 16:25:10</time>
      </trkpt>
      <trkpt lat="41.93914" lon="2.83743">
        <ele>90.6</ele>
        <time>2022-11-04 16:25:11</time>
      </trkpt>
      <trkpt lat="41.93929" lon="2.83723">
        <ele>90.6</ele>
        <time>2022-11-04 16:25:16</time>
      </trkpt>
      <trkpt lat="41.93952" lon="2.83696">
        <ele>90.6</ele>
        <time>2022-11-04 16:25:23</time>
      </trkpt>
      <trkpt lat="41.93977" lon="2.83669">
        <ele>90.6</ele>
        <time>2022-11-04 16:25:30</time>
      </trkpt>
      <trkpt lat="41.94003" lon="2.83645">
        <ele>90.8</ele>
        <time>2022-11-04 16:25:37</time>
      </trkpt>
      <trkpt lat="41.94032" lon="2.83628">
        <ele>90.8</ele>
        <time>2022-11-04 16:25:44</time>
      </trkpt>
      <trkpt lat="41.94072" lon="2.83613">
        <ele>91</ele>
        <time>2022-11-04 16:25:53</time>
      </trkpt>
      <trkpt lat="41.94111" lon="2.83607">
        <ele>90.8</ele>
        <time>2022-11-04 16:26:01</time>
      </trkpt>
      <trkpt lat="41.94144" lon="2.8361">
        <ele>90.6</ele>
        <time>2022-11-04 16:26:08</time>
      </trkpt>
      <trkpt lat="41.94157" lon="2.83615">
        <ele>90.6</ele>
        <time>2022-11-04 16:26:11</time>
      </trkpt>
      <trkpt lat="41.94168" lon="2.83619">
        <ele>90.4</ele>
        <time>2022-11-04 16:26:14</time>
      </trkpt>
      <trkpt lat="41.94173" lon="2.8362">
        <ele>90.4</ele>
        <time>2022-11-04 16:26:15</time>
      </trkpt>
      <trkpt lat="41.94188" lon="2.83616">
        <ele>90.4</ele>
        <time>2022-11-04 16:26:19</time>
      </trkpt>
      <trkpt lat="41.94207" lon="2.83616">
        <ele>90.4</ele>
        <time>2022-11-04 16:26:24</time>
      </trkpt>
      <trkpt lat="41.94243" lon="2.8362">
        <ele>90.6</ele>
        <time>2022-11-04 16:26:33</time>
      </trkpt>
      <trkpt lat="41.94287" lon="2.83623">
        <ele>90.8</ele>
        <time>2022-11-04 16:26:43</time>
      </trkpt>
      <trkpt lat="41.94321" lon="2.83623">
        <ele>90.8</ele>
        <time>2022-11-04 16:26:51</time>
      </trkpt>
      <trkpt lat="41.94333" lon="2.83625">
        <ele>90.8</ele>
        <time>2022-11-04 16:26:54</time>
      </trkpt>
      <trkpt lat="41.94345" lon="2.83629">
        <ele>90.8</ele>
        <time>2022-11-04 16:26:57</time>
      </trkpt>
      <trkpt lat="41.94349" lon="2.8363">
        <ele>90.8</ele>
        <time>2022-11-04 16:26:58</time>
      </trkpt>
      <trkpt lat="41.9438" lon="2.83634">
        <ele>90.8</ele>
        <time>2022-11-04 16:27:05</time>
      </trkpt>
      <trkpt lat="41.94415" lon="2.83637">
        <ele>90.6</ele>
        <time>2022-11-04 16:27:12</time>
      </trkpt>
      <trkpt lat="41.94447" lon="2.83641">
        <ele>90.2</ele>
        <time>2022-11-04 16:27:18</time>
      </trkpt>
      <trkpt lat="41.94471" lon="2.83641">
        <ele>89.8</ele>
        <time>2022-11-04 16:27:23</time>
      </trkpt>
      <trkpt lat="41.9448" lon="2.83642">
        <ele>89.8</ele>
        <time>2022-11-04 16:27:25</time>
      </trkpt>
      <trkpt lat="41.94513" lon="2.83645">
        <ele>89</ele>
        <time>2022-11-04 16:27:32</time>
      </trkpt>
      <trkpt lat="41.9454" lon="2.83647">
        <ele>88.8</ele>
        <time>2022-11-04 16:27:37</time>
      </trkpt>
      <trkpt lat="41.94572" lon="2.8365">
        <ele>88.2</ele>
        <time>2022-11-04 16:27:43</time>
      </trkpt>
      <trkpt lat="41.94599" lon="2.83653">
        <ele>87.8</ele>
        <time>2022-11-04 16:27:48</time>
      </trkpt>
      <trkpt lat="41.94627" lon="2.83655">
        <ele>87.2</ele>
        <time>2022-11-04 16:27:53</time>
      </trkpt>
      <trkpt lat="41.94665" lon="2.83658">
        <ele>86.8</ele>
        <time>2022-11-04 16:28:00</time>
      </trkpt>
      <trkpt lat="41.94671" lon="2.83658">
        <ele>86.6</ele>
        <time>2022-11-04 16:28:01</time>
      </trkpt>
      <trkpt lat="41.94724" lon="2.83661">
        <ele>86</ele>
        <time>2022-11-04 16:28:11</time>
      </trkpt>
      <trkpt lat="41.94735" lon="2.83662">
        <ele>85.6</ele>
        <time>2022-11-04 16:28:13</time>
      </trkpt>
      <trkpt lat="41.94781" lon="2.83667">
        <ele>84.8</ele>
        <time>2022-11-04 16:28:21</time>
      </trkpt>
      <trkpt lat="41.94787" lon="2.83669">
        <ele>84.8</ele>
        <time>2022-11-04 16:28:22</time>
      </trkpt>
      <trkpt lat="41.94798" lon="2.8367">
        <ele>84.6</ele>
        <time>2022-11-04 16:28:24</time>
      </trkpt>
      <trkpt lat="41.94803" lon="2.83671">
        <ele>84.6</ele>
        <time>2022-11-04 16:28:25</time>
      </trkpt>
      <trkpt lat="41.94834" lon="2.83675">
        <ele>84.4</ele>
        <time>2022-11-04 16:28:31</time>
      </trkpt>
      <trkpt lat="41.94838" lon="2.83673">
        <ele>84.2</ele>
        <time>2022-11-04 16:28:32</time>
      </trkpt>
      <trkpt lat="41.94847" lon="2.83674">
        <ele>84.2</ele>
        <time>2022-11-04 16:28:34</time>
      </trkpt>
      <trkpt lat="41.94857" lon="2.83674">
        <ele>83.4</ele>
        <time>2022-11-04 16:28:37</time>
      </trkpt>
      <trkpt lat="41.94861" lon="2.83675">
        <ele>83.4</ele>
        <time>2022-11-04 16:28:38</time>
      </trkpt>
      <trkpt lat="41.94882" lon="2.83677">
        <ele>83</ele>
        <time>2022-11-04 16:28:44</time>
      </trkpt>
      <trkpt lat="41.94908" lon="2.8368">
        <ele>82.6</ele>
        <time>2022-11-04 16:28:51</time>
      </trkpt>
      <trkpt lat="41.94932" lon="2.83681">
        <ele>82.4</ele>
        <time>2022-11-04 16:28:56</time>
      </trkpt>
      <trkpt lat="41.94938" lon="2.83682">
        <ele>82.2</ele>
        <time>2022-11-04 16:28:57</time>
      </trkpt>
      <trkpt lat="41.9499" lon="2.83687">
        <ele>81.4</ele>
        <time>2022-11-04 16:29:06</time>
      </trkpt>
      <trkpt lat="41.94995" lon="2.83688">
        <ele>81.2</ele>
        <time>2022-11-04 16:29:07</time>
      </trkpt>
      <trkpt lat="41.95047" lon="2.83692">
        <ele>80.2</ele>
        <time>2022-11-04 16:29:16</time>
      </trkpt>
      <trkpt lat="41.95074" lon="2.83695">
        <ele>79.6</ele>
        <time>2022-11-04 16:29:21</time>
      </trkpt>
      <trkpt lat="41.9511" lon="2.83698">
        <ele>79.2</ele>
        <time>2022-11-04 16:29:28</time>
      </trkpt>
      <trkpt lat="41.95115" lon="2.83698">
        <ele>79</ele>
        <time>2022-11-04 16:29:29</time>
      </trkpt>
      <trkpt lat="41.95154" lon="2.83702">
        <ele>78.4</ele>
        <time>2022-11-04 16:29:36</time>
      </trkpt>
      <trkpt lat="41.9517" lon="2.83703">
        <ele>78</ele>
        <time>2022-11-04 16:29:39</time>
      </trkpt>
      <trkpt lat="41.95202" lon="2.83705">
        <ele>77.2</ele>
        <time>2022-11-04 16:29:45</time>
      </trkpt>
      <trkpt lat="41.95222" lon="2.83707">
        <ele>76.8</ele>
        <time>2022-11-04 16:29:49</time>
      </trkpt>
      <trkpt lat="41.9525" lon="2.8371">
        <ele>76.4</ele>
        <time>2022-11-04 16:29:54</time>
      </trkpt>
      <trkpt lat="41.95288" lon="2.83712">
        <ele>75.8</ele>
        <time>2022-11-04 16:30:01</time>
      </trkpt>
      <trkpt lat="41.95304" lon="2.83714">
        <ele>75.6</ele>
        <time>2022-11-04 16:30:04</time>
      </trkpt>
      <trkpt lat="41.95345" lon="2.83717">
        <ele>75</ele>
        <time>2022-11-04 16:30:12</time>
      </trkpt>
      <trkpt lat="41.95377" lon="2.83718">
        <ele>75</ele>
        <time>2022-11-04 16:30:19</time>
      </trkpt>
      <trkpt lat="41.95402" lon="2.8372">
        <ele>76.2</ele>
        <time>2022-11-04 16:30:25</time>
      </trkpt>
      <trkpt lat="41.95439" lon="2.83725">
        <ele>76.2</ele>
        <time>2022-11-04 16:30:35</time>
      </trkpt>
      <trkpt lat="41.95472" lon="2.83726">
        <ele>75.8</ele>
        <time>2022-11-04 16:30:42</time>
      </trkpt>
      <trkpt lat="41.95511" lon="2.83732">
        <ele>74.8</ele>
        <time>2022-11-04 16:30:48</time>
      </trkpt>
      <trkpt lat="41.95517" lon="2.83736">
        <ele>74.6</ele>
        <time>2022-11-04 16:30:49</time>
      </trkpt>
      <trkpt lat="41.95528" lon="2.83747">
        <ele>74.2</ele>
        <time>2022-11-04 16:30:51</time>
      </trkpt>
      <trkpt lat="41.95538" lon="2.83759">
        <ele>73.8</ele>
        <time>2022-11-04 16:30:53</time>
      </trkpt>
      <trkpt lat="41.95558" lon="2.83779">
        <ele>73.8</ele>
        <time>2022-11-04 16:30:57</time>
      </trkpt>
      <trkpt lat="41.95585" lon="2.83807">
        <ele>73.6</ele>
        <time>2022-11-04 16:31:03</time>
      </trkpt>
      <trkpt lat="41.95615" lon="2.83833">
        <ele>73</ele>
        <time>2022-11-04 16:31:10</time>
      </trkpt>
      <trkpt lat="41.95645" lon="2.83855">
        <ele>72.6</ele>
        <time>2022-11-04 16:31:17</time>
      </trkpt>
      <trkpt lat="41.95654" lon="2.8386">
        <ele>72.6</ele>
        <time>2022-11-04 16:31:19</time>
      </trkpt>
      <trkpt lat="41.95658" lon="2.83863">
        <ele>72.6</ele>
        <time>2022-11-04 16:31:20</time>
      </trkpt>
      <trkpt lat="41.95668" lon="2.83873">
        <ele>72.4</ele>
        <time>2022-11-04 16:31:23</time>
      </trkpt>
      <trkpt lat="41.95696" lon="2.83895">
        <ele>72.4</ele>
        <time>2022-11-04 16:31:30</time>
      </trkpt>
      <trkpt lat="41.95737" lon="2.83926">
        <ele>72.2</ele>
        <time>2022-11-04 16:31:40</time>
      </trkpt>
      <trkpt lat="41.95767" lon="2.83953">
        <ele>72.4</ele>
        <time>2022-11-04 16:31:49</time>
      </trkpt>
      <trkpt lat="41.95798" lon="2.83986">
        <ele>72.8</ele>
        <time>2022-11-04 16:31:59</time>
      </trkpt>
      <trkpt lat="41.95813" lon="2.83991">
        <ele>72.8</ele>
        <time>2022-11-04 16:32:03</time>
      </trkpt>
      <trkpt lat="41.95821" lon="2.83994">
        <ele>72.8</ele>
        <time>2022-11-04 16:32:05</time>
      </trkpt>
      <trkpt lat="41.95834" lon="2.84">
        <ele>72.2</ele>
        <time>2022-11-04 16:32:08</time>
      </trkpt>
      <trkpt lat="41.95843" lon="2.84002">
        <ele>72.2</ele>
        <time>2022-11-04 16:32:10</time>
      </trkpt>
      <trkpt lat="41.95851" lon="2.84004">
        <ele>72</ele>
        <time>2022-11-04 16:32:12</time>
      </trkpt>
      <trkpt lat="41.95855" lon="2.84006">
        <ele>72</ele>
        <time>2022-11-04 16:32:13</time>
      </trkpt>
      <trkpt lat="41.9587" lon="2.84021">
        <ele>71.4</ele>
        <time>2022-11-04 16:32:17</time>
      </trkpt>
      <trkpt lat="41.95873" lon="2.84026">
        <ele>71.2</ele>
        <time>2022-11-04 16:32:18</time>
      </trkpt>
      <trkpt lat="41.95882" lon="2.84033">
        <ele>71.4</ele>
        <time>2022-11-04 16:32:20</time>
      </trkpt>
      <trkpt lat="41.95895" lon="2.8404">
        <ele>71.2</ele>
        <time>2022-11-04 16:32:23</time>
      </trkpt>
      <trkpt lat="41.95925" lon="2.84052">
        <ele>71.4</ele>
        <time>2022-11-04 16:32:30</time>
      </trkpt>
      <trkpt lat="41.95942" lon="2.84061">
        <ele>71.4</ele>
        <time>2022-11-04 16:32:34</time>
      </trkpt>
      <trkpt lat="41.95953" lon="2.84066">
        <ele>71.4</ele>
        <time>2022-11-04 16:32:37</time>
      </trkpt>
      <trkpt lat="41.9597" lon="2.84062">
        <ele>71.4</ele>
        <time>2022-11-04 16:32:42</time>
      </trkpt>
      <trkpt lat="41.95971" lon="2.84046">
        <ele>71.4</ele>
        <time>2022-11-04 16:32:46</time>
      </trkpt>
      <trkpt lat="41.95971" lon="2.8404">
        <ele>71.4</ele>
        <time>2022-11-04 16:32:47</time>
      </trkpt>
      <trkpt lat="41.95974" lon="2.84006">
        <ele>71.6</ele>
        <time>2022-11-04 16:32:53</time>
      </trkpt>
      <trkpt lat="41.95977" lon="2.83995">
        <ele>71.4</ele>
        <time>2022-11-04 16:32:55</time>
      </trkpt>
      <trkpt lat="41.95987" lon="2.83983">
        <ele>71.6</ele>
        <time>2022-11-04 16:32:58</time>
      </trkpt>
      <trkpt lat="41.96005" lon="2.83979">
        <ele>71.6</ele>
        <time>2022-11-04 16:33:02</time>
      </trkpt>
      <trkpt lat="41.9601" lon="2.83979">
        <ele>71.6</ele>
        <time>2022-11-04 16:33:03</time>
      </trkpt>
      <trkpt lat="41.96038" lon="2.83979">
        <ele>71.4</ele>
        <time>2022-11-04 16:33:09</time>
      </trkpt>
      <trkpt lat="41.96073" lon="2.83978">
        <ele>71.4</ele>
        <time>2022-11-04 16:33:17</time>
      </trkpt>
      <trkpt lat="41.961" lon="2.83975">
        <ele>71</ele>
        <time>2022-11-04 16:33:23</time>
      </trkpt>
      <trkpt lat="41.96134" lon="2.83974">
        <ele>71</ele>
        <time>2022-11-04 16:33:30</time>
      </trkpt>
      <trkpt lat="41.96179" lon="2.83972">
        <ele>71.2</ele>
        <time>2022-11-04 16:33:40</time>
      </trkpt>
      <trkpt lat="41.96184" lon="2.83971">
        <ele>71.2</ele>
        <time>2022-11-04 16:33:41</time>
      </trkpt>
      <trkpt lat="41.96209" lon="2.83969">
        <ele>71</ele>
        <time>2022-11-04 16:33:46</time>
      </trkpt>
      <trkpt lat="41.96214" lon="2.83969">
        <ele>71.2</ele>
        <time>2022-11-04 16:33:47</time>
      </trkpt>
      <trkpt lat="41.96228" lon="2.8397">
        <ele>71.2</ele>
        <time>2022-11-04 16:33:50</time>
      </trkpt>
      <trkpt lat="41.96238" lon="2.83969">
        <ele>71.2</ele>
        <time>2022-11-04 16:33:52</time>
      </trkpt>
      <trkpt lat="41.96272" lon="2.83966">
        <ele>71</ele>
        <time>2022-11-04 16:33:59</time>
      </trkpt>
      <trkpt lat="41.96298" lon="2.83969">
        <ele>71</ele>
        <time>2022-11-04 16:34:05</time>
      </trkpt>
      <trkpt lat="41.96311" lon="2.83954">
        <ele>71</ele>
        <time>2022-11-04 16:34:09</time>
      </trkpt>
      <trkpt lat="41.96315" lon="2.83944">
        <ele>70.8</ele>
        <time>2022-11-04 16:34:11</time>
      </trkpt>
      <trkpt lat="41.96321" lon="2.83925">
        <ele>70.6</ele>
        <time>2022-11-04 16:34:15</time>
      </trkpt>
      <trkpt lat="41.96331" lon="2.8389">
        <ele>71.2</ele>
        <time>2022-11-04 16:34:23</time>
      </trkpt>
      <trkpt lat="41.96339" lon="2.83873">
        <ele>72</ele>
        <time>2022-11-04 16:34:29</time>
      </trkpt>
      <trkpt lat="41.96345" lon="2.83865">
        <ele>73</ele>
        <time>2022-11-04 16:34:32</time>
      </trkpt>
      <trkpt lat="41.9635" lon="2.83859">
        <ele>74.4</ele>
        <time>2022-11-04 16:34:35</time>
      </trkpt>
      <trkpt lat="41.96354" lon="2.83858">
        <ele>75.4</ele>
        <time>2022-11-04 16:34:41</time>
      </trkpt>
      <trkpt lat="41.96357" lon="2.83859">
        <ele>75.4</ele>
        <time>2022-11-04 16:34:47</time>
      </trkpt>
      <trkpt lat="41.96357" lon="2.83859">
        <ele>75.4</ele>
        <time>2022-11-04 16:35:03</time>
      </trkpt>
      <trkpt lat="41.96358" lon="2.8386">
        <ele>75.2</ele>
        <time>2022-11-04 16:35:18</time>
      </trkpt>
      <trkpt lat="41.96361" lon="2.83862">
        <ele>75.2</ele>
        <time>2022-11-04 16:35:20</time>
      </trkpt>
      <trkpt lat="41.96366" lon="2.83867">
        <ele>75.6</ele>
        <time>2022-11-04 16:35:23</time>
      </trkpt>
      <trkpt lat="41.96378" lon="2.83878">
        <ele>76.2</ele>
        <time>2022-11-04 16:35:30</time>
      </trkpt>
      <trkpt lat="41.96391" lon="2.83891">
        <ele>75.8</ele>
        <time>2022-11-04 16:35:35</time>
      </trkpt>
      <trkpt lat="41.96411" lon="2.83909">
        <ele>75.4</ele>
        <time>2022-11-04 16:35:41</time>
      </trkpt>
      <trkpt lat="41.96432" lon="2.83923">
        <ele>75</ele>
        <time>2022-11-04 16:35:47</time>
      </trkpt>
      <trkpt lat="41.96458" lon="2.83931">
        <ele>74.8</ele>
        <time>2022-11-04 16:35:54</time>
      </trkpt>
      <trkpt lat="41.96482" lon="2.83937">
        <ele>74.4</ele>
        <time>2022-11-04 16:35:59</time>
      </trkpt>
      <trkpt lat="41.96486" lon="2.83938">
        <ele>74.2</ele>
        <time>2022-11-04 16:36:00</time>
      </trkpt>
      <trkpt lat="41.9649" lon="2.83937">
        <ele>74</ele>
        <time>2022-11-04 16:36:01</time>
      </trkpt>
      <trkpt lat="41.96502" lon="2.83929">
        <ele>74.2</ele>
        <time>2022-11-04 16:36:04</time>
      </trkpt>
      <trkpt lat="41.96505" lon="2.83915">
        <ele>74.6</ele>
        <time>2022-11-04 16:36:07</time>
      </trkpt>
      <trkpt lat="41.96516" lon="2.8391">
        <ele>75.2</ele>
        <time>2022-11-04 16:36:11</time>
      </trkpt>
      <trkpt lat="41.96519" lon="2.8391">
        <ele>75.2</ele>
        <time>2022-11-04 16:36:12</time>
      </trkpt>
      <trkpt lat="41.96523" lon="2.83909">
        <ele>75.4</ele>
        <time>2022-11-04 16:36:13</time>
      </trkpt>
      <trkpt lat="41.9654" lon="2.83904">
        <ele>76.4</ele>
        <time>2022-11-04 16:36:18</time>
      </trkpt>
      <trkpt lat="41.96544" lon="2.83903">
        <ele>76.6</ele>
        <time>2022-11-04 16:36:19</time>
      </trkpt>
      <trkpt lat="41.9656" lon="2.83895">
        <ele>77.6</ele>
        <time>2022-11-04 16:36:24</time>
      </trkpt>
      <trkpt lat="41.96565" lon="2.83891">
        <ele>77.8</ele>
        <time>2022-11-04 16:36:26</time>
      </trkpt>
      <trkpt lat="41.96583" lon="2.83881">
        <ele>78.6</ele>
        <time>2022-11-04 16:36:33</time>
      </trkpt>
      <trkpt lat="41.96586" lon="2.83879">
        <ele>78.6</ele>
        <time>2022-11-04 16:36:34</time>
      </trkpt>
      <trkpt lat="41.9661" lon="2.83857">
        <ele>79.6</ele>
        <time>2022-11-04 16:36:43</time>
      </trkpt>
      <trkpt lat="41.96619" lon="2.83851">
        <ele>79.6</ele>
        <time>2022-11-04 16:36:46</time>
      </trkpt>
      <trkpt lat="41.96629" lon="2.83849">
        <ele>79.4</ele>
        <time>2022-11-04 16:36:49</time>
      </trkpt>
      <trkpt lat="41.96642" lon="2.83839">
        <ele>78.6</ele>
        <time>2022-11-04 16:36:53</time>
      </trkpt>
      <trkpt lat="41.96647" lon="2.83835">
        <ele>78.2</ele>
        <time>2022-11-04 16:36:54</time>
      </trkpt>
      <trkpt lat="41.96666" lon="2.8382">
        <ele>76.8</ele>
        <time>2022-11-04 16:36:57</time>
      </trkpt>
      <trkpt lat="41.9671" lon="2.83782">
        <ele>76.6</ele>
        <time>2022-11-04 16:37:04</time>
      </trkpt>
      <trkpt lat="41.96729" lon="2.83758">
        <ele>77</ele>
        <time>2022-11-04 16:37:09</time>
      </trkpt>
      <trkpt lat="41.96755" lon="2.83726">
        <ele>76.6</ele>
        <time>2022-11-04 16:37:16</time>
      </trkpt>
      <trkpt lat="41.96762" lon="2.83715">
        <ele>76.6</ele>
        <time>2022-11-04 16:37:18</time>
      </trkpt>
      <trkpt lat="41.96774" lon="2.83702">
        <ele>76.6</ele>
        <time>2022-11-04 16:37:21</time>
      </trkpt>
      <trkpt lat="41.96787" lon="2.83683">
        <ele>76.6</ele>
        <time>2022-11-04 16:37:25</time>
      </trkpt>
      <trkpt lat="41.96795" lon="2.83669">
        <ele>76.2</ele>
        <time>2022-11-04 16:37:28</time>
      </trkpt>
      <trkpt lat="41.96812" lon="2.83645">
        <ele>75.8</ele>
        <time>2022-11-04 16:37:33</time>
      </trkpt>
      <trkpt lat="41.96819" lon="2.83636">
        <ele>75.4</ele>
        <time>2022-11-04 16:37:35</time>
      </trkpt>
      <trkpt lat="41.96823" lon="2.83632">
        <ele>75.4</ele>
        <time>2022-11-04 16:37:36</time>
      </trkpt>
      <trkpt lat="41.96836" lon="2.8362">
        <ele>74.4</ele>
        <time>2022-11-04 16:37:39</time>
      </trkpt>
      <trkpt lat="41.96842" lon="2.83618">
        <ele>73.8</ele>
        <time>2022-11-04 16:37:40</time>
      </trkpt>
      <trkpt lat="41.96849" lon="2.83617">
        <ele>73.2</ele>
        <time>2022-11-04 16:37:41</time>
      </trkpt>
      <trkpt lat="41.96864" lon="2.83615">
        <ele>72</ele>
        <time>2022-11-04 16:37:43</time>
      </trkpt>
      <trkpt lat="41.96879" lon="2.83616">
        <ele>71.8</ele>
        <time>2022-11-04 16:37:45</time>
      </trkpt>
      <trkpt lat="41.96894" lon="2.8362">
        <ele>71.4</ele>
        <time>2022-11-04 16:37:47</time>
      </trkpt>
      <trkpt lat="41.9691" lon="2.83608">
        <ele>71.2</ele>
        <time>2022-11-04 16:37:50</time>
      </trkpt>
      <trkpt lat="41.96926" lon="2.836">
        <ele>71.2</ele>
        <time>2022-11-04 16:37:53</time>
      </trkpt>
      <trkpt lat="41.96936" lon="2.83597">
        <ele>71.4</ele>
        <time>2022-11-04 16:37:55</time>
      </trkpt>
      <trkpt lat="41.96946" lon="2.83596">
        <ele>71.6</ele>
        <time>2022-11-04 16:37:57</time>
      </trkpt>
      <trkpt lat="41.96966" lon="2.83597">
        <ele>71.8</ele>
        <time>2022-11-04 16:38:01</time>
      </trkpt>
      <trkpt lat="41.96997" lon="2.83598">
        <ele>72.4</ele>
        <time>2022-11-04 16:38:09</time>
      </trkpt>
      <trkpt lat="41.97019" lon="2.83599">
        <ele>72.8</ele>
        <time>2022-11-04 16:38:16</time>
      </trkpt>
      <trkpt lat="41.97025" lon="2.83599">
        <ele>73.2</ele>
        <time>2022-11-04 16:38:18</time>
      </trkpt>
      <trkpt lat="41.97044" lon="2.83598">
        <ele>73.8</ele>
        <time>2022-11-04 16:38:25</time>
      </trkpt>
      <trkpt lat="41.97058" lon="2.83598">
        <ele>74.2</ele>
        <time>2022-11-04 16:38:31</time>
      </trkpt>
      <trkpt lat="41.97061" lon="2.83598">
        <ele>74.2</ele>
        <time>2022-11-04 16:38:32</time>
      </trkpt>
      <trkpt lat="41.97064" lon="2.83598">
        <ele>74.4</ele>
        <time>2022-11-04 16:38:33</time>
      </trkpt>
      <trkpt lat="41.97077" lon="2.83596">
        <ele>74.6</ele>
        <time>2022-11-04 16:38:39</time>
      </trkpt>
      <trkpt lat="41.97096" lon="2.83593">
        <ele>75.2</ele>
        <time>2022-11-04 16:38:46</time>
      </trkpt>
      <trkpt lat="41.97117" lon="2.83585">
        <ele>75</ele>
        <time>2022-11-04 16:38:53</time>
      </trkpt>
      <trkpt lat="41.97146" lon="2.83566">
        <ele>74.8</ele>
        <time>2022-11-04 16:39:01</time>
      </trkpt>
      <trkpt lat="41.97169" lon="2.83541">
        <ele>74.2</ele>
        <time>2022-11-04 16:39:08</time>
      </trkpt>
      <trkpt lat="41.97191" lon="2.83506">
        <ele>73.6</ele>
        <time>2022-11-04 16:39:15</time>
      </trkpt>
      <trkpt lat="41.97198" lon="2.83488">
        <ele>73.2</ele>
        <time>2022-11-04 16:39:18</time>
      </trkpt>
      <trkpt lat="41.97206" lon="2.83463">
        <ele>73</ele>
        <time>2022-11-04 16:39:22</time>
      </trkpt>
      <trkpt lat="41.9722" lon="2.83413">
        <ele>72.4</ele>
        <time>2022-11-04 16:39:30</time>
      </trkpt>
      <trkpt lat="41.97222" lon="2.83407">
        <ele>72.2</ele>
        <time>2022-11-04 16:39:31</time>
      </trkpt>
      <trkpt lat="41.97226" lon="2.83389">
        <ele>72</ele>
        <time>2022-11-04 16:39:34</time>
      </trkpt>
      <trkpt lat="41.97229" lon="2.83378">
        <ele>71.8</ele>
        <time>2022-11-04 16:39:36</time>
      </trkpt>
      <trkpt lat="41.97244" lon="2.83334">
        <ele>71.4</ele>
        <time>2022-11-04 16:39:44</time>
      </trkpt>
      <trkpt lat="41.9725" lon="2.83318">
        <ele>71.2</ele>
        <time>2022-11-04 16:39:47</time>
      </trkpt>
      <trkpt lat="41.9726" lon="2.83296">
        <ele>71</ele>
        <time>2022-11-04 16:39:51</time>
      </trkpt>
      <trkpt lat="41.97282" lon="2.83254">
        <ele>70.6</ele>
        <time>2022-11-04 16:39:58</time>
      </trkpt>
      <trkpt lat="41.97295" lon="2.83226">
        <ele>70</ele>
        <time>2022-11-04 16:40:02</time>
      </trkpt>
      <trkpt lat="41.97306" lon="2.83206">
        <ele>69.8</ele>
        <time>2022-11-04 16:40:05</time>
      </trkpt>
      <trkpt lat="41.97316" lon="2.83187">
        <ele>69.6</ele>
        <time>2022-11-04 16:40:08</time>
      </trkpt>
      <trkpt lat="41.97326" lon="2.83163">
        <ele>69.2</ele>
        <time>2022-11-04 16:40:12</time>
      </trkpt>
      <trkpt lat="41.97334" lon="2.83131">
        <ele>69.8</ele>
        <time>2022-11-04 16:40:18</time>
      </trkpt>
      <trkpt lat="41.9734" lon="2.83101">
        <ele>70.8</ele>
        <time>2022-11-04 16:40:25</time>
      </trkpt>
      <trkpt lat="41.97341" lon="2.83092">
        <ele>71</ele>
        <time>2022-11-04 16:40:27</time>
      </trkpt>
      <trkpt lat="41.97344" lon="2.83072">
        <ele>71.8</ele>
        <time>2022-11-04 16:40:32</time>
      </trkpt>
      <trkpt lat="41.97344" lon="2.83068">
        <ele>72.2</ele>
        <time>2022-11-04 16:40:33</time>
      </trkpt>
      <trkpt lat="41.97345" lon="2.83052">
        <ele>72.8</ele>
        <time>2022-11-04 16:40:38</time>
      </trkpt>
      <trkpt lat="41.97346" lon="2.83034">
        <ele>73.2</ele>
        <time>2022-11-04 16:40:42</time>
      </trkpt>
      <trkpt lat="41.97347" lon="2.83024">
        <ele>72.8</ele>
        <time>2022-11-04 16:40:44</time>
      </trkpt>
      <trkpt lat="41.97349" lon="2.82989">
        <ele>72</ele>
        <time>2022-11-04 16:40:50</time>
      </trkpt>
      <trkpt lat="41.97351" lon="2.82925">
        <ele>71.2</ele>
        <time>2022-11-04 16:40:59</time>
      </trkpt>
      <trkpt lat="41.97351" lon="2.82917">
        <ele>71</ele>
        <time>2022-11-04 16:41:00</time>
      </trkpt>
      <trkpt lat="41.97352" lon="2.82886">
        <ele>70</ele>
        <time>2022-11-04 16:41:04</time>
      </trkpt>
      <trkpt lat="41.97353" lon="2.82871">
        <ele>69</ele>
        <time>2022-11-04 16:41:06</time>
      </trkpt>
      <trkpt lat="41.97354" lon="2.82842">
        <ele>68</ele>
        <time>2022-11-04 16:41:10</time>
      </trkpt>
      <trkpt lat="41.97356" lon="2.82812">
        <ele>67.8</ele>
        <time>2022-11-04 16:41:14</time>
      </trkpt>
      <trkpt lat="41.97361" lon="2.82758">
        <ele>67.4</ele>
        <time>2022-11-04 16:41:22</time>
      </trkpt>
      <trkpt lat="41.97362" lon="2.82746">
        <ele>67.4</ele>
        <time>2022-11-04 16:41:24</time>
      </trkpt>
      <trkpt lat="41.97365" lon="2.82727">
        <ele>67.4</ele>
        <time>2022-11-04 16:41:27</time>
      </trkpt>
      <trkpt lat="41.97372" lon="2.82684">
        <ele>66.8</ele>
        <time>2022-11-04 16:41:33</time>
      </trkpt>
      <trkpt lat="41.97385" lon="2.82624">
        <ele>66.6</ele>
        <time>2022-11-04 16:41:42</time>
      </trkpt>
      <trkpt lat="41.97394" lon="2.8258">
        <ele>66.6</ele>
        <time>2022-11-04 16:41:50</time>
      </trkpt>
      <trkpt lat="41.97399" lon="2.8255">
        <ele>66.6</ele>
        <time>2022-11-04 16:41:57</time>
      </trkpt>
      <trkpt lat="41.97403" lon="2.82532">
        <ele>66.4</ele>
        <time>2022-11-04 16:42:03</time>
      </trkpt>
      <trkpt lat="41.97409" lon="2.82512">
        <ele>66.6</ele>
        <time>2022-11-04 16:42:10</time>
      </trkpt>
      <trkpt lat="41.97415" lon="2.8251">
        <ele>66.8</ele>
        <time>2022-11-04 16:42:12</time>
      </trkpt>
      <trkpt lat="41.97424" lon="2.82508">
        <ele>66.8</ele>
        <time>2022-11-04 16:42:14</time>
      </trkpt>
      <trkpt lat="41.97432" lon="2.82504">
        <ele>66.8</ele>
        <time>2022-11-04 16:42:16</time>
      </trkpt>
      <trkpt lat="41.97444" lon="2.82495">
        <ele>66.6</ele>
        <time>2022-11-04 16:42:19</time>
      </trkpt>
      <trkpt lat="41.97449" lon="2.82488">
        <ele>66.8</ele>
        <time>2022-11-04 16:42:21</time>
      </trkpt>
      <trkpt lat="41.97454" lon="2.82485">
        <ele>66.4</ele>
        <time>2022-11-04 16:42:23</time>
      </trkpt>
      <trkpt lat="41.97474" lon="2.82495">
        <ele>66.4</ele>
        <time>2022-11-04 16:42:28</time>
      </trkpt>
      <trkpt lat="41.97479" lon="2.82499">
        <ele>66.8</ele>
        <time>2022-11-04 16:42:29</time>
      </trkpt>
      <trkpt lat="41.97503" lon="2.82518">
        <ele>67</ele>
        <time>2022-11-04 16:42:35</time>
      </trkpt>
      <trkpt lat="41.97511" lon="2.82524">
        <ele>65.8</ele>
        <time>2022-11-04 16:42:39</time>
      </trkpt>
      <trkpt lat="41.97515" lon="2.82523">
        <ele>65.8</ele>
        <time>2022-11-04 16:42:40</time>
      </trkpt>
      <trkpt lat="41.97521" lon="2.82521">
        <ele>65.8</ele>
        <time>2022-11-04 16:42:41</time>
      </trkpt>
      <trkpt lat="41.97536" lon="2.82504">
        <ele>65.2</ele>
        <time>2022-11-04 16:42:44</time>
      </trkpt>
      <trkpt lat="41.9757" lon="2.82472">
        <ele>64.8</ele>
        <time>2022-11-04 16:42:50</time>
      </trkpt>
      <trkpt lat="41.97613" lon="2.82442">
        <ele>64.8</ele>
        <time>2022-11-04 16:42:57</time>
      </trkpt>
      <trkpt lat="41.97649" lon="2.82429">
        <ele>64.4</ele>
        <time>2022-11-04 16:43:03</time>
      </trkpt>
      <trkpt lat="41.97659" lon="2.82428">
        <ele>64.2</ele>
        <time>2022-11-04 16:43:06</time>
      </trkpt>
      <trkpt lat="41.97674" lon="2.82428">
        <ele>64.2</ele>
        <time>2022-11-04 16:43:12</time>
      </trkpt>
      <trkpt lat="41.97697" lon="2.82429">
        <ele>64.6</ele>
        <time>2022-11-04 16:43:17</time>
      </trkpt>
      <trkpt lat="41.97743" lon="2.82435">
        <ele>64.2</ele>
        <time>2022-11-04 16:43:26</time>
      </trkpt>
      <trkpt lat="41.97758" lon="2.82435">
        <ele>64</ele>
        <time>2022-11-04 16:43:31</time>
      </trkpt>
      <trkpt lat="41.97762" lon="2.82436">
        <ele>63.8</ele>
        <time>2022-11-04 16:43:33</time>
      </trkpt>
      <trkpt lat="41.97765" lon="2.82435">
        <ele>63.8</ele>
        <time>2022-11-04 16:43:35</time>
      </trkpt>
      <trkpt lat="41.97771" lon="2.82434">
        <ele>64</ele>
        <time>2022-11-04 16:43:37</time>
      </trkpt>
      <trkpt lat="41.97786" lon="2.82435">
        <ele>64.4</ele>
        <time>2022-11-04 16:43:40</time>
      </trkpt>
      <trkpt lat="41.97795" lon="2.82437">
        <ele>64.2</ele>
        <time>2022-11-04 16:43:41</time>
      </trkpt>
      <trkpt lat="41.97802" lon="2.82438">
        <ele>64.2</ele>
        <time>2022-11-04 16:43:42</time>
      </trkpt>
      <trkpt lat="41.97825" lon="2.82441">
        <ele>64.2</ele>
        <time>2022-11-04 16:43:46</time>
      </trkpt>
      <trkpt lat="41.9785" lon="2.82442">
        <ele>65</ele>
        <time>2022-11-04 16:43:50</time>
      </trkpt>
      <trkpt lat="41.97855" lon="2.82439">
        <ele>65.2</ele>
        <time>2022-11-04 16:43:51</time>
      </trkpt>
      <trkpt lat="41.97868" lon="2.82425">
        <ele>66.4</ele>
        <time>2022-11-04 16:43:54</time>
      </trkpt>
      <trkpt lat="41.97871" lon="2.8242">
        <ele>66.6</ele>
        <time>2022-11-04 16:43:55</time>
      </trkpt>
      <trkpt lat="41.9789" lon="2.82394">
        <ele>66.2</ele>
        <time>2022-11-04 16:44:00</time>
      </trkpt>
      <trkpt lat="41.97896" lon="2.82379">
        <ele>65.4</ele>
        <time>2022-11-04 16:44:02</time>
      </trkpt>
      <trkpt lat="41.97897" lon="2.8237">
        <ele>65.2</ele>
        <time>2022-11-04 16:44:03</time>
      </trkpt>
      <trkpt lat="41.97898" lon="2.82346">
        <ele>65.4</ele>
        <time>2022-11-04 16:44:06</time>
      </trkpt>
      <trkpt lat="41.97894" lon="2.82305">
        <ele>66</ele>
        <time>2022-11-04 16:44:12</time>
      </trkpt>
      <trkpt lat="41.97895" lon="2.82277">
        <ele>66</ele>
        <time>2022-11-04 16:44:17</time>
      </trkpt>
      <trkpt lat="41.97906" lon="2.82263">
        <ele>65.8</ele>
        <time>2022-11-04 16:44:21</time>
      </trkpt>
      <trkpt lat="41.97932" lon="2.82238">
        <ele>65.6</ele>
        <time>2022-11-04 16:44:28</time>
      </trkpt>
      <trkpt lat="41.97936" lon="2.82235">
        <ele>65.6</ele>
        <time>2022-11-04 16:44:29</time>
      </trkpt>
      <trkpt lat="41.9795" lon="2.82232">
        <ele>65.4</ele>
        <time>2022-11-04 16:44:32</time>
      </trkpt>
      <trkpt lat="41.97959" lon="2.82237">
        <ele>65.4</ele>
        <time>2022-11-04 16:44:34</time>
      </trkpt>
      <trkpt lat="41.97964" lon="2.82239">
        <ele>65.2</ele>
        <time>2022-11-04 16:44:35</time>
      </trkpt>
      <trkpt lat="41.97969" lon="2.82241">
        <ele>65.4</ele>
        <time>2022-11-04 16:44:36</time>
      </trkpt>
      <trkpt lat="41.9798" lon="2.82232">
        <ele>65.6</ele>
        <time>2022-11-04 16:44:39</time>
      </trkpt>
      <trkpt lat="41.97985" lon="2.82222">
        <ele>65.4</ele>
        <time>2022-11-04 16:44:41</time>
      </trkpt>
      <trkpt lat="41.97994" lon="2.82207">
        <ele>64.8</ele>
        <time>2022-11-04 16:44:45</time>
      </trkpt>
      <trkpt lat="41.98005" lon="2.8219">
        <ele>64.8</ele>
        <time>2022-11-04 16:44:52</time>
      </trkpt>
      <trkpt lat="41.98011" lon="2.82183">
        <ele>65</ele>
        <time>2022-11-04 16:44:54</time>
      </trkpt>
      <trkpt lat="41.98019" lon="2.82173">
        <ele>65.2</ele>
        <time>2022-11-04 16:44:56</time>
      </trkpt>
      <trkpt lat="41.98029" lon="2.82163">
        <ele>65</ele>
        <time>2022-11-04 16:44:58</time>
      </trkpt>
      <trkpt lat="41.98037" lon="2.82151">
        <ele>65.2</ele>
        <time>2022-11-04 16:45:00</time>
      </trkpt>
      <trkpt lat="41.98043" lon="2.82124">
        <ele>65.2</ele>
        <time>2022-11-04 16:45:04</time>
      </trkpt>
      <trkpt lat="41.98054" lon="2.82085">
        <ele>65.2</ele>
        <time>2022-11-04 16:45:10</time>
      </trkpt>
      <trkpt lat="41.9807" lon="2.82057">
        <ele>65.2</ele>
        <time>2022-11-04 16:45:15</time>
      </trkpt>
      <trkpt lat="41.98076" lon="2.82047">
        <ele>65.2</ele>
        <time>2022-11-04 16:45:17</time>
      </trkpt>
      <trkpt lat="41.98092" lon="2.82027">
        <ele>65.4</ele>
        <time>2022-11-04 16:45:22</time>
      </trkpt>
      <trkpt lat="41.98099" lon="2.82026">
        <ele>65.4</ele>
        <time>2022-11-04 16:45:23</time>
      </trkpt>
      <trkpt lat="41.98127" lon="2.82014">
        <ele>65.2</ele>
        <time>2022-11-04 16:45:28</time>
      </trkpt>
      <trkpt lat="41.98135" lon="2.82013">
        <ele>65.2</ele>
        <time>2022-11-04 16:45:29</time>
      </trkpt>
      <trkpt lat="41.98162" lon="2.82011">
        <ele>65.4</ele>
        <time>2022-11-04 16:45:33</time>
      </trkpt>
      <trkpt lat="41.98191" lon="2.82011">
        <ele>65.2</ele>
        <time>2022-11-04 16:45:36</time>
      </trkpt>
      <trkpt lat="41.98239" lon="2.81995">
        <ele>65.2</ele>
        <time>2022-11-04 16:45:43</time>
      </trkpt>
      <trkpt lat="41.98281" lon="2.81987">
        <ele>66</ele>
        <time>2022-11-04 16:45:50</time>
      </trkpt>
      <trkpt lat="41.98288" lon="2.81987">
        <ele>66.2</ele>
        <time>2022-11-04 16:45:51</time>
      </trkpt>
      <trkpt lat="41.98302" lon="2.81988">
        <ele>66.8</ele>
        <time>2022-11-04 16:45:53</time>
      </trkpt>
      <trkpt lat="41.98315" lon="2.81987">
        <ele>66.8</ele>
        <time>2022-11-04 16:45:55</time>
      </trkpt>
      <trkpt lat="41.9832" lon="2.81984">
        <ele>66.6</ele>
        <time>2022-11-04 16:45:56</time>
      </trkpt>
      <trkpt lat="41.98342" lon="2.81977">
        <ele>66.2</ele>
        <time>2022-11-04 16:46:00</time>
      </trkpt>
      <trkpt lat="41.98359" lon="2.81987">
        <ele>66.4</ele>
        <time>2022-11-04 16:46:03</time>
      </trkpt>
      <trkpt lat="41.98399" lon="2.82022">
        <ele>65.6</ele>
        <time>2022-11-04 16:46:10</time>
      </trkpt>
      <trkpt lat="41.98422" lon="2.82043">
        <ele>65.2</ele>
        <time>2022-11-04 16:46:14</time>
      </trkpt>
      <trkpt lat="41.98452" lon="2.82069">
        <ele>64.8</ele>
        <time>2022-11-04 16:46:19</time>
      </trkpt>
      <trkpt lat="41.98494" lon="2.82119">
        <ele>64.2</ele>
        <time>2022-11-04 16:46:27</time>
      </trkpt>
      <trkpt lat="41.98503" lon="2.82132">
        <ele>64.2</ele>
        <time>2022-11-04 16:46:29</time>
      </trkpt>
      <trkpt lat="41.98532" lon="2.82171">
        <ele>63.8</ele>
        <time>2022-11-04 16:46:35</time>
      </trkpt>
      <trkpt lat="41.98555" lon="2.82201">
        <ele>63.2</ele>
        <time>2022-11-04 16:46:40</time>
      </trkpt>
      <trkpt lat="41.98569" lon="2.82219">
        <ele>62.8</ele>
        <time>2022-11-04 16:46:43</time>
      </trkpt>
      <trkpt lat="41.98573" lon="2.82226">
        <ele>62.8</ele>
        <time>2022-11-04 16:46:44</time>
      </trkpt>
      <trkpt lat="41.98589" lon="2.82254">
        <ele>62.6</ele>
        <time>2022-11-04 16:46:48</time>
      </trkpt>
      <trkpt lat="41.98598" lon="2.82273">
        <ele>62.6</ele>
        <time>2022-11-04 16:46:51</time>
      </trkpt>
      <trkpt lat="41.98602" lon="2.82276">
        <ele>62.6</ele>
        <time>2022-11-04 16:46:52</time>
      </trkpt>
      <trkpt lat="41.98619" lon="2.8227">
        <ele>62.6</ele>
        <time>2022-11-04 16:46:55</time>
      </trkpt>
      <trkpt lat="41.98634" lon="2.82257">
        <ele>62.4</ele>
        <time>2022-11-04 16:46:58</time>
      </trkpt>
      <trkpt lat="41.98637" lon="2.82253">
        <ele>62.2</ele>
        <time>2022-11-04 16:46:59</time>
      </trkpt>
      <trkpt lat="41.98646" lon="2.82241">
        <ele>62.2</ele>
        <time>2022-11-04 16:47:02</time>
      </trkpt>
      <trkpt lat="41.9865" lon="2.8223">
        <ele>62</ele>
        <time>2022-11-04 16:47:04</time>
      </trkpt>
      <trkpt lat="41.9867" lon="2.82186">
        <ele>61.8</ele>
        <time>2022-11-04 16:47:12</time>
      </trkpt>
      <trkpt lat="41.98678" lon="2.82179">
        <ele>61.8</ele>
        <time>2022-11-04 16:47:16</time>
      </trkpt>
      <trkpt lat="41.9869" lon="2.82178">
        <ele>61.8</ele>
        <time>2022-11-04 16:47:19</time>
      </trkpt>
      <trkpt lat="41.98696" lon="2.82177">
        <ele>62</ele>
        <time>2022-11-04 16:47:20</time>
      </trkpt>
      <trkpt lat="41.98714" lon="2.82166">
        <ele>62.2</ele>
        <time>2022-11-04 16:47:24</time>
      </trkpt>
      <trkpt lat="41.98719" lon="2.82165">
        <ele>62.2</ele>
        <time>2022-11-04 16:47:25</time>
      </trkpt>
      <trkpt lat="41.98732" lon="2.82172">
        <ele>62.2</ele>
        <time>2022-11-04 16:47:28</time>
      </trkpt>
      <trkpt lat="41.98737" lon="2.82176">
        <ele>62</ele>
        <time>2022-11-04 16:47:29</time>
      </trkpt>
      <trkpt lat="41.98763" lon="2.82203">
        <ele>61.6</ele>
        <time>2022-11-04 16:47:35</time>
      </trkpt>
      <trkpt lat="41.98798" lon="2.82236">
        <ele>61.6</ele>
        <time>2022-11-04 16:47:42</time>
      </trkpt>
      <trkpt lat="41.98804" lon="2.82239">
        <ele>61.6</ele>
        <time>2022-11-04 16:47:43</time>
      </trkpt>
      <trkpt lat="41.9883" lon="2.82241">
        <ele>61.4</ele>
        <time>2022-11-04 16:47:47</time>
      </trkpt>
      <trkpt lat="41.98838" lon="2.8224">
        <ele>61.4</ele>
        <time>2022-11-04 16:47:48</time>
      </trkpt>
      <trkpt lat="41.98866" lon="2.82233">
        <ele>61.4</ele>
        <time>2022-11-04 16:47:52</time>
      </trkpt>
      <trkpt lat="41.98891" lon="2.82228">
        <ele>61.6</ele>
        <time>2022-11-04 16:47:56</time>
      </trkpt>
      <trkpt lat="41.98897" lon="2.82229">
        <ele>61.6</ele>
        <time>2022-11-04 16:47:57</time>
      </trkpt>
      <trkpt lat="41.98914" lon="2.82245">
        <ele>61.8</ele>
        <time>2022-11-04 16:48:00</time>
      </trkpt>
      <trkpt lat="41.9892" lon="2.8225">
        <ele>61.8</ele>
        <time>2022-11-04 16:48:01</time>
      </trkpt>
      <trkpt lat="41.98933" lon="2.82255">
        <ele>62.2</ele>
        <time>2022-11-04 16:48:03</time>
      </trkpt>
      <trkpt lat="41.98955" lon="2.82248">
        <ele>62.2</ele>
        <time>2022-11-04 16:48:06</time>
      </trkpt>
      <trkpt lat="41.9897" lon="2.82233">
        <ele>62.4</ele>
        <time>2022-11-04 16:48:09</time>
      </trkpt>
      <trkpt lat="41.98978" lon="2.82207">
        <ele>62.4</ele>
        <time>2022-11-04 16:48:13</time>
      </trkpt>
      <trkpt lat="41.98989" lon="2.82169">
        <ele>62.8</ele>
        <time>2022-11-04 16:48:18</time>
      </trkpt>
      <trkpt lat="41.98995" lon="2.82153">
        <ele>63.2</ele>
        <time>2022-11-04 16:48:20</time>
      </trkpt>
      <trkpt lat="41.99006" lon="2.82124">
        <ele>64.4</ele>
        <time>2022-11-04 16:48:24</time>
      </trkpt>
      <trkpt lat="41.99012" lon="2.82113">
        <ele>64.8</ele>
        <time>2022-11-04 16:48:26</time>
      </trkpt>
      <trkpt lat="41.9902" lon="2.82097">
        <ele>65.4</ele>
        <time>2022-11-04 16:48:29</time>
      </trkpt>
      <trkpt lat="41.99029" lon="2.82088">
        <ele>65.6</ele>
        <time>2022-11-04 16:48:32</time>
      </trkpt>
      <trkpt lat="41.99053" lon="2.82077">
        <ele>66</ele>
        <time>2022-11-04 16:48:38</time>
      </trkpt>
      <trkpt lat="41.99101" lon="2.82059">
        <ele>66.2</ele>
        <time>2022-11-04 16:48:48</time>
      </trkpt>
      <trkpt lat="41.99142" lon="2.82044">
        <ele>65.6</ele>
        <time>2022-11-04 16:48:56</time>
      </trkpt>
      <trkpt lat="41.99193" lon="2.82025">
        <ele>65.2</ele>
        <time>2022-11-04 16:49:06</time>
      </trkpt>
      <trkpt lat="41.99207" lon="2.8202">
        <ele>65.2</ele>
        <time>2022-11-04 16:49:10</time>
      </trkpt>
      <trkpt lat="41.99215" lon="2.82019">
        <ele>65.2</ele>
        <time>2022-11-04 16:49:12</time>
      </trkpt>
      <trkpt lat="41.99224" lon="2.82016">
        <ele>65.2</ele>
        <time>2022-11-04 16:49:14</time>
      </trkpt>
      <trkpt lat="41.9926" lon="2.82001">
        <ele>64.8</ele>
        <time>2022-11-04 16:49:21</time>
      </trkpt>
      <trkpt lat="41.99314" lon="2.81982">
        <ele>65.4</ele>
        <time>2022-11-04 16:49:31</time>
      </trkpt>
      <trkpt lat="41.99349" lon="2.8197">
        <ele>65.6</ele>
        <time>2022-11-04 16:49:38</time>
      </trkpt>
      <trkpt lat="41.99364" lon="2.81967">
        <ele>65.4</ele>
        <time>2022-11-04 16:49:42</time>
      </trkpt>
      <trkpt lat="41.99375" lon="2.81963">
        <ele>65.4</ele>
        <time>2022-11-04 16:49:45</time>
      </trkpt>
      <trkpt lat="41.99379" lon="2.81961">
        <ele>65.4</ele>
        <time>2022-11-04 16:49:46</time>
      </trkpt>
      <trkpt lat="41.99411" lon="2.81955">
        <ele>65.6</ele>
        <time>2022-11-04 16:49:52</time>
      </trkpt>
      <trkpt lat="41.99445" lon="2.81951">
        <ele>65.6</ele>
        <time>2022-11-04 16:49:58</time>
      </trkpt>
      <trkpt lat="41.99485" lon="2.81949">
        <ele>65.6</ele>
        <time>2022-11-04 16:50:06</time>
      </trkpt>
      <trkpt lat="41.99532" lon="2.81947">
        <ele>65.2</ele>
        <time>2022-11-04 16:50:14</time>
      </trkpt>
      <trkpt lat="41.99562" lon="2.81948">
        <ele>65</ele>
        <time>2022-11-04 16:50:19</time>
      </trkpt>
      <trkpt lat="41.99587" lon="2.81947">
        <ele>64.8</ele>
        <time>2022-11-04 16:50:23</time>
      </trkpt>
      <trkpt lat="41.99636" lon="2.81945">
        <ele>64.8</ele>
        <time>2022-11-04 16:50:31</time>
      </trkpt>
      <trkpt lat="41.99678" lon="2.81942">
        <ele>64.8</ele>
        <time>2022-11-04 16:50:38</time>
      </trkpt>
      <trkpt lat="41.99725" lon="2.81941">
        <ele>65.4</ele>
        <time>2022-11-04 16:50:46</time>
      </trkpt>
      <trkpt lat="41.99769" lon="2.81937">
        <ele>65.4</ele>
        <time>2022-11-04 16:50:54</time>
      </trkpt>
      <trkpt lat="41.99803" lon="2.81925">
        <ele>65.6</ele>
        <time>2022-11-04 16:51:01</time>
      </trkpt>
      <trkpt lat="41.99814" lon="2.81923">
        <ele>66</ele>
        <time>2022-11-04 16:51:03</time>
      </trkpt>
      <trkpt lat="41.99825" lon="2.81929">
        <ele>66.2</ele>
        <time>2022-11-04 16:51:05</time>
      </trkpt>
      <trkpt lat="41.9983" lon="2.81942">
        <ele>65.4</ele>
        <time>2022-11-04 16:51:08</time>
      </trkpt>
      <trkpt lat="41.99826" lon="2.81957">
        <ele>65.2</ele>
        <time>2022-11-04 16:51:11</time>
      </trkpt>
      <trkpt lat="41.99827" lon="2.81959">
        <ele>65</ele>
        <time>2022-11-04 16:51:12</time>
      </trkpt>
      <trkpt lat="41.99827" lon="2.8196">
        <ele>64.6</ele>
        <time>2022-11-04 16:51:14</time>
      </trkpt>
      <trkpt lat="41.99827" lon="2.8196">
        <ele>64.4</ele>
        <time>2022-11-04 16:51:24</time>
      </trkpt>
      <trkpt lat="41.99827" lon="2.8196">
        <ele>64.4</ele>
        <time>2022-11-04 16:51:36</time>
      </trkpt>
      <trkpt lat="41.99827" lon="2.8196">
        <ele>64</ele>
        <time>2022-11-04 16:51:50</time>
      </trkpt>
      <trkpt lat="41.99827" lon="2.81959">
        <ele>64.2</ele>
        <time>2022-11-04 16:52:01</time>
      </trkpt>
      <trkpt lat="41.99832" lon="2.81946">
        <ele>64.2</ele>
        <time>2022-11-04 16:52:04</time>
      </trkpt>
      <trkpt lat="41.99845" lon="2.81939">
        <ele>64.6</ele>
        <time>2022-11-04 16:52:07</time>
      </trkpt>
      <trkpt lat="41.99855" lon="2.81939">
        <ele>64.8</ele>
        <time>2022-11-04 16:52:09</time>
      </trkpt>
      <trkpt lat="41.99865" lon="2.81939">
        <ele>64.8</ele>
        <time>2022-11-04 16:52:11</time>
      </trkpt>
      <trkpt lat="41.99884" lon="2.81936">
        <ele>64.6</ele>
        <time>2022-11-04 16:52:15</time>
      </trkpt>
      <trkpt lat="41.99888" lon="2.81934">
        <ele>64.6</ele>
        <time>2022-11-04 16:52:16</time>
      </trkpt>
      <trkpt lat="41.99897" lon="2.81928">
        <ele>64.6</ele>
        <time>2022-11-04 16:52:18</time>
      </trkpt>
      <trkpt lat="41.9991" lon="2.81916">
        <ele>65</ele>
        <time>2022-11-04 16:52:21</time>
      </trkpt>
      <trkpt lat="41.9994" lon="2.81889">
        <ele>65.4</ele>
        <time>2022-11-04 16:52:27</time>
      </trkpt>
      <trkpt lat="41.99956" lon="2.81873">
        <ele>65</ele>
        <time>2022-11-04 16:52:32</time>
      </trkpt>
      <trkpt lat="41.99965" lon="2.81865">
        <ele>65.4</ele>
        <time>2022-11-04 16:52:35</time>
      </trkpt>
      <trkpt lat="41.99968" lon="2.81861">
        <ele>65.4</ele>
        <time>2022-11-04 16:52:36</time>
      </trkpt>
      <trkpt lat="41.99994" lon="2.8183">
        <ele>65.6</ele>
        <time>2022-11-04 16:52:43</time>
      </trkpt>
      <trkpt lat="42.0002" lon="2.81802">
        <ele>65.4</ele>
        <time>2022-11-04 16:52:50</time>
      </trkpt>
      <trkpt lat="42.00023" lon="2.818">
        <ele>65.4</ele>
        <time>2022-11-04 16:52:51</time>
      </trkpt>
      <trkpt lat="42.00034" lon="2.81797">
        <ele>65.6</ele>
        <time>2022-11-04 16:52:54</time>
      </trkpt>
      <trkpt lat="42.00035" lon="2.81797">
        <ele>65.4</ele>
        <time>2022-11-04 16:52:55</time>
      </trkpt>
      <trkpt lat="42.00035" lon="2.81797">
        <ele>65.2</ele>
        <time>2022-11-04 16:52:56</time>
      </trkpt>
      <trkpt lat="42.00032" lon="2.81796">
        <ele>65.2</ele>
        <time>2022-11-04 16:52:58</time>
      </trkpt>
      <trkpt lat="42.00023" lon="2.8179">
        <ele>65.2</ele>
        <time>2022-11-04 16:53:01</time>
      </trkpt>
      <trkpt lat="42.00019" lon="2.81773">
        <ele>65.8</ele>
        <time>2022-11-04 16:53:04</time>
      </trkpt>
      <trkpt lat="42.0002" lon="2.8176">
        <ele>66.2</ele>
        <time>2022-11-04 16:53:06</time>
      </trkpt>
      <trkpt lat="42.00021" lon="2.81753">
        <ele>66.2</ele>
        <time>2022-11-04 16:53:07</time>
      </trkpt>
      <trkpt lat="42.00021" lon="2.81739">
        <ele>66</ele>
        <time>2022-11-04 16:53:09</time>
      </trkpt>
      <trkpt lat="42.00022" lon="2.81732">
        <ele>66</ele>
        <time>2022-11-04 16:53:10</time>
      </trkpt>
      <trkpt lat="42.00031" lon="2.81713">
        <ele>65.8</ele>
        <time>2022-11-04 16:53:13</time>
      </trkpt>
      <trkpt lat="42.00036" lon="2.81709">
        <ele>65.8</ele>
        <time>2022-11-04 16:53:14</time>
      </trkpt>
      <trkpt lat="42.00068" lon="2.81681">
        <ele>65.2</ele>
        <time>2022-11-04 16:53:20</time>
      </trkpt>
      <trkpt lat="42.00105" lon="2.81658">
        <ele>64.6</ele>
        <time>2022-11-04 16:53:26</time>
      </trkpt>
      <trkpt lat="42.00139" lon="2.81644">
        <ele>64.2</ele>
        <time>2022-11-04 16:53:31</time>
      </trkpt>
      <trkpt lat="42.00153" lon="2.8164">
        <ele>64.2</ele>
        <time>2022-11-04 16:53:33</time>
      </trkpt>
      <trkpt lat="42.00188" lon="2.81632">
        <ele>64</ele>
        <time>2022-11-04 16:53:38</time>
      </trkpt>
      <trkpt lat="42.00218" lon="2.81627">
        <ele>63.8</ele>
        <time>2022-11-04 16:53:42</time>
      </trkpt>
      <trkpt lat="42.00239" lon="2.81622">
        <ele>63.2</ele>
        <time>2022-11-04 16:53:45</time>
      </trkpt>
      <trkpt lat="42.00269" lon="2.81617">
        <ele>63</ele>
        <time>2022-11-04 16:53:49</time>
      </trkpt>
      <trkpt lat="42.00321" lon="2.81612">
        <ele>62.4</ele>
        <time>2022-11-04 16:53:56</time>
      </trkpt>
      <trkpt lat="42.00335" lon="2.81614">
        <ele>62</ele>
        <time>2022-11-04 16:53:58</time>
      </trkpt>
      <trkpt lat="42.00362" lon="2.8162">
        <ele>62</ele>
        <time>2022-11-04 16:54:02</time>
      </trkpt>
      <trkpt lat="42.00395" lon="2.81628">
        <ele>61.6</ele>
        <time>2022-11-04 16:54:07</time>
      </trkpt>
      <trkpt lat="42.00401" lon="2.81632">
        <ele>61.4</ele>
        <time>2022-11-04 16:54:08</time>
      </trkpt>
      <trkpt lat="42.00414" lon="2.81639">
        <ele>61.2</ele>
        <time>2022-11-04 16:54:10</time>
      </trkpt>
      <trkpt lat="42.0042" lon="2.8164">
        <ele>61</ele>
        <time>2022-11-04 16:54:11</time>
      </trkpt>
      <trkpt lat="42.00427" lon="2.8164">
        <ele>61</ele>
        <time>2022-11-04 16:54:12</time>
      </trkpt>
      <trkpt lat="42.0048" lon="2.81647">
        <ele>60.4</ele>
        <time>2022-11-04 16:54:20</time>
      </trkpt>
      <trkpt lat="42.00507" lon="2.81649">
        <ele>60</ele>
        <time>2022-11-04 16:54:24</time>
      </trkpt>
      <trkpt lat="42.00521" lon="2.81651">
        <ele>60</ele>
        <time>2022-11-04 16:54:26</time>
      </trkpt>
      <trkpt lat="42.00575" lon="2.81659">
        <ele>59.6</ele>
        <time>2022-11-04 16:54:34</time>
      </trkpt>
      <trkpt lat="42.00581" lon="2.8166">
        <ele>59.6</ele>
        <time>2022-11-04 16:54:35</time>
      </trkpt>
      <trkpt lat="42.00621" lon="2.81662">
        <ele>59</ele>
        <time>2022-11-04 16:54:41</time>
      </trkpt>
      <trkpt lat="42.00677" lon="2.81672">
        <ele>58.4</ele>
        <time>2022-11-04 16:54:49</time>
      </trkpt>
      <trkpt lat="42.00683" lon="2.81672">
        <ele>58.2</ele>
        <time>2022-11-04 16:54:50</time>
      </trkpt>
      <trkpt lat="42.00719" lon="2.81678">
        <ele>57.8</ele>
        <time>2022-11-04 16:54:55</time>
      </trkpt>
      <trkpt lat="42.00741" lon="2.81681">
        <ele>57.6</ele>
        <time>2022-11-04 16:54:58</time>
      </trkpt>
      <trkpt lat="42.00779" lon="2.81688">
        <ele>56.8</ele>
        <time>2022-11-04 16:55:04</time>
      </trkpt>
      <trkpt lat="42.00785" lon="2.8169">
        <ele>56.8</ele>
        <time>2022-11-04 16:55:05</time>
      </trkpt>
      <trkpt lat="42.0079" lon="2.81692">
        <ele>56.6</ele>
        <time>2022-11-04 16:55:06</time>
      </trkpt>
      <trkpt lat="42.00796" lon="2.81694">
        <ele>56</ele>
        <time>2022-11-04 16:55:08</time>
      </trkpt>
      <trkpt lat="42.00798" lon="2.81695">
        <ele>55.4</ele>
        <time>2022-11-04 16:55:10</time>
      </trkpt>
      <trkpt lat="42.00798" lon="2.81695">
        <ele>55</ele>
        <time>2022-11-04 16:55:12</time>
      </trkpt>
      <trkpt lat="42.00798" lon="2.81695">
        <ele>54.8</ele>
        <time>2022-11-04 16:55:29</time>
      </trkpt>
      <trkpt lat="42.00797" lon="2.81693">
        <ele>55.4</ele>
        <time>2022-11-04 16:55:46</time>
      </trkpt>
      <trkpt lat="42.00799" lon="2.81691">
        <ele>55.6</ele>
        <time>2022-11-04 16:55:52</time>
      </trkpt>
      <trkpt lat="42.0081" lon="2.81691">
        <ele>55.6</ele>
        <time>2022-11-04 16:55:57</time>
      </trkpt>
      <trkpt lat="42.00822" lon="2.81694">
        <ele>55.8</ele>
        <time>2022-11-04 16:56:00</time>
      </trkpt>
      <trkpt lat="42.0083" lon="2.81695">
        <ele>55.8</ele>
        <time>2022-11-04 16:56:02</time>
      </trkpt>
      <trkpt lat="42.00856" lon="2.81699">
        <ele>56.2</ele>
        <time>2022-11-04 16:56:08</time>
      </trkpt>
      <trkpt lat="42.00867" lon="2.81704">
        <ele>56.2</ele>
        <time>2022-11-04 16:56:11</time>
      </trkpt>
      <trkpt lat="42.00871" lon="2.81708">
        <ele>56.2</ele>
        <time>2022-11-04 16:56:12</time>
      </trkpt>
      <trkpt lat="42.00881" lon="2.81722">
        <ele>56.4</ele>
        <time>2022-11-04 16:56:15</time>
      </trkpt>
      <trkpt lat="42.00885" lon="2.81726">
        <ele>56.2</ele>
        <time>2022-11-04 16:56:16</time>
      </trkpt>
      <trkpt lat="42.00893" lon="2.81732">
        <ele>56.2</ele>
        <time>2022-11-04 16:56:18</time>
      </trkpt>
      <trkpt lat="42.00928" lon="2.81755">
        <ele>56.4</ele>
        <time>2022-11-04 16:56:26</time>
      </trkpt>
      <trkpt lat="42.0095" lon="2.81768">
        <ele>56.2</ele>
        <time>2022-11-04 16:56:31</time>
      </trkpt>
      <trkpt lat="42.00991" lon="2.81797">
        <ele>56.2</ele>
        <time>2022-11-04 16:56:40</time>
      </trkpt>
      <trkpt lat="42.01022" lon="2.8182">
        <ele>56.2</ele>
        <time>2022-11-04 16:56:47</time>
      </trkpt>
    </trkseg>
  </trk>
</gpx>
